<?xml version="1.0" encoding="UTF-8" standalone="no" ?>
<gpx xmlns="http://www.topografix.com/GPX/1/1" xmlns:xsi="http://www.w3.org/2001/XMLSchema-instance" xsi:schemaLocation="http://www.topografix.com/GPX/1/1 http://www.topografix.com/GPX/1/1/gpx.xsd" version="1.1" creator="VisuGPX - https://www.visugpx.com">
  <metadata>
    <name>20180526-lacs</name>
    <desc><![CDATA[Tous au départ jusqu’au vieux pont de Castellane. Hervé, Daniel et Daniel optent pour la traversée sur le gué du Verdon. Ça passe mais c’est glissant et l’eau monte jusqu’aux genoux. Le groupe se reforme jusqu’à la montée vers Demandolx. Hervé, Jean-Luc et Michèle cherchent le passage vers le barrage de Castillon dans le ravin mais sans succès. Pique-nique et Michèle rentre à Castellane. André et les autres partent sur un sentier sur le flanc de la crête de Crémon puis descendent sur St Julien où nous nous retrouvons.
Retour par le barrage puis le col de Cheiron et belle descente VTT sur Castellane. 42 km, 900 m.
Le soir tous au restaurant en vélo !]]></desc>
  </metadata>
  <trk>
    <name><![CDATA[20180526-101508-173005-x-hm-MNT]]></name>
    <trkseg>
      <trkpt lat="43.83765" lon="6.4958">
        <ele>719</ele>
        <time>2018-05-26T08:15:08Z</time>
      </trkpt>
      <trkpt lat="43.83771" lon="6.49586">
        <ele>719</ele>
        <time>2018-05-26T08:15:21Z</time>
      </trkpt>
      <trkpt lat="43.83777" lon="6.49584">
        <ele>719</ele>
        <time>2018-05-26T08:15:25Z</time>
      </trkpt>
      <trkpt lat="43.83782" lon="6.4958">
        <ele>719</ele>
        <time>2018-05-26T08:15:29Z</time>
      </trkpt>
      <trkpt lat="43.83782" lon="6.49574">
        <ele>718</ele>
        <time>2018-05-26T08:15:33Z</time>
      </trkpt>
      <trkpt lat="43.83782" lon="6.49568">
        <ele>718</ele>
        <time>2018-05-26T08:15:36Z</time>
      </trkpt>
      <trkpt lat="43.83779" lon="6.49548">
        <ele>717</ele>
        <time>2018-05-26T08:15:45Z</time>
      </trkpt>
      <trkpt lat="43.83771" lon="6.49509">
        <ele>716</ele>
        <time>2018-05-26T08:16:00Z</time>
      </trkpt>
      <trkpt lat="43.83779" lon="6.49479">
        <ele>715</ele>
        <time>2018-05-26T08:16:10Z</time>
      </trkpt>
      <trkpt lat="43.83804" lon="6.49468">
        <ele>715</ele>
        <time>2018-05-26T08:16:21Z</time>
      </trkpt>
      <trkpt lat="43.83842" lon="6.49454">
        <ele>717</ele>
        <time>2018-05-26T08:16:35Z</time>
      </trkpt>
      <trkpt lat="43.83877" lon="6.49455">
        <ele>717</ele>
        <time>2018-05-26T08:16:49Z</time>
      </trkpt>
      <trkpt lat="43.83914" lon="6.49456">
        <ele>717</ele>
        <time>2018-05-26T08:17:02Z</time>
      </trkpt>
      <trkpt lat="43.83944" lon="6.4946">
        <ele>717</ele>
        <time>2018-05-26T08:17:15Z</time>
      </trkpt>
      <trkpt lat="43.83949" lon="6.49466">
        <ele>717</ele>
        <time>2018-05-26T08:17:18Z</time>
      </trkpt>
      <trkpt lat="43.83952" lon="6.49487">
        <ele>717</ele>
        <time>2018-05-26T08:17:25Z</time>
      </trkpt>
      <trkpt lat="43.83966" lon="6.49546">
        <ele>718</ele>
        <time>2018-05-26T08:17:41Z</time>
      </trkpt>
      <trkpt lat="43.83974" lon="6.49554">
        <ele>718</ele>
        <time>2018-05-26T08:17:45Z</time>
      </trkpt>
      <trkpt lat="43.83967" lon="6.49568">
        <ele>719</ele>
        <time>2018-05-26T08:17:55Z</time>
      </trkpt>
      <trkpt lat="43.83968" lon="6.49571">
        <ele>719</ele>
        <time>2018-05-26T08:17:56Z</time>
      </trkpt>
      <trkpt lat="43.83986" lon="6.49613">
        <ele>719</ele>
        <time>2018-05-26T08:18:12Z</time>
      </trkpt>
      <trkpt lat="43.84005" lon="6.49657">
        <ele>719</ele>
        <time>2018-05-26T08:18:27Z</time>
      </trkpt>
      <trkpt lat="43.84025" lon="6.49701">
        <ele>719</ele>
        <time>2018-05-26T08:18:42Z</time>
      </trkpt>
      <trkpt lat="43.8405" lon="6.49757">
        <ele>719</ele>
        <time>2018-05-26T08:18:58Z</time>
      </trkpt>
      <trkpt lat="43.84074" lon="6.49811">
        <ele>719</ele>
        <time>2018-05-26T08:19:13Z</time>
      </trkpt>
      <trkpt lat="43.84102" lon="6.49879">
        <ele>720</ele>
        <time>2018-05-26T08:19:30Z</time>
      </trkpt>
      <trkpt lat="43.84126" lon="6.49937">
        <ele>719</ele>
        <time>2018-05-26T08:19:45Z</time>
      </trkpt>
      <trkpt lat="43.84142" lon="6.49976">
        <ele>719</ele>
        <time>2018-05-26T08:19:58Z</time>
      </trkpt>
      <trkpt lat="43.84152" lon="6.5">
        <ele>719</ele>
        <time>2018-05-26T08:20:09Z</time>
      </trkpt>
      <trkpt lat="43.84154" lon="6.50002">
        <ele>719</ele>
        <time>2018-05-26T08:20:10Z</time>
      </trkpt>
      <trkpt lat="43.84155" lon="6.50005">
        <ele>719</ele>
        <time>2018-05-26T08:20:11Z</time>
      </trkpt>
      <trkpt lat="43.84177" lon="6.50059">
        <ele>719</ele>
        <time>2018-05-26T08:20:26Z</time>
      </trkpt>
      <trkpt lat="43.84198" lon="6.50108">
        <ele>719</ele>
        <time>2018-05-26T08:20:41Z</time>
      </trkpt>
      <trkpt lat="43.84217" lon="6.50149">
        <ele>719</ele>
        <time>2018-05-26T08:20:57Z</time>
      </trkpt>
      <trkpt lat="43.84238" lon="6.50198">
        <ele>719</ele>
        <time>2018-05-26T08:21:13Z</time>
      </trkpt>
      <trkpt lat="43.84265" lon="6.5026">
        <ele>719</ele>
        <time>2018-05-26T08:21:30Z</time>
      </trkpt>
      <trkpt lat="43.84289" lon="6.50317">
        <ele>719</ele>
        <time>2018-05-26T08:21:46Z</time>
      </trkpt>
      <trkpt lat="43.84311" lon="6.50368">
        <ele>719</ele>
        <time>2018-05-26T08:22:01Z</time>
      </trkpt>
      <trkpt lat="43.84326" lon="6.50409">
        <ele>719</ele>
        <time>2018-05-26T08:22:15Z</time>
      </trkpt>
      <trkpt lat="43.84341" lon="6.50476">
        <ele>719</ele>
        <time>2018-05-26T08:22:30Z</time>
      </trkpt>
      <trkpt lat="43.8436" lon="6.50553">
        <ele>719</ele>
        <time>2018-05-26T08:22:45Z</time>
      </trkpt>
      <trkpt lat="43.84376" lon="6.50618">
        <ele>719</ele>
        <time>2018-05-26T08:22:58Z</time>
      </trkpt>
      <trkpt lat="43.84392" lon="6.5068">
        <ele>719</ele>
        <time>2018-05-26T08:23:12Z</time>
      </trkpt>
      <trkpt lat="43.84412" lon="6.50757">
        <ele>721</ele>
        <time>2018-05-26T08:23:29Z</time>
      </trkpt>
      <trkpt lat="43.84434" lon="6.50841">
        <ele>722</ele>
        <time>2018-05-26T08:23:47Z</time>
      </trkpt>
      <trkpt lat="43.84452" lon="6.50913">
        <ele>722</ele>
        <time>2018-05-26T08:24:03Z</time>
      </trkpt>
      <trkpt lat="43.8447" lon="6.50988">
        <ele>722</ele>
        <time>2018-05-26T08:24:18Z</time>
      </trkpt>
      <trkpt lat="43.84491" lon="6.51069">
        <ele>723</ele>
        <time>2018-05-26T08:24:35Z</time>
      </trkpt>
      <trkpt lat="43.84509" lon="6.51149">
        <ele>722</ele>
        <time>2018-05-26T08:24:52Z</time>
      </trkpt>
      <trkpt lat="43.84521" lon="6.5123">
        <ele>721</ele>
        <time>2018-05-26T08:25:09Z</time>
      </trkpt>
      <trkpt lat="43.84539" lon="6.51277">
        <ele>721</ele>
        <time>2018-05-26T08:25:23Z</time>
      </trkpt>
      <trkpt lat="43.84539" lon="6.5128">
        <ele>721</ele>
        <time>2018-05-26T08:25:33Z</time>
      </trkpt>
      <trkpt lat="43.84539" lon="6.51282">
        <ele>721</ele>
        <time>2018-05-26T08:25:34Z</time>
      </trkpt>
      <trkpt lat="43.84539" lon="6.51284">
        <ele>721</ele>
        <time>2018-05-26T08:25:47Z</time>
      </trkpt>
      <trkpt lat="43.84539" lon="6.51285">
        <ele>721</ele>
        <time>2018-05-26T08:26:14Z</time>
      </trkpt>
      <trkpt lat="43.84542" lon="6.51289">
        <ele>721</ele>
        <time>2018-05-26T08:26:29Z</time>
      </trkpt>
      <trkpt lat="43.84543" lon="6.5129">
        <ele>721</ele>
        <time>2018-05-26T08:26:30Z</time>
      </trkpt>
      <trkpt lat="43.84543" lon="6.51292">
        <ele>721</ele>
        <time>2018-05-26T08:26:31Z</time>
      </trkpt>
      <trkpt lat="43.84544" lon="6.51294">
        <ele>721</ele>
        <time>2018-05-26T08:26:32Z</time>
      </trkpt>
      <trkpt lat="43.84545" lon="6.51297">
        <ele>721</ele>
        <time>2018-05-26T08:26:33Z</time>
      </trkpt>
      <trkpt lat="43.84557" lon="6.51331">
        <ele>722</ele>
        <time>2018-05-26T08:26:47Z</time>
      </trkpt>
      <trkpt lat="43.84562" lon="6.51344">
        <ele>722</ele>
        <time>2018-05-26T08:26:52Z</time>
      </trkpt>
      <trkpt lat="43.84563" lon="6.51347">
        <ele>722</ele>
        <time>2018-05-26T08:26:53Z</time>
      </trkpt>
      <trkpt lat="43.84564" lon="6.5135">
        <ele>722</ele>
        <time>2018-05-26T08:26:54Z</time>
      </trkpt>
      <trkpt lat="43.84565" lon="6.51354">
        <ele>722</ele>
        <time>2018-05-26T08:26:55Z</time>
      </trkpt>
      <trkpt lat="43.84566" lon="6.51357">
        <ele>722</ele>
        <time>2018-05-26T08:26:56Z</time>
      </trkpt>
      <trkpt lat="43.84567" lon="6.5136">
        <ele>722</ele>
        <time>2018-05-26T08:26:57Z</time>
      </trkpt>
      <trkpt lat="43.84568" lon="6.51364">
        <ele>722</ele>
        <time>2018-05-26T08:26:58Z</time>
      </trkpt>
      <trkpt lat="43.84582" lon="6.5141">
        <ele>722</ele>
        <time>2018-05-26T08:27:12Z</time>
      </trkpt>
      <trkpt lat="43.84594" lon="6.51442">
        <ele>723</ele>
        <time>2018-05-26T08:27:23Z</time>
      </trkpt>
      <trkpt lat="43.84617" lon="6.5147">
        <ele>726</ele>
        <time>2018-05-26T08:27:34Z</time>
      </trkpt>
      <trkpt lat="43.8464" lon="6.51501">
        <ele>732</ele>
        <time>2018-05-26T08:27:49Z</time>
      </trkpt>
      <trkpt lat="43.84641" lon="6.51516">
        <ele>734</ele>
        <time>2018-05-26T08:27:55Z</time>
      </trkpt>
      <trkpt lat="43.8464" lon="6.51519">
        <ele>734</ele>
        <time>2018-05-26T08:27:56Z</time>
      </trkpt>
      <trkpt lat="43.84639" lon="6.51522">
        <ele>734</ele>
        <time>2018-05-26T08:27:57Z</time>
      </trkpt>
      <trkpt lat="43.84639" lon="6.51524">
        <ele>735</ele>
        <time>2018-05-26T08:27:58Z</time>
      </trkpt>
      <trkpt lat="43.84638" lon="6.51527">
        <ele>735</ele>
        <time>2018-05-26T08:27:59Z</time>
      </trkpt>
      <trkpt lat="43.84638" lon="6.51529">
        <ele>735</ele>
        <time>2018-05-26T08:28:00Z</time>
      </trkpt>
      <trkpt lat="43.84637" lon="6.51531">
        <ele>735</ele>
        <time>2018-05-26T08:28:01Z</time>
      </trkpt>
      <trkpt lat="43.84627" lon="6.51562">
        <ele>736</ele>
        <time>2018-05-26T08:28:13Z</time>
      </trkpt>
      <trkpt lat="43.84614" lon="6.51597">
        <ele>737</ele>
        <time>2018-05-26T08:28:27Z</time>
      </trkpt>
      <trkpt lat="43.84602" lon="6.51626">
        <ele>738</ele>
        <time>2018-05-26T08:28:39Z</time>
      </trkpt>
      <trkpt lat="43.84582" lon="6.51655">
        <ele>746</ele>
        <time>2018-05-26T08:28:52Z</time>
      </trkpt>
      <trkpt lat="43.84578" lon="6.5166">
        <ele>746</ele>
        <time>2018-05-26T08:28:56Z</time>
      </trkpt>
      <trkpt lat="43.84576" lon="6.51662">
        <ele>746</ele>
        <time>2018-05-26T08:28:57Z</time>
      </trkpt>
      <trkpt lat="43.84574" lon="6.51662">
        <ele>744</ele>
        <time>2018-05-26T08:28:58Z</time>
      </trkpt>
      <trkpt lat="43.84572" lon="6.51662">
        <ele>742</ele>
        <time>2018-05-26T08:28:59Z</time>
      </trkpt>
      <trkpt lat="43.8457" lon="6.51661">
        <ele>739</ele>
        <time>2018-05-26T08:29:00Z</time>
      </trkpt>
      <trkpt lat="43.84568" lon="6.51661">
        <ele>737</ele>
        <time>2018-05-26T08:29:01Z</time>
      </trkpt>
      <trkpt lat="43.84566" lon="6.5166">
        <ele>735</ele>
        <time>2018-05-26T08:29:02Z</time>
      </trkpt>
      <trkpt lat="43.84564" lon="6.51659">
        <ele>733</ele>
        <time>2018-05-26T08:29:03Z</time>
      </trkpt>
      <trkpt lat="43.84563" lon="6.51659">
        <ele>731</ele>
        <time>2018-05-26T08:29:04Z</time>
      </trkpt>
      <trkpt lat="43.84561" lon="6.51659">
        <ele>730</ele>
        <time>2018-05-26T08:29:05Z</time>
      </trkpt>
      <trkpt lat="43.84559" lon="6.51663">
        <ele>731</ele>
        <time>2018-05-26T08:29:18Z</time>
      </trkpt>
      <trkpt lat="43.84559" lon="6.51661">
        <ele>731</ele>
        <time>2018-05-26T08:29:42Z</time>
      </trkpt>
      <trkpt lat="43.84558" lon="6.5166">
        <ele>731</ele>
        <time>2018-05-26T08:30:00Z</time>
      </trkpt>
      <trkpt lat="43.84557" lon="6.51655">
        <ele>729</ele>
        <time>2018-05-26T08:30:16Z</time>
      </trkpt>
      <trkpt lat="43.84554" lon="6.51652">
        <ele>729</ele>
        <time>2018-05-26T08:30:38Z</time>
      </trkpt>
      <trkpt lat="43.84555" lon="6.51656">
        <ele>730</ele>
        <time>2018-05-26T08:31:06Z</time>
      </trkpt>
      <trkpt lat="43.84562" lon="6.51653">
        <ele>728</ele>
        <time>2018-05-26T08:31:31Z</time>
      </trkpt>
      <trkpt lat="43.84558" lon="6.51654">
        <ele>729</ele>
        <time>2018-05-26T08:31:54Z</time>
      </trkpt>
      <trkpt lat="43.8456" lon="6.51655">
        <ele>729</ele>
        <time>2018-05-26T08:32:26Z</time>
      </trkpt>
      <trkpt lat="43.84557" lon="6.51656">
        <ele>730</ele>
        <time>2018-05-26T08:32:53Z</time>
      </trkpt>
      <trkpt lat="43.84557" lon="6.51655">
        <ele>729</ele>
        <time>2018-05-26T08:33:24Z</time>
      </trkpt>
      <trkpt lat="43.84559" lon="6.51657">
        <ele>730</ele>
        <time>2018-05-26T08:33:35Z</time>
      </trkpt>
      <trkpt lat="43.84562" lon="6.51659">
        <ele>730</ele>
        <time>2018-05-26T08:33:41Z</time>
      </trkpt>
      <trkpt lat="43.84577" lon="6.51666">
        <ele>750</ele>
        <time>2018-05-26T08:33:46Z</time>
      </trkpt>
      <trkpt lat="43.84579" lon="6.5167">
        <ele>754</ele>
        <time>2018-05-26T08:33:47Z</time>
      </trkpt>
      <trkpt lat="43.84578" lon="6.51677">
        <ele>759</ele>
        <time>2018-05-26T08:33:48Z</time>
      </trkpt>
      <trkpt lat="43.84577" lon="6.5169">
        <ele>765</ele>
        <time>2018-05-26T08:33:50Z</time>
      </trkpt>
      <trkpt lat="43.84578" lon="6.51716">
        <ele>794</ele>
        <time>2018-05-26T08:33:53Z</time>
      </trkpt>
      <trkpt lat="43.84577" lon="6.51728">
        <ele>806</ele>
        <time>2018-05-26T08:33:54Z</time>
      </trkpt>
      <trkpt lat="43.84576" lon="6.5174">
        <ele>817</ele>
        <time>2018-05-26T08:33:55Z</time>
      </trkpt>
      <trkpt lat="43.84573" lon="6.51753">
        <ele>826</ele>
        <time>2018-05-26T08:33:56Z</time>
      </trkpt>
      <trkpt lat="43.8457" lon="6.51765">
        <ele>820</ele>
        <time>2018-05-26T08:33:57Z</time>
      </trkpt>
      <trkpt lat="43.84566" lon="6.51776">
        <ele>808</ele>
        <time>2018-05-26T08:33:58Z</time>
      </trkpt>
      <trkpt lat="43.84562" lon="6.51786">
        <ele>794</ele>
        <time>2018-05-26T08:33:59Z</time>
      </trkpt>
      <trkpt lat="43.84556" lon="6.51794">
        <ele>779</ele>
        <time>2018-05-26T08:34:00Z</time>
      </trkpt>
      <trkpt lat="43.84554" lon="6.51804">
        <ele>772</ele>
        <time>2018-05-26T08:34:01Z</time>
      </trkpt>
      <trkpt lat="43.84554" lon="6.51813">
        <ele>767</ele>
        <time>2018-05-26T08:34:02Z</time>
      </trkpt>
      <trkpt lat="43.84555" lon="6.51821">
        <ele>764</ele>
        <time>2018-05-26T08:34:03Z</time>
      </trkpt>
      <trkpt lat="43.84557" lon="6.51829">
        <ele>763</ele>
        <time>2018-05-26T08:34:04Z</time>
      </trkpt>
      <trkpt lat="43.84565" lon="6.5186">
        <ele>755</ele>
        <time>2018-05-26T08:34:08Z</time>
      </trkpt>
      <trkpt lat="43.84567" lon="6.51867">
        <ele>752</ele>
        <time>2018-05-26T08:34:09Z</time>
      </trkpt>
      <trkpt lat="43.84567" lon="6.51874">
        <ele>747</ele>
        <time>2018-05-26T08:34:10Z</time>
      </trkpt>
      <trkpt lat="43.84568" lon="6.5188">
        <ele>742</ele>
        <time>2018-05-26T08:34:11Z</time>
      </trkpt>
      <trkpt lat="43.84569" lon="6.51884">
        <ele>742</ele>
        <time>2018-05-26T08:34:12Z</time>
      </trkpt>
      <trkpt lat="43.84579" lon="6.5194">
        <ele>737</ele>
        <time>2018-05-26T08:34:23Z</time>
      </trkpt>
      <trkpt lat="43.84582" lon="6.51954">
        <ele>737</ele>
        <time>2018-05-26T08:34:25Z</time>
      </trkpt>
      <trkpt lat="43.84585" lon="6.51999">
        <ele>735</ele>
        <time>2018-05-26T08:34:32Z</time>
      </trkpt>
      <trkpt lat="43.84575" lon="6.52082">
        <ele>739</ele>
        <time>2018-05-26T08:34:47Z</time>
      </trkpt>
      <trkpt lat="43.84568" lon="6.52123">
        <ele>743</ele>
        <time>2018-05-26T08:34:56Z</time>
      </trkpt>
      <trkpt lat="43.84557" lon="6.52184">
        <ele>738</ele>
        <time>2018-05-26T08:35:09Z</time>
      </trkpt>
      <trkpt lat="43.84548" lon="6.52274">
        <ele>741</ele>
        <time>2018-05-26T08:35:22Z</time>
      </trkpt>
      <trkpt lat="43.84545" lon="6.52322">
        <ele>743</ele>
        <time>2018-05-26T08:35:30Z</time>
      </trkpt>
      <trkpt lat="43.84545" lon="6.52329">
        <ele>744</ele>
        <time>2018-05-26T08:35:31Z</time>
      </trkpt>
      <trkpt lat="43.84545" lon="6.52334">
        <ele>745</ele>
        <time>2018-05-26T08:35:32Z</time>
      </trkpt>
      <trkpt lat="43.84545" lon="6.52339">
        <ele>745</ele>
        <time>2018-05-26T08:35:33Z</time>
      </trkpt>
      <trkpt lat="43.84545" lon="6.52343">
        <ele>746</ele>
        <time>2018-05-26T08:35:34Z</time>
      </trkpt>
      <trkpt lat="43.84544" lon="6.52346">
        <ele>745</ele>
        <time>2018-05-26T08:35:35Z</time>
      </trkpt>
      <trkpt lat="43.8453" lon="6.52379">
        <ele>742</ele>
        <time>2018-05-26T08:35:47Z</time>
      </trkpt>
      <trkpt lat="43.8453" lon="6.52382">
        <ele>743</ele>
        <time>2018-05-26T08:35:48Z</time>
      </trkpt>
      <trkpt lat="43.84531" lon="6.52415">
        <ele>746</ele>
        <time>2018-05-26T08:36:00Z</time>
      </trkpt>
      <trkpt lat="43.8453" lon="6.52422">
        <ele>746</ele>
        <time>2018-05-26T08:36:04Z</time>
      </trkpt>
      <trkpt lat="43.8453" lon="6.52417">
        <ele>745</ele>
        <time>2018-05-26T08:36:07Z</time>
      </trkpt>
      <trkpt lat="43.84529" lon="6.52413">
        <ele>745</ele>
        <time>2018-05-26T08:36:08Z</time>
      </trkpt>
      <trkpt lat="43.84528" lon="6.52409">
        <ele>744</ele>
        <time>2018-05-26T08:36:09Z</time>
      </trkpt>
      <trkpt lat="43.84527" lon="6.52404">
        <ele>744</ele>
        <time>2018-05-26T08:36:10Z</time>
      </trkpt>
      <trkpt lat="43.84527" lon="6.52393">
        <ele>743</ele>
        <time>2018-05-26T08:36:12Z</time>
      </trkpt>
      <trkpt lat="43.84528" lon="6.52389">
        <ele>743</ele>
        <time>2018-05-26T08:36:13Z</time>
      </trkpt>
      <trkpt lat="43.84529" lon="6.52383">
        <ele>742</ele>
        <time>2018-05-26T08:36:15Z</time>
      </trkpt>
      <trkpt lat="43.84528" lon="6.52381">
        <ele>742</ele>
        <time>2018-05-26T08:36:16Z</time>
      </trkpt>
      <trkpt lat="43.84526" lon="6.52381">
        <ele>741</ele>
        <time>2018-05-26T08:36:17Z</time>
      </trkpt>
      <trkpt lat="43.84524" lon="6.52382">
        <ele>741</ele>
        <time>2018-05-26T08:36:18Z</time>
      </trkpt>
      <trkpt lat="43.84523" lon="6.52384">
        <ele>741</ele>
        <time>2018-05-26T08:36:19Z</time>
      </trkpt>
      <trkpt lat="43.84522" lon="6.52387">
        <ele>741</ele>
        <time>2018-05-26T08:36:20Z</time>
      </trkpt>
      <trkpt lat="43.84522" lon="6.52391">
        <ele>741</ele>
        <time>2018-05-26T08:36:21Z</time>
      </trkpt>
      <trkpt lat="43.84521" lon="6.52396">
        <ele>741</ele>
        <time>2018-05-26T08:36:22Z</time>
      </trkpt>
      <trkpt lat="43.84521" lon="6.52401">
        <ele>742</ele>
        <time>2018-05-26T08:36:23Z</time>
      </trkpt>
      <trkpt lat="43.84514" lon="6.52456">
        <ele>743</ele>
        <time>2018-05-26T08:36:35Z</time>
      </trkpt>
      <trkpt lat="43.84498" lon="6.52482">
        <ele>740</ele>
        <time>2018-05-26T08:36:43Z</time>
      </trkpt>
      <trkpt lat="43.84492" lon="6.525">
        <ele>739</ele>
        <time>2018-05-26T08:36:47Z</time>
      </trkpt>
      <trkpt lat="43.84486" lon="6.52522">
        <ele>739</ele>
        <time>2018-05-26T08:36:50Z</time>
      </trkpt>
      <trkpt lat="43.84482" lon="6.5256">
        <ele>740</ele>
        <time>2018-05-26T08:36:56Z</time>
      </trkpt>
      <trkpt lat="43.84474" lon="6.5257">
        <ele>740</ele>
        <time>2018-05-26T08:37:02Z</time>
      </trkpt>
      <trkpt lat="43.8447" lon="6.52586">
        <ele>740</ele>
        <time>2018-05-26T08:37:10Z</time>
      </trkpt>
      <trkpt lat="43.84462" lon="6.52606">
        <ele>739</ele>
        <time>2018-05-26T08:37:24Z</time>
      </trkpt>
      <trkpt lat="43.84457" lon="6.52622">
        <ele>739</ele>
        <time>2018-05-26T08:37:34Z</time>
      </trkpt>
      <trkpt lat="43.84441" lon="6.5265">
        <ele>735</ele>
        <time>2018-05-26T08:37:49Z</time>
      </trkpt>
      <trkpt lat="43.84415" lon="6.52695">
        <ele>734</ele>
        <time>2018-05-26T08:38:05Z</time>
      </trkpt>
      <trkpt lat="43.84411" lon="6.52727">
        <ele>733</ele>
        <time>2018-05-26T08:38:16Z</time>
      </trkpt>
      <trkpt lat="43.84417" lon="6.52752">
        <ele>733</ele>
        <time>2018-05-26T08:38:27Z</time>
      </trkpt>
      <trkpt lat="43.84424" lon="6.52768">
        <ele>733</ele>
        <time>2018-05-26T08:38:36Z</time>
      </trkpt>
      <trkpt lat="43.8443" lon="6.52776">
        <ele>733</ele>
        <time>2018-05-26T08:38:41Z</time>
      </trkpt>
      <trkpt lat="43.84436" lon="6.52797">
        <ele>734</ele>
        <time>2018-05-26T08:38:55Z</time>
      </trkpt>
      <trkpt lat="43.84436" lon="6.5281">
        <ele>735</ele>
        <time>2018-05-26T08:39:10Z</time>
      </trkpt>
      <trkpt lat="43.84442" lon="6.52838">
        <ele>736</ele>
        <time>2018-05-26T08:39:26Z</time>
      </trkpt>
      <trkpt lat="43.84445" lon="6.52863">
        <ele>738</ele>
        <time>2018-05-26T08:39:42Z</time>
      </trkpt>
      <trkpt lat="43.84445" lon="6.52863">
        <ele>738</ele>
        <time>2018-05-26T08:40:04Z</time>
      </trkpt>
      <trkpt lat="43.84448" lon="6.52866">
        <ele>739</ele>
        <time>2018-05-26T08:40:28Z</time>
      </trkpt>
      <trkpt lat="43.84451" lon="6.52867">
        <ele>739</ele>
        <time>2018-05-26T08:41:00Z</time>
      </trkpt>
      <trkpt lat="43.84447" lon="6.52866">
        <ele>738</ele>
        <time>2018-05-26T08:41:29Z</time>
      </trkpt>
      <trkpt lat="43.84448" lon="6.52863">
        <ele>738</ele>
        <time>2018-05-26T08:41:53Z</time>
      </trkpt>
      <trkpt lat="43.84449" lon="6.52865">
        <ele>739</ele>
        <time>2018-05-26T08:42:23Z</time>
      </trkpt>
      <trkpt lat="43.84455" lon="6.52863">
        <ele>739</ele>
        <time>2018-05-26T08:42:43Z</time>
      </trkpt>
      <trkpt lat="43.8445" lon="6.52866">
        <ele>739</ele>
        <time>2018-05-26T08:43:10Z</time>
      </trkpt>
      <trkpt lat="43.84449" lon="6.52868">
        <ele>739</ele>
        <time>2018-05-26T08:43:36Z</time>
      </trkpt>
      <trkpt lat="43.84446" lon="6.52878">
        <ele>738</ele>
        <time>2018-05-26T08:43:51Z</time>
      </trkpt>
      <trkpt lat="43.84443" lon="6.52891">
        <ele>738</ele>
        <time>2018-05-26T08:44:09Z</time>
      </trkpt>
      <trkpt lat="43.84443" lon="6.52903">
        <ele>738</ele>
        <time>2018-05-26T08:44:27Z</time>
      </trkpt>
      <trkpt lat="43.84441" lon="6.52917">
        <ele>737</ele>
        <time>2018-05-26T08:44:46Z</time>
      </trkpt>
      <trkpt lat="43.84439" lon="6.52922">
        <ele>737</ele>
        <time>2018-05-26T08:45:03Z</time>
      </trkpt>
      <trkpt lat="43.8444" lon="6.52926">
        <ele>737</ele>
        <time>2018-05-26T08:45:09Z</time>
      </trkpt>
      <trkpt lat="43.84441" lon="6.52932">
        <ele>737</ele>
        <time>2018-05-26T08:45:23Z</time>
      </trkpt>
      <trkpt lat="43.84443" lon="6.52934">
        <ele>737</ele>
        <time>2018-05-26T08:45:51Z</time>
      </trkpt>
      <trkpt lat="43.84441" lon="6.52934">
        <ele>737</ele>
        <time>2018-05-26T08:46:17Z</time>
      </trkpt>
      <trkpt lat="43.8444" lon="6.52935">
        <ele>737</ele>
        <time>2018-05-26T08:46:52Z</time>
      </trkpt>
      <trkpt lat="43.84442" lon="6.52932">
        <ele>737</ele>
        <time>2018-05-26T08:47:24Z</time>
      </trkpt>
      <trkpt lat="43.84445" lon="6.52929">
        <ele>737</ele>
        <time>2018-05-26T08:47:57Z</time>
      </trkpt>
      <trkpt lat="43.84444" lon="6.52931">
        <ele>737</ele>
        <time>2018-05-26T08:48:31Z</time>
      </trkpt>
      <trkpt lat="43.84443" lon="6.52935">
        <ele>737</ele>
        <time>2018-05-26T08:49:08Z</time>
      </trkpt>
      <trkpt lat="43.84439" lon="6.52939">
        <ele>737</ele>
        <time>2018-05-26T08:49:35Z</time>
      </trkpt>
      <trkpt lat="43.84437" lon="6.52945">
        <ele>737</ele>
        <time>2018-05-26T08:49:41Z</time>
      </trkpt>
      <trkpt lat="43.84434" lon="6.52953">
        <ele>736</ele>
        <time>2018-05-26T08:49:46Z</time>
      </trkpt>
      <trkpt lat="43.84418" lon="6.52965">
        <ele>736</ele>
        <time>2018-05-26T08:49:59Z</time>
      </trkpt>
      <trkpt lat="43.84417" lon="6.52966">
        <ele>736</ele>
        <time>2018-05-26T08:50:00Z</time>
      </trkpt>
      <trkpt lat="43.84409" lon="6.52963">
        <ele>736</ele>
        <time>2018-05-26T08:50:08Z</time>
      </trkpt>
      <trkpt lat="43.84387" lon="6.52961">
        <ele>736</ele>
        <time>2018-05-26T08:50:25Z</time>
      </trkpt>
      <trkpt lat="43.84385" lon="6.52964">
        <ele>736</ele>
        <time>2018-05-26T08:50:27Z</time>
      </trkpt>
      <trkpt lat="43.84379" lon="6.52981">
        <ele>737</ele>
        <time>2018-05-26T08:50:37Z</time>
      </trkpt>
      <trkpt lat="43.84382" lon="6.5299">
        <ele>737</ele>
        <time>2018-05-26T08:50:50Z</time>
      </trkpt>
      <trkpt lat="43.84385" lon="6.52995">
        <ele>737</ele>
        <time>2018-05-26T08:50:56Z</time>
      </trkpt>
      <trkpt lat="43.8439" lon="6.52999">
        <ele>737</ele>
        <time>2018-05-26T08:51:03Z</time>
      </trkpt>
      <trkpt lat="43.844" lon="6.53012">
        <ele>737</ele>
        <time>2018-05-26T08:51:17Z</time>
      </trkpt>
      <trkpt lat="43.84402" lon="6.53018">
        <ele>737</ele>
        <time>2018-05-26T08:51:23Z</time>
      </trkpt>
      <trkpt lat="43.84404" lon="6.53021">
        <ele>737</ele>
        <time>2018-05-26T08:51:27Z</time>
      </trkpt>
      <trkpt lat="43.84413" lon="6.53027">
        <ele>737</ele>
        <time>2018-05-26T08:51:40Z</time>
      </trkpt>
      <trkpt lat="43.84416" lon="6.53042">
        <ele>737</ele>
        <time>2018-05-26T08:51:53Z</time>
      </trkpt>
      <trkpt lat="43.84416" lon="6.53045">
        <ele>737</ele>
        <time>2018-05-26T08:51:55Z</time>
      </trkpt>
      <trkpt lat="43.84413" lon="6.53053">
        <ele>737</ele>
        <time>2018-05-26T08:52:10Z</time>
      </trkpt>
      <trkpt lat="43.84414" lon="6.53052">
        <ele>737</ele>
        <time>2018-05-26T08:52:15Z</time>
      </trkpt>
      <trkpt lat="43.84415" lon="6.53049">
        <ele>737</ele>
        <time>2018-05-26T08:52:18Z</time>
      </trkpt>
      <trkpt lat="43.84422" lon="6.53054">
        <ele>737</ele>
        <time>2018-05-26T08:52:33Z</time>
      </trkpt>
      <trkpt lat="43.84423" lon="6.53054">
        <ele>737</ele>
        <time>2018-05-26T08:52:47Z</time>
      </trkpt>
      <trkpt lat="43.84422" lon="6.53051">
        <ele>737</ele>
        <time>2018-05-26T08:52:50Z</time>
      </trkpt>
      <trkpt lat="43.84418" lon="6.53031">
        <ele>737</ele>
        <time>2018-05-26T08:53:06Z</time>
      </trkpt>
      <trkpt lat="43.84411" lon="6.53015">
        <ele>737</ele>
        <time>2018-05-26T08:53:21Z</time>
      </trkpt>
      <trkpt lat="43.84401" lon="6.53007">
        <ele>737</ele>
        <time>2018-05-26T08:53:36Z</time>
      </trkpt>
      <trkpt lat="43.8439" lon="6.52998">
        <ele>737</ele>
        <time>2018-05-26T08:53:52Z</time>
      </trkpt>
      <trkpt lat="43.84379" lon="6.52986">
        <ele>737</ele>
        <time>2018-05-26T08:54:08Z</time>
      </trkpt>
      <trkpt lat="43.84378" lon="6.52977">
        <ele>737</ele>
        <time>2018-05-26T08:54:23Z</time>
      </trkpt>
      <trkpt lat="43.84383" lon="6.52965">
        <ele>737</ele>
        <time>2018-05-26T08:54:39Z</time>
      </trkpt>
      <trkpt lat="43.84384" lon="6.52964">
        <ele>736</ele>
        <time>2018-05-26T08:54:44Z</time>
      </trkpt>
      <trkpt lat="43.84391" lon="6.52956">
        <ele>736</ele>
        <time>2018-05-26T08:54:52Z</time>
      </trkpt>
      <trkpt lat="43.84396" lon="6.52952">
        <ele>736</ele>
        <time>2018-05-26T08:55:09Z</time>
      </trkpt>
      <trkpt lat="43.84395" lon="6.52953">
        <ele>736</ele>
        <time>2018-05-26T08:55:42Z</time>
      </trkpt>
      <trkpt lat="43.84396" lon="6.52953">
        <ele>736</ele>
        <time>2018-05-26T08:56:13Z</time>
      </trkpt>
      <trkpt lat="43.84389" lon="6.52954">
        <ele>736</ele>
        <time>2018-05-26T08:56:22Z</time>
      </trkpt>
      <trkpt lat="43.84384" lon="6.52958">
        <ele>736</ele>
        <time>2018-05-26T08:56:28Z</time>
      </trkpt>
      <trkpt lat="43.8438" lon="6.52956">
        <ele>736</ele>
        <time>2018-05-26T08:56:41Z</time>
      </trkpt>
      <trkpt lat="43.8438" lon="6.52973">
        <ele>737</ele>
        <time>2018-05-26T08:56:56Z</time>
      </trkpt>
      <trkpt lat="43.84374" lon="6.52982">
        <ele>737</ele>
        <time>2018-05-26T08:57:06Z</time>
      </trkpt>
      <trkpt lat="43.84369" lon="6.52993">
        <ele>737</ele>
        <time>2018-05-26T08:57:20Z</time>
      </trkpt>
      <trkpt lat="43.84362" lon="6.52997">
        <ele>738</ele>
        <time>2018-05-26T08:57:35Z</time>
      </trkpt>
      <trkpt lat="43.84357" lon="6.53007">
        <ele>738</ele>
        <time>2018-05-26T08:57:50Z</time>
      </trkpt>
      <trkpt lat="43.84361" lon="6.53017">
        <ele>738</ele>
        <time>2018-05-26T08:58:05Z</time>
      </trkpt>
      <trkpt lat="43.84366" lon="6.5302">
        <ele>738</ele>
        <time>2018-05-26T08:58:17Z</time>
      </trkpt>
      <trkpt lat="43.84367" lon="6.53022">
        <ele>738</ele>
        <time>2018-05-26T08:58:19Z</time>
      </trkpt>
      <trkpt lat="43.84361" lon="6.53042">
        <ele>738</ele>
        <time>2018-05-26T08:58:33Z</time>
      </trkpt>
      <trkpt lat="43.84351" lon="6.53067">
        <ele>739</ele>
        <time>2018-05-26T08:58:50Z</time>
      </trkpt>
      <trkpt lat="43.84349" lon="6.53069">
        <ele>739</ele>
        <time>2018-05-26T08:58:52Z</time>
      </trkpt>
      <trkpt lat="43.84338" lon="6.53074">
        <ele>739</ele>
        <time>2018-05-26T08:59:02Z</time>
      </trkpt>
      <trkpt lat="43.8433" lon="6.53063">
        <ele>739</ele>
        <time>2018-05-26T08:59:09Z</time>
      </trkpt>
      <trkpt lat="43.8433" lon="6.53007">
        <ele>739</ele>
        <time>2018-05-26T08:59:25Z</time>
      </trkpt>
      <trkpt lat="43.84332" lon="6.52959">
        <ele>739</ele>
        <time>2018-05-26T08:59:37Z</time>
      </trkpt>
      <trkpt lat="43.84333" lon="6.52939">
        <ele>739</ele>
        <time>2018-05-26T08:59:48Z</time>
      </trkpt>
      <trkpt lat="43.84335" lon="6.52935">
        <ele>739</ele>
        <time>2018-05-26T09:00:05Z</time>
      </trkpt>
      <trkpt lat="43.84334" lon="6.52935">
        <ele>739</ele>
        <time>2018-05-26T09:00:33Z</time>
      </trkpt>
      <trkpt lat="43.84337" lon="6.52935">
        <ele>739</ele>
        <time>2018-05-26T09:00:59Z</time>
      </trkpt>
      <trkpt lat="43.84335" lon="6.52933">
        <ele>739</ele>
        <time>2018-05-26T09:01:17Z</time>
      </trkpt>
      <trkpt lat="43.84334" lon="6.52932">
        <ele>739</ele>
        <time>2018-05-26T09:01:49Z</time>
      </trkpt>
      <trkpt lat="43.84334" lon="6.52932">
        <ele>739</ele>
        <time>2018-05-26T09:02:29Z</time>
      </trkpt>
      <trkpt lat="43.84334" lon="6.52938">
        <ele>739</ele>
        <time>2018-05-26T09:02:48Z</time>
      </trkpt>
      <trkpt lat="43.84334" lon="6.52938">
        <ele>739</ele>
        <time>2018-05-26T09:02:49Z</time>
      </trkpt>
      <trkpt lat="43.8433" lon="6.52977">
        <ele>739</ele>
        <time>2018-05-26T09:03:04Z</time>
      </trkpt>
      <trkpt lat="43.84329" lon="6.53023">
        <ele>739</ele>
        <time>2018-05-26T09:03:19Z</time>
      </trkpt>
      <trkpt lat="43.84326" lon="6.53055">
        <ele>739</ele>
        <time>2018-05-26T09:03:30Z</time>
      </trkpt>
      <trkpt lat="43.84343" lon="6.5307">
        <ele>739</ele>
        <time>2018-05-26T09:03:39Z</time>
      </trkpt>
      <trkpt lat="43.8435" lon="6.53078">
        <ele>739</ele>
        <time>2018-05-26T09:03:43Z</time>
      </trkpt>
      <trkpt lat="43.84355" lon="6.53106">
        <ele>739</ele>
        <time>2018-05-26T09:03:54Z</time>
      </trkpt>
      <trkpt lat="43.84357" lon="6.53122">
        <ele>739</ele>
        <time>2018-05-26T09:04:00Z</time>
      </trkpt>
      <trkpt lat="43.84356" lon="6.53148">
        <ele>740</ele>
        <time>2018-05-26T09:04:09Z</time>
      </trkpt>
      <trkpt lat="43.84355" lon="6.53161">
        <ele>740</ele>
        <time>2018-05-26T09:04:13Z</time>
      </trkpt>
      <trkpt lat="43.84343" lon="6.53184">
        <ele>740</ele>
        <time>2018-05-26T09:04:25Z</time>
      </trkpt>
      <trkpt lat="43.84333" lon="6.532">
        <ele>740</ele>
        <time>2018-05-26T09:04:37Z</time>
      </trkpt>
      <trkpt lat="43.84333" lon="6.532">
        <ele>740</ele>
        <time>2018-05-26T09:04:48Z</time>
      </trkpt>
      <trkpt lat="43.8433" lon="6.53206">
        <ele>740</ele>
        <time>2018-05-26T09:04:52Z</time>
      </trkpt>
      <trkpt lat="43.84337" lon="6.53254">
        <ele>740</ele>
        <time>2018-05-26T09:05:05Z</time>
      </trkpt>
      <trkpt lat="43.84336" lon="6.53261">
        <ele>740</ele>
        <time>2018-05-26T09:05:07Z</time>
      </trkpt>
      <trkpt lat="43.84336" lon="6.53263">
        <ele>740</ele>
        <time>2018-05-26T09:05:08Z</time>
      </trkpt>
      <trkpt lat="43.84341" lon="6.53269">
        <ele>740</ele>
        <time>2018-05-26T09:05:19Z</time>
      </trkpt>
      <trkpt lat="43.84344" lon="6.53267">
        <ele>740</ele>
        <time>2018-05-26T09:05:58Z</time>
      </trkpt>
      <trkpt lat="43.84339" lon="6.53272">
        <ele>740</ele>
        <time>2018-05-26T09:06:38Z</time>
      </trkpt>
      <trkpt lat="43.84343" lon="6.53274">
        <ele>740</ele>
        <time>2018-05-26T09:07:02Z</time>
      </trkpt>
      <trkpt lat="43.84344" lon="6.53275">
        <ele>740</ele>
        <time>2018-05-26T09:07:03Z</time>
      </trkpt>
      <trkpt lat="43.84344" lon="6.53277">
        <ele>740</ele>
        <time>2018-05-26T09:07:04Z</time>
      </trkpt>
      <trkpt lat="43.84345" lon="6.53279">
        <ele>740</ele>
        <time>2018-05-26T09:07:05Z</time>
      </trkpt>
      <trkpt lat="43.84345" lon="6.53281">
        <ele>740</ele>
        <time>2018-05-26T09:07:06Z</time>
      </trkpt>
      <trkpt lat="43.84346" lon="6.53283">
        <ele>740</ele>
        <time>2018-05-26T09:07:07Z</time>
      </trkpt>
      <trkpt lat="43.84359" lon="6.53334">
        <ele>740</ele>
        <time>2018-05-26T09:07:20Z</time>
      </trkpt>
      <trkpt lat="43.84373" lon="6.53403">
        <ele>741</ele>
        <time>2018-05-26T09:07:36Z</time>
      </trkpt>
      <trkpt lat="43.84356" lon="6.53454">
        <ele>745</ele>
        <time>2018-05-26T09:07:52Z</time>
      </trkpt>
      <trkpt lat="43.84328" lon="6.53494">
        <ele>748</ele>
        <time>2018-05-26T09:08:09Z</time>
      </trkpt>
      <trkpt lat="43.84304" lon="6.53523">
        <ele>753</ele>
        <time>2018-05-26T09:08:24Z</time>
      </trkpt>
      <trkpt lat="43.84276" lon="6.53563">
        <ele>754</ele>
        <time>2018-05-26T09:08:42Z</time>
      </trkpt>
      <trkpt lat="43.84254" lon="6.53603">
        <ele>756</ele>
        <time>2018-05-26T09:08:58Z</time>
      </trkpt>
      <trkpt lat="43.84238" lon="6.53658">
        <ele>760</ele>
        <time>2018-05-26T09:09:17Z</time>
      </trkpt>
      <trkpt lat="43.84228" lon="6.53695">
        <ele>765</ele>
        <time>2018-05-26T09:09:31Z</time>
      </trkpt>
      <trkpt lat="43.84222" lon="6.5373">
        <ele>767</ele>
        <time>2018-05-26T09:09:44Z</time>
      </trkpt>
      <trkpt lat="43.84212" lon="6.53765">
        <ele>768</ele>
        <time>2018-05-26T09:09:57Z</time>
      </trkpt>
      <trkpt lat="43.84203" lon="6.53808">
        <ele>769</ele>
        <time>2018-05-26T09:10:13Z</time>
      </trkpt>
      <trkpt lat="43.84203" lon="6.53848">
        <ele>773</ele>
        <time>2018-05-26T09:10:27Z</time>
      </trkpt>
      <trkpt lat="43.84207" lon="6.53884">
        <ele>773</ele>
        <time>2018-05-26T09:10:40Z</time>
      </trkpt>
      <trkpt lat="43.8421" lon="6.5392">
        <ele>770</ele>
        <time>2018-05-26T09:10:53Z</time>
      </trkpt>
      <trkpt lat="43.84231" lon="6.53951">
        <ele>769</ele>
        <time>2018-05-26T09:11:09Z</time>
      </trkpt>
      <trkpt lat="43.84251" lon="6.53933">
        <ele>775</ele>
        <time>2018-05-26T09:11:22Z</time>
      </trkpt>
      <trkpt lat="43.84279" lon="6.53906">
        <ele>780</ele>
        <time>2018-05-26T09:11:41Z</time>
      </trkpt>
      <trkpt lat="43.84306" lon="6.53911">
        <ele>782</ele>
        <time>2018-05-26T09:11:56Z</time>
      </trkpt>
      <trkpt lat="43.84338" lon="6.53925">
        <ele>784</ele>
        <time>2018-05-26T09:12:12Z</time>
      </trkpt>
      <trkpt lat="43.84354" lon="6.53937">
        <ele>785</ele>
        <time>2018-05-26T09:12:21Z</time>
      </trkpt>
      <trkpt lat="43.84359" lon="6.53939">
        <ele>785</ele>
        <time>2018-05-26T09:12:23Z</time>
      </trkpt>
      <trkpt lat="43.84363" lon="6.53941">
        <ele>786</ele>
        <time>2018-05-26T09:12:25Z</time>
      </trkpt>
      <trkpt lat="43.84365" lon="6.53943">
        <ele>786</ele>
        <time>2018-05-26T09:12:26Z</time>
      </trkpt>
      <trkpt lat="43.84367" lon="6.53944">
        <ele>786</ele>
        <time>2018-05-26T09:12:27Z</time>
      </trkpt>
      <trkpt lat="43.8439" lon="6.53949">
        <ele>788</ele>
        <time>2018-05-26T09:12:41Z</time>
      </trkpt>
      <trkpt lat="43.84393" lon="6.53946">
        <ele>788</ele>
        <time>2018-05-26T09:12:44Z</time>
      </trkpt>
      <trkpt lat="43.84392" lon="6.53944">
        <ele>788</ele>
        <time>2018-05-26T09:12:47Z</time>
      </trkpt>
      <trkpt lat="43.84391" lon="6.53946">
        <ele>788</ele>
        <time>2018-05-26T09:12:48Z</time>
      </trkpt>
      <trkpt lat="43.84392" lon="6.53947">
        <ele>788</ele>
        <time>2018-05-26T09:12:49Z</time>
      </trkpt>
      <trkpt lat="43.84393" lon="6.53948">
        <ele>788</ele>
        <time>2018-05-26T09:12:50Z</time>
      </trkpt>
      <trkpt lat="43.84396" lon="6.53947">
        <ele>788</ele>
        <time>2018-05-26T09:12:59Z</time>
      </trkpt>
      <trkpt lat="43.84398" lon="6.53947">
        <ele>788</ele>
        <time>2018-05-26T09:13:19Z</time>
      </trkpt>
      <trkpt lat="43.84396" lon="6.53944">
        <ele>788</ele>
        <time>2018-05-26T09:13:44Z</time>
      </trkpt>
      <trkpt lat="43.84399" lon="6.53943">
        <ele>788</ele>
        <time>2018-05-26T09:14:12Z</time>
      </trkpt>
      <trkpt lat="43.84396" lon="6.53947">
        <ele>788</ele>
        <time>2018-05-26T09:14:33Z</time>
      </trkpt>
      <trkpt lat="43.844" lon="6.53943">
        <ele>788</ele>
        <time>2018-05-26T09:14:51Z</time>
      </trkpt>
      <trkpt lat="43.84401" lon="6.53943">
        <ele>788</ele>
        <time>2018-05-26T09:14:52Z</time>
      </trkpt>
      <trkpt lat="43.84403" lon="6.53943">
        <ele>788</ele>
        <time>2018-05-26T09:14:53Z</time>
      </trkpt>
      <trkpt lat="43.84404" lon="6.53944">
        <ele>788</ele>
        <time>2018-05-26T09:14:54Z</time>
      </trkpt>
      <trkpt lat="43.84406" lon="6.53946">
        <ele>788</ele>
        <time>2018-05-26T09:14:55Z</time>
      </trkpt>
      <trkpt lat="43.84408" lon="6.53947">
        <ele>788</ele>
        <time>2018-05-26T09:14:56Z</time>
      </trkpt>
      <trkpt lat="43.84409" lon="6.53949">
        <ele>788</ele>
        <time>2018-05-26T09:14:57Z</time>
      </trkpt>
      <trkpt lat="43.84411" lon="6.5395">
        <ele>788</ele>
        <time>2018-05-26T09:14:58Z</time>
      </trkpt>
      <trkpt lat="43.84412" lon="6.53952">
        <ele>788</ele>
        <time>2018-05-26T09:14:59Z</time>
      </trkpt>
      <trkpt lat="43.84436" lon="6.5398">
        <ele>791</ele>
        <time>2018-05-26T09:15:12Z</time>
      </trkpt>
      <trkpt lat="43.84472" lon="6.54015">
        <ele>791</ele>
        <time>2018-05-26T09:15:28Z</time>
      </trkpt>
      <trkpt lat="43.84508" lon="6.54025">
        <ele>795</ele>
        <time>2018-05-26T09:15:41Z</time>
      </trkpt>
      <trkpt lat="43.84545" lon="6.54026">
        <ele>793</ele>
        <time>2018-05-26T09:15:54Z</time>
      </trkpt>
      <trkpt lat="43.84578" lon="6.54044">
        <ele>786</ele>
        <time>2018-05-26T09:16:06Z</time>
      </trkpt>
      <trkpt lat="43.84588" lon="6.54073">
        <ele>792</ele>
        <time>2018-05-26T09:16:15Z</time>
      </trkpt>
      <trkpt lat="43.8459" lon="6.54074">
        <ele>791</ele>
        <time>2018-05-26T09:16:16Z</time>
      </trkpt>
      <trkpt lat="43.84591" lon="6.54075">
        <ele>790</ele>
        <time>2018-05-26T09:16:17Z</time>
      </trkpt>
      <trkpt lat="43.84592" lon="6.54077">
        <ele>791</ele>
        <time>2018-05-26T09:16:18Z</time>
      </trkpt>
      <trkpt lat="43.84593" lon="6.5408">
        <ele>792</ele>
        <time>2018-05-26T09:16:31Z</time>
      </trkpt>
      <trkpt lat="43.84592" lon="6.5408">
        <ele>793</ele>
        <time>2018-05-26T09:16:42Z</time>
      </trkpt>
      <trkpt lat="43.84592" lon="6.54082">
        <ele>795</ele>
        <time>2018-05-26T09:16:43Z</time>
      </trkpt>
      <trkpt lat="43.84592" lon="6.54085">
        <ele>796</ele>
        <time>2018-05-26T09:16:44Z</time>
      </trkpt>
      <trkpt lat="43.84592" lon="6.54088">
        <ele>798</ele>
        <time>2018-05-26T09:16:45Z</time>
      </trkpt>
      <trkpt lat="43.84592" lon="6.5409">
        <ele>800</ele>
        <time>2018-05-26T09:16:46Z</time>
      </trkpt>
      <trkpt lat="43.84597" lon="6.54132">
        <ele>818</ele>
        <time>2018-05-26T09:16:59Z</time>
      </trkpt>
      <trkpt lat="43.84597" lon="6.54171">
        <ele>818</ele>
        <time>2018-05-26T09:17:10Z</time>
      </trkpt>
      <trkpt lat="43.846" lon="6.54178">
        <ele>815</ele>
        <time>2018-05-26T09:17:11Z</time>
      </trkpt>
      <trkpt lat="43.84602" lon="6.54182">
        <ele>812</ele>
        <time>2018-05-26T09:17:12Z</time>
      </trkpt>
      <trkpt lat="43.84608" lon="6.54197">
        <ele>802</ele>
        <time>2018-05-26T09:17:24Z</time>
      </trkpt>
      <trkpt lat="43.84614" lon="6.54197">
        <ele>795</ele>
        <time>2018-05-26T09:17:45Z</time>
      </trkpt>
      <trkpt lat="43.84612" lon="6.54202">
        <ele>797</ele>
        <time>2018-05-26T09:18:08Z</time>
      </trkpt>
      <trkpt lat="43.84611" lon="6.54204">
        <ele>798</ele>
        <time>2018-05-26T09:18:09Z</time>
      </trkpt>
      <trkpt lat="43.84606" lon="6.54244">
        <ele>799</ele>
        <time>2018-05-26T09:18:23Z</time>
      </trkpt>
      <trkpt lat="43.84611" lon="6.54291">
        <ele>803</ele>
        <time>2018-05-26T09:18:37Z</time>
      </trkpt>
      <trkpt lat="43.84625" lon="6.54341">
        <ele>802</ele>
        <time>2018-05-26T09:18:53Z</time>
      </trkpt>
      <trkpt lat="43.84643" lon="6.54377">
        <ele>797</ele>
        <time>2018-05-26T09:19:07Z</time>
      </trkpt>
      <trkpt lat="43.84659" lon="6.54419">
        <ele>799</ele>
        <time>2018-05-26T09:19:21Z</time>
      </trkpt>
      <trkpt lat="43.84681" lon="6.54465">
        <ele>801</ele>
        <time>2018-05-26T09:19:37Z</time>
      </trkpt>
      <trkpt lat="43.84698" lon="6.54497">
        <ele>808</ele>
        <time>2018-05-26T09:19:48Z</time>
      </trkpt>
      <trkpt lat="43.847" lon="6.54498">
        <ele>807</ele>
        <time>2018-05-26T09:19:49Z</time>
      </trkpt>
      <trkpt lat="43.84729" lon="6.54519">
        <ele>800</ele>
        <time>2018-05-26T09:20:02Z</time>
      </trkpt>
      <trkpt lat="43.84754" lon="6.54538">
        <ele>803</ele>
        <time>2018-05-26T09:20:13Z</time>
      </trkpt>
      <trkpt lat="43.84781" lon="6.54546">
        <ele>807</ele>
        <time>2018-05-26T09:20:24Z</time>
      </trkpt>
      <trkpt lat="43.84804" lon="6.54554">
        <ele>816</ele>
        <time>2018-05-26T09:20:37Z</time>
      </trkpt>
      <trkpt lat="43.84873" lon="6.54553">
        <ele>819</ele>
        <time>2018-05-26T09:20:59Z</time>
      </trkpt>
      <trkpt lat="43.84899" lon="6.54592">
        <ele>811</ele>
        <time>2018-05-26T09:21:13Z</time>
      </trkpt>
      <trkpt lat="43.84918" lon="6.54636">
        <ele>818</ele>
        <time>2018-05-26T09:21:27Z</time>
      </trkpt>
      <trkpt lat="43.84951" lon="6.54657">
        <ele>811</ele>
        <time>2018-05-26T09:21:40Z</time>
      </trkpt>
      <trkpt lat="43.84993" lon="6.54678">
        <ele>803</ele>
        <time>2018-05-26T09:21:55Z</time>
      </trkpt>
      <trkpt lat="43.85035" lon="6.54737">
        <ele>803</ele>
        <time>2018-05-26T09:22:14Z</time>
      </trkpt>
      <trkpt lat="43.851" lon="6.54787">
        <ele>799</ele>
        <time>2018-05-26T09:22:36Z</time>
      </trkpt>
      <trkpt lat="43.85157" lon="6.54833">
        <ele>799</ele>
        <time>2018-05-26T09:22:55Z</time>
      </trkpt>
      <trkpt lat="43.85218" lon="6.54872">
        <ele>799</ele>
        <time>2018-05-26T09:23:14Z</time>
      </trkpt>
      <trkpt lat="43.85282" lon="6.54916">
        <ele>801</ele>
        <time>2018-05-26T09:23:34Z</time>
      </trkpt>
      <trkpt lat="43.85333" lon="6.54917">
        <ele>798</ele>
        <time>2018-05-26T09:23:48Z</time>
      </trkpt>
      <trkpt lat="43.85367" lon="6.54933">
        <ele>795</ele>
        <time>2018-05-26T09:23:59Z</time>
      </trkpt>
      <trkpt lat="43.85368" lon="6.54934">
        <ele>795</ele>
        <time>2018-05-26T09:24:00Z</time>
      </trkpt>
      <trkpt lat="43.85368" lon="6.54934">
        <ele>795</ele>
        <time>2018-05-26T09:24:14Z</time>
      </trkpt>
      <trkpt lat="43.85369" lon="6.54933">
        <ele>795</ele>
        <time>2018-05-26T09:24:47Z</time>
      </trkpt>
      <trkpt lat="43.85369" lon="6.54937">
        <ele>796</ele>
        <time>2018-05-26T09:25:02Z</time>
      </trkpt>
      <trkpt lat="43.8538" lon="6.54966">
        <ele>799</ele>
        <time>2018-05-26T09:25:13Z</time>
      </trkpt>
      <trkpt lat="43.85392" lon="6.55002">
        <ele>808</ele>
        <time>2018-05-26T09:25:25Z</time>
      </trkpt>
      <trkpt lat="43.85394" lon="6.55007">
        <ele>810</ele>
        <time>2018-05-26T09:25:28Z</time>
      </trkpt>
      <trkpt lat="43.85396" lon="6.55008">
        <ele>810</ele>
        <time>2018-05-26T09:25:29Z</time>
      </trkpt>
      <trkpt lat="43.85397" lon="6.55008">
        <ele>810</ele>
        <time>2018-05-26T09:25:30Z</time>
      </trkpt>
      <trkpt lat="43.85399" lon="6.55008">
        <ele>810</ele>
        <time>2018-05-26T09:25:31Z</time>
      </trkpt>
      <trkpt lat="43.85402" lon="6.55009">
        <ele>809</ele>
        <time>2018-05-26T09:25:32Z</time>
      </trkpt>
      <trkpt lat="43.85404" lon="6.55009">
        <ele>809</ele>
        <time>2018-05-26T09:25:33Z</time>
      </trkpt>
      <trkpt lat="43.85439" lon="6.55004">
        <ele>805</ele>
        <time>2018-05-26T09:25:45Z</time>
      </trkpt>
      <trkpt lat="43.85448" lon="6.55008">
        <ele>807</ele>
        <time>2018-05-26T09:25:50Z</time>
      </trkpt>
      <trkpt lat="43.85453" lon="6.55006">
        <ele>807</ele>
        <time>2018-05-26T09:25:51Z</time>
      </trkpt>
      <trkpt lat="43.85458" lon="6.55003">
        <ele>806</ele>
        <time>2018-05-26T09:25:52Z</time>
      </trkpt>
      <trkpt lat="43.85463" lon="6.55003">
        <ele>806</ele>
        <time>2018-05-26T09:25:53Z</time>
      </trkpt>
      <trkpt lat="43.85467" lon="6.55004">
        <ele>807</ele>
        <time>2018-05-26T09:25:54Z</time>
      </trkpt>
      <trkpt lat="43.8547" lon="6.55005">
        <ele>806</ele>
        <time>2018-05-26T09:25:55Z</time>
      </trkpt>
      <trkpt lat="43.85517" lon="6.55049">
        <ele>804</ele>
        <time>2018-05-26T09:26:10Z</time>
      </trkpt>
      <trkpt lat="43.85539" lon="6.55104">
        <ele>808</ele>
        <time>2018-05-26T09:26:23Z</time>
      </trkpt>
      <trkpt lat="43.85577" lon="6.55155">
        <ele>806</ele>
        <time>2018-05-26T09:26:38Z</time>
      </trkpt>
      <trkpt lat="43.85606" lon="6.55184">
        <ele>801</ele>
        <time>2018-05-26T09:26:49Z</time>
      </trkpt>
      <trkpt lat="43.85641" lon="6.55218">
        <ele>803</ele>
        <time>2018-05-26T09:27:01Z</time>
      </trkpt>
      <trkpt lat="43.85683" lon="6.55287">
        <ele>801</ele>
        <time>2018-05-26T09:27:18Z</time>
      </trkpt>
      <trkpt lat="43.8571" lon="6.55345">
        <ele>806</ele>
        <time>2018-05-26T09:27:32Z</time>
      </trkpt>
      <trkpt lat="43.85737" lon="6.55385">
        <ele>804</ele>
        <time>2018-05-26T09:27:43Z</time>
      </trkpt>
      <trkpt lat="43.85769" lon="6.55421">
        <ele>800</ele>
        <time>2018-05-26T09:27:55Z</time>
      </trkpt>
      <trkpt lat="43.85789" lon="6.5547">
        <ele>801</ele>
        <time>2018-05-26T09:28:06Z</time>
      </trkpt>
      <trkpt lat="43.85793" lon="6.55533">
        <ele>805</ele>
        <time>2018-05-26T09:28:20Z</time>
      </trkpt>
      <trkpt lat="43.85812" lon="6.55567">
        <ele>800</ele>
        <time>2018-05-26T09:28:30Z</time>
      </trkpt>
      <trkpt lat="43.85848" lon="6.55559">
        <ele>804</ele>
        <time>2018-05-26T09:28:41Z</time>
      </trkpt>
      <trkpt lat="43.85902" lon="6.55556">
        <ele>800</ele>
        <time>2018-05-26T09:28:56Z</time>
      </trkpt>
      <trkpt lat="43.85954" lon="6.55576">
        <ele>797</ele>
        <time>2018-05-26T09:29:10Z</time>
      </trkpt>
      <trkpt lat="43.85992" lon="6.55618">
        <ele>798</ele>
        <time>2018-05-26T09:29:23Z</time>
      </trkpt>
      <trkpt lat="43.86016" lon="6.55663">
        <ele>799</ele>
        <time>2018-05-26T09:29:34Z</time>
      </trkpt>
      <trkpt lat="43.86059" lon="6.55695">
        <ele>797</ele>
        <time>2018-05-26T09:29:48Z</time>
      </trkpt>
      <trkpt lat="43.86091" lon="6.55729">
        <ele>797</ele>
        <time>2018-05-26T09:30:00Z</time>
      </trkpt>
      <trkpt lat="43.86128" lon="6.55743">
        <ele>798</ele>
        <time>2018-05-26T09:30:11Z</time>
      </trkpt>
      <trkpt lat="43.86175" lon="6.55722">
        <ele>797</ele>
        <time>2018-05-26T09:30:24Z</time>
      </trkpt>
      <trkpt lat="43.8622" lon="6.55732">
        <ele>798</ele>
        <time>2018-05-26T09:30:37Z</time>
      </trkpt>
      <trkpt lat="43.8628" lon="6.5573">
        <ele>797</ele>
        <time>2018-05-26T09:30:54Z</time>
      </trkpt>
      <trkpt lat="43.86316" lon="6.55749">
        <ele>796</ele>
        <time>2018-05-26T09:31:07Z</time>
      </trkpt>
      <trkpt lat="43.86326" lon="6.55778">
        <ele>797</ele>
        <time>2018-05-26T09:31:19Z</time>
      </trkpt>
      <trkpt lat="43.86323" lon="6.55817">
        <ele>803</ele>
        <time>2018-05-26T09:31:34Z</time>
      </trkpt>
      <trkpt lat="43.86322" lon="6.55861">
        <ele>810</ele>
        <time>2018-05-26T09:31:51Z</time>
      </trkpt>
      <trkpt lat="43.86323" lon="6.55898">
        <ele>811</ele>
        <time>2018-05-26T09:32:06Z</time>
      </trkpt>
      <trkpt lat="43.86326" lon="6.55935">
        <ele>809</ele>
        <time>2018-05-26T09:32:21Z</time>
      </trkpt>
      <trkpt lat="43.86325" lon="6.55966">
        <ele>810</ele>
        <time>2018-05-26T09:32:34Z</time>
      </trkpt>
      <trkpt lat="43.86319" lon="6.56007">
        <ele>816</ele>
        <time>2018-05-26T09:32:51Z</time>
      </trkpt>
      <trkpt lat="43.86318" lon="6.56037">
        <ele>819</ele>
        <time>2018-05-26T09:33:04Z</time>
      </trkpt>
      <trkpt lat="43.86318" lon="6.5604">
        <ele>819</ele>
        <time>2018-05-26T09:33:05Z</time>
      </trkpt>
      <trkpt lat="43.86318" lon="6.56042">
        <ele>819</ele>
        <time>2018-05-26T09:33:06Z</time>
      </trkpt>
      <trkpt lat="43.86318" lon="6.56045">
        <ele>819</ele>
        <time>2018-05-26T09:33:07Z</time>
      </trkpt>
      <trkpt lat="43.86318" lon="6.56048">
        <ele>819</ele>
        <time>2018-05-26T09:33:08Z</time>
      </trkpt>
      <trkpt lat="43.86318" lon="6.56051">
        <ele>819</ele>
        <time>2018-05-26T09:33:09Z</time>
      </trkpt>
      <trkpt lat="43.86318" lon="6.56053">
        <ele>819</ele>
        <time>2018-05-26T09:33:10Z</time>
      </trkpt>
      <trkpt lat="43.86318" lon="6.56056">
        <ele>820</ele>
        <time>2018-05-26T09:33:11Z</time>
      </trkpt>
      <trkpt lat="43.86318" lon="6.56058">
        <ele>820</ele>
        <time>2018-05-26T09:33:12Z</time>
      </trkpt>
      <trkpt lat="43.86319" lon="6.56061">
        <ele>820</ele>
        <time>2018-05-26T09:33:13Z</time>
      </trkpt>
      <trkpt lat="43.86319" lon="6.56064">
        <ele>820</ele>
        <time>2018-05-26T09:33:14Z</time>
      </trkpt>
      <trkpt lat="43.8632" lon="6.56103">
        <ele>825</ele>
        <time>2018-05-26T09:33:29Z</time>
      </trkpt>
      <trkpt lat="43.86323" lon="6.56139">
        <ele>827</ele>
        <time>2018-05-26T09:33:43Z</time>
      </trkpt>
      <trkpt lat="43.86327" lon="6.56178">
        <ele>829</ele>
        <time>2018-05-26T09:33:59Z</time>
      </trkpt>
      <trkpt lat="43.86336" lon="6.56211">
        <ele>825</ele>
        <time>2018-05-26T09:34:13Z</time>
      </trkpt>
      <trkpt lat="43.86348" lon="6.56245">
        <ele>819</ele>
        <time>2018-05-26T09:34:28Z</time>
      </trkpt>
      <trkpt lat="43.86359" lon="6.56282">
        <ele>816</ele>
        <time>2018-05-26T09:34:44Z</time>
      </trkpt>
      <trkpt lat="43.86362" lon="6.56297">
        <ele>816</ele>
        <time>2018-05-26T09:34:50Z</time>
      </trkpt>
      <trkpt lat="43.86362" lon="6.56299">
        <ele>816</ele>
        <time>2018-05-26T09:34:51Z</time>
      </trkpt>
      <trkpt lat="43.86367" lon="6.56334">
        <ele>818</ele>
        <time>2018-05-26T09:35:08Z</time>
      </trkpt>
      <trkpt lat="43.86366" lon="6.56361">
        <ele>820</ele>
        <time>2018-05-26T09:35:21Z</time>
      </trkpt>
      <trkpt lat="43.86364" lon="6.56367">
        <ele>821</ele>
        <time>2018-05-26T09:35:24Z</time>
      </trkpt>
      <trkpt lat="43.86363" lon="6.56369">
        <ele>821</ele>
        <time>2018-05-26T09:35:25Z</time>
      </trkpt>
      <trkpt lat="43.86362" lon="6.5637">
        <ele>821</ele>
        <time>2018-05-26T09:35:26Z</time>
      </trkpt>
      <trkpt lat="43.86343" lon="6.56403">
        <ele>831</ele>
        <time>2018-05-26T09:35:43Z</time>
      </trkpt>
      <trkpt lat="43.86337" lon="6.56436">
        <ele>836</ele>
        <time>2018-05-26T09:35:57Z</time>
      </trkpt>
      <trkpt lat="43.86337" lon="6.56467">
        <ele>836</ele>
        <time>2018-05-26T09:36:13Z</time>
      </trkpt>
      <trkpt lat="43.86337" lon="6.56469">
        <ele>836</ele>
        <time>2018-05-26T09:36:14Z</time>
      </trkpt>
      <trkpt lat="43.86338" lon="6.56471">
        <ele>836</ele>
        <time>2018-05-26T09:36:15Z</time>
      </trkpt>
      <trkpt lat="43.86338" lon="6.56473">
        <ele>836</ele>
        <time>2018-05-26T09:36:16Z</time>
      </trkpt>
      <trkpt lat="43.86338" lon="6.56475">
        <ele>836</ele>
        <time>2018-05-26T09:36:17Z</time>
      </trkpt>
      <trkpt lat="43.86338" lon="6.56477">
        <ele>836</ele>
        <time>2018-05-26T09:36:18Z</time>
      </trkpt>
      <trkpt lat="43.86338" lon="6.56479">
        <ele>836</ele>
        <time>2018-05-26T09:36:19Z</time>
      </trkpt>
      <trkpt lat="43.86338" lon="6.56481">
        <ele>836</ele>
        <time>2018-05-26T09:36:20Z</time>
      </trkpt>
      <trkpt lat="43.86339" lon="6.56496">
        <ele>835</ele>
        <time>2018-05-26T09:36:27Z</time>
      </trkpt>
      <trkpt lat="43.86339" lon="6.56498">
        <ele>835</ele>
        <time>2018-05-26T09:36:28Z</time>
      </trkpt>
      <trkpt lat="43.86339" lon="6.565">
        <ele>835</ele>
        <time>2018-05-26T09:36:29Z</time>
      </trkpt>
      <trkpt lat="43.8634" lon="6.56503">
        <ele>835</ele>
        <time>2018-05-26T09:36:30Z</time>
      </trkpt>
      <trkpt lat="43.86339" lon="6.56505">
        <ele>835</ele>
        <time>2018-05-26T09:36:31Z</time>
      </trkpt>
      <trkpt lat="43.86339" lon="6.56507">
        <ele>835</ele>
        <time>2018-05-26T09:36:32Z</time>
      </trkpt>
      <trkpt lat="43.86339" lon="6.56509">
        <ele>836</ele>
        <time>2018-05-26T09:36:33Z</time>
      </trkpt>
      <trkpt lat="43.86339" lon="6.56511">
        <ele>836</ele>
        <time>2018-05-26T09:36:34Z</time>
      </trkpt>
      <trkpt lat="43.86339" lon="6.56513">
        <ele>836</ele>
        <time>2018-05-26T09:36:35Z</time>
      </trkpt>
      <trkpt lat="43.86339" lon="6.56515">
        <ele>836</ele>
        <time>2018-05-26T09:36:36Z</time>
      </trkpt>
      <trkpt lat="43.86328" lon="6.56547">
        <ele>842</ele>
        <time>2018-05-26T09:36:52Z</time>
      </trkpt>
      <trkpt lat="43.86317" lon="6.56576">
        <ele>844</ele>
        <time>2018-05-26T09:37:07Z</time>
      </trkpt>
      <trkpt lat="43.86317" lon="6.56579">
        <ele>844</ele>
        <time>2018-05-26T09:37:09Z</time>
      </trkpt>
      <trkpt lat="43.86317" lon="6.56581">
        <ele>843</ele>
        <time>2018-05-26T09:37:10Z</time>
      </trkpt>
      <trkpt lat="43.86317" lon="6.56583">
        <ele>843</ele>
        <time>2018-05-26T09:37:11Z</time>
      </trkpt>
      <trkpt lat="43.86332" lon="6.56605">
        <ele>841</ele>
        <time>2018-05-26T09:37:25Z</time>
      </trkpt>
      <trkpt lat="43.86349" lon="6.56618">
        <ele>842</ele>
        <time>2018-05-26T09:37:36Z</time>
      </trkpt>
      <trkpt lat="43.86351" lon="6.56619">
        <ele>842</ele>
        <time>2018-05-26T09:37:37Z</time>
      </trkpt>
      <trkpt lat="43.86353" lon="6.56619">
        <ele>842</ele>
        <time>2018-05-26T09:37:38Z</time>
      </trkpt>
      <trkpt lat="43.86385" lon="6.56613">
        <ele>847</ele>
        <time>2018-05-26T09:37:52Z</time>
      </trkpt>
      <trkpt lat="43.86412" lon="6.56566">
        <ele>849</ele>
        <time>2018-05-26T09:38:07Z</time>
      </trkpt>
      <trkpt lat="43.86437" lon="6.56543">
        <ele>857</ele>
        <time>2018-05-26T09:38:20Z</time>
      </trkpt>
      <trkpt lat="43.86439" lon="6.56541">
        <ele>857</ele>
        <time>2018-05-26T09:38:21Z</time>
      </trkpt>
      <trkpt lat="43.86441" lon="6.56538">
        <ele>858</ele>
        <time>2018-05-26T09:38:23Z</time>
      </trkpt>
      <trkpt lat="43.86444" lon="6.56535">
        <ele>859</ele>
        <time>2018-05-26T09:38:26Z</time>
      </trkpt>
      <trkpt lat="43.86445" lon="6.56534">
        <ele>860</ele>
        <time>2018-05-26T09:38:27Z</time>
      </trkpt>
      <trkpt lat="43.86446" lon="6.56532">
        <ele>860</ele>
        <time>2018-05-26T09:38:28Z</time>
      </trkpt>
      <trkpt lat="43.86447" lon="6.5653">
        <ele>861</ele>
        <time>2018-05-26T09:38:29Z</time>
      </trkpt>
      <trkpt lat="43.86448" lon="6.56528">
        <ele>861</ele>
        <time>2018-05-26T09:38:30Z</time>
      </trkpt>
      <trkpt lat="43.86448" lon="6.56526">
        <ele>861</ele>
        <time>2018-05-26T09:38:31Z</time>
      </trkpt>
      <trkpt lat="43.86449" lon="6.56524">
        <ele>862</ele>
        <time>2018-05-26T09:38:32Z</time>
      </trkpt>
      <trkpt lat="43.86446" lon="6.56492">
        <ele>859</ele>
        <time>2018-05-26T09:38:45Z</time>
      </trkpt>
      <trkpt lat="43.86447" lon="6.56462">
        <ele>855</ele>
        <time>2018-05-26T09:38:57Z</time>
      </trkpt>
      <trkpt lat="43.86469" lon="6.56445">
        <ele>867</ele>
        <time>2018-05-26T09:39:12Z</time>
      </trkpt>
      <trkpt lat="43.86483" lon="6.56422">
        <ele>871</ele>
        <time>2018-05-26T09:39:24Z</time>
      </trkpt>
      <trkpt lat="43.86485" lon="6.56415">
        <ele>870</ele>
        <time>2018-05-26T09:39:27Z</time>
      </trkpt>
      <trkpt lat="43.86486" lon="6.56413">
        <ele>870</ele>
        <time>2018-05-26T09:39:28Z</time>
      </trkpt>
      <trkpt lat="43.86487" lon="6.56411">
        <ele>870</ele>
        <time>2018-05-26T09:39:29Z</time>
      </trkpt>
      <trkpt lat="43.86503" lon="6.5638">
        <ele>873</ele>
        <time>2018-05-26T09:39:45Z</time>
      </trkpt>
      <trkpt lat="43.86507" lon="6.56344">
        <ele>872</ele>
        <time>2018-05-26T09:40:00Z</time>
      </trkpt>
      <trkpt lat="43.86506" lon="6.56316">
        <ele>868</ele>
        <time>2018-05-26T09:40:12Z</time>
      </trkpt>
      <trkpt lat="43.86519" lon="6.56276">
        <ele>874</ele>
        <time>2018-05-26T09:40:29Z</time>
      </trkpt>
      <trkpt lat="43.86522" lon="6.56242">
        <ele>874</ele>
        <time>2018-05-26T09:40:42Z</time>
      </trkpt>
      <trkpt lat="43.86519" lon="6.56204">
        <ele>873</ele>
        <time>2018-05-26T09:40:56Z</time>
      </trkpt>
      <trkpt lat="43.8653" lon="6.56168">
        <ele>874</ele>
        <time>2018-05-26T09:41:11Z</time>
      </trkpt>
      <trkpt lat="43.86552" lon="6.56145">
        <ele>876</ele>
        <time>2018-05-26T09:41:26Z</time>
      </trkpt>
      <trkpt lat="43.86578" lon="6.56142">
        <ele>877</ele>
        <time>2018-05-26T09:41:40Z</time>
      </trkpt>
      <trkpt lat="43.86602" lon="6.56144">
        <ele>879</ele>
        <time>2018-05-26T09:41:53Z</time>
      </trkpt>
      <trkpt lat="43.86624" lon="6.56156">
        <ele>884</ele>
        <time>2018-05-26T09:42:07Z</time>
      </trkpt>
      <trkpt lat="43.86632" lon="6.56156">
        <ele>885</ele>
        <time>2018-05-26T09:42:12Z</time>
      </trkpt>
      <trkpt lat="43.86634" lon="6.56154">
        <ele>884</ele>
        <time>2018-05-26T09:42:13Z</time>
      </trkpt>
      <trkpt lat="43.86635" lon="6.56152">
        <ele>884</ele>
        <time>2018-05-26T09:42:14Z</time>
      </trkpt>
      <trkpt lat="43.86637" lon="6.5615">
        <ele>884</ele>
        <time>2018-05-26T09:42:15Z</time>
      </trkpt>
      <trkpt lat="43.86638" lon="6.56148">
        <ele>884</ele>
        <time>2018-05-26T09:42:16Z</time>
      </trkpt>
      <trkpt lat="43.86641" lon="6.56144">
        <ele>884</ele>
        <time>2018-05-26T09:42:18Z</time>
      </trkpt>
      <trkpt lat="43.86642" lon="6.56141">
        <ele>883</ele>
        <time>2018-05-26T09:42:19Z</time>
      </trkpt>
      <trkpt lat="43.86642" lon="6.56139">
        <ele>883</ele>
        <time>2018-05-26T09:42:20Z</time>
      </trkpt>
      <trkpt lat="43.86642" lon="6.56136">
        <ele>883</ele>
        <time>2018-05-26T09:42:21Z</time>
      </trkpt>
      <trkpt lat="43.86643" lon="6.56133">
        <ele>883</ele>
        <time>2018-05-26T09:42:22Z</time>
      </trkpt>
      <trkpt lat="43.86643" lon="6.56131">
        <ele>883</ele>
        <time>2018-05-26T09:42:23Z</time>
      </trkpt>
      <trkpt lat="43.86644" lon="6.56092">
        <ele>884</ele>
        <time>2018-05-26T09:42:37Z</time>
      </trkpt>
      <trkpt lat="43.86649" lon="6.56079">
        <ele>886</ele>
        <time>2018-05-26T09:42:43Z</time>
      </trkpt>
      <trkpt lat="43.8665" lon="6.56078">
        <ele>886</ele>
        <time>2018-05-26T09:42:44Z</time>
      </trkpt>
      <trkpt lat="43.86652" lon="6.56076">
        <ele>886</ele>
        <time>2018-05-26T09:42:45Z</time>
      </trkpt>
      <trkpt lat="43.86653" lon="6.56075">
        <ele>887</ele>
        <time>2018-05-26T09:42:46Z</time>
      </trkpt>
      <trkpt lat="43.86654" lon="6.56074">
        <ele>887</ele>
        <time>2018-05-26T09:42:47Z</time>
      </trkpt>
      <trkpt lat="43.86656" lon="6.56073">
        <ele>887</ele>
        <time>2018-05-26T09:42:48Z</time>
      </trkpt>
      <trkpt lat="43.86657" lon="6.56072">
        <ele>887</ele>
        <time>2018-05-26T09:42:49Z</time>
      </trkpt>
      <trkpt lat="43.86659" lon="6.5607">
        <ele>887</ele>
        <time>2018-05-26T09:42:50Z</time>
      </trkpt>
      <trkpt lat="43.8666" lon="6.56068">
        <ele>888</ele>
        <time>2018-05-26T09:42:51Z</time>
      </trkpt>
      <trkpt lat="43.86674" lon="6.56055">
        <ele>890</ele>
        <time>2018-05-26T09:43:00Z</time>
      </trkpt>
      <trkpt lat="43.86676" lon="6.56054">
        <ele>890</ele>
        <time>2018-05-26T09:43:01Z</time>
      </trkpt>
      <trkpt lat="43.86698" lon="6.56035">
        <ele>893</ele>
        <time>2018-05-26T09:43:15Z</time>
      </trkpt>
      <trkpt lat="43.86722" lon="6.56023">
        <ele>896</ele>
        <time>2018-05-26T09:43:30Z</time>
      </trkpt>
      <trkpt lat="43.86729" lon="6.5602">
        <ele>897</ele>
        <time>2018-05-26T09:43:34Z</time>
      </trkpt>
      <trkpt lat="43.86731" lon="6.56019">
        <ele>897</ele>
        <time>2018-05-26T09:43:35Z</time>
      </trkpt>
      <trkpt lat="43.86755" lon="6.55989">
        <ele>899</ele>
        <time>2018-05-26T09:43:52Z</time>
      </trkpt>
      <trkpt lat="43.86765" lon="6.55945">
        <ele>896</ele>
        <time>2018-05-26T09:44:10Z</time>
      </trkpt>
      <trkpt lat="43.86787" lon="6.55925">
        <ele>898</ele>
        <time>2018-05-26T09:44:24Z</time>
      </trkpt>
      <trkpt lat="43.86814" lon="6.55913">
        <ele>901</ele>
        <time>2018-05-26T09:44:38Z</time>
      </trkpt>
      <trkpt lat="43.86833" lon="6.55889">
        <ele>902</ele>
        <time>2018-05-26T09:44:51Z</time>
      </trkpt>
      <trkpt lat="43.86856" lon="6.55862">
        <ele>902</ele>
        <time>2018-05-26T09:45:06Z</time>
      </trkpt>
      <trkpt lat="43.86885" lon="6.55849">
        <ele>900</ele>
        <time>2018-05-26T09:45:22Z</time>
      </trkpt>
      <trkpt lat="43.86906" lon="6.55847">
        <ele>897</ele>
        <time>2018-05-26T09:45:37Z</time>
      </trkpt>
      <trkpt lat="43.86908" lon="6.55848">
        <ele>897</ele>
        <time>2018-05-26T09:45:42Z</time>
      </trkpt>
      <trkpt lat="43.86906" lon="6.55847">
        <ele>897</ele>
        <time>2018-05-26T09:45:45Z</time>
      </trkpt>
      <trkpt lat="43.86884" lon="6.55849">
        <ele>900</ele>
        <time>2018-05-26T09:45:56Z</time>
      </trkpt>
      <trkpt lat="43.86884" lon="6.55851">
        <ele>901</ele>
        <time>2018-05-26T09:45:57Z</time>
      </trkpt>
      <trkpt lat="43.86885" lon="6.55853">
        <ele>901</ele>
        <time>2018-05-26T09:45:58Z</time>
      </trkpt>
      <trkpt lat="43.86886" lon="6.55853">
        <ele>901</ele>
        <time>2018-05-26T09:45:59Z</time>
      </trkpt>
      <trkpt lat="43.86887" lon="6.55853">
        <ele>901</ele>
        <time>2018-05-26T09:46:00Z</time>
      </trkpt>
      <trkpt lat="43.86889" lon="6.55851">
        <ele>900</ele>
        <time>2018-05-26T09:46:01Z</time>
      </trkpt>
      <trkpt lat="43.8689" lon="6.5585">
        <ele>900</ele>
        <time>2018-05-26T09:46:02Z</time>
      </trkpt>
      <trkpt lat="43.86891" lon="6.55849">
        <ele>899</ele>
        <time>2018-05-26T09:46:03Z</time>
      </trkpt>
      <trkpt lat="43.86893" lon="6.55848">
        <ele>899</ele>
        <time>2018-05-26T09:46:04Z</time>
      </trkpt>
      <trkpt lat="43.86894" lon="6.55848">
        <ele>899</ele>
        <time>2018-05-26T09:46:05Z</time>
      </trkpt>
      <trkpt lat="43.86895" lon="6.55848">
        <ele>898</ele>
        <time>2018-05-26T09:46:06Z</time>
      </trkpt>
      <trkpt lat="43.86908" lon="6.55849">
        <ele>897</ele>
        <time>2018-05-26T09:46:19Z</time>
      </trkpt>
      <trkpt lat="43.86907" lon="6.55851">
        <ele>898</ele>
        <time>2018-05-26T09:46:38Z</time>
      </trkpt>
      <trkpt lat="43.86909" lon="6.55856">
        <ele>899</ele>
        <time>2018-05-26T09:47:25Z</time>
      </trkpt>
      <trkpt lat="43.86908" lon="6.55855">
        <ele>899</ele>
        <time>2018-05-26T09:47:27Z</time>
      </trkpt>
      <trkpt lat="43.86906" lon="6.55852">
        <ele>898</ele>
        <time>2018-05-26T09:47:31Z</time>
      </trkpt>
      <trkpt lat="43.86885" lon="6.55848">
        <ele>900</ele>
        <time>2018-05-26T09:47:49Z</time>
      </trkpt>
      <trkpt lat="43.86884" lon="6.55848">
        <ele>900</ele>
        <time>2018-05-26T09:47:52Z</time>
      </trkpt>
      <trkpt lat="43.86879" lon="6.55848">
        <ele>901</ele>
        <time>2018-05-26T09:48:05Z</time>
      </trkpt>
      <trkpt lat="43.86878" lon="6.55848">
        <ele>901</ele>
        <time>2018-05-26T09:48:13Z</time>
      </trkpt>
      <trkpt lat="43.86877" lon="6.55847">
        <ele>901</ele>
        <time>2018-05-26T09:48:20Z</time>
      </trkpt>
      <trkpt lat="43.86867" lon="6.55854">
        <ele>902</ele>
        <time>2018-05-26T09:48:27Z</time>
      </trkpt>
      <trkpt lat="43.86865" lon="6.55856">
        <ele>902</ele>
        <time>2018-05-26T09:48:28Z</time>
      </trkpt>
      <trkpt lat="43.86863" lon="6.55858">
        <ele>902</ele>
        <time>2018-05-26T09:48:29Z</time>
      </trkpt>
      <trkpt lat="43.86861" lon="6.5586">
        <ele>902</ele>
        <time>2018-05-26T09:48:30Z</time>
      </trkpt>
      <trkpt lat="43.86859" lon="6.55861">
        <ele>902</ele>
        <time>2018-05-26T09:48:31Z</time>
      </trkpt>
      <trkpt lat="43.86857" lon="6.55863">
        <ele>902</ele>
        <time>2018-05-26T09:48:32Z</time>
      </trkpt>
      <trkpt lat="43.86855" lon="6.55863">
        <ele>902</ele>
        <time>2018-05-26T09:48:33Z</time>
      </trkpt>
      <trkpt lat="43.86853" lon="6.55862">
        <ele>901</ele>
        <time>2018-05-26T09:48:34Z</time>
      </trkpt>
      <trkpt lat="43.86851" lon="6.55859">
        <ele>901</ele>
        <time>2018-05-26T09:48:36Z</time>
      </trkpt>
      <trkpt lat="43.8685" lon="6.55853">
        <ele>900</ele>
        <time>2018-05-26T09:48:38Z</time>
      </trkpt>
      <trkpt lat="43.8685" lon="6.55848">
        <ele>899</ele>
        <time>2018-05-26T09:48:40Z</time>
      </trkpt>
      <trkpt lat="43.86847" lon="6.55818">
        <ele>895</ele>
        <time>2018-05-26T09:48:52Z</time>
      </trkpt>
      <trkpt lat="43.86846" lon="6.55814">
        <ele>894</ele>
        <time>2018-05-26T09:48:54Z</time>
      </trkpt>
      <trkpt lat="43.86849" lon="6.55803">
        <ele>892</ele>
        <time>2018-05-26T09:48:59Z</time>
      </trkpt>
      <trkpt lat="43.86858" lon="6.55796">
        <ele>892</ele>
        <time>2018-05-26T09:49:12Z</time>
      </trkpt>
      <trkpt lat="43.86857" lon="6.55796">
        <ele>892</ele>
        <time>2018-05-26T09:49:38Z</time>
      </trkpt>
      <trkpt lat="43.86858" lon="6.55794">
        <ele>891</ele>
        <time>2018-05-26T09:50:08Z</time>
      </trkpt>
      <trkpt lat="43.86857" lon="6.55787">
        <ele>890</ele>
        <time>2018-05-26T09:50:21Z</time>
      </trkpt>
      <trkpt lat="43.86855" lon="6.55777">
        <ele>888</ele>
        <time>2018-05-26T09:50:35Z</time>
      </trkpt>
      <trkpt lat="43.86859" lon="6.55771">
        <ele>887</ele>
        <time>2018-05-26T09:50:49Z</time>
      </trkpt>
      <trkpt lat="43.86862" lon="6.55764">
        <ele>886</ele>
        <time>2018-05-26T09:51:04Z</time>
      </trkpt>
      <trkpt lat="43.86859" lon="6.55764">
        <ele>885</ele>
        <time>2018-05-26T09:51:09Z</time>
      </trkpt>
      <trkpt lat="43.86845" lon="6.55755">
        <ele>883</ele>
        <time>2018-05-26T09:51:26Z</time>
      </trkpt>
      <trkpt lat="43.86847" lon="6.5575">
        <ele>882</ele>
        <time>2018-05-26T09:51:39Z</time>
      </trkpt>
      <trkpt lat="43.86848" lon="6.55748">
        <ele>882</ele>
        <time>2018-05-26T09:51:44Z</time>
      </trkpt>
      <trkpt lat="43.86857" lon="6.55743">
        <ele>881</ele>
        <time>2018-05-26T09:51:57Z</time>
      </trkpt>
      <trkpt lat="43.8687" lon="6.55737">
        <ele>880</ele>
        <time>2018-05-26T09:52:15Z</time>
      </trkpt>
      <trkpt lat="43.86871" lon="6.55735">
        <ele>879</ele>
        <time>2018-05-26T09:52:20Z</time>
      </trkpt>
      <trkpt lat="43.86863" lon="6.55726">
        <ele>877</ele>
        <time>2018-05-26T09:52:32Z</time>
      </trkpt>
      <trkpt lat="43.86853" lon="6.55719">
        <ele>875</ele>
        <time>2018-05-26T09:52:47Z</time>
      </trkpt>
      <trkpt lat="43.86845" lon="6.55715">
        <ele>874</ele>
        <time>2018-05-26T09:53:02Z</time>
      </trkpt>
      <trkpt lat="43.86846" lon="6.55712">
        <ele>873</ele>
        <time>2018-05-26T09:53:20Z</time>
      </trkpt>
      <trkpt lat="43.86852" lon="6.55704">
        <ele>872</ele>
        <time>2018-05-26T09:53:34Z</time>
      </trkpt>
      <trkpt lat="43.86858" lon="6.55693">
        <ele>869</ele>
        <time>2018-05-26T09:53:47Z</time>
      </trkpt>
      <trkpt lat="43.86862" lon="6.55684">
        <ele>867</ele>
        <time>2018-05-26T09:54:02Z</time>
      </trkpt>
      <trkpt lat="43.86861" lon="6.55683">
        <ele>867</ele>
        <time>2018-05-26T09:54:25Z</time>
      </trkpt>
      <trkpt lat="43.86862" lon="6.55677">
        <ele>865</ele>
        <time>2018-05-26T09:54:47Z</time>
      </trkpt>
      <trkpt lat="43.86859" lon="6.55667">
        <ele>863</ele>
        <time>2018-05-26T09:54:59Z</time>
      </trkpt>
      <trkpt lat="43.8686" lon="6.55653">
        <ele>860</ele>
        <time>2018-05-26T09:55:13Z</time>
      </trkpt>
      <trkpt lat="43.86862" lon="6.55651">
        <ele>860</ele>
        <time>2018-05-26T09:55:50Z</time>
      </trkpt>
      <trkpt lat="43.86864" lon="6.5565">
        <ele>859</ele>
        <time>2018-05-26T09:56:32Z</time>
      </trkpt>
      <trkpt lat="43.86862" lon="6.55657">
        <ele>861</ele>
        <time>2018-05-26T09:57:15Z</time>
      </trkpt>
      <trkpt lat="43.86858" lon="6.5566">
        <ele>862</ele>
        <time>2018-05-26T09:57:51Z</time>
      </trkpt>
      <trkpt lat="43.86859" lon="6.55656">
        <ele>861</ele>
        <time>2018-05-26T09:58:32Z</time>
      </trkpt>
      <trkpt lat="43.86864" lon="6.55656">
        <ele>860</ele>
        <time>2018-05-26T09:59:10Z</time>
      </trkpt>
      <trkpt lat="43.8686" lon="6.55653">
        <ele>860</ele>
        <time>2018-05-26T09:59:44Z</time>
      </trkpt>
      <trkpt lat="43.86852" lon="6.5565">
        <ele>860</ele>
        <time>2018-05-26T09:59:58Z</time>
      </trkpt>
      <trkpt lat="43.86847" lon="6.55643">
        <ele>859</ele>
        <time>2018-05-26T10:00:09Z</time>
      </trkpt>
      <trkpt lat="43.86842" lon="6.55636">
        <ele>859</ele>
        <time>2018-05-26T10:00:23Z</time>
      </trkpt>
      <trkpt lat="43.86837" lon="6.55633">
        <ele>859</ele>
        <time>2018-05-26T10:00:42Z</time>
      </trkpt>
      <trkpt lat="43.86837" lon="6.55621">
        <ele>857</ele>
        <time>2018-05-26T10:00:56Z</time>
      </trkpt>
      <trkpt lat="43.86833" lon="6.55617">
        <ele>856</ele>
        <time>2018-05-26T10:01:09Z</time>
      </trkpt>
      <trkpt lat="43.8683" lon="6.55615">
        <ele>856</ele>
        <time>2018-05-26T10:01:17Z</time>
      </trkpt>
      <trkpt lat="43.86832" lon="6.55613">
        <ele>855</ele>
        <time>2018-05-26T10:01:29Z</time>
      </trkpt>
      <trkpt lat="43.86833" lon="6.55613">
        <ele>855</ele>
        <time>2018-05-26T10:01:45Z</time>
      </trkpt>
      <trkpt lat="43.86835" lon="6.55616">
        <ele>856</ele>
        <time>2018-05-26T10:01:59Z</time>
      </trkpt>
      <trkpt lat="43.86842" lon="6.55619">
        <ele>856</ele>
        <time>2018-05-26T10:02:13Z</time>
      </trkpt>
      <trkpt lat="43.86846" lon="6.55619">
        <ele>856</ele>
        <time>2018-05-26T10:02:30Z</time>
      </trkpt>
      <trkpt lat="43.86847" lon="6.55621">
        <ele>856</ele>
        <time>2018-05-26T10:03:06Z</time>
      </trkpt>
      <trkpt lat="43.86846" lon="6.55619">
        <ele>856</ele>
        <time>2018-05-26T10:03:56Z</time>
      </trkpt>
      <trkpt lat="43.86851" lon="6.55622">
        <ele>856</ele>
        <time>2018-05-26T10:04:28Z</time>
      </trkpt>
      <trkpt lat="43.86849" lon="6.55624">
        <ele>856</ele>
        <time>2018-05-26T10:05:21Z</time>
      </trkpt>
      <trkpt lat="43.86853" lon="6.55622">
        <ele>855</ele>
        <time>2018-05-26T10:06:04Z</time>
      </trkpt>
      <trkpt lat="43.86849" lon="6.55617">
        <ele>855</ele>
        <time>2018-05-26T10:06:22Z</time>
      </trkpt>
      <trkpt lat="43.8684" lon="6.5561">
        <ele>855</ele>
        <time>2018-05-26T10:06:36Z</time>
      </trkpt>
      <trkpt lat="43.86831" lon="6.55606">
        <ele>854</ele>
        <time>2018-05-26T10:06:51Z</time>
      </trkpt>
      <trkpt lat="43.86826" lon="6.55599">
        <ele>853</ele>
        <time>2018-05-26T10:07:06Z</time>
      </trkpt>
      <trkpt lat="43.86822" lon="6.55593">
        <ele>852</ele>
        <time>2018-05-26T10:07:21Z</time>
      </trkpt>
      <trkpt lat="43.86822" lon="6.55588">
        <ele>851</ele>
        <time>2018-05-26T10:07:36Z</time>
      </trkpt>
      <trkpt lat="43.86824" lon="6.5558">
        <ele>849</ele>
        <time>2018-05-26T10:07:48Z</time>
      </trkpt>
      <trkpt lat="43.86823" lon="6.55573">
        <ele>848</ele>
        <time>2018-05-26T10:08:01Z</time>
      </trkpt>
      <trkpt lat="43.86824" lon="6.5557">
        <ele>847</ele>
        <time>2018-05-26T10:08:19Z</time>
      </trkpt>
      <trkpt lat="43.86826" lon="6.55563">
        <ele>846</ele>
        <time>2018-05-26T10:08:41Z</time>
      </trkpt>
      <trkpt lat="43.86828" lon="6.55554">
        <ele>844</ele>
        <time>2018-05-26T10:08:57Z</time>
      </trkpt>
      <trkpt lat="43.86833" lon="6.5555">
        <ele>842</ele>
        <time>2018-05-26T10:09:09Z</time>
      </trkpt>
      <trkpt lat="43.8684" lon="6.55547">
        <ele>842</ele>
        <time>2018-05-26T10:09:22Z</time>
      </trkpt>
      <trkpt lat="43.86843" lon="6.55549">
        <ele>842</ele>
        <time>2018-05-26T10:09:37Z</time>
      </trkpt>
      <trkpt lat="43.86846" lon="6.55549">
        <ele>842</ele>
        <time>2018-05-26T10:09:49Z</time>
      </trkpt>
      <trkpt lat="43.8685" lon="6.55549">
        <ele>841</ele>
        <time>2018-05-26T10:10:20Z</time>
      </trkpt>
      <trkpt lat="43.86853" lon="6.55549">
        <ele>841</ele>
        <time>2018-05-26T10:10:34Z</time>
      </trkpt>
      <trkpt lat="43.86854" lon="6.55541">
        <ele>839</ele>
        <time>2018-05-26T10:10:50Z</time>
      </trkpt>
      <trkpt lat="43.86859" lon="6.55539">
        <ele>838</ele>
        <time>2018-05-26T10:11:08Z</time>
      </trkpt>
      <trkpt lat="43.86867" lon="6.55535">
        <ele>836</ele>
        <time>2018-05-26T10:11:24Z</time>
      </trkpt>
      <trkpt lat="43.86876" lon="6.55538">
        <ele>836</ele>
        <time>2018-05-26T10:11:37Z</time>
      </trkpt>
      <trkpt lat="43.86878" lon="6.5554">
        <ele>836</ele>
        <time>2018-05-26T10:11:50Z</time>
      </trkpt>
      <trkpt lat="43.86876" lon="6.55547">
        <ele>838</ele>
        <time>2018-05-26T10:12:27Z</time>
      </trkpt>
      <trkpt lat="43.86874" lon="6.5555">
        <ele>838</ele>
        <time>2018-05-26T10:13:04Z</time>
      </trkpt>
      <trkpt lat="43.86873" lon="6.55549">
        <ele>838</ele>
        <time>2018-05-26T10:13:33Z</time>
      </trkpt>
      <trkpt lat="43.86874" lon="6.55547">
        <ele>838</ele>
        <time>2018-05-26T10:13:56Z</time>
      </trkpt>
      <trkpt lat="43.86872" lon="6.55548">
        <ele>838</ele>
        <time>2018-05-26T10:14:21Z</time>
      </trkpt>
      <trkpt lat="43.86872" lon="6.55543">
        <ele>837</ele>
        <time>2018-05-26T10:14:44Z</time>
      </trkpt>
      <trkpt lat="43.86877" lon="6.55544">
        <ele>837</ele>
        <time>2018-05-26T10:15:14Z</time>
      </trkpt>
      <trkpt lat="43.86871" lon="6.55541">
        <ele>837</ele>
        <time>2018-05-26T10:15:24Z</time>
      </trkpt>
      <trkpt lat="43.86866" lon="6.5554">
        <ele>837</ele>
        <time>2018-05-26T10:15:35Z</time>
      </trkpt>
      <trkpt lat="43.8686" lon="6.55539">
        <ele>838</ele>
        <time>2018-05-26T10:15:48Z</time>
      </trkpt>
      <trkpt lat="43.86854" lon="6.55541">
        <ele>839</ele>
        <time>2018-05-26T10:16:04Z</time>
      </trkpt>
      <trkpt lat="43.86853" lon="6.55547">
        <ele>840</ele>
        <time>2018-05-26T10:16:19Z</time>
      </trkpt>
      <trkpt lat="43.86854" lon="6.55553">
        <ele>841</ele>
        <time>2018-05-26T10:16:32Z</time>
      </trkpt>
      <trkpt lat="43.86859" lon="6.55554">
        <ele>841</ele>
        <time>2018-05-26T10:16:46Z</time>
      </trkpt>
      <trkpt lat="43.86866" lon="6.55562">
        <ele>842</ele>
        <time>2018-05-26T10:17:02Z</time>
      </trkpt>
      <trkpt lat="43.86874" lon="6.55566">
        <ele>842</ele>
        <time>2018-05-26T10:17:14Z</time>
      </trkpt>
      <trkpt lat="43.86877" lon="6.55564">
        <ele>841</ele>
        <time>2018-05-26T10:17:43Z</time>
      </trkpt>
      <trkpt lat="43.86879" lon="6.55568">
        <ele>842</ele>
        <time>2018-05-26T10:18:15Z</time>
      </trkpt>
      <trkpt lat="43.8688" lon="6.55563">
        <ele>841</ele>
        <time>2018-05-26T10:18:44Z</time>
      </trkpt>
      <trkpt lat="43.86873" lon="6.55563">
        <ele>841</ele>
        <time>2018-05-26T10:19:09Z</time>
      </trkpt>
      <trkpt lat="43.86864" lon="6.55561">
        <ele>842</ele>
        <time>2018-05-26T10:19:26Z</time>
      </trkpt>
      <trkpt lat="43.86861" lon="6.55561">
        <ele>842</ele>
        <time>2018-05-26T10:19:41Z</time>
      </trkpt>
      <trkpt lat="43.86861" lon="6.55563">
        <ele>843</ele>
        <time>2018-05-26T10:19:54Z</time>
      </trkpt>
      <trkpt lat="43.8686" lon="6.55564">
        <ele>843</ele>
        <time>2018-05-26T10:20:06Z</time>
      </trkpt>
      <trkpt lat="43.86857" lon="6.55564">
        <ele>844</ele>
        <time>2018-05-26T10:20:20Z</time>
      </trkpt>
      <trkpt lat="43.86851" lon="6.55564">
        <ele>844</ele>
        <time>2018-05-26T10:20:34Z</time>
      </trkpt>
      <trkpt lat="43.86847" lon="6.55566">
        <ele>845</ele>
        <time>2018-05-26T10:20:50Z</time>
      </trkpt>
      <trkpt lat="43.86842" lon="6.55563">
        <ele>845</ele>
        <time>2018-05-26T10:21:04Z</time>
      </trkpt>
      <trkpt lat="43.86839" lon="6.55559">
        <ele>844</ele>
        <time>2018-05-26T10:21:18Z</time>
      </trkpt>
      <trkpt lat="43.86844" lon="6.55557">
        <ele>844</ele>
        <time>2018-05-26T10:21:42Z</time>
      </trkpt>
      <trkpt lat="43.8684" lon="6.55558">
        <ele>844</ele>
        <time>2018-05-26T10:21:57Z</time>
      </trkpt>
      <trkpt lat="43.86837" lon="6.55561">
        <ele>845</ele>
        <time>2018-05-26T10:22:14Z</time>
      </trkpt>
      <trkpt lat="43.86833" lon="6.55558">
        <ele>844</ele>
        <time>2018-05-26T10:22:33Z</time>
      </trkpt>
      <trkpt lat="43.86827" lon="6.55556">
        <ele>844</ele>
        <time>2018-05-26T10:22:46Z</time>
      </trkpt>
      <trkpt lat="43.86819" lon="6.55556">
        <ele>844</ele>
        <time>2018-05-26T10:23:00Z</time>
      </trkpt>
      <trkpt lat="43.86819" lon="6.55562">
        <ele>845</ele>
        <time>2018-05-26T10:23:14Z</time>
      </trkpt>
      <trkpt lat="43.8682" lon="6.55568">
        <ele>847</ele>
        <time>2018-05-26T10:23:29Z</time>
      </trkpt>
      <trkpt lat="43.86823" lon="6.55574">
        <ele>848</ele>
        <time>2018-05-26T10:23:45Z</time>
      </trkpt>
      <trkpt lat="43.86824" lon="6.55575">
        <ele>848</ele>
        <time>2018-05-26T10:23:59Z</time>
      </trkpt>
      <trkpt lat="43.86821" lon="6.5558">
        <ele>849</ele>
        <time>2018-05-26T10:24:19Z</time>
      </trkpt>
      <trkpt lat="43.86817" lon="6.55586">
        <ele>850</ele>
        <time>2018-05-26T10:24:40Z</time>
      </trkpt>
      <trkpt lat="43.86811" lon="6.55591">
        <ele>851</ele>
        <time>2018-05-26T10:24:52Z</time>
      </trkpt>
      <trkpt lat="43.86812" lon="6.55594">
        <ele>852</ele>
        <time>2018-05-26T10:25:13Z</time>
      </trkpt>
      <trkpt lat="43.86807" lon="6.55596">
        <ele>852</ele>
        <time>2018-05-26T10:25:35Z</time>
      </trkpt>
      <trkpt lat="43.86803" lon="6.55606">
        <ele>854</ele>
        <time>2018-05-26T10:25:48Z</time>
      </trkpt>
      <trkpt lat="43.86797" lon="6.55617">
        <ele>855</ele>
        <time>2018-05-26T10:26:01Z</time>
      </trkpt>
      <trkpt lat="43.86794" lon="6.55627">
        <ele>857</ele>
        <time>2018-05-26T10:26:17Z</time>
      </trkpt>
      <trkpt lat="43.86786" lon="6.55638">
        <ele>858</ele>
        <time>2018-05-26T10:26:32Z</time>
      </trkpt>
      <trkpt lat="43.86782" lon="6.55649">
        <ele>859</ele>
        <time>2018-05-26T10:26:48Z</time>
      </trkpt>
      <trkpt lat="43.86795" lon="6.55656">
        <ele>862</ele>
        <time>2018-05-26T10:27:05Z</time>
      </trkpt>
      <trkpt lat="43.86806" lon="6.55658">
        <ele>862</ele>
        <time>2018-05-26T10:27:18Z</time>
      </trkpt>
      <trkpt lat="43.86815" lon="6.55669">
        <ele>864</ele>
        <time>2018-05-26T10:27:35Z</time>
      </trkpt>
      <trkpt lat="43.86825" lon="6.55675">
        <ele>865</ele>
        <time>2018-05-26T10:27:51Z</time>
      </trkpt>
      <trkpt lat="43.8683" lon="6.55678">
        <ele>866</ele>
        <time>2018-05-26T10:28:07Z</time>
      </trkpt>
      <trkpt lat="43.86832" lon="6.55684">
        <ele>867</ele>
        <time>2018-05-26T10:28:23Z</time>
      </trkpt>
      <trkpt lat="43.86832" lon="6.55689">
        <ele>868</ele>
        <time>2018-05-26T10:28:27Z</time>
      </trkpt>
      <trkpt lat="43.86832" lon="6.55701">
        <ele>871</ele>
        <time>2018-05-26T10:28:41Z</time>
      </trkpt>
      <trkpt lat="43.86845" lon="6.55702">
        <ele>871</ele>
        <time>2018-05-26T10:28:58Z</time>
      </trkpt>
      <trkpt lat="43.86851" lon="6.55707">
        <ele>872</ele>
        <time>2018-05-26T10:29:12Z</time>
      </trkpt>
      <trkpt lat="43.86853" lon="6.55706">
        <ele>872</ele>
        <time>2018-05-26T10:29:38Z</time>
      </trkpt>
      <trkpt lat="43.86853" lon="6.55707">
        <ele>872</ele>
        <time>2018-05-26T10:29:50Z</time>
      </trkpt>
      <trkpt lat="43.86852" lon="6.55709">
        <ele>873</ele>
        <time>2018-05-26T10:30:26Z</time>
      </trkpt>
      <trkpt lat="43.86849" lon="6.55707">
        <ele>872</ele>
        <time>2018-05-26T10:31:08Z</time>
      </trkpt>
      <trkpt lat="43.86849" lon="6.55707">
        <ele>872</ele>
        <time>2018-05-26T10:31:37Z</time>
      </trkpt>
      <trkpt lat="43.86844" lon="6.55717">
        <ele>874</ele>
        <time>2018-05-26T10:31:53Z</time>
      </trkpt>
      <trkpt lat="43.86852" lon="6.55718">
        <ele>875</ele>
        <time>2018-05-26T10:32:07Z</time>
      </trkpt>
      <trkpt lat="43.86861" lon="6.55725">
        <ele>877</ele>
        <time>2018-05-26T10:32:20Z</time>
      </trkpt>
      <trkpt lat="43.86867" lon="6.55731">
        <ele>878</ele>
        <time>2018-05-26T10:32:32Z</time>
      </trkpt>
      <trkpt lat="43.8687" lon="6.55744">
        <ele>881</ele>
        <time>2018-05-26T10:32:47Z</time>
      </trkpt>
      <trkpt lat="43.86873" lon="6.55744">
        <ele>881</ele>
        <time>2018-05-26T10:33:06Z</time>
      </trkpt>
      <trkpt lat="43.86874" lon="6.55743">
        <ele>881</ele>
        <time>2018-05-26T10:33:38Z</time>
      </trkpt>
      <trkpt lat="43.8687" lon="6.5574">
        <ele>880</ele>
        <time>2018-05-26T10:33:53Z</time>
      </trkpt>
      <trkpt lat="43.8687" lon="6.55735">
        <ele>879</ele>
        <time>2018-05-26T10:34:23Z</time>
      </trkpt>
      <trkpt lat="43.86859" lon="6.5574">
        <ele>880</ele>
        <time>2018-05-26T10:34:37Z</time>
      </trkpt>
      <trkpt lat="43.8685" lon="6.55745">
        <ele>881</ele>
        <time>2018-05-26T10:34:53Z</time>
      </trkpt>
      <trkpt lat="43.86844" lon="6.55756">
        <ele>883</ele>
        <time>2018-05-26T10:35:09Z</time>
      </trkpt>
      <trkpt lat="43.8685" lon="6.55758">
        <ele>884</ele>
        <time>2018-05-26T10:35:25Z</time>
      </trkpt>
      <trkpt lat="43.86857" lon="6.55764">
        <ele>885</ele>
        <time>2018-05-26T10:35:41Z</time>
      </trkpt>
      <trkpt lat="43.86851" lon="6.55775">
        <ele>888</ele>
        <time>2018-05-26T10:35:56Z</time>
      </trkpt>
      <trkpt lat="43.86854" lon="6.55781">
        <ele>889</ele>
        <time>2018-05-26T10:36:10Z</time>
      </trkpt>
      <trkpt lat="43.86855" lon="6.55787">
        <ele>890</ele>
        <time>2018-05-26T10:36:24Z</time>
      </trkpt>
      <trkpt lat="43.86854" lon="6.55791">
        <ele>891</ele>
        <time>2018-05-26T10:36:38Z</time>
      </trkpt>
      <trkpt lat="43.86854" lon="6.55793">
        <ele>891</ele>
        <time>2018-05-26T10:36:52Z</time>
      </trkpt>
      <trkpt lat="43.86855" lon="6.55796">
        <ele>892</ele>
        <time>2018-05-26T10:37:02Z</time>
      </trkpt>
      <trkpt lat="43.86864" lon="6.55807">
        <ele>894</ele>
        <time>2018-05-26T10:37:17Z</time>
      </trkpt>
      <trkpt lat="43.86867" lon="6.55811">
        <ele>894</ele>
        <time>2018-05-26T10:37:32Z</time>
      </trkpt>
      <trkpt lat="43.8687" lon="6.55814">
        <ele>895</ele>
        <time>2018-05-26T10:37:53Z</time>
      </trkpt>
      <trkpt lat="43.8687" lon="6.55815">
        <ele>895</ele>
        <time>2018-05-26T10:38:08Z</time>
      </trkpt>
      <trkpt lat="43.8687" lon="6.55823">
        <ele>897</ele>
        <time>2018-05-26T10:38:22Z</time>
      </trkpt>
      <trkpt lat="43.86866" lon="6.55843">
        <ele>900</ele>
        <time>2018-05-26T10:38:41Z</time>
      </trkpt>
      <trkpt lat="43.86865" lon="6.55844">
        <ele>900</ele>
        <time>2018-05-26T10:38:42Z</time>
      </trkpt>
      <trkpt lat="43.86871" lon="6.55853">
        <ele>902</ele>
        <time>2018-05-26T10:38:55Z</time>
      </trkpt>
      <trkpt lat="43.86871" lon="6.55857">
        <ele>902</ele>
        <time>2018-05-26T10:39:06Z</time>
      </trkpt>
      <trkpt lat="43.86869" lon="6.55861">
        <ele>903</ele>
        <time>2018-05-26T10:39:22Z</time>
      </trkpt>
      <trkpt lat="43.86864" lon="6.55863">
        <ele>903</ele>
        <time>2018-05-26T10:39:53Z</time>
      </trkpt>
      <trkpt lat="43.86867" lon="6.55861">
        <ele>903</ele>
        <time>2018-05-26T10:40:32Z</time>
      </trkpt>
      <trkpt lat="43.86868" lon="6.55861">
        <ele>903</ele>
        <time>2018-05-26T10:41:07Z</time>
      </trkpt>
      <trkpt lat="43.86868" lon="6.55865">
        <ele>903</ele>
        <time>2018-05-26T10:41:44Z</time>
      </trkpt>
      <trkpt lat="43.86869" lon="6.5586">
        <ele>903</ele>
        <time>2018-05-26T10:42:21Z</time>
      </trkpt>
      <trkpt lat="43.86869" lon="6.55862">
        <ele>903</ele>
        <time>2018-05-26T10:43:01Z</time>
      </trkpt>
      <trkpt lat="43.86867" lon="6.55865">
        <ele>903</ele>
        <time>2018-05-26T10:43:44Z</time>
      </trkpt>
      <trkpt lat="43.86869" lon="6.55862">
        <ele>903</ele>
        <time>2018-05-26T10:44:31Z</time>
      </trkpt>
      <trkpt lat="43.86868" lon="6.5586">
        <ele>903</ele>
        <time>2018-05-26T10:45:11Z</time>
      </trkpt>
      <trkpt lat="43.86868" lon="6.5586">
        <ele>903</ele>
        <time>2018-05-26T10:45:44Z</time>
      </trkpt>
      <trkpt lat="43.86869" lon="6.55859">
        <ele>902</ele>
        <time>2018-05-26T10:46:22Z</time>
      </trkpt>
      <trkpt lat="43.86866" lon="6.5586">
        <ele>902</ele>
        <time>2018-05-26T10:47:06Z</time>
      </trkpt>
      <trkpt lat="43.86868" lon="6.55859">
        <ele>902</ele>
        <time>2018-05-26T10:47:40Z</time>
      </trkpt>
      <trkpt lat="43.86867" lon="6.5586">
        <ele>903</ele>
        <time>2018-05-26T10:48:07Z</time>
      </trkpt>
      <trkpt lat="43.86867" lon="6.5586">
        <ele>902</ele>
        <time>2018-05-26T10:48:47Z</time>
      </trkpt>
      <trkpt lat="43.86866" lon="6.55862">
        <ele>903</ele>
        <time>2018-05-26T10:49:17Z</time>
      </trkpt>
      <trkpt lat="43.86871" lon="6.5586">
        <ele>903</ele>
        <time>2018-05-26T10:49:54Z</time>
      </trkpt>
      <trkpt lat="43.86869" lon="6.55862">
        <ele>903</ele>
        <time>2018-05-26T10:50:39Z</time>
      </trkpt>
      <trkpt lat="43.8687" lon="6.55861">
        <ele>903</ele>
        <time>2018-05-26T10:51:17Z</time>
      </trkpt>
      <trkpt lat="43.86868" lon="6.55862">
        <ele>903</ele>
        <time>2018-05-26T10:51:52Z</time>
      </trkpt>
      <trkpt lat="43.86868" lon="6.5586">
        <ele>902</ele>
        <time>2018-05-26T10:52:26Z</time>
      </trkpt>
      <trkpt lat="43.86871" lon="6.55864">
        <ele>904</ele>
        <time>2018-05-26T10:53:10Z</time>
      </trkpt>
      <trkpt lat="43.86871" lon="6.55863">
        <ele>903</ele>
        <time>2018-05-26T10:53:39Z</time>
      </trkpt>
      <trkpt lat="43.86869" lon="6.55862">
        <ele>903</ele>
        <time>2018-05-26T10:54:12Z</time>
      </trkpt>
      <trkpt lat="43.8687" lon="6.55863">
        <ele>903</ele>
        <time>2018-05-26T10:54:41Z</time>
      </trkpt>
      <trkpt lat="43.8687" lon="6.55862">
        <ele>903</ele>
        <time>2018-05-26T10:55:10Z</time>
      </trkpt>
      <trkpt lat="43.86868" lon="6.55861">
        <ele>903</ele>
        <time>2018-05-26T10:55:44Z</time>
      </trkpt>
      <trkpt lat="43.86867" lon="6.55859">
        <ele>902</ele>
        <time>2018-05-26T10:56:14Z</time>
      </trkpt>
      <trkpt lat="43.86866" lon="6.55859">
        <ele>902</ele>
        <time>2018-05-26T10:56:45Z</time>
      </trkpt>
      <trkpt lat="43.86867" lon="6.55861">
        <ele>903</ele>
        <time>2018-05-26T10:57:18Z</time>
      </trkpt>
      <trkpt lat="43.86865" lon="6.55863">
        <ele>903</ele>
        <time>2018-05-26T10:57:56Z</time>
      </trkpt>
      <trkpt lat="43.86865" lon="6.55864">
        <ele>903</ele>
        <time>2018-05-26T10:58:36Z</time>
      </trkpt>
      <trkpt lat="43.86866" lon="6.55862">
        <ele>903</ele>
        <time>2018-05-26T10:59:11Z</time>
      </trkpt>
      <trkpt lat="43.86867" lon="6.55864">
        <ele>903</ele>
        <time>2018-05-26T10:59:49Z</time>
      </trkpt>
      <trkpt lat="43.86867" lon="6.55865">
        <ele>903</ele>
        <time>2018-05-26T11:00:31Z</time>
      </trkpt>
      <trkpt lat="43.86867" lon="6.55864">
        <ele>903</ele>
        <time>2018-05-26T11:01:01Z</time>
      </trkpt>
      <trkpt lat="43.86867" lon="6.55865">
        <ele>903</ele>
        <time>2018-05-26T11:01:30Z</time>
      </trkpt>
      <trkpt lat="43.86867" lon="6.55863">
        <ele>903</ele>
        <time>2018-05-26T11:02:06Z</time>
      </trkpt>
      <trkpt lat="43.86868" lon="6.55864">
        <ele>903</ele>
        <time>2018-05-26T11:02:40Z</time>
      </trkpt>
      <trkpt lat="43.86868" lon="6.55862">
        <ele>903</ele>
        <time>2018-05-26T11:03:08Z</time>
      </trkpt>
      <trkpt lat="43.8687" lon="6.5586">
        <ele>903</ele>
        <time>2018-05-26T11:03:48Z</time>
      </trkpt>
      <trkpt lat="43.86871" lon="6.55861">
        <ele>903</ele>
        <time>2018-05-26T11:04:15Z</time>
      </trkpt>
      <trkpt lat="43.86871" lon="6.55862">
        <ele>903</ele>
        <time>2018-05-26T11:04:49Z</time>
      </trkpt>
      <trkpt lat="43.86872" lon="6.55863">
        <ele>903</ele>
        <time>2018-05-26T11:05:22Z</time>
      </trkpt>
      <trkpt lat="43.86872" lon="6.55861">
        <ele>903</ele>
        <time>2018-05-26T11:05:58Z</time>
      </trkpt>
      <trkpt lat="43.86869" lon="6.55864">
        <ele>903</ele>
        <time>2018-05-26T11:06:34Z</time>
      </trkpt>
      <trkpt lat="43.86869" lon="6.55862">
        <ele>903</ele>
        <time>2018-05-26T11:07:19Z</time>
      </trkpt>
      <trkpt lat="43.8687" lon="6.55862">
        <ele>903</ele>
        <time>2018-05-26T11:08:03Z</time>
      </trkpt>
      <trkpt lat="43.8687" lon="6.55865">
        <ele>904</ele>
        <time>2018-05-26T11:08:34Z</time>
      </trkpt>
      <trkpt lat="43.86868" lon="6.55864">
        <ele>903</ele>
        <time>2018-05-26T11:09:08Z</time>
      </trkpt>
      <trkpt lat="43.8687" lon="6.55861">
        <ele>903</ele>
        <time>2018-05-26T11:09:43Z</time>
      </trkpt>
      <trkpt lat="43.86869" lon="6.55864">
        <ele>903</ele>
        <time>2018-05-26T11:10:22Z</time>
      </trkpt>
      <trkpt lat="43.86869" lon="6.55862">
        <ele>903</ele>
        <time>2018-05-26T11:10:54Z</time>
      </trkpt>
      <trkpt lat="43.86871" lon="6.55862">
        <ele>903</ele>
        <time>2018-05-26T11:11:36Z</time>
      </trkpt>
      <trkpt lat="43.86868" lon="6.55864">
        <ele>903</ele>
        <time>2018-05-26T11:12:22Z</time>
      </trkpt>
      <trkpt lat="43.86871" lon="6.55863">
        <ele>903</ele>
        <time>2018-05-26T11:13:04Z</time>
      </trkpt>
      <trkpt lat="43.86869" lon="6.55864">
        <ele>903</ele>
        <time>2018-05-26T11:13:38Z</time>
      </trkpt>
      <trkpt lat="43.86869" lon="6.55862">
        <ele>903</ele>
        <time>2018-05-26T11:14:21Z</time>
      </trkpt>
      <trkpt lat="43.86869" lon="6.55862">
        <ele>903</ele>
        <time>2018-05-26T11:14:59Z</time>
      </trkpt>
      <trkpt lat="43.8687" lon="6.55863">
        <ele>903</ele>
        <time>2018-05-26T11:15:34Z</time>
      </trkpt>
      <trkpt lat="43.86869" lon="6.55863">
        <ele>903</ele>
        <time>2018-05-26T11:16:07Z</time>
      </trkpt>
      <trkpt lat="43.86871" lon="6.55863">
        <ele>903</ele>
        <time>2018-05-26T11:16:49Z</time>
      </trkpt>
      <trkpt lat="43.86869" lon="6.55865">
        <ele>903</ele>
        <time>2018-05-26T11:17:19Z</time>
      </trkpt>
      <trkpt lat="43.86869" lon="6.55862">
        <ele>903</ele>
        <time>2018-05-26T11:17:44Z</time>
      </trkpt>
      <trkpt lat="43.86869" lon="6.55861">
        <ele>903</ele>
        <time>2018-05-26T11:18:14Z</time>
      </trkpt>
      <trkpt lat="43.86867" lon="6.55861">
        <ele>903</ele>
        <time>2018-05-26T11:18:40Z</time>
      </trkpt>
      <trkpt lat="43.86864" lon="6.5586">
        <ele>902</ele>
        <time>2018-05-26T11:19:08Z</time>
      </trkpt>
      <trkpt lat="43.86868" lon="6.55861">
        <ele>903</ele>
        <time>2018-05-26T11:19:30Z</time>
      </trkpt>
      <trkpt lat="43.86869" lon="6.55857">
        <ele>902</ele>
        <time>2018-05-26T11:19:32Z</time>
      </trkpt>
      <trkpt lat="43.8687" lon="6.55853">
        <ele>902</ele>
        <time>2018-05-26T11:19:33Z</time>
      </trkpt>
      <trkpt lat="43.86872" lon="6.55851">
        <ele>902</ele>
        <time>2018-05-26T11:19:34Z</time>
      </trkpt>
      <trkpt lat="43.86873" lon="6.5585">
        <ele>902</ele>
        <time>2018-05-26T11:19:35Z</time>
      </trkpt>
      <trkpt lat="43.86875" lon="6.5585">
        <ele>902</ele>
        <time>2018-05-26T11:19:36Z</time>
      </trkpt>
      <trkpt lat="43.86882" lon="6.5585">
        <ele>901</ele>
        <time>2018-05-26T11:19:40Z</time>
      </trkpt>
      <trkpt lat="43.86883" lon="6.55851">
        <ele>901</ele>
        <time>2018-05-26T11:19:41Z</time>
      </trkpt>
      <trkpt lat="43.86883" lon="6.55852">
        <ele>901</ele>
        <time>2018-05-26T11:19:42Z</time>
      </trkpt>
      <trkpt lat="43.86884" lon="6.55854">
        <ele>901</ele>
        <time>2018-05-26T11:19:43Z</time>
      </trkpt>
      <trkpt lat="43.86884" lon="6.55855">
        <ele>901</ele>
        <time>2018-05-26T11:19:44Z</time>
      </trkpt>
      <trkpt lat="43.86885" lon="6.55857">
        <ele>902</ele>
        <time>2018-05-26T11:19:45Z</time>
      </trkpt>
      <trkpt lat="43.86885" lon="6.55862">
        <ele>903</ele>
        <time>2018-05-26T11:19:49Z</time>
      </trkpt>
      <trkpt lat="43.86884" lon="6.55864">
        <ele>903</ele>
        <time>2018-05-26T11:19:51Z</time>
      </trkpt>
      <trkpt lat="43.8688" lon="6.55866">
        <ele>904</ele>
        <time>2018-05-26T11:19:55Z</time>
      </trkpt>
      <trkpt lat="43.86878" lon="6.55867">
        <ele>904</ele>
        <time>2018-05-26T11:19:56Z</time>
      </trkpt>
      <trkpt lat="43.86877" lon="6.55868">
        <ele>904</ele>
        <time>2018-05-26T11:19:57Z</time>
      </trkpt>
      <trkpt lat="43.86876" lon="6.55869">
        <ele>905</ele>
        <time>2018-05-26T11:19:58Z</time>
      </trkpt>
      <trkpt lat="43.86875" lon="6.5587">
        <ele>905</ele>
        <time>2018-05-26T11:19:59Z</time>
      </trkpt>
      <trkpt lat="43.86874" lon="6.55871">
        <ele>905</ele>
        <time>2018-05-26T11:20:00Z</time>
      </trkpt>
      <trkpt lat="43.86874" lon="6.55872">
        <ele>905</ele>
        <time>2018-05-26T11:20:01Z</time>
      </trkpt>
      <trkpt lat="43.86865" lon="6.55887">
        <ele>906</ele>
        <time>2018-05-26T11:20:12Z</time>
      </trkpt>
      <trkpt lat="43.86864" lon="6.55888">
        <ele>907</ele>
        <time>2018-05-26T11:20:13Z</time>
      </trkpt>
      <trkpt lat="43.86864" lon="6.5589">
        <ele>907</ele>
        <time>2018-05-26T11:20:14Z</time>
      </trkpt>
      <trkpt lat="43.86852" lon="6.55927">
        <ele>910</ele>
        <time>2018-05-26T11:20:32Z</time>
      </trkpt>
      <trkpt lat="43.86852" lon="6.5593">
        <ele>910</ele>
        <time>2018-05-26T11:20:33Z</time>
      </trkpt>
      <trkpt lat="43.86852" lon="6.55932">
        <ele>910</ele>
        <time>2018-05-26T11:20:34Z</time>
      </trkpt>
      <trkpt lat="43.86851" lon="6.55934">
        <ele>910</ele>
        <time>2018-05-26T11:20:35Z</time>
      </trkpt>
      <trkpt lat="43.8685" lon="6.55936">
        <ele>910</ele>
        <time>2018-05-26T11:20:36Z</time>
      </trkpt>
      <trkpt lat="43.8685" lon="6.55937">
        <ele>911</ele>
        <time>2018-05-26T11:20:37Z</time>
      </trkpt>
      <trkpt lat="43.86849" lon="6.55939">
        <ele>911</ele>
        <time>2018-05-26T11:20:38Z</time>
      </trkpt>
      <trkpt lat="43.86849" lon="6.55941">
        <ele>911</ele>
        <time>2018-05-26T11:20:39Z</time>
      </trkpt>
      <trkpt lat="43.86839" lon="6.55972">
        <ele>913</ele>
        <time>2018-05-26T11:20:55Z</time>
      </trkpt>
      <trkpt lat="43.8683" lon="6.55995">
        <ele>916</ele>
        <time>2018-05-26T11:21:10Z</time>
      </trkpt>
      <trkpt lat="43.86821" lon="6.56024">
        <ele>919</ele>
        <time>2018-05-26T11:21:27Z</time>
      </trkpt>
      <trkpt lat="43.86816" lon="6.5605">
        <ele>921</ele>
        <time>2018-05-26T11:21:42Z</time>
      </trkpt>
      <trkpt lat="43.86807" lon="6.56076">
        <ele>922</ele>
        <time>2018-05-26T11:21:57Z</time>
      </trkpt>
      <trkpt lat="43.86794" lon="6.56105">
        <ele>923</ele>
        <time>2018-05-26T11:22:13Z</time>
      </trkpt>
      <trkpt lat="43.86788" lon="6.56117">
        <ele>924</ele>
        <time>2018-05-26T11:22:21Z</time>
      </trkpt>
      <trkpt lat="43.86788" lon="6.56119">
        <ele>924</ele>
        <time>2018-05-26T11:22:22Z</time>
      </trkpt>
      <trkpt lat="43.86787" lon="6.56121">
        <ele>924</ele>
        <time>2018-05-26T11:22:23Z</time>
      </trkpt>
      <trkpt lat="43.8678" lon="6.56153">
        <ele>927</ele>
        <time>2018-05-26T11:22:40Z</time>
      </trkpt>
      <trkpt lat="43.86778" lon="6.56167">
        <ele>928</ele>
        <time>2018-05-26T11:22:47Z</time>
      </trkpt>
      <trkpt lat="43.86778" lon="6.56168">
        <ele>928</ele>
        <time>2018-05-26T11:22:48Z</time>
      </trkpt>
      <trkpt lat="43.86778" lon="6.5617">
        <ele>928</ele>
        <time>2018-05-26T11:22:49Z</time>
      </trkpt>
      <trkpt lat="43.86778" lon="6.56172">
        <ele>928</ele>
        <time>2018-05-26T11:22:50Z</time>
      </trkpt>
      <trkpt lat="43.86778" lon="6.56174">
        <ele>929</ele>
        <time>2018-05-26T11:22:51Z</time>
      </trkpt>
      <trkpt lat="43.86779" lon="6.5618">
        <ele>929</ele>
        <time>2018-05-26T11:22:54Z</time>
      </trkpt>
      <trkpt lat="43.86779" lon="6.56181">
        <ele>929</ele>
        <time>2018-05-26T11:22:55Z</time>
      </trkpt>
      <trkpt lat="43.86781" lon="6.56218">
        <ele>933</ele>
        <time>2018-05-26T11:23:13Z</time>
      </trkpt>
      <trkpt lat="43.86781" lon="6.56227">
        <ele>934</ele>
        <time>2018-05-26T11:23:18Z</time>
      </trkpt>
      <trkpt lat="43.8678" lon="6.56229">
        <ele>934</ele>
        <time>2018-05-26T11:23:19Z</time>
      </trkpt>
      <trkpt lat="43.8678" lon="6.5623">
        <ele>934</ele>
        <time>2018-05-26T11:23:20Z</time>
      </trkpt>
      <trkpt lat="43.8678" lon="6.56232">
        <ele>934</ele>
        <time>2018-05-26T11:23:21Z</time>
      </trkpt>
      <trkpt lat="43.8678" lon="6.56234">
        <ele>934</ele>
        <time>2018-05-26T11:23:22Z</time>
      </trkpt>
      <trkpt lat="43.8678" lon="6.56258">
        <ele>936</ele>
        <time>2018-05-26T11:23:35Z</time>
      </trkpt>
      <trkpt lat="43.8678" lon="6.5626">
        <ele>936</ele>
        <time>2018-05-26T11:23:36Z</time>
      </trkpt>
      <trkpt lat="43.8678" lon="6.56262">
        <ele>936</ele>
        <time>2018-05-26T11:23:37Z</time>
      </trkpt>
      <trkpt lat="43.8678" lon="6.56264">
        <ele>936</ele>
        <time>2018-05-26T11:23:38Z</time>
      </trkpt>
      <trkpt lat="43.8678" lon="6.56266">
        <ele>936</ele>
        <time>2018-05-26T11:23:39Z</time>
      </trkpt>
      <trkpt lat="43.86779" lon="6.56267">
        <ele>936</ele>
        <time>2018-05-26T11:23:40Z</time>
      </trkpt>
      <trkpt lat="43.86779" lon="6.56269">
        <ele>936</ele>
        <time>2018-05-26T11:23:41Z</time>
      </trkpt>
      <trkpt lat="43.86779" lon="6.56271">
        <ele>936</ele>
        <time>2018-05-26T11:23:42Z</time>
      </trkpt>
      <trkpt lat="43.86779" lon="6.56273">
        <ele>936</ele>
        <time>2018-05-26T11:23:43Z</time>
      </trkpt>
      <trkpt lat="43.86776" lon="6.56286">
        <ele>937</ele>
        <time>2018-05-26T11:23:50Z</time>
      </trkpt>
      <trkpt lat="43.86776" lon="6.56288">
        <ele>937</ele>
        <time>2018-05-26T11:23:51Z</time>
      </trkpt>
      <trkpt lat="43.86775" lon="6.5629">
        <ele>937</ele>
        <time>2018-05-26T11:23:52Z</time>
      </trkpt>
      <trkpt lat="43.86775" lon="6.56291">
        <ele>937</ele>
        <time>2018-05-26T11:23:53Z</time>
      </trkpt>
      <trkpt lat="43.86775" lon="6.56293">
        <ele>937</ele>
        <time>2018-05-26T11:23:54Z</time>
      </trkpt>
      <trkpt lat="43.86774" lon="6.56295">
        <ele>937</ele>
        <time>2018-05-26T11:23:55Z</time>
      </trkpt>
      <trkpt lat="43.86774" lon="6.56296">
        <ele>937</ele>
        <time>2018-05-26T11:23:56Z</time>
      </trkpt>
      <trkpt lat="43.86768" lon="6.56321">
        <ele>937</ele>
        <time>2018-05-26T11:24:09Z</time>
      </trkpt>
      <trkpt lat="43.86764" lon="6.56347">
        <ele>939</ele>
        <time>2018-05-26T11:24:22Z</time>
      </trkpt>
      <trkpt lat="43.86761" lon="6.56379">
        <ele>943</ele>
        <time>2018-05-26T11:24:38Z</time>
      </trkpt>
      <trkpt lat="43.86744" lon="6.56412">
        <ele>946</ele>
        <time>2018-05-26T11:24:57Z</time>
      </trkpt>
      <trkpt lat="43.86735" lon="6.5642">
        <ele>947</ele>
        <time>2018-05-26T11:25:04Z</time>
      </trkpt>
      <trkpt lat="43.86733" lon="6.5642">
        <ele>947</ele>
        <time>2018-05-26T11:25:05Z</time>
      </trkpt>
      <trkpt lat="43.86732" lon="6.56421">
        <ele>947</ele>
        <time>2018-05-26T11:25:06Z</time>
      </trkpt>
      <trkpt lat="43.8671" lon="6.56427">
        <ele>946</ele>
        <time>2018-05-26T11:25:21Z</time>
      </trkpt>
      <trkpt lat="43.86685" lon="6.5644">
        <ele>948</ele>
        <time>2018-05-26T11:25:38Z</time>
      </trkpt>
      <trkpt lat="43.86661" lon="6.56442">
        <ele>947</ele>
        <time>2018-05-26T11:25:54Z</time>
      </trkpt>
      <trkpt lat="43.86635" lon="6.56435">
        <ele>943</ele>
        <time>2018-05-26T11:26:12Z</time>
      </trkpt>
      <trkpt lat="43.86612" lon="6.56451">
        <ele>941</ele>
        <time>2018-05-26T11:26:27Z</time>
      </trkpt>
      <trkpt lat="43.86611" lon="6.56453">
        <ele>941</ele>
        <time>2018-05-26T11:26:28Z</time>
      </trkpt>
      <trkpt lat="43.86612" lon="6.56455">
        <ele>942</ele>
        <time>2018-05-26T11:26:29Z</time>
      </trkpt>
      <trkpt lat="43.86612" lon="6.56457">
        <ele>942</ele>
        <time>2018-05-26T11:26:30Z</time>
      </trkpt>
      <trkpt lat="43.86612" lon="6.56459">
        <ele>943</ele>
        <time>2018-05-26T11:26:31Z</time>
      </trkpt>
      <trkpt lat="43.86613" lon="6.56461">
        <ele>943</ele>
        <time>2018-05-26T11:26:32Z</time>
      </trkpt>
      <trkpt lat="43.86613" lon="6.56464">
        <ele>944</ele>
        <time>2018-05-26T11:26:33Z</time>
      </trkpt>
      <trkpt lat="43.86615" lon="6.56465">
        <ele>945</ele>
        <time>2018-05-26T11:26:34Z</time>
      </trkpt>
      <trkpt lat="43.86616" lon="6.56466">
        <ele>945</ele>
        <time>2018-05-26T11:26:35Z</time>
      </trkpt>
      <trkpt lat="43.86617" lon="6.56467">
        <ele>946</ele>
        <time>2018-05-26T11:26:36Z</time>
      </trkpt>
      <trkpt lat="43.86618" lon="6.56467">
        <ele>947</ele>
        <time>2018-05-26T11:26:37Z</time>
      </trkpt>
      <trkpt lat="43.8662" lon="6.56467">
        <ele>947</ele>
        <time>2018-05-26T11:26:38Z</time>
      </trkpt>
      <trkpt lat="43.86621" lon="6.56467">
        <ele>948</ele>
        <time>2018-05-26T11:26:39Z</time>
      </trkpt>
      <trkpt lat="43.86623" lon="6.56467">
        <ele>949</ele>
        <time>2018-05-26T11:26:40Z</time>
      </trkpt>
      <trkpt lat="43.86625" lon="6.56467">
        <ele>949</ele>
        <time>2018-05-26T11:26:41Z</time>
      </trkpt>
      <trkpt lat="43.86626" lon="6.56466">
        <ele>950</ele>
        <time>2018-05-26T11:26:42Z</time>
      </trkpt>
      <trkpt lat="43.86628" lon="6.56466">
        <ele>950</ele>
        <time>2018-05-26T11:26:43Z</time>
      </trkpt>
      <trkpt lat="43.86629" lon="6.56466">
        <ele>950</ele>
        <time>2018-05-26T11:26:44Z</time>
      </trkpt>
      <trkpt lat="43.86631" lon="6.56466">
        <ele>950</ele>
        <time>2018-05-26T11:26:45Z</time>
      </trkpt>
      <trkpt lat="43.86657" lon="6.5647">
        <ele>954</ele>
        <time>2018-05-26T11:27:02Z</time>
      </trkpt>
      <trkpt lat="43.86678" lon="6.56479">
        <ele>959</ele>
        <time>2018-05-26T11:27:18Z</time>
      </trkpt>
      <trkpt lat="43.86688" lon="6.5648">
        <ele>960</ele>
        <time>2018-05-26T11:27:25Z</time>
      </trkpt>
      <trkpt lat="43.8669" lon="6.5648">
        <ele>959</ele>
        <time>2018-05-26T11:27:26Z</time>
      </trkpt>
      <trkpt lat="43.86691" lon="6.5648">
        <ele>959</ele>
        <time>2018-05-26T11:27:27Z</time>
      </trkpt>
      <trkpt lat="43.86693" lon="6.5648">
        <ele>960</ele>
        <time>2018-05-26T11:27:28Z</time>
      </trkpt>
      <trkpt lat="43.86695" lon="6.56479">
        <ele>960</ele>
        <time>2018-05-26T11:27:29Z</time>
      </trkpt>
      <trkpt lat="43.86705" lon="6.5648">
        <ele>960</ele>
        <time>2018-05-26T11:27:36Z</time>
      </trkpt>
      <trkpt lat="43.86706" lon="6.56479">
        <ele>960</ele>
        <time>2018-05-26T11:27:37Z</time>
      </trkpt>
      <trkpt lat="43.86708" lon="6.56479">
        <ele>960</ele>
        <time>2018-05-26T11:27:38Z</time>
      </trkpt>
      <trkpt lat="43.86709" lon="6.56479">
        <ele>960</ele>
        <time>2018-05-26T11:27:39Z</time>
      </trkpt>
      <trkpt lat="43.8671" lon="6.56479">
        <ele>960</ele>
        <time>2018-05-26T11:27:40Z</time>
      </trkpt>
      <trkpt lat="43.86712" lon="6.56479">
        <ele>960</ele>
        <time>2018-05-26T11:27:41Z</time>
      </trkpt>
      <trkpt lat="43.86729" lon="6.56484">
        <ele>963</ele>
        <time>2018-05-26T11:27:55Z</time>
      </trkpt>
      <trkpt lat="43.86731" lon="6.56483">
        <ele>963</ele>
        <time>2018-05-26T11:27:56Z</time>
      </trkpt>
      <trkpt lat="43.86732" lon="6.56483">
        <ele>963</ele>
        <time>2018-05-26T11:27:57Z</time>
      </trkpt>
      <trkpt lat="43.86734" lon="6.56483">
        <ele>963</ele>
        <time>2018-05-26T11:27:58Z</time>
      </trkpt>
      <trkpt lat="43.86735" lon="6.56484">
        <ele>963</ele>
        <time>2018-05-26T11:27:59Z</time>
      </trkpt>
      <trkpt lat="43.86737" lon="6.56483">
        <ele>963</ele>
        <time>2018-05-26T11:28:00Z</time>
      </trkpt>
      <trkpt lat="43.86738" lon="6.56483">
        <ele>963</ele>
        <time>2018-05-26T11:28:01Z</time>
      </trkpt>
      <trkpt lat="43.86739" lon="6.56483">
        <ele>964</ele>
        <time>2018-05-26T11:28:02Z</time>
      </trkpt>
      <trkpt lat="43.86762" lon="6.56482">
        <ele>965</ele>
        <time>2018-05-26T11:28:18Z</time>
      </trkpt>
      <trkpt lat="43.86788" lon="6.5649">
        <ele>970</ele>
        <time>2018-05-26T11:28:36Z</time>
      </trkpt>
      <trkpt lat="43.86801" lon="6.56494">
        <ele>972</ele>
        <time>2018-05-26T11:28:46Z</time>
      </trkpt>
      <trkpt lat="43.86817" lon="6.56492">
        <ele>975</ele>
        <time>2018-05-26T11:28:58Z</time>
      </trkpt>
      <trkpt lat="43.86818" lon="6.5649">
        <ele>974</ele>
        <time>2018-05-26T11:28:59Z</time>
      </trkpt>
      <trkpt lat="43.86819" lon="6.56489">
        <ele>974</ele>
        <time>2018-05-26T11:29:00Z</time>
      </trkpt>
      <trkpt lat="43.86839" lon="6.5646">
        <ele>973</ele>
        <time>2018-05-26T11:29:19Z</time>
      </trkpt>
      <trkpt lat="43.86844" lon="6.56445">
        <ele>972</ele>
        <time>2018-05-26T11:29:27Z</time>
      </trkpt>
      <trkpt lat="43.86845" lon="6.56443">
        <ele>973</ele>
        <time>2018-05-26T11:29:28Z</time>
      </trkpt>
      <trkpt lat="43.86846" lon="6.56441">
        <ele>972</ele>
        <time>2018-05-26T11:29:29Z</time>
      </trkpt>
      <trkpt lat="43.86846" lon="6.56438">
        <ele>972</ele>
        <time>2018-05-26T11:29:30Z</time>
      </trkpt>
      <trkpt lat="43.86847" lon="6.56436">
        <ele>972</ele>
        <time>2018-05-26T11:29:31Z</time>
      </trkpt>
      <trkpt lat="43.86847" lon="6.56434">
        <ele>972</ele>
        <time>2018-05-26T11:29:32Z</time>
      </trkpt>
      <trkpt lat="43.86848" lon="6.56432">
        <ele>972</ele>
        <time>2018-05-26T11:29:33Z</time>
      </trkpt>
      <trkpt lat="43.86849" lon="6.5643">
        <ele>972</ele>
        <time>2018-05-26T11:29:34Z</time>
      </trkpt>
      <trkpt lat="43.8685" lon="6.56428">
        <ele>972</ele>
        <time>2018-05-26T11:29:35Z</time>
      </trkpt>
      <trkpt lat="43.86867" lon="6.56404">
        <ele>976</ele>
        <time>2018-05-26T11:29:50Z</time>
      </trkpt>
      <trkpt lat="43.86874" lon="6.56397">
        <ele>978</ele>
        <time>2018-05-26T11:29:56Z</time>
      </trkpt>
      <trkpt lat="43.86875" lon="6.56396">
        <ele>978</ele>
        <time>2018-05-26T11:29:57Z</time>
      </trkpt>
      <trkpt lat="43.86876" lon="6.56395">
        <ele>978</ele>
        <time>2018-05-26T11:29:58Z</time>
      </trkpt>
      <trkpt lat="43.86878" lon="6.56394">
        <ele>978</ele>
        <time>2018-05-26T11:29:59Z</time>
      </trkpt>
      <trkpt lat="43.86879" lon="6.56393">
        <ele>979</ele>
        <time>2018-05-26T11:30:00Z</time>
      </trkpt>
      <trkpt lat="43.86887" lon="6.5638">
        <ele>980</ele>
        <time>2018-05-26T11:30:09Z</time>
      </trkpt>
      <trkpt lat="43.86895" lon="6.56348">
        <ele>978</ele>
        <time>2018-05-26T11:30:25Z</time>
      </trkpt>
      <trkpt lat="43.86903" lon="6.56321">
        <ele>978</ele>
        <time>2018-05-26T11:30:40Z</time>
      </trkpt>
      <trkpt lat="43.86913" lon="6.56301">
        <ele>978</ele>
        <time>2018-05-26T11:30:51Z</time>
      </trkpt>
      <trkpt lat="43.86915" lon="6.563">
        <ele>978</ele>
        <time>2018-05-26T11:30:52Z</time>
      </trkpt>
      <trkpt lat="43.86921" lon="6.56293">
        <ele>979</ele>
        <time>2018-05-26T11:30:57Z</time>
      </trkpt>
      <trkpt lat="43.86922" lon="6.56292">
        <ele>979</ele>
        <time>2018-05-26T11:30:58Z</time>
      </trkpt>
      <trkpt lat="43.86923" lon="6.56291">
        <ele>980</ele>
        <time>2018-05-26T11:30:59Z</time>
      </trkpt>
      <trkpt lat="43.86924" lon="6.5629">
        <ele>980</ele>
        <time>2018-05-26T11:31:00Z</time>
      </trkpt>
      <trkpt lat="43.86925" lon="6.56289">
        <ele>980</ele>
        <time>2018-05-26T11:31:01Z</time>
      </trkpt>
      <trkpt lat="43.86949" lon="6.56271">
        <ele>984</ele>
        <time>2018-05-26T11:31:18Z</time>
      </trkpt>
      <trkpt lat="43.86978" lon="6.56262">
        <ele>987</ele>
        <time>2018-05-26T11:31:35Z</time>
      </trkpt>
      <trkpt lat="43.87001" lon="6.56246">
        <ele>985</ele>
        <time>2018-05-26T11:31:49Z</time>
      </trkpt>
      <trkpt lat="43.87011" lon="6.56242">
        <ele>982</ele>
        <time>2018-05-26T11:31:56Z</time>
      </trkpt>
      <trkpt lat="43.87012" lon="6.56243">
        <ele>982</ele>
        <time>2018-05-26T11:31:57Z</time>
      </trkpt>
      <trkpt lat="43.87013" lon="6.56244">
        <ele>982</ele>
        <time>2018-05-26T11:31:58Z</time>
      </trkpt>
      <trkpt lat="43.87014" lon="6.56246">
        <ele>983</ele>
        <time>2018-05-26T11:31:59Z</time>
      </trkpt>
      <trkpt lat="43.87014" lon="6.56248">
        <ele>983</ele>
        <time>2018-05-26T11:32:00Z</time>
      </trkpt>
      <trkpt lat="43.87013" lon="6.56249">
        <ele>984</ele>
        <time>2018-05-26T11:32:01Z</time>
      </trkpt>
      <trkpt lat="43.87012" lon="6.56251">
        <ele>984</ele>
        <time>2018-05-26T11:32:02Z</time>
      </trkpt>
      <trkpt lat="43.86987" lon="6.56274">
        <ele>991</ele>
        <time>2018-05-26T11:32:21Z</time>
      </trkpt>
      <trkpt lat="43.86971" lon="6.56286">
        <ele>990</ele>
        <time>2018-05-26T11:32:33Z</time>
      </trkpt>
      <trkpt lat="43.86957" lon="6.5631">
        <ele>992</ele>
        <time>2018-05-26T11:32:47Z</time>
      </trkpt>
      <trkpt lat="43.86943" lon="6.5634">
        <ele>994</ele>
        <time>2018-05-26T11:33:04Z</time>
      </trkpt>
      <trkpt lat="43.86934" lon="6.56365">
        <ele>995</ele>
        <time>2018-05-26T11:33:18Z</time>
      </trkpt>
      <trkpt lat="43.8693" lon="6.56391">
        <ele>998</ele>
        <time>2018-05-26T11:33:31Z</time>
      </trkpt>
      <trkpt lat="43.86924" lon="6.56429">
        <ele>1000</ele>
        <time>2018-05-26T11:33:48Z</time>
      </trkpt>
      <trkpt lat="43.8692" lon="6.56463">
        <ele>1001</ele>
        <time>2018-05-26T11:34:04Z</time>
      </trkpt>
      <trkpt lat="43.8692" lon="6.565">
        <ele>1006</ele>
        <time>2018-05-26T11:34:21Z</time>
      </trkpt>
      <trkpt lat="43.86921" lon="6.5653">
        <ele>1010</ele>
        <time>2018-05-26T11:34:37Z</time>
      </trkpt>
      <trkpt lat="43.8691" lon="6.5655">
        <ele>1012</ele>
        <time>2018-05-26T11:34:51Z</time>
      </trkpt>
      <trkpt lat="43.86887" lon="6.56571">
        <ele>1013</ele>
        <time>2018-05-26T11:35:09Z</time>
      </trkpt>
      <trkpt lat="43.86866" lon="6.56587">
        <ele>1014</ele>
        <time>2018-05-26T11:35:25Z</time>
      </trkpt>
      <trkpt lat="43.86863" lon="6.56588">
        <ele>1014</ele>
        <time>2018-05-26T11:35:27Z</time>
      </trkpt>
      <trkpt lat="43.86862" lon="6.56589">
        <ele>1014</ele>
        <time>2018-05-26T11:35:28Z</time>
      </trkpt>
      <trkpt lat="43.86846" lon="6.566">
        <ele>1015</ele>
        <time>2018-05-26T11:35:40Z</time>
      </trkpt>
      <trkpt lat="43.86842" lon="6.56602">
        <ele>1015</ele>
        <time>2018-05-26T11:35:43Z</time>
      </trkpt>
      <trkpt lat="43.86841" lon="6.56603">
        <ele>1015</ele>
        <time>2018-05-26T11:35:44Z</time>
      </trkpt>
      <trkpt lat="43.86819" lon="6.56619">
        <ele>1015</ele>
        <time>2018-05-26T11:36:01Z</time>
      </trkpt>
      <trkpt lat="43.86796" lon="6.56637">
        <ele>1015</ele>
        <time>2018-05-26T11:36:18Z</time>
      </trkpt>
      <trkpt lat="43.86775" lon="6.56655">
        <ele>1015</ele>
        <time>2018-05-26T11:36:34Z</time>
      </trkpt>
      <trkpt lat="43.86766" lon="6.56678">
        <ele>1015</ele>
        <time>2018-05-26T11:36:49Z</time>
      </trkpt>
      <trkpt lat="43.86766" lon="6.56712">
        <ele>1018</ele>
        <time>2018-05-26T11:37:05Z</time>
      </trkpt>
      <trkpt lat="43.86764" lon="6.56745">
        <ele>1022</ele>
        <time>2018-05-26T11:37:22Z</time>
      </trkpt>
      <trkpt lat="43.86762" lon="6.56779">
        <ele>1026</ele>
        <time>2018-05-26T11:37:40Z</time>
      </trkpt>
      <trkpt lat="43.8676" lon="6.56809">
        <ele>1028</ele>
        <time>2018-05-26T11:37:57Z</time>
      </trkpt>
      <trkpt lat="43.86762" lon="6.56843">
        <ele>1031</ele>
        <time>2018-05-26T11:38:15Z</time>
      </trkpt>
      <trkpt lat="43.86768" lon="6.56879">
        <ele>1035</ele>
        <time>2018-05-26T11:38:32Z</time>
      </trkpt>
      <trkpt lat="43.8677" lon="6.56885">
        <ele>1036</ele>
        <time>2018-05-26T11:38:35Z</time>
      </trkpt>
      <trkpt lat="43.86771" lon="6.56887">
        <ele>1036</ele>
        <time>2018-05-26T11:38:36Z</time>
      </trkpt>
      <trkpt lat="43.86761" lon="6.56909">
        <ele>1036</ele>
        <time>2018-05-26T11:38:51Z</time>
      </trkpt>
      <trkpt lat="43.86744" lon="6.56931">
        <ele>1033</ele>
        <time>2018-05-26T11:39:06Z</time>
      </trkpt>
      <trkpt lat="43.86745" lon="6.56968">
        <ele>1035</ele>
        <time>2018-05-26T11:39:23Z</time>
      </trkpt>
      <trkpt lat="43.86753" lon="6.56998">
        <ele>1037</ele>
        <time>2018-05-26T11:39:38Z</time>
      </trkpt>
      <trkpt lat="43.86761" lon="6.57021">
        <ele>1040</ele>
        <time>2018-05-26T11:39:50Z</time>
      </trkpt>
      <trkpt lat="43.86762" lon="6.57022">
        <ele>1041</ele>
        <time>2018-05-26T11:39:51Z</time>
      </trkpt>
      <trkpt lat="43.86763" lon="6.57025">
        <ele>1041</ele>
        <time>2018-05-26T11:39:52Z</time>
      </trkpt>
      <trkpt lat="43.86764" lon="6.57026">
        <ele>1041</ele>
        <time>2018-05-26T11:39:53Z</time>
      </trkpt>
      <trkpt lat="43.86764" lon="6.57029">
        <ele>1041</ele>
        <time>2018-05-26T11:39:54Z</time>
      </trkpt>
      <trkpt lat="43.86764" lon="6.57031">
        <ele>1041</ele>
        <time>2018-05-26T11:39:55Z</time>
      </trkpt>
      <trkpt lat="43.86764" lon="6.57033">
        <ele>1041</ele>
        <time>2018-05-26T11:39:56Z</time>
      </trkpt>
      <trkpt lat="43.86765" lon="6.57035">
        <ele>1041</ele>
        <time>2018-05-26T11:39:57Z</time>
      </trkpt>
      <trkpt lat="43.86772" lon="6.57062">
        <ele>1043</ele>
        <time>2018-05-26T11:40:11Z</time>
      </trkpt>
      <trkpt lat="43.8678" lon="6.57094">
        <ele>1045</ele>
        <time>2018-05-26T11:40:26Z</time>
      </trkpt>
      <trkpt lat="43.8679" lon="6.57134">
        <ele>1046</ele>
        <time>2018-05-26T11:40:44Z</time>
      </trkpt>
      <trkpt lat="43.86798" lon="6.57169">
        <ele>1049</ele>
        <time>2018-05-26T11:41:00Z</time>
      </trkpt>
      <trkpt lat="43.86806" lon="6.57197">
        <ele>1051</ele>
        <time>2018-05-26T11:41:13Z</time>
      </trkpt>
      <trkpt lat="43.86813" lon="6.57236">
        <ele>1054</ele>
        <time>2018-05-26T11:41:29Z</time>
      </trkpt>
      <trkpt lat="43.8681" lon="6.57269">
        <ele>1054</ele>
        <time>2018-05-26T11:41:44Z</time>
      </trkpt>
      <trkpt lat="43.86811" lon="6.57271">
        <ele>1054</ele>
        <time>2018-05-26T11:41:45Z</time>
      </trkpt>
      <trkpt lat="43.86813" lon="6.57272">
        <ele>1055</ele>
        <time>2018-05-26T11:41:46Z</time>
      </trkpt>
      <trkpt lat="43.86814" lon="6.57272">
        <ele>1055</ele>
        <time>2018-05-26T11:41:47Z</time>
      </trkpt>
      <trkpt lat="43.86815" lon="6.57272">
        <ele>1055</ele>
        <time>2018-05-26T11:41:48Z</time>
      </trkpt>
      <trkpt lat="43.86817" lon="6.57271">
        <ele>1055</ele>
        <time>2018-05-26T11:41:49Z</time>
      </trkpt>
      <trkpt lat="43.86818" lon="6.57269">
        <ele>1056</ele>
        <time>2018-05-26T11:41:50Z</time>
      </trkpt>
      <trkpt lat="43.86819" lon="6.57267">
        <ele>1056</ele>
        <time>2018-05-26T11:41:51Z</time>
      </trkpt>
      <trkpt lat="43.8682" lon="6.57265">
        <ele>1056</ele>
        <time>2018-05-26T11:41:52Z</time>
      </trkpt>
      <trkpt lat="43.86821" lon="6.57263">
        <ele>1057</ele>
        <time>2018-05-26T11:41:53Z</time>
      </trkpt>
      <trkpt lat="43.86822" lon="6.57261">
        <ele>1057</ele>
        <time>2018-05-26T11:41:54Z</time>
      </trkpt>
      <trkpt lat="43.86823" lon="6.57258">
        <ele>1058</ele>
        <time>2018-05-26T11:41:55Z</time>
      </trkpt>
      <trkpt lat="43.86822" lon="6.57223">
        <ele>1058</ele>
        <time>2018-05-26T11:42:07Z</time>
      </trkpt>
      <trkpt lat="43.86819" lon="6.57189">
        <ele>1058</ele>
        <time>2018-05-26T11:42:20Z</time>
      </trkpt>
      <trkpt lat="43.86815" lon="6.5717">
        <ele>1058</ele>
        <time>2018-05-26T11:42:28Z</time>
      </trkpt>
      <trkpt lat="43.86814" lon="6.57166">
        <ele>1058</ele>
        <time>2018-05-26T11:42:30Z</time>
      </trkpt>
      <trkpt lat="43.86814" lon="6.57163">
        <ele>1058</ele>
        <time>2018-05-26T11:42:31Z</time>
      </trkpt>
      <trkpt lat="43.86814" lon="6.57161">
        <ele>1058</ele>
        <time>2018-05-26T11:42:32Z</time>
      </trkpt>
      <trkpt lat="43.86814" lon="6.57158">
        <ele>1058</ele>
        <time>2018-05-26T11:42:33Z</time>
      </trkpt>
      <trkpt lat="43.86814" lon="6.57156">
        <ele>1058</ele>
        <time>2018-05-26T11:42:34Z</time>
      </trkpt>
      <trkpt lat="43.86813" lon="6.57153">
        <ele>1058</ele>
        <time>2018-05-26T11:42:35Z</time>
      </trkpt>
      <trkpt lat="43.86813" lon="6.57107">
        <ele>1062</ele>
        <time>2018-05-26T11:42:53Z</time>
      </trkpt>
      <trkpt lat="43.86811" lon="6.57063">
        <ele>1062</ele>
        <time>2018-05-26T11:43:08Z</time>
      </trkpt>
      <trkpt lat="43.86817" lon="6.57019">
        <ele>1062</ele>
        <time>2018-05-26T11:43:25Z</time>
      </trkpt>
      <trkpt lat="43.8684" lon="6.56997">
        <ele>1067</ele>
        <time>2018-05-26T11:43:40Z</time>
      </trkpt>
      <trkpt lat="43.86869" lon="6.56977">
        <ele>1072</ele>
        <time>2018-05-26T11:43:55Z</time>
      </trkpt>
      <trkpt lat="43.86882" lon="6.56938">
        <ele>1072</ele>
        <time>2018-05-26T11:44:10Z</time>
      </trkpt>
      <trkpt lat="43.86894" lon="6.569">
        <ele>1074</ele>
        <time>2018-05-26T11:44:24Z</time>
      </trkpt>
      <trkpt lat="43.86901" lon="6.56887">
        <ele>1075</ele>
        <time>2018-05-26T11:44:29Z</time>
      </trkpt>
      <trkpt lat="43.86903" lon="6.56886">
        <ele>1076</ele>
        <time>2018-05-26T11:44:30Z</time>
      </trkpt>
      <trkpt lat="43.86905" lon="6.56888">
        <ele>1076</ele>
        <time>2018-05-26T11:44:31Z</time>
      </trkpt>
      <trkpt lat="43.86906" lon="6.56891">
        <ele>1077</ele>
        <time>2018-05-26T11:44:32Z</time>
      </trkpt>
      <trkpt lat="43.86907" lon="6.56893">
        <ele>1077</ele>
        <time>2018-05-26T11:44:33Z</time>
      </trkpt>
      <trkpt lat="43.86907" lon="6.56896">
        <ele>1077</ele>
        <time>2018-05-26T11:44:34Z</time>
      </trkpt>
      <trkpt lat="43.86907" lon="6.56899">
        <ele>1077</ele>
        <time>2018-05-26T11:44:35Z</time>
      </trkpt>
      <trkpt lat="43.86906" lon="6.56902">
        <ele>1077</ele>
        <time>2018-05-26T11:44:36Z</time>
      </trkpt>
      <trkpt lat="43.86906" lon="6.56904">
        <ele>1077</ele>
        <time>2018-05-26T11:44:37Z</time>
      </trkpt>
      <trkpt lat="43.86897" lon="6.56954">
        <ele>1078</ele>
        <time>2018-05-26T11:44:54Z</time>
      </trkpt>
      <trkpt lat="43.86898" lon="6.56995">
        <ele>1083</ele>
        <time>2018-05-26T11:45:12Z</time>
      </trkpt>
      <trkpt lat="43.86897" lon="6.56997">
        <ele>1083</ele>
        <time>2018-05-26T11:45:13Z</time>
      </trkpt>
      <trkpt lat="43.86896" lon="6.57">
        <ele>1083</ele>
        <time>2018-05-26T11:45:14Z</time>
      </trkpt>
      <trkpt lat="43.8687" lon="6.57025">
        <ele>1079</ele>
        <time>2018-05-26T11:45:30Z</time>
      </trkpt>
      <trkpt lat="43.86855" lon="6.57055">
        <ele>1079</ele>
        <time>2018-05-26T11:45:45Z</time>
      </trkpt>
      <trkpt lat="43.86855" lon="6.57096">
        <ele>1083</ele>
        <time>2018-05-26T11:46:00Z</time>
      </trkpt>
      <trkpt lat="43.86862" lon="6.5713">
        <ele>1085</ele>
        <time>2018-05-26T11:46:14Z</time>
      </trkpt>
      <trkpt lat="43.86871" lon="6.57174">
        <ele>1088</ele>
        <time>2018-05-26T11:46:32Z</time>
      </trkpt>
      <trkpt lat="43.86876" lon="6.5721">
        <ele>1090</ele>
        <time>2018-05-26T11:46:46Z</time>
      </trkpt>
      <trkpt lat="43.86882" lon="6.57246">
        <ele>1090</ele>
        <time>2018-05-26T11:47:01Z</time>
      </trkpt>
      <trkpt lat="43.86887" lon="6.57274">
        <ele>1092</ele>
        <time>2018-05-26T11:47:14Z</time>
      </trkpt>
      <trkpt lat="43.86894" lon="6.57307">
        <ele>1093</ele>
        <time>2018-05-26T11:47:29Z</time>
      </trkpt>
      <trkpt lat="43.86901" lon="6.57342">
        <ele>1094</ele>
        <time>2018-05-26T11:47:45Z</time>
      </trkpt>
      <trkpt lat="43.86912" lon="6.57374">
        <ele>1099</ele>
        <time>2018-05-26T11:47:59Z</time>
      </trkpt>
      <trkpt lat="43.86917" lon="6.57398">
        <ele>1101</ele>
        <time>2018-05-26T11:48:10Z</time>
      </trkpt>
      <trkpt lat="43.86917" lon="6.574">
        <ele>1101</ele>
        <time>2018-05-26T11:48:11Z</time>
      </trkpt>
      <trkpt lat="43.86918" lon="6.57402">
        <ele>1101</ele>
        <time>2018-05-26T11:48:12Z</time>
      </trkpt>
      <trkpt lat="43.86919" lon="6.57404">
        <ele>1101</ele>
        <time>2018-05-26T11:48:13Z</time>
      </trkpt>
      <trkpt lat="43.86919" lon="6.57406">
        <ele>1102</ele>
        <time>2018-05-26T11:48:14Z</time>
      </trkpt>
      <trkpt lat="43.8692" lon="6.57408">
        <ele>1102</ele>
        <time>2018-05-26T11:48:15Z</time>
      </trkpt>
      <trkpt lat="43.8692" lon="6.5741">
        <ele>1102</ele>
        <time>2018-05-26T11:48:16Z</time>
      </trkpt>
      <trkpt lat="43.86914" lon="6.57445">
        <ele>1104</ele>
        <time>2018-05-26T11:48:34Z</time>
      </trkpt>
      <trkpt lat="43.86901" lon="6.57469">
        <ele>1104</ele>
        <time>2018-05-26T11:48:48Z</time>
      </trkpt>
      <trkpt lat="43.869" lon="6.57471">
        <ele>1105</ele>
        <time>2018-05-26T11:48:49Z</time>
      </trkpt>
      <trkpt lat="43.869" lon="6.57473">
        <ele>1106</ele>
        <time>2018-05-26T11:48:50Z</time>
      </trkpt>
      <trkpt lat="43.869" lon="6.57475">
        <ele>1106</ele>
        <time>2018-05-26T11:48:51Z</time>
      </trkpt>
      <trkpt lat="43.86901" lon="6.57478">
        <ele>1107</ele>
        <time>2018-05-26T11:48:52Z</time>
      </trkpt>
      <trkpt lat="43.86901" lon="6.57479">
        <ele>1107</ele>
        <time>2018-05-26T11:48:53Z</time>
      </trkpt>
      <trkpt lat="43.86902" lon="6.57481">
        <ele>1108</ele>
        <time>2018-05-26T11:48:54Z</time>
      </trkpt>
      <trkpt lat="43.86904" lon="6.57483">
        <ele>1108</ele>
        <time>2018-05-26T11:48:55Z</time>
      </trkpt>
      <trkpt lat="43.86905" lon="6.57484">
        <ele>1109</ele>
        <time>2018-05-26T11:48:56Z</time>
      </trkpt>
      <trkpt lat="43.86907" lon="6.57485">
        <ele>1109</ele>
        <time>2018-05-26T11:48:57Z</time>
      </trkpt>
      <trkpt lat="43.86908" lon="6.57484">
        <ele>1109</ele>
        <time>2018-05-26T11:48:58Z</time>
      </trkpt>
      <trkpt lat="43.8691" lon="6.57484">
        <ele>1109</ele>
        <time>2018-05-26T11:48:59Z</time>
      </trkpt>
      <trkpt lat="43.86911" lon="6.57483">
        <ele>1109</ele>
        <time>2018-05-26T11:49:00Z</time>
      </trkpt>
      <trkpt lat="43.86912" lon="6.57481">
        <ele>1109</ele>
        <time>2018-05-26T11:49:01Z</time>
      </trkpt>
      <trkpt lat="43.86914" lon="6.5748">
        <ele>1109</ele>
        <time>2018-05-26T11:49:02Z</time>
      </trkpt>
      <trkpt lat="43.86929" lon="6.57463">
        <ele>1110</ele>
        <time>2018-05-26T11:49:15Z</time>
      </trkpt>
      <trkpt lat="43.86945" lon="6.57437">
        <ele>1113</ele>
        <time>2018-05-26T11:49:29Z</time>
      </trkpt>
      <trkpt lat="43.86947" lon="6.57405">
        <ele>1114</ele>
        <time>2018-05-26T11:49:44Z</time>
      </trkpt>
      <trkpt lat="43.86937" lon="6.57374">
        <ele>1112</ele>
        <time>2018-05-26T11:49:59Z</time>
      </trkpt>
      <trkpt lat="43.86932" lon="6.57336">
        <ele>1113</ele>
        <time>2018-05-26T11:50:14Z</time>
      </trkpt>
      <trkpt lat="43.86931" lon="6.57299">
        <ele>1116</ele>
        <time>2018-05-26T11:50:30Z</time>
      </trkpt>
      <trkpt lat="43.86928" lon="6.5726">
        <ele>1117</ele>
        <time>2018-05-26T11:50:47Z</time>
      </trkpt>
      <trkpt lat="43.86934" lon="6.57219">
        <ele>1122</ele>
        <time>2018-05-26T11:51:05Z</time>
      </trkpt>
      <trkpt lat="43.86943" lon="6.5718">
        <ele>1124</ele>
        <time>2018-05-26T11:51:20Z</time>
      </trkpt>
      <trkpt lat="43.86956" lon="6.57141">
        <ele>1125</ele>
        <time>2018-05-26T11:51:35Z</time>
      </trkpt>
      <trkpt lat="43.86961" lon="6.5713">
        <ele>1126</ele>
        <time>2018-05-26T11:51:40Z</time>
      </trkpt>
      <trkpt lat="43.86962" lon="6.57128">
        <ele>1126</ele>
        <time>2018-05-26T11:51:41Z</time>
      </trkpt>
      <trkpt lat="43.86963" lon="6.57126">
        <ele>1126</ele>
        <time>2018-05-26T11:51:42Z</time>
      </trkpt>
      <trkpt lat="43.86967" lon="6.57118">
        <ele>1127</ele>
        <time>2018-05-26T11:51:46Z</time>
      </trkpt>
      <trkpt lat="43.86968" lon="6.57115">
        <ele>1127</ele>
        <time>2018-05-26T11:51:47Z</time>
      </trkpt>
      <trkpt lat="43.86968" lon="6.57112">
        <ele>1126</ele>
        <time>2018-05-26T11:51:48Z</time>
      </trkpt>
      <trkpt lat="43.86969" lon="6.5711">
        <ele>1126</ele>
        <time>2018-05-26T11:51:49Z</time>
      </trkpt>
      <trkpt lat="43.86967" lon="6.57107">
        <ele>1125</ele>
        <time>2018-05-26T11:52:00Z</time>
      </trkpt>
      <trkpt lat="43.86965" lon="6.57106">
        <ele>1124</ele>
        <time>2018-05-26T11:52:26Z</time>
      </trkpt>
      <trkpt lat="43.86963" lon="6.57105">
        <ele>1123</ele>
        <time>2018-05-26T11:52:58Z</time>
      </trkpt>
      <trkpt lat="43.86965" lon="6.57105">
        <ele>1124</ele>
        <time>2018-05-26T11:53:38Z</time>
      </trkpt>
      <trkpt lat="43.86965" lon="6.57106">
        <ele>1124</ele>
        <time>2018-05-26T11:54:06Z</time>
      </trkpt>
      <trkpt lat="43.86969" lon="6.57106">
        <ele>1126</ele>
        <time>2018-05-26T11:54:38Z</time>
      </trkpt>
      <trkpt lat="43.86968" lon="6.57106">
        <ele>1125</ele>
        <time>2018-05-26T11:55:02Z</time>
      </trkpt>
      <trkpt lat="43.86966" lon="6.57108">
        <ele>1125</ele>
        <time>2018-05-26T11:55:28Z</time>
      </trkpt>
      <trkpt lat="43.86966" lon="6.57108">
        <ele>1125</ele>
        <time>2018-05-26T11:55:48Z</time>
      </trkpt>
      <trkpt lat="43.86968" lon="6.5711">
        <ele>1126</ele>
        <time>2018-05-26T11:56:21Z</time>
      </trkpt>
      <trkpt lat="43.86966" lon="6.57112">
        <ele>1125</ele>
        <time>2018-05-26T11:56:52Z</time>
      </trkpt>
      <trkpt lat="43.86966" lon="6.57109">
        <ele>1125</ele>
        <time>2018-05-26T11:57:30Z</time>
      </trkpt>
      <trkpt lat="43.86966" lon="6.57109">
        <ele>1125</ele>
        <time>2018-05-26T11:58:08Z</time>
      </trkpt>
      <trkpt lat="43.86968" lon="6.57108">
        <ele>1126</ele>
        <time>2018-05-26T11:58:45Z</time>
      </trkpt>
      <trkpt lat="43.86971" lon="6.57106">
        <ele>1126</ele>
        <time>2018-05-26T11:59:15Z</time>
      </trkpt>
      <trkpt lat="43.86968" lon="6.57105">
        <ele>1125</ele>
        <time>2018-05-26T11:59:36Z</time>
      </trkpt>
      <trkpt lat="43.86967" lon="6.57107">
        <ele>1125</ele>
        <time>2018-05-26T11:59:54Z</time>
      </trkpt>
      <trkpt lat="43.86967" lon="6.5711">
        <ele>1125</ele>
        <time>2018-05-26T12:00:12Z</time>
      </trkpt>
      <trkpt lat="43.86967" lon="6.57111">
        <ele>1126</ele>
        <time>2018-05-26T12:00:14Z</time>
      </trkpt>
      <trkpt lat="43.86968" lon="6.57111">
        <ele>1126</ele>
        <time>2018-05-26T12:00:15Z</time>
      </trkpt>
      <trkpt lat="43.86971" lon="6.57109">
        <ele>1127</ele>
        <time>2018-05-26T12:00:17Z</time>
      </trkpt>
      <trkpt lat="43.86972" lon="6.57108">
        <ele>1127</ele>
        <time>2018-05-26T12:00:18Z</time>
      </trkpt>
      <trkpt lat="43.86974" lon="6.57103">
        <ele>1127</ele>
        <time>2018-05-26T12:00:21Z</time>
      </trkpt>
      <trkpt lat="43.86975" lon="6.57102">
        <ele>1127</ele>
        <time>2018-05-26T12:00:22Z</time>
      </trkpt>
      <trkpt lat="43.86976" lon="6.57101">
        <ele>1127</ele>
        <time>2018-05-26T12:00:23Z</time>
      </trkpt>
      <trkpt lat="43.86978" lon="6.571">
        <ele>1128</ele>
        <time>2018-05-26T12:00:24Z</time>
      </trkpt>
      <trkpt lat="43.86979" lon="6.57099">
        <ele>1128</ele>
        <time>2018-05-26T12:00:25Z</time>
      </trkpt>
      <trkpt lat="43.86981" lon="6.57099">
        <ele>1128</ele>
        <time>2018-05-26T12:00:26Z</time>
      </trkpt>
      <trkpt lat="43.86982" lon="6.57098">
        <ele>1129</ele>
        <time>2018-05-26T12:00:27Z</time>
      </trkpt>
      <trkpt lat="43.86984" lon="6.57097">
        <ele>1129</ele>
        <time>2018-05-26T12:00:28Z</time>
      </trkpt>
      <trkpt lat="43.87007" lon="6.57075">
        <ele>1134</ele>
        <time>2018-05-26T12:00:44Z</time>
      </trkpt>
      <trkpt lat="43.8703" lon="6.57032">
        <ele>1137</ele>
        <time>2018-05-26T12:01:03Z</time>
      </trkpt>
      <trkpt lat="43.87043" lon="6.57003">
        <ele>1139</ele>
        <time>2018-05-26T12:01:16Z</time>
      </trkpt>
      <trkpt lat="43.87044" lon="6.57001">
        <ele>1139</ele>
        <time>2018-05-26T12:01:17Z</time>
      </trkpt>
      <trkpt lat="43.87045" lon="6.56999">
        <ele>1140</ele>
        <time>2018-05-26T12:01:18Z</time>
      </trkpt>
      <trkpt lat="43.87047" lon="6.56998">
        <ele>1140</ele>
        <time>2018-05-26T12:01:19Z</time>
      </trkpt>
      <trkpt lat="43.87049" lon="6.56996">
        <ele>1141</ele>
        <time>2018-05-26T12:01:20Z</time>
      </trkpt>
      <trkpt lat="43.8705" lon="6.56994">
        <ele>1141</ele>
        <time>2018-05-26T12:01:21Z</time>
      </trkpt>
      <trkpt lat="43.87052" lon="6.56992">
        <ele>1142</ele>
        <time>2018-05-26T12:01:22Z</time>
      </trkpt>
      <trkpt lat="43.87064" lon="6.56969">
        <ele>1144</ele>
        <time>2018-05-26T12:01:33Z</time>
      </trkpt>
      <trkpt lat="43.87083" lon="6.56934">
        <ele>1148</ele>
        <time>2018-05-26T12:01:49Z</time>
      </trkpt>
      <trkpt lat="43.87104" lon="6.56899">
        <ele>1150</ele>
        <time>2018-05-26T12:02:06Z</time>
      </trkpt>
      <trkpt lat="43.87126" lon="6.56865">
        <ele>1153</ele>
        <time>2018-05-26T12:02:24Z</time>
      </trkpt>
      <trkpt lat="43.8715" lon="6.56842">
        <ele>1154</ele>
        <time>2018-05-26T12:02:40Z</time>
      </trkpt>
      <trkpt lat="43.87177" lon="6.56827">
        <ele>1155</ele>
        <time>2018-05-26T12:02:56Z</time>
      </trkpt>
      <trkpt lat="43.87214" lon="6.56816">
        <ele>1156</ele>
        <time>2018-05-26T12:03:12Z</time>
      </trkpt>
      <trkpt lat="43.87239" lon="6.56798">
        <ele>1150</ele>
        <time>2018-05-26T12:03:25Z</time>
      </trkpt>
      <trkpt lat="43.87241" lon="6.56798">
        <ele>1150</ele>
        <time>2018-05-26T12:03:47Z</time>
      </trkpt>
      <trkpt lat="43.87238" lon="6.56797">
        <ele>1149</ele>
        <time>2018-05-26T12:04:13Z</time>
      </trkpt>
      <trkpt lat="43.87237" lon="6.56796">
        <ele>1149</ele>
        <time>2018-05-26T12:04:38Z</time>
      </trkpt>
      <trkpt lat="43.87239" lon="6.56798">
        <ele>1150</ele>
        <time>2018-05-26T12:05:12Z</time>
      </trkpt>
      <trkpt lat="43.87241" lon="6.56798">
        <ele>1150</ele>
        <time>2018-05-26T12:05:13Z</time>
      </trkpt>
      <trkpt lat="43.87242" lon="6.56799">
        <ele>1150</ele>
        <time>2018-05-26T12:05:14Z</time>
      </trkpt>
      <trkpt lat="43.87244" lon="6.56798">
        <ele>1150</ele>
        <time>2018-05-26T12:05:15Z</time>
      </trkpt>
      <trkpt lat="43.87246" lon="6.56797">
        <ele>1149</ele>
        <time>2018-05-26T12:05:16Z</time>
      </trkpt>
      <trkpt lat="43.87247" lon="6.56794">
        <ele>1148</ele>
        <time>2018-05-26T12:05:17Z</time>
      </trkpt>
      <trkpt lat="43.87252" lon="6.56787">
        <ele>1145</ele>
        <time>2018-05-26T12:05:28Z</time>
      </trkpt>
      <trkpt lat="43.87254" lon="6.56791">
        <ele>1146</ele>
        <time>2018-05-26T12:06:12Z</time>
      </trkpt>
      <trkpt lat="43.87252" lon="6.56787">
        <ele>1145</ele>
        <time>2018-05-26T12:06:45Z</time>
      </trkpt>
      <trkpt lat="43.87254" lon="6.56786">
        <ele>1144</ele>
        <time>2018-05-26T12:07:04Z</time>
      </trkpt>
      <trkpt lat="43.87256" lon="6.56787">
        <ele>1145</ele>
        <time>2018-05-26T12:07:05Z</time>
      </trkpt>
      <trkpt lat="43.87257" lon="6.56788">
        <ele>1145</ele>
        <time>2018-05-26T12:07:06Z</time>
      </trkpt>
      <trkpt lat="43.87259" lon="6.56788">
        <ele>1145</ele>
        <time>2018-05-26T12:07:07Z</time>
      </trkpt>
      <trkpt lat="43.87261" lon="6.56787">
        <ele>1145</ele>
        <time>2018-05-26T12:07:08Z</time>
      </trkpt>
      <trkpt lat="43.87263" lon="6.56786">
        <ele>1144</ele>
        <time>2018-05-26T12:07:09Z</time>
      </trkpt>
      <trkpt lat="43.87292" lon="6.56755">
        <ele>1129</ele>
        <time>2018-05-26T12:07:22Z</time>
      </trkpt>
      <trkpt lat="43.87326" lon="6.56702">
        <ele>1133</ele>
        <time>2018-05-26T12:07:38Z</time>
      </trkpt>
      <trkpt lat="43.87341" lon="6.5663">
        <ele>1163</ele>
        <time>2018-05-26T12:07:55Z</time>
      </trkpt>
      <trkpt lat="43.87323" lon="6.56569">
        <ele>1165</ele>
        <time>2018-05-26T12:08:08Z</time>
      </trkpt>
      <trkpt lat="43.87323" lon="6.56564">
        <ele>1166</ele>
        <time>2018-05-26T12:08:09Z</time>
      </trkpt>
      <trkpt lat="43.87323" lon="6.56558">
        <ele>1166</ele>
        <time>2018-05-26T12:08:10Z</time>
      </trkpt>
      <trkpt lat="43.8733" lon="6.5646">
        <ele>1167</ele>
        <time>2018-05-26T12:08:25Z</time>
      </trkpt>
      <trkpt lat="43.87339" lon="6.56427">
        <ele>1167</ele>
        <time>2018-05-26T12:08:30Z</time>
      </trkpt>
      <trkpt lat="43.87341" lon="6.56421">
        <ele>1166</ele>
        <time>2018-05-26T12:08:31Z</time>
      </trkpt>
      <trkpt lat="43.87345" lon="6.56416">
        <ele>1167</ele>
        <time>2018-05-26T12:08:32Z</time>
      </trkpt>
      <trkpt lat="43.87348" lon="6.56411">
        <ele>1167</ele>
        <time>2018-05-26T12:08:33Z</time>
      </trkpt>
      <trkpt lat="43.87352" lon="6.56406">
        <ele>1167</ele>
        <time>2018-05-26T12:08:34Z</time>
      </trkpt>
      <trkpt lat="43.87356" lon="6.56402">
        <ele>1167</ele>
        <time>2018-05-26T12:08:35Z</time>
      </trkpt>
      <trkpt lat="43.87363" lon="6.56395">
        <ele>1167</ele>
        <time>2018-05-26T12:08:37Z</time>
      </trkpt>
      <trkpt lat="43.87425" lon="6.56346">
        <ele>1170</ele>
        <time>2018-05-26T12:08:54Z</time>
      </trkpt>
      <trkpt lat="43.87462" lon="6.56296">
        <ele>1173</ele>
        <time>2018-05-26T12:09:09Z</time>
      </trkpt>
      <trkpt lat="43.87475" lon="6.56242">
        <ele>1170</ele>
        <time>2018-05-26T12:09:22Z</time>
      </trkpt>
      <trkpt lat="43.87493" lon="6.56186">
        <ele>1170</ele>
        <time>2018-05-26T12:09:34Z</time>
      </trkpt>
      <trkpt lat="43.87532" lon="6.56135">
        <ele>1172</ele>
        <time>2018-05-26T12:09:48Z</time>
      </trkpt>
      <trkpt lat="43.87563" lon="6.56107">
        <ele>1177</ele>
        <time>2018-05-26T12:09:57Z</time>
      </trkpt>
      <trkpt lat="43.87576" lon="6.56086">
        <ele>1178</ele>
        <time>2018-05-26T12:10:01Z</time>
      </trkpt>
      <trkpt lat="43.87578" lon="6.56078">
        <ele>1176</ele>
        <time>2018-05-26T12:10:02Z</time>
      </trkpt>
      <trkpt lat="43.87607" lon="6.55972">
        <ele>1160</ele>
        <time>2018-05-26T12:10:12Z</time>
      </trkpt>
      <trkpt lat="43.87631" lon="6.55883">
        <ele>1151</ele>
        <time>2018-05-26T12:10:21Z</time>
      </trkpt>
      <trkpt lat="43.87634" lon="6.55856">
        <ele>1144</ele>
        <time>2018-05-26T12:10:30Z</time>
      </trkpt>
      <trkpt lat="43.87633" lon="6.55855">
        <ele>1144</ele>
        <time>2018-05-26T12:10:49Z</time>
      </trkpt>
      <trkpt lat="43.87631" lon="6.55854">
        <ele>1143</ele>
        <time>2018-05-26T12:11:23Z</time>
      </trkpt>
      <trkpt lat="43.87632" lon="6.55854">
        <ele>1143</ele>
        <time>2018-05-26T12:12:03Z</time>
      </trkpt>
      <trkpt lat="43.87631" lon="6.55856">
        <ele>1143</ele>
        <time>2018-05-26T12:12:37Z</time>
      </trkpt>
      <trkpt lat="43.87631" lon="6.55855">
        <ele>1143</ele>
        <time>2018-05-26T12:13:41Z</time>
      </trkpt>
      <trkpt lat="43.87632" lon="6.55855">
        <ele>1144</ele>
        <time>2018-05-26T12:14:28Z</time>
      </trkpt>
      <trkpt lat="43.87632" lon="6.55857">
        <ele>1144</ele>
        <time>2018-05-26T12:15:03Z</time>
      </trkpt>
      <trkpt lat="43.87634" lon="6.55858">
        <ele>1145</ele>
        <time>2018-05-26T12:15:21Z</time>
      </trkpt>
      <trkpt lat="43.87632" lon="6.55856">
        <ele>1144</ele>
        <time>2018-05-26T12:15:38Z</time>
      </trkpt>
      <trkpt lat="43.87633" lon="6.55857">
        <ele>1144</ele>
        <time>2018-05-26T12:16:11Z</time>
      </trkpt>
      <trkpt lat="43.87635" lon="6.55856">
        <ele>1145</ele>
        <time>2018-05-26T12:16:48Z</time>
      </trkpt>
      <trkpt lat="43.87633" lon="6.55856">
        <ele>1144</ele>
        <time>2018-05-26T12:17:25Z</time>
      </trkpt>
      <trkpt lat="43.87633" lon="6.55855">
        <ele>1144</ele>
        <time>2018-05-26T12:18:07Z</time>
      </trkpt>
      <trkpt lat="43.87635" lon="6.55856">
        <ele>1145</ele>
        <time>2018-05-26T12:18:44Z</time>
      </trkpt>
      <trkpt lat="43.87634" lon="6.55856">
        <ele>1145</ele>
        <time>2018-05-26T12:19:22Z</time>
      </trkpt>
      <trkpt lat="43.87634" lon="6.55857">
        <ele>1145</ele>
        <time>2018-05-26T12:19:47Z</time>
      </trkpt>
      <trkpt lat="43.87634" lon="6.55858">
        <ele>1145</ele>
        <time>2018-05-26T12:20:18Z</time>
      </trkpt>
      <trkpt lat="43.87635" lon="6.55859">
        <ele>1146</ele>
        <time>2018-05-26T12:20:30Z</time>
      </trkpt>
      <trkpt lat="43.87634" lon="6.5586">
        <ele>1146</ele>
        <time>2018-05-26T12:20:43Z</time>
      </trkpt>
      <trkpt lat="43.87639" lon="6.5587">
        <ele>1151</ele>
        <time>2018-05-26T12:20:50Z</time>
      </trkpt>
      <trkpt lat="43.87646" lon="6.55867">
        <ele>1150</ele>
        <time>2018-05-26T12:20:54Z</time>
      </trkpt>
      <trkpt lat="43.87648" lon="6.55866">
        <ele>1149</ele>
        <time>2018-05-26T12:20:55Z</time>
      </trkpt>
      <trkpt lat="43.8765" lon="6.55865">
        <ele>1149</ele>
        <time>2018-05-26T12:20:56Z</time>
      </trkpt>
      <trkpt lat="43.87652" lon="6.55865">
        <ele>1149</ele>
        <time>2018-05-26T12:20:57Z</time>
      </trkpt>
      <trkpt lat="43.87654" lon="6.55865">
        <ele>1149</ele>
        <time>2018-05-26T12:20:58Z</time>
      </trkpt>
      <trkpt lat="43.87656" lon="6.55864">
        <ele>1149</ele>
        <time>2018-05-26T12:20:59Z</time>
      </trkpt>
      <trkpt lat="43.87691" lon="6.5585">
        <ele>1147</ele>
        <time>2018-05-26T12:21:15Z</time>
      </trkpt>
      <trkpt lat="43.87736" lon="6.55827">
        <ele>1144</ele>
        <time>2018-05-26T12:21:31Z</time>
      </trkpt>
      <trkpt lat="43.87773" lon="6.55808">
        <ele>1146</ele>
        <time>2018-05-26T12:21:40Z</time>
      </trkpt>
      <trkpt lat="43.87786" lon="6.55796">
        <ele>1146</ele>
        <time>2018-05-26T12:21:43Z</time>
      </trkpt>
      <trkpt lat="43.8779" lon="6.55791">
        <ele>1146</ele>
        <time>2018-05-26T12:21:44Z</time>
      </trkpt>
      <trkpt lat="43.87825" lon="6.55748">
        <ele>1140</ele>
        <time>2018-05-26T12:21:51Z</time>
      </trkpt>
      <trkpt lat="43.87831" lon="6.55743">
        <ele>1139</ele>
        <time>2018-05-26T12:21:52Z</time>
      </trkpt>
      <trkpt lat="43.87838" lon="6.55739">
        <ele>1139</ele>
        <time>2018-05-26T12:21:53Z</time>
      </trkpt>
      <trkpt lat="43.87846" lon="6.55735">
        <ele>1139</ele>
        <time>2018-05-26T12:21:54Z</time>
      </trkpt>
      <trkpt lat="43.87854" lon="6.55732">
        <ele>1138</ele>
        <time>2018-05-26T12:21:55Z</time>
      </trkpt>
      <trkpt lat="43.87939" lon="6.55663">
        <ele>1134</ele>
        <time>2018-05-26T12:22:06Z</time>
      </trkpt>
      <trkpt lat="43.8798" lon="6.5562">
        <ele>1130</ele>
        <time>2018-05-26T12:22:12Z</time>
      </trkpt>
      <trkpt lat="43.87984" lon="6.55613">
        <ele>1129</ele>
        <time>2018-05-26T12:22:13Z</time>
      </trkpt>
      <trkpt lat="43.87987" lon="6.55606">
        <ele>1128</ele>
        <time>2018-05-26T12:22:14Z</time>
      </trkpt>
      <trkpt lat="43.87989" lon="6.55601">
        <ele>1127</ele>
        <time>2018-05-26T12:22:15Z</time>
      </trkpt>
      <trkpt lat="43.87989" lon="6.55598">
        <ele>1127</ele>
        <time>2018-05-26T12:22:16Z</time>
      </trkpt>
      <trkpt lat="43.8799" lon="6.55596">
        <ele>1127</ele>
        <time>2018-05-26T12:22:17Z</time>
      </trkpt>
      <trkpt lat="43.8799" lon="6.55594">
        <ele>1126</ele>
        <time>2018-05-26T12:22:18Z</time>
      </trkpt>
      <trkpt lat="43.87992" lon="6.55592">
        <ele>1126</ele>
        <time>2018-05-26T12:22:19Z</time>
      </trkpt>
      <trkpt lat="43.87993" lon="6.55591">
        <ele>1126</ele>
        <time>2018-05-26T12:22:20Z</time>
      </trkpt>
      <trkpt lat="43.87995" lon="6.55589">
        <ele>1126</ele>
        <time>2018-05-26T12:22:21Z</time>
      </trkpt>
      <trkpt lat="43.87996" lon="6.55586">
        <ele>1126</ele>
        <time>2018-05-26T12:22:22Z</time>
      </trkpt>
      <trkpt lat="43.88015" lon="6.55563">
        <ele>1124</ele>
        <time>2018-05-26T12:22:33Z</time>
      </trkpt>
      <trkpt lat="43.88041" lon="6.55532">
        <ele>1120</ele>
        <time>2018-05-26T12:22:45Z</time>
      </trkpt>
      <trkpt lat="43.88065" lon="6.55515">
        <ele>1119</ele>
        <time>2018-05-26T12:22:56Z</time>
      </trkpt>
      <trkpt lat="43.88088" lon="6.55504">
        <ele>1116</ele>
        <time>2018-05-26T12:23:07Z</time>
      </trkpt>
      <trkpt lat="43.88128" lon="6.55495">
        <ele>1113</ele>
        <time>2018-05-26T12:23:21Z</time>
      </trkpt>
      <trkpt lat="43.88148" lon="6.55506">
        <ele>1114</ele>
        <time>2018-05-26T12:23:33Z</time>
      </trkpt>
      <trkpt lat="43.88167" lon="6.55529">
        <ele>1113</ele>
        <time>2018-05-26T12:23:46Z</time>
      </trkpt>
      <trkpt lat="43.88169" lon="6.55539">
        <ele>1113</ele>
        <time>2018-05-26T12:24:05Z</time>
      </trkpt>
      <trkpt lat="43.8817" lon="6.55541">
        <ele>1113</ele>
        <time>2018-05-26T12:24:19Z</time>
      </trkpt>
      <trkpt lat="43.88172" lon="6.55543">
        <ele>1113</ele>
        <time>2018-05-26T12:24:39Z</time>
      </trkpt>
      <trkpt lat="43.88171" lon="6.55543">
        <ele>1113</ele>
        <time>2018-05-26T12:24:53Z</time>
      </trkpt>
      <trkpt lat="43.88163" lon="6.55521">
        <ele>1113</ele>
        <time>2018-05-26T12:25:09Z</time>
      </trkpt>
      <trkpt lat="43.88156" lon="6.55509">
        <ele>1113</ele>
        <time>2018-05-26T12:25:19Z</time>
      </trkpt>
      <trkpt lat="43.88155" lon="6.55508">
        <ele>1113</ele>
        <time>2018-05-26T12:25:20Z</time>
      </trkpt>
      <trkpt lat="43.88154" lon="6.55507">
        <ele>1113</ele>
        <time>2018-05-26T12:25:21Z</time>
      </trkpt>
      <trkpt lat="43.88138" lon="6.55496">
        <ele>1113</ele>
        <time>2018-05-26T12:25:38Z</time>
      </trkpt>
      <trkpt lat="43.88137" lon="6.55495">
        <ele>1113</ele>
        <time>2018-05-26T12:25:48Z</time>
      </trkpt>
      <trkpt lat="43.88136" lon="6.55495">
        <ele>1113</ele>
        <time>2018-05-26T12:25:49Z</time>
      </trkpt>
      <trkpt lat="43.88112" lon="6.55495">
        <ele>1114</ele>
        <time>2018-05-26T12:26:11Z</time>
      </trkpt>
      <trkpt lat="43.88089" lon="6.55503">
        <ele>1116</ele>
        <time>2018-05-26T12:26:31Z</time>
      </trkpt>
      <trkpt lat="43.88074" lon="6.55509">
        <ele>1117</ele>
        <time>2018-05-26T12:26:45Z</time>
      </trkpt>
      <trkpt lat="43.88062" lon="6.55513">
        <ele>1118</ele>
        <time>2018-05-26T12:27:01Z</time>
      </trkpt>
      <trkpt lat="43.88063" lon="6.55512">
        <ele>1118</ele>
        <time>2018-05-26T12:27:23Z</time>
      </trkpt>
      <trkpt lat="43.88062" lon="6.55516">
        <ele>1119</ele>
        <time>2018-05-26T12:27:58Z</time>
      </trkpt>
      <trkpt lat="43.88066" lon="6.55513">
        <ele>1118</ele>
        <time>2018-05-26T12:28:34Z</time>
      </trkpt>
      <trkpt lat="43.88064" lon="6.55514">
        <ele>1118</ele>
        <time>2018-05-26T12:28:52Z</time>
      </trkpt>
      <trkpt lat="43.88063" lon="6.55516">
        <ele>1119</ele>
        <time>2018-05-26T12:29:15Z</time>
      </trkpt>
      <trkpt lat="43.88067" lon="6.55517">
        <ele>1119</ele>
        <time>2018-05-26T12:29:42Z</time>
      </trkpt>
      <trkpt lat="43.88067" lon="6.55517">
        <ele>1119</ele>
        <time>2018-05-26T12:30:08Z</time>
      </trkpt>
      <trkpt lat="43.88067" lon="6.55516">
        <ele>1119</ele>
        <time>2018-05-26T12:30:42Z</time>
      </trkpt>
      <trkpt lat="43.88068" lon="6.55516">
        <ele>1119</ele>
        <time>2018-05-26T12:31:14Z</time>
      </trkpt>
      <trkpt lat="43.88066" lon="6.55516">
        <ele>1119</ele>
        <time>2018-05-26T12:31:36Z</time>
      </trkpt>
      <trkpt lat="43.88065" lon="6.55517">
        <ele>1119</ele>
        <time>2018-05-26T12:31:57Z</time>
      </trkpt>
      <trkpt lat="43.88065" lon="6.55515">
        <ele>1119</ele>
        <time>2018-05-26T12:32:23Z</time>
      </trkpt>
      <trkpt lat="43.88066" lon="6.55518">
        <ele>1119</ele>
        <time>2018-05-26T12:32:40Z</time>
      </trkpt>
      <trkpt lat="43.88068" lon="6.55522">
        <ele>1120</ele>
        <time>2018-05-26T12:33:01Z</time>
      </trkpt>
      <trkpt lat="43.88067" lon="6.55521">
        <ele>1120</ele>
        <time>2018-05-26T12:33:21Z</time>
      </trkpt>
      <trkpt lat="43.88064" lon="6.55518">
        <ele>1119</ele>
        <time>2018-05-26T12:33:46Z</time>
      </trkpt>
      <trkpt lat="43.88066" lon="6.55519">
        <ele>1119</ele>
        <time>2018-05-26T12:34:07Z</time>
      </trkpt>
      <trkpt lat="43.88066" lon="6.55519">
        <ele>1119</ele>
        <time>2018-05-26T12:34:33Z</time>
      </trkpt>
      <trkpt lat="43.88066" lon="6.55519">
        <ele>1119</ele>
        <time>2018-05-26T12:34:56Z</time>
      </trkpt>
      <trkpt lat="43.88063" lon="6.55516">
        <ele>1119</ele>
        <time>2018-05-26T12:35:17Z</time>
      </trkpt>
      <trkpt lat="43.88063" lon="6.55517">
        <ele>1119</ele>
        <time>2018-05-26T12:35:18Z</time>
      </trkpt>
      <trkpt lat="43.88062" lon="6.55519">
        <ele>1119</ele>
        <time>2018-05-26T12:35:19Z</time>
      </trkpt>
      <trkpt lat="43.88061" lon="6.55521">
        <ele>1120</ele>
        <time>2018-05-26T12:35:21Z</time>
      </trkpt>
      <trkpt lat="43.8806" lon="6.55521">
        <ele>1120</ele>
        <time>2018-05-26T12:35:22Z</time>
      </trkpt>
      <trkpt lat="43.88059" lon="6.55522">
        <ele>1120</ele>
        <time>2018-05-26T12:35:23Z</time>
      </trkpt>
      <trkpt lat="43.88057" lon="6.55523">
        <ele>1120</ele>
        <time>2018-05-26T12:35:24Z</time>
      </trkpt>
      <trkpt lat="43.88056" lon="6.55525">
        <ele>1120</ele>
        <time>2018-05-26T12:35:25Z</time>
      </trkpt>
      <trkpt lat="43.88055" lon="6.55526">
        <ele>1120</ele>
        <time>2018-05-26T12:35:26Z</time>
      </trkpt>
      <trkpt lat="43.88032" lon="6.55541">
        <ele>1121</ele>
        <time>2018-05-26T12:35:39Z</time>
      </trkpt>
      <trkpt lat="43.88013" lon="6.55567">
        <ele>1124</ele>
        <time>2018-05-26T12:35:53Z</time>
      </trkpt>
      <trkpt lat="43.87988" lon="6.55588">
        <ele>1125</ele>
        <time>2018-05-26T12:36:09Z</time>
      </trkpt>
      <trkpt lat="43.87987" lon="6.55587">
        <ele>1124</ele>
        <time>2018-05-26T12:36:10Z</time>
      </trkpt>
      <trkpt lat="43.87973" lon="6.55581">
        <ele>1120</ele>
        <time>2018-05-26T12:36:15Z</time>
      </trkpt>
      <trkpt lat="43.87969" lon="6.55581">
        <ele>1120</ele>
        <time>2018-05-26T12:36:16Z</time>
      </trkpt>
      <trkpt lat="43.87965" lon="6.55583">
        <ele>1119</ele>
        <time>2018-05-26T12:36:17Z</time>
      </trkpt>
      <trkpt lat="43.87961" lon="6.55585">
        <ele>1119</ele>
        <time>2018-05-26T12:36:18Z</time>
      </trkpt>
      <trkpt lat="43.87958" lon="6.55589">
        <ele>1119</ele>
        <time>2018-05-26T12:36:19Z</time>
      </trkpt>
      <trkpt lat="43.87954" lon="6.55593">
        <ele>1119</ele>
        <time>2018-05-26T12:36:20Z</time>
      </trkpt>
      <trkpt lat="43.87936" lon="6.55618">
        <ele>1121</ele>
        <time>2018-05-26T12:36:25Z</time>
      </trkpt>
      <trkpt lat="43.8792" lon="6.55634">
        <ele>1122</ele>
        <time>2018-05-26T12:36:28Z</time>
      </trkpt>
      <trkpt lat="43.87906" lon="6.55644">
        <ele>1123</ele>
        <time>2018-05-26T12:36:30Z</time>
      </trkpt>
      <trkpt lat="43.87899" lon="6.55648">
        <ele>1122</ele>
        <time>2018-05-26T12:36:31Z</time>
      </trkpt>
      <trkpt lat="43.87891" lon="6.55652">
        <ele>1122</ele>
        <time>2018-05-26T12:36:32Z</time>
      </trkpt>
      <trkpt lat="43.87816" lon="6.55665">
        <ele>1115</ele>
        <time>2018-05-26T12:36:40Z</time>
      </trkpt>
      <trkpt lat="43.87806" lon="6.5567">
        <ele>1114</ele>
        <time>2018-05-26T12:36:41Z</time>
      </trkpt>
      <trkpt lat="43.87796" lon="6.55676">
        <ele>1113</ele>
        <time>2018-05-26T12:36:42Z</time>
      </trkpt>
      <trkpt lat="43.87746" lon="6.55709">
        <ele>1110</ele>
        <time>2018-05-26T12:36:47Z</time>
      </trkpt>
      <trkpt lat="43.87734" lon="6.55712">
        <ele>1109</ele>
        <time>2018-05-26T12:36:48Z</time>
      </trkpt>
      <trkpt lat="43.87723" lon="6.55711">
        <ele>1108</ele>
        <time>2018-05-26T12:36:49Z</time>
      </trkpt>
      <trkpt lat="43.87712" lon="6.55707">
        <ele>1106</ele>
        <time>2018-05-26T12:36:50Z</time>
      </trkpt>
      <trkpt lat="43.877" lon="6.55701">
        <ele>1104</ele>
        <time>2018-05-26T12:36:51Z</time>
      </trkpt>
      <trkpt lat="43.8769" lon="6.55695">
        <ele>1102</ele>
        <time>2018-05-26T12:36:52Z</time>
      </trkpt>
      <trkpt lat="43.87561" lon="6.5563">
        <ele>1091</ele>
        <time>2018-05-26T12:37:04Z</time>
      </trkpt>
      <trkpt lat="43.87554" lon="6.55623">
        <ele>1088</ele>
        <time>2018-05-26T12:37:05Z</time>
      </trkpt>
      <trkpt lat="43.87551" lon="6.55613">
        <ele>1086</ele>
        <time>2018-05-26T12:37:06Z</time>
      </trkpt>
      <trkpt lat="43.87551" lon="6.55603">
        <ele>1085</ele>
        <time>2018-05-26T12:37:07Z</time>
      </trkpt>
      <trkpt lat="43.87555" lon="6.55595">
        <ele>1085</ele>
        <time>2018-05-26T12:37:08Z</time>
      </trkpt>
      <trkpt lat="43.87561" lon="6.5559">
        <ele>1086</ele>
        <time>2018-05-26T12:37:09Z</time>
      </trkpt>
      <trkpt lat="43.87569" lon="6.55589">
        <ele>1086</ele>
        <time>2018-05-26T12:37:10Z</time>
      </trkpt>
      <trkpt lat="43.87576" lon="6.55591">
        <ele>1086</ele>
        <time>2018-05-26T12:37:11Z</time>
      </trkpt>
      <trkpt lat="43.87641" lon="6.55599">
        <ele>1084</ele>
        <time>2018-05-26T12:37:19Z</time>
      </trkpt>
      <trkpt lat="43.87649" lon="6.55596">
        <ele>1083</ele>
        <time>2018-05-26T12:37:20Z</time>
      </trkpt>
      <trkpt lat="43.87656" lon="6.55589">
        <ele>1081</ele>
        <time>2018-05-26T12:37:21Z</time>
      </trkpt>
      <trkpt lat="43.8766" lon="6.55579">
        <ele>1078</ele>
        <time>2018-05-26T12:37:22Z</time>
      </trkpt>
      <trkpt lat="43.8766" lon="6.55568">
        <ele>1076</ele>
        <time>2018-05-26T12:37:23Z</time>
      </trkpt>
      <trkpt lat="43.87657" lon="6.55559">
        <ele>1075</ele>
        <time>2018-05-26T12:37:24Z</time>
      </trkpt>
      <trkpt lat="43.87651" lon="6.55552">
        <ele>1074</ele>
        <time>2018-05-26T12:37:25Z</time>
      </trkpt>
      <trkpt lat="43.87644" lon="6.55549">
        <ele>1074</ele>
        <time>2018-05-26T12:37:26Z</time>
      </trkpt>
      <trkpt lat="43.87636" lon="6.55548">
        <ele>1075</ele>
        <time>2018-05-26T12:37:27Z</time>
      </trkpt>
      <trkpt lat="43.87629" lon="6.55547">
        <ele>1075</ele>
        <time>2018-05-26T12:37:28Z</time>
      </trkpt>
      <trkpt lat="43.87535" lon="6.55527">
        <ele>1076</ele>
        <time>2018-05-26T12:37:39Z</time>
      </trkpt>
      <trkpt lat="43.87528" lon="6.55522">
        <ele>1075</ele>
        <time>2018-05-26T12:37:40Z</time>
      </trkpt>
      <trkpt lat="43.87523" lon="6.55515">
        <ele>1073</ele>
        <time>2018-05-26T12:37:41Z</time>
      </trkpt>
      <trkpt lat="43.8752" lon="6.55506">
        <ele>1072</ele>
        <time>2018-05-26T12:37:42Z</time>
      </trkpt>
      <trkpt lat="43.87521" lon="6.55497">
        <ele>1071</ele>
        <time>2018-05-26T12:37:43Z</time>
      </trkpt>
      <trkpt lat="43.87526" lon="6.55488">
        <ele>1070</ele>
        <time>2018-05-26T12:37:44Z</time>
      </trkpt>
      <trkpt lat="43.87531" lon="6.55484">
        <ele>1069</ele>
        <time>2018-05-26T12:37:45Z</time>
      </trkpt>
      <trkpt lat="43.87538" lon="6.55482">
        <ele>1069</ele>
        <time>2018-05-26T12:37:46Z</time>
      </trkpt>
      <trkpt lat="43.87546" lon="6.55483">
        <ele>1069</ele>
        <time>2018-05-26T12:37:47Z</time>
      </trkpt>
      <trkpt lat="43.87553" lon="6.55485">
        <ele>1070</ele>
        <time>2018-05-26T12:37:48Z</time>
      </trkpt>
      <trkpt lat="43.8756" lon="6.55487">
        <ele>1070</ele>
        <time>2018-05-26T12:37:49Z</time>
      </trkpt>
      <trkpt lat="43.87568" lon="6.55487">
        <ele>1070</ele>
        <time>2018-05-26T12:37:50Z</time>
      </trkpt>
      <trkpt lat="43.87609" lon="6.55492">
        <ele>1067</ele>
        <time>2018-05-26T12:37:55Z</time>
      </trkpt>
      <trkpt lat="43.87616" lon="6.55488">
        <ele>1066</ele>
        <time>2018-05-26T12:37:56Z</time>
      </trkpt>
      <trkpt lat="43.87621" lon="6.55481">
        <ele>1065</ele>
        <time>2018-05-26T12:37:57Z</time>
      </trkpt>
      <trkpt lat="43.87623" lon="6.55471">
        <ele>1063</ele>
        <time>2018-05-26T12:37:58Z</time>
      </trkpt>
      <trkpt lat="43.87623" lon="6.55461">
        <ele>1061</ele>
        <time>2018-05-26T12:37:59Z</time>
      </trkpt>
      <trkpt lat="43.8762" lon="6.55453">
        <ele>1060</ele>
        <time>2018-05-26T12:38:00Z</time>
      </trkpt>
      <trkpt lat="43.87614" lon="6.55447">
        <ele>1060</ele>
        <time>2018-05-26T12:38:01Z</time>
      </trkpt>
      <trkpt lat="43.87607" lon="6.55444">
        <ele>1060</ele>
        <time>2018-05-26T12:38:02Z</time>
      </trkpt>
      <trkpt lat="43.87599" lon="6.55443">
        <ele>1060</ele>
        <time>2018-05-26T12:38:03Z</time>
      </trkpt>
      <trkpt lat="43.87591" lon="6.55444">
        <ele>1061</ele>
        <time>2018-05-26T12:38:04Z</time>
      </trkpt>
      <trkpt lat="43.87583" lon="6.55445">
        <ele>1061</ele>
        <time>2018-05-26T12:38:05Z</time>
      </trkpt>
      <trkpt lat="43.87575" lon="6.55445">
        <ele>1062</ele>
        <time>2018-05-26T12:38:06Z</time>
      </trkpt>
      <trkpt lat="43.87515" lon="6.55441">
        <ele>1060</ele>
        <time>2018-05-26T12:38:13Z</time>
      </trkpt>
      <trkpt lat="43.87509" lon="6.55436">
        <ele>1057</ele>
        <time>2018-05-26T12:38:14Z</time>
      </trkpt>
      <trkpt lat="43.87506" lon="6.55427">
        <ele>1054</ele>
        <time>2018-05-26T12:38:15Z</time>
      </trkpt>
      <trkpt lat="43.87506" lon="6.55418">
        <ele>1053</ele>
        <time>2018-05-26T12:38:16Z</time>
      </trkpt>
      <trkpt lat="43.87509" lon="6.5541">
        <ele>1052</ele>
        <time>2018-05-26T12:38:17Z</time>
      </trkpt>
      <trkpt lat="43.87514" lon="6.55404">
        <ele>1052</ele>
        <time>2018-05-26T12:38:18Z</time>
      </trkpt>
      <trkpt lat="43.8752" lon="6.554">
        <ele>1052</ele>
        <time>2018-05-26T12:38:19Z</time>
      </trkpt>
      <trkpt lat="43.87527" lon="6.55398">
        <ele>1053</ele>
        <time>2018-05-26T12:38:20Z</time>
      </trkpt>
      <trkpt lat="43.87535" lon="6.55397">
        <ele>1052</ele>
        <time>2018-05-26T12:38:21Z</time>
      </trkpt>
      <trkpt lat="43.87542" lon="6.55396">
        <ele>1052</ele>
        <time>2018-05-26T12:38:22Z</time>
      </trkpt>
      <trkpt lat="43.87652" lon="6.55374">
        <ele>1046</ele>
        <time>2018-05-26T12:38:34Z</time>
      </trkpt>
      <trkpt lat="43.8766" lon="6.55372">
        <ele>1045</ele>
        <time>2018-05-26T12:38:35Z</time>
      </trkpt>
      <trkpt lat="43.87668" lon="6.55368">
        <ele>1043</ele>
        <time>2018-05-26T12:38:36Z</time>
      </trkpt>
      <trkpt lat="43.87673" lon="6.55362">
        <ele>1042</ele>
        <time>2018-05-26T12:38:37Z</time>
      </trkpt>
      <trkpt lat="43.87676" lon="6.55353">
        <ele>1040</ele>
        <time>2018-05-26T12:38:38Z</time>
      </trkpt>
      <trkpt lat="43.87676" lon="6.55344">
        <ele>1039</ele>
        <time>2018-05-26T12:38:39Z</time>
      </trkpt>
      <trkpt lat="43.87673" lon="6.55334">
        <ele>1038</ele>
        <time>2018-05-26T12:38:40Z</time>
      </trkpt>
      <trkpt lat="43.87669" lon="6.55328">
        <ele>1038</ele>
        <time>2018-05-26T12:38:41Z</time>
      </trkpt>
      <trkpt lat="43.87662" lon="6.55323">
        <ele>1038</ele>
        <time>2018-05-26T12:38:42Z</time>
      </trkpt>
      <trkpt lat="43.87655" lon="6.55321">
        <ele>1038</ele>
        <time>2018-05-26T12:38:43Z</time>
      </trkpt>
      <trkpt lat="43.87646" lon="6.5532">
        <ele>1038</ele>
        <time>2018-05-26T12:38:44Z</time>
      </trkpt>
      <trkpt lat="43.87575" lon="6.55306">
        <ele>1034</ele>
        <time>2018-05-26T12:38:52Z</time>
      </trkpt>
      <trkpt lat="43.87566" lon="6.55306">
        <ele>1033</ele>
        <time>2018-05-26T12:38:53Z</time>
      </trkpt>
      <trkpt lat="43.87555" lon="6.55308">
        <ele>1033</ele>
        <time>2018-05-26T12:38:54Z</time>
      </trkpt>
      <trkpt lat="43.87546" lon="6.55311">
        <ele>1033</ele>
        <time>2018-05-26T12:38:55Z</time>
      </trkpt>
      <trkpt lat="43.87535" lon="6.55316">
        <ele>1034</ele>
        <time>2018-05-26T12:38:56Z</time>
      </trkpt>
      <trkpt lat="43.87525" lon="6.55321">
        <ele>1035</ele>
        <time>2018-05-26T12:38:57Z</time>
      </trkpt>
      <trkpt lat="43.87478" lon="6.55339">
        <ele>1036</ele>
        <time>2018-05-26T12:39:02Z</time>
      </trkpt>
      <trkpt lat="43.8747" lon="6.55337">
        <ele>1033</ele>
        <time>2018-05-26T12:39:03Z</time>
      </trkpt>
      <trkpt lat="43.87465" lon="6.55331">
        <ele>1032</ele>
        <time>2018-05-26T12:39:04Z</time>
      </trkpt>
      <trkpt lat="43.87462" lon="6.55321">
        <ele>1029</ele>
        <time>2018-05-26T12:39:05Z</time>
      </trkpt>
      <trkpt lat="43.87463" lon="6.55312">
        <ele>1027</ele>
        <time>2018-05-26T12:39:06Z</time>
      </trkpt>
      <trkpt lat="43.87468" lon="6.55303">
        <ele>1026</ele>
        <time>2018-05-26T12:39:07Z</time>
      </trkpt>
      <trkpt lat="43.87474" lon="6.55299">
        <ele>1026</ele>
        <time>2018-05-26T12:39:08Z</time>
      </trkpt>
      <trkpt lat="43.87483" lon="6.55298">
        <ele>1026</ele>
        <time>2018-05-26T12:39:09Z</time>
      </trkpt>
      <trkpt lat="43.8749" lon="6.55297">
        <ele>1027</ele>
        <time>2018-05-26T12:39:10Z</time>
      </trkpt>
      <trkpt lat="43.87498" lon="6.55297">
        <ele>1027</ele>
        <time>2018-05-26T12:39:11Z</time>
      </trkpt>
      <trkpt lat="43.87507" lon="6.55296">
        <ele>1027</ele>
        <time>2018-05-26T12:39:12Z</time>
      </trkpt>
      <trkpt lat="43.87514" lon="6.55293">
        <ele>1027</ele>
        <time>2018-05-26T12:39:13Z</time>
      </trkpt>
      <trkpt lat="43.87522" lon="6.55289">
        <ele>1026</ele>
        <time>2018-05-26T12:39:14Z</time>
      </trkpt>
      <trkpt lat="43.87529" lon="6.55284">
        <ele>1025</ele>
        <time>2018-05-26T12:39:15Z</time>
      </trkpt>
      <trkpt lat="43.87536" lon="6.55279">
        <ele>1024</ele>
        <time>2018-05-26T12:39:16Z</time>
      </trkpt>
      <trkpt lat="43.87542" lon="6.55272">
        <ele>1023</ele>
        <time>2018-05-26T12:39:17Z</time>
      </trkpt>
      <trkpt lat="43.87548" lon="6.55266">
        <ele>1022</ele>
        <time>2018-05-26T12:39:18Z</time>
      </trkpt>
      <trkpt lat="43.87567" lon="6.55245">
        <ele>1018</ele>
        <time>2018-05-26T12:39:23Z</time>
      </trkpt>
      <trkpt lat="43.87569" lon="6.5524">
        <ele>1017</ele>
        <time>2018-05-26T12:39:24Z</time>
      </trkpt>
      <trkpt lat="43.8757" lon="6.55238">
        <ele>1017</ele>
        <time>2018-05-26T12:39:25Z</time>
      </trkpt>
      <trkpt lat="43.8757" lon="6.55235">
        <ele>1016</ele>
        <time>2018-05-26T12:39:33Z</time>
      </trkpt>
      <trkpt lat="43.87571" lon="6.55239">
        <ele>1017</ele>
        <time>2018-05-26T12:39:55Z</time>
      </trkpt>
      <trkpt lat="43.8757" lon="6.55236">
        <ele>1016</ele>
        <time>2018-05-26T12:40:17Z</time>
      </trkpt>
      <trkpt lat="43.87568" lon="6.55236">
        <ele>1016</ele>
        <time>2018-05-26T12:40:40Z</time>
      </trkpt>
      <trkpt lat="43.87567" lon="6.55236">
        <ele>1016</ele>
        <time>2018-05-26T12:40:54Z</time>
      </trkpt>
      <trkpt lat="43.87567" lon="6.55238">
        <ele>1017</ele>
        <time>2018-05-26T12:41:19Z</time>
      </trkpt>
      <trkpt lat="43.87568" lon="6.55239">
        <ele>1017</ele>
        <time>2018-05-26T12:41:20Z</time>
      </trkpt>
      <trkpt lat="43.8757" lon="6.55239">
        <ele>1017</ele>
        <time>2018-05-26T12:41:21Z</time>
      </trkpt>
      <trkpt lat="43.87571" lon="6.55239">
        <ele>1017</ele>
        <time>2018-05-26T12:41:22Z</time>
      </trkpt>
      <trkpt lat="43.87572" lon="6.55237">
        <ele>1017</ele>
        <time>2018-05-26T12:41:23Z</time>
      </trkpt>
      <trkpt lat="43.87574" lon="6.55235">
        <ele>1017</ele>
        <time>2018-05-26T12:41:24Z</time>
      </trkpt>
      <trkpt lat="43.87576" lon="6.55233">
        <ele>1017</ele>
        <time>2018-05-26T12:41:25Z</time>
      </trkpt>
      <trkpt lat="43.87578" lon="6.55232">
        <ele>1017</ele>
        <time>2018-05-26T12:41:26Z</time>
      </trkpt>
      <trkpt lat="43.8758" lon="6.5523">
        <ele>1017</ele>
        <time>2018-05-26T12:41:27Z</time>
      </trkpt>
      <trkpt lat="43.87583" lon="6.55227">
        <ele>1017</ele>
        <time>2018-05-26T12:41:28Z</time>
      </trkpt>
      <trkpt lat="43.87588" lon="6.55221">
        <ele>1017</ele>
        <time>2018-05-26T12:41:30Z</time>
      </trkpt>
      <trkpt lat="43.87591" lon="6.55217">
        <ele>1016</ele>
        <time>2018-05-26T12:41:31Z</time>
      </trkpt>
      <trkpt lat="43.87615" lon="6.55157">
        <ele>1012</ele>
        <time>2018-05-26T12:41:41Z</time>
      </trkpt>
      <trkpt lat="43.87624" lon="6.55139">
        <ele>1012</ele>
        <time>2018-05-26T12:41:43Z</time>
      </trkpt>
      <trkpt lat="43.8763" lon="6.55131">
        <ele>1010</ele>
        <time>2018-05-26T12:41:44Z</time>
      </trkpt>
      <trkpt lat="43.87637" lon="6.55123">
        <ele>1009</ele>
        <time>2018-05-26T12:41:45Z</time>
      </trkpt>
      <trkpt lat="43.87646" lon="6.55116">
        <ele>1008</ele>
        <time>2018-05-26T12:41:46Z</time>
      </trkpt>
      <trkpt lat="43.87654" lon="6.55109">
        <ele>1007</ele>
        <time>2018-05-26T12:41:47Z</time>
      </trkpt>
      <trkpt lat="43.8771" lon="6.55065">
        <ele>997</ele>
        <time>2018-05-26T12:41:53Z</time>
      </trkpt>
      <trkpt lat="43.87718" lon="6.55054">
        <ele>996</ele>
        <time>2018-05-26T12:41:54Z</time>
      </trkpt>
      <trkpt lat="43.87725" lon="6.55041">
        <ele>997</ele>
        <time>2018-05-26T12:41:55Z</time>
      </trkpt>
      <trkpt lat="43.8773" lon="6.55026">
        <ele>996</ele>
        <time>2018-05-26T12:41:56Z</time>
      </trkpt>
      <trkpt lat="43.87733" lon="6.55011">
        <ele>995</ele>
        <time>2018-05-26T12:41:57Z</time>
      </trkpt>
      <trkpt lat="43.87735" lon="6.54995">
        <ele>993</ele>
        <time>2018-05-26T12:41:58Z</time>
      </trkpt>
      <trkpt lat="43.87741" lon="6.54962">
        <ele>990</ele>
        <time>2018-05-26T12:42:00Z</time>
      </trkpt>
      <trkpt lat="43.87745" lon="6.54947">
        <ele>989</ele>
        <time>2018-05-26T12:42:01Z</time>
      </trkpt>
      <trkpt lat="43.87752" lon="6.54932">
        <ele>988</ele>
        <time>2018-05-26T12:42:02Z</time>
      </trkpt>
      <trkpt lat="43.87821" lon="6.54813">
        <ele>978</ele>
        <time>2018-05-26T12:42:11Z</time>
      </trkpt>
      <trkpt lat="43.8783" lon="6.54804">
        <ele>976</ele>
        <time>2018-05-26T12:42:12Z</time>
      </trkpt>
      <trkpt lat="43.87841" lon="6.54799">
        <ele>974</ele>
        <time>2018-05-26T12:42:13Z</time>
      </trkpt>
      <trkpt lat="43.87852" lon="6.54797">
        <ele>974</ele>
        <time>2018-05-26T12:42:14Z</time>
      </trkpt>
      <trkpt lat="43.87864" lon="6.54798">
        <ele>974</ele>
        <time>2018-05-26T12:42:15Z</time>
      </trkpt>
      <trkpt lat="43.87875" lon="6.548">
        <ele>973</ele>
        <time>2018-05-26T12:42:16Z</time>
      </trkpt>
      <trkpt lat="43.87978" lon="6.54816">
        <ele>965</ele>
        <time>2018-05-26T12:42:25Z</time>
      </trkpt>
      <trkpt lat="43.87988" lon="6.54811">
        <ele>964</ele>
        <time>2018-05-26T12:42:26Z</time>
      </trkpt>
      <trkpt lat="43.87996" lon="6.54802">
        <ele>965</ele>
        <time>2018-05-26T12:42:27Z</time>
      </trkpt>
      <trkpt lat="43.88" lon="6.54791">
        <ele>967</ele>
        <time>2018-05-26T12:42:28Z</time>
      </trkpt>
      <trkpt lat="43.88001" lon="6.54778">
        <ele>968</ele>
        <time>2018-05-26T12:42:29Z</time>
      </trkpt>
      <trkpt lat="43.87999" lon="6.54766">
        <ele>968</ele>
        <time>2018-05-26T12:42:30Z</time>
      </trkpt>
      <trkpt lat="43.87995" lon="6.54754">
        <ele>967</ele>
        <time>2018-05-26T12:42:31Z</time>
      </trkpt>
      <trkpt lat="43.87991" lon="6.54742">
        <ele>966</ele>
        <time>2018-05-26T12:42:32Z</time>
      </trkpt>
      <trkpt lat="43.87975" lon="6.54708">
        <ele>963</ele>
        <time>2018-05-26T12:42:35Z</time>
      </trkpt>
      <trkpt lat="43.87927" lon="6.54626">
        <ele>958</ele>
        <time>2018-05-26T12:42:43Z</time>
      </trkpt>
      <trkpt lat="43.87923" lon="6.54614">
        <ele>958</ele>
        <time>2018-05-26T12:42:44Z</time>
      </trkpt>
      <trkpt lat="43.87921" lon="6.54601">
        <ele>957</ele>
        <time>2018-05-26T12:42:45Z</time>
      </trkpt>
      <trkpt lat="43.87923" lon="6.54589">
        <ele>957</ele>
        <time>2018-05-26T12:42:46Z</time>
      </trkpt>
      <trkpt lat="43.87926" lon="6.54577">
        <ele>958</ele>
        <time>2018-05-26T12:42:47Z</time>
      </trkpt>
      <trkpt lat="43.87931" lon="6.54567">
        <ele>959</ele>
        <time>2018-05-26T12:42:48Z</time>
      </trkpt>
      <trkpt lat="43.87936" lon="6.54558">
        <ele>960</ele>
        <time>2018-05-26T12:42:49Z</time>
      </trkpt>
      <trkpt lat="43.87941" lon="6.54549">
        <ele>959</ele>
        <time>2018-05-26T12:42:50Z</time>
      </trkpt>
      <trkpt lat="43.87991" lon="6.54481">
        <ele>948</ele>
        <time>2018-05-26T12:42:58Z</time>
      </trkpt>
      <trkpt lat="43.87999" lon="6.54478">
        <ele>948</ele>
        <time>2018-05-26T12:42:59Z</time>
      </trkpt>
      <trkpt lat="43.88009" lon="6.5448">
        <ele>948</ele>
        <time>2018-05-26T12:43:00Z</time>
      </trkpt>
      <trkpt lat="43.88018" lon="6.54486">
        <ele>949</ele>
        <time>2018-05-26T12:43:01Z</time>
      </trkpt>
      <trkpt lat="43.88029" lon="6.54491">
        <ele>950</ele>
        <time>2018-05-26T12:43:02Z</time>
      </trkpt>
      <trkpt lat="43.88038" lon="6.54492">
        <ele>950</ele>
        <time>2018-05-26T12:43:03Z</time>
      </trkpt>
      <trkpt lat="43.88048" lon="6.54491">
        <ele>949</ele>
        <time>2018-05-26T12:43:04Z</time>
      </trkpt>
      <trkpt lat="43.88056" lon="6.54486">
        <ele>948</ele>
        <time>2018-05-26T12:43:05Z</time>
      </trkpt>
      <trkpt lat="43.88062" lon="6.54481">
        <ele>948</ele>
        <time>2018-05-26T12:43:06Z</time>
      </trkpt>
      <trkpt lat="43.88067" lon="6.54474">
        <ele>947</ele>
        <time>2018-05-26T12:43:07Z</time>
      </trkpt>
      <trkpt lat="43.88071" lon="6.54467">
        <ele>945</ele>
        <time>2018-05-26T12:43:08Z</time>
      </trkpt>
      <trkpt lat="43.88075" lon="6.5446">
        <ele>944</ele>
        <time>2018-05-26T12:43:09Z</time>
      </trkpt>
      <trkpt lat="43.88079" lon="6.54454">
        <ele>943</ele>
        <time>2018-05-26T12:43:10Z</time>
      </trkpt>
      <trkpt lat="43.88083" lon="6.54451">
        <ele>943</ele>
        <time>2018-05-26T12:43:11Z</time>
      </trkpt>
      <trkpt lat="43.88086" lon="6.54446">
        <ele>942</ele>
        <time>2018-05-26T12:43:13Z</time>
      </trkpt>
      <trkpt lat="43.88085" lon="6.54444">
        <ele>941</ele>
        <time>2018-05-26T12:43:14Z</time>
      </trkpt>
      <trkpt lat="43.88083" lon="6.54442">
        <ele>940</ele>
        <time>2018-05-26T12:43:17Z</time>
      </trkpt>
      <trkpt lat="43.88083" lon="6.5444">
        <ele>940</ele>
        <time>2018-05-26T12:43:18Z</time>
      </trkpt>
      <trkpt lat="43.88085" lon="6.54438">
        <ele>940</ele>
        <time>2018-05-26T12:43:19Z</time>
      </trkpt>
      <trkpt lat="43.88095" lon="6.54429">
        <ele>939</ele>
        <time>2018-05-26T12:43:23Z</time>
      </trkpt>
      <trkpt lat="43.88135" lon="6.54361">
        <ele>935</ele>
        <time>2018-05-26T12:43:32Z</time>
      </trkpt>
      <trkpt lat="43.88139" lon="6.54349">
        <ele>934</ele>
        <time>2018-05-26T12:43:33Z</time>
      </trkpt>
      <trkpt lat="43.88143" lon="6.54335">
        <ele>933</ele>
        <time>2018-05-26T12:43:34Z</time>
      </trkpt>
      <trkpt lat="43.88192" lon="6.54158">
        <ele>909</ele>
        <time>2018-05-26T12:43:45Z</time>
      </trkpt>
      <trkpt lat="43.88235" lon="6.54089">
        <ele>902</ele>
        <time>2018-05-26T12:43:50Z</time>
      </trkpt>
      <trkpt lat="43.88245" lon="6.5408">
        <ele>902</ele>
        <time>2018-05-26T12:43:51Z</time>
      </trkpt>
      <trkpt lat="43.88255" lon="6.54072">
        <ele>901</ele>
        <time>2018-05-26T12:43:52Z</time>
      </trkpt>
      <trkpt lat="43.88266" lon="6.54067">
        <ele>900</ele>
        <time>2018-05-26T12:43:53Z</time>
      </trkpt>
      <trkpt lat="43.88276" lon="6.54065">
        <ele>899</ele>
        <time>2018-05-26T12:43:54Z</time>
      </trkpt>
      <trkpt lat="43.88287" lon="6.54065">
        <ele>899</ele>
        <time>2018-05-26T12:43:55Z</time>
      </trkpt>
      <trkpt lat="43.88297" lon="6.54067">
        <ele>899</ele>
        <time>2018-05-26T12:43:56Z</time>
      </trkpt>
      <trkpt lat="43.88308" lon="6.5407">
        <ele>898</ele>
        <time>2018-05-26T12:43:57Z</time>
      </trkpt>
      <trkpt lat="43.88318" lon="6.54072">
        <ele>897</ele>
        <time>2018-05-26T12:43:58Z</time>
      </trkpt>
      <trkpt lat="43.8833" lon="6.5407">
        <ele>895</ele>
        <time>2018-05-26T12:43:59Z</time>
      </trkpt>
      <trkpt lat="43.8834" lon="6.54065">
        <ele>892</ele>
        <time>2018-05-26T12:44:00Z</time>
      </trkpt>
      <trkpt lat="43.88358" lon="6.54054">
        <ele>898</ele>
        <time>2018-05-26T12:44:02Z</time>
      </trkpt>
      <trkpt lat="43.88365" lon="6.54045">
        <ele>898</ele>
        <time>2018-05-26T12:44:03Z</time>
      </trkpt>
      <trkpt lat="43.8837" lon="6.54034">
        <ele>897</ele>
        <time>2018-05-26T12:44:04Z</time>
      </trkpt>
      <trkpt lat="43.88379" lon="6.54014">
        <ele>895</ele>
        <time>2018-05-26T12:44:06Z</time>
      </trkpt>
      <trkpt lat="43.88384" lon="6.54005">
        <ele>894</ele>
        <time>2018-05-26T12:44:07Z</time>
      </trkpt>
      <trkpt lat="43.8839" lon="6.53999">
        <ele>894</ele>
        <time>2018-05-26T12:44:08Z</time>
      </trkpt>
      <trkpt lat="43.88396" lon="6.53995">
        <ele>896</ele>
        <time>2018-05-26T12:44:09Z</time>
      </trkpt>
      <trkpt lat="43.88403" lon="6.53992">
        <ele>897</ele>
        <time>2018-05-26T12:44:10Z</time>
      </trkpt>
      <trkpt lat="43.8841" lon="6.5399">
        <ele>899</ele>
        <time>2018-05-26T12:44:11Z</time>
      </trkpt>
      <trkpt lat="43.88428" lon="6.53986">
        <ele>904</ele>
        <time>2018-05-26T12:44:14Z</time>
      </trkpt>
      <trkpt lat="43.88433" lon="6.53983">
        <ele>904</ele>
        <time>2018-05-26T12:44:15Z</time>
      </trkpt>
      <trkpt lat="43.88441" lon="6.53976">
        <ele>907</ele>
        <time>2018-05-26T12:44:17Z</time>
      </trkpt>
      <trkpt lat="43.88444" lon="6.53971">
        <ele>908</ele>
        <time>2018-05-26T12:44:18Z</time>
      </trkpt>
      <trkpt lat="43.88453" lon="6.53959">
        <ele>911</ele>
        <time>2018-05-26T12:44:21Z</time>
      </trkpt>
      <trkpt lat="43.88456" lon="6.53954">
        <ele>912</ele>
        <time>2018-05-26T12:44:22Z</time>
      </trkpt>
      <trkpt lat="43.88458" lon="6.53949">
        <ele>912</ele>
        <time>2018-05-26T12:44:23Z</time>
      </trkpt>
      <trkpt lat="43.88476" lon="6.53896">
        <ele>907</ele>
        <time>2018-05-26T12:44:34Z</time>
      </trkpt>
      <trkpt lat="43.88478" lon="6.53891">
        <ele>906</ele>
        <time>2018-05-26T12:44:35Z</time>
      </trkpt>
      <trkpt lat="43.88512" lon="6.53832">
        <ele>905</ele>
        <time>2018-05-26T12:44:47Z</time>
      </trkpt>
      <trkpt lat="43.88564" lon="6.53772">
        <ele>903</ele>
        <time>2018-05-26T12:45:03Z</time>
      </trkpt>
      <trkpt lat="43.88613" lon="6.53735">
        <ele>896</ele>
        <time>2018-05-26T12:45:18Z</time>
      </trkpt>
      <trkpt lat="43.88661" lon="6.53724">
        <ele>900</ele>
        <time>2018-05-26T12:45:32Z</time>
      </trkpt>
      <trkpt lat="43.88697" lon="6.53712">
        <ele>899</ele>
        <time>2018-05-26T12:45:42Z</time>
      </trkpt>
      <trkpt lat="43.88728" lon="6.53704">
        <ele>893</ele>
        <time>2018-05-26T12:45:49Z</time>
      </trkpt>
      <trkpt lat="43.88733" lon="6.53704">
        <ele>892</ele>
        <time>2018-05-26T12:45:50Z</time>
      </trkpt>
      <trkpt lat="43.88737" lon="6.53705">
        <ele>891</ele>
        <time>2018-05-26T12:45:51Z</time>
      </trkpt>
      <trkpt lat="43.88741" lon="6.53707">
        <ele>891</ele>
        <time>2018-05-26T12:45:52Z</time>
      </trkpt>
      <trkpt lat="43.88746" lon="6.5371">
        <ele>891</ele>
        <time>2018-05-26T12:45:53Z</time>
      </trkpt>
      <trkpt lat="43.88749" lon="6.53714">
        <ele>891</ele>
        <time>2018-05-26T12:45:54Z</time>
      </trkpt>
      <trkpt lat="43.88753" lon="6.53719">
        <ele>891</ele>
        <time>2018-05-26T12:45:55Z</time>
      </trkpt>
      <trkpt lat="43.88755" lon="6.53725">
        <ele>892</ele>
        <time>2018-05-26T12:45:56Z</time>
      </trkpt>
      <trkpt lat="43.88757" lon="6.53731">
        <ele>893</ele>
        <time>2018-05-26T12:45:57Z</time>
      </trkpt>
      <trkpt lat="43.88778" lon="6.53805">
        <ele>900</ele>
        <time>2018-05-26T12:46:12Z</time>
      </trkpt>
      <trkpt lat="43.88809" lon="6.53855">
        <ele>901</ele>
        <time>2018-05-26T12:46:26Z</time>
      </trkpt>
      <trkpt lat="43.88846" lon="6.53832">
        <ele>895</ele>
        <time>2018-05-26T12:46:37Z</time>
      </trkpt>
      <trkpt lat="43.88878" lon="6.53814">
        <ele>894</ele>
        <time>2018-05-26T12:46:46Z</time>
      </trkpt>
      <trkpt lat="43.88943" lon="6.53808">
        <ele>897</ele>
        <time>2018-05-26T12:47:02Z</time>
      </trkpt>
      <trkpt lat="43.88942" lon="6.53809">
        <ele>898</ele>
        <time>2018-05-26T12:47:11Z</time>
      </trkpt>
      <trkpt lat="43.88942" lon="6.53811">
        <ele>898</ele>
        <time>2018-05-26T12:47:49Z</time>
      </trkpt>
      <trkpt lat="43.88942" lon="6.53809">
        <ele>897</ele>
        <time>2018-05-26T12:48:19Z</time>
      </trkpt>
      <trkpt lat="43.88943" lon="6.53808">
        <ele>897</ele>
        <time>2018-05-26T12:48:51Z</time>
      </trkpt>
      <trkpt lat="43.88942" lon="6.5381">
        <ele>898</ele>
        <time>2018-05-26T12:49:30Z</time>
      </trkpt>
      <trkpt lat="43.88944" lon="6.5381">
        <ele>898</ele>
        <time>2018-05-26T12:50:04Z</time>
      </trkpt>
      <trkpt lat="43.88942" lon="6.5381">
        <ele>898</ele>
        <time>2018-05-26T12:50:41Z</time>
      </trkpt>
      <trkpt lat="43.88943" lon="6.53809">
        <ele>898</ele>
        <time>2018-05-26T12:51:09Z</time>
      </trkpt>
      <trkpt lat="43.88942" lon="6.53811">
        <ele>898</ele>
        <time>2018-05-26T12:51:44Z</time>
      </trkpt>
      <trkpt lat="43.88945" lon="6.53808">
        <ele>897</ele>
        <time>2018-05-26T12:52:16Z</time>
      </trkpt>
      <trkpt lat="43.88973" lon="6.53805">
        <ele>898</ele>
        <time>2018-05-26T12:52:29Z</time>
      </trkpt>
      <trkpt lat="43.89028" lon="6.53804">
        <ele>904</ele>
        <time>2018-05-26T12:52:45Z</time>
      </trkpt>
      <trkpt lat="43.89049" lon="6.5377">
        <ele>904</ele>
        <time>2018-05-26T12:52:55Z</time>
      </trkpt>
      <trkpt lat="43.89063" lon="6.53732">
        <ele>903</ele>
        <time>2018-05-26T12:53:07Z</time>
      </trkpt>
      <trkpt lat="43.89078" lon="6.5368">
        <ele>901</ele>
        <time>2018-05-26T12:53:22Z</time>
      </trkpt>
      <trkpt lat="43.89101" lon="6.53637">
        <ele>907</ele>
        <time>2018-05-26T12:53:35Z</time>
      </trkpt>
      <trkpt lat="43.89127" lon="6.53594">
        <ele>913</ele>
        <time>2018-05-26T12:53:48Z</time>
      </trkpt>
      <trkpt lat="43.89131" lon="6.53591">
        <ele>916</ele>
        <time>2018-05-26T12:53:49Z</time>
      </trkpt>
      <trkpt lat="43.89134" lon="6.53589">
        <ele>919</ele>
        <time>2018-05-26T12:53:50Z</time>
      </trkpt>
      <trkpt lat="43.89138" lon="6.53588">
        <ele>924</ele>
        <time>2018-05-26T12:53:51Z</time>
      </trkpt>
      <trkpt lat="43.8923" lon="6.53565">
        <ele>912</ele>
        <time>2018-05-26T12:54:14Z</time>
      </trkpt>
      <trkpt lat="43.89238" lon="6.5357">
        <ele>909</ele>
        <time>2018-05-26T12:54:15Z</time>
      </trkpt>
      <trkpt lat="43.89243" lon="6.53572">
        <ele>906</ele>
        <time>2018-05-26T12:54:16Z</time>
      </trkpt>
      <trkpt lat="43.89307" lon="6.53622">
        <ele>894</ele>
        <time>2018-05-26T12:54:32Z</time>
      </trkpt>
      <trkpt lat="43.8934" lon="6.53678">
        <ele>894</ele>
        <time>2018-05-26T12:54:43Z</time>
      </trkpt>
      <trkpt lat="43.89342" lon="6.53685">
        <ele>895</ele>
        <time>2018-05-26T12:54:44Z</time>
      </trkpt>
      <trkpt lat="43.8936" lon="6.53745">
        <ele>900</ele>
        <time>2018-05-26T12:54:54Z</time>
      </trkpt>
      <trkpt lat="43.89363" lon="6.53751">
        <ele>900</ele>
        <time>2018-05-26T12:54:55Z</time>
      </trkpt>
      <trkpt lat="43.89407" lon="6.53836">
        <ele>904</ele>
        <time>2018-05-26T12:55:11Z</time>
      </trkpt>
      <trkpt lat="43.89468" lon="6.53912">
        <ele>894</ele>
        <time>2018-05-26T12:55:27Z</time>
      </trkpt>
      <trkpt lat="43.89475" lon="6.53922">
        <ele>894</ele>
        <time>2018-05-26T12:55:29Z</time>
      </trkpt>
      <trkpt lat="43.89489" lon="6.53953">
        <ele>897</ele>
        <time>2018-05-26T12:55:34Z</time>
      </trkpt>
      <trkpt lat="43.89536" lon="6.54043">
        <ele>908</ele>
        <time>2018-05-26T12:55:50Z</time>
      </trkpt>
      <trkpt lat="43.89547" lon="6.54054">
        <ele>909</ele>
        <time>2018-05-26T12:55:53Z</time>
      </trkpt>
      <trkpt lat="43.89551" lon="6.54056">
        <ele>908</ele>
        <time>2018-05-26T12:55:54Z</time>
      </trkpt>
      <trkpt lat="43.89555" lon="6.54057">
        <ele>907</ele>
        <time>2018-05-26T12:55:55Z</time>
      </trkpt>
      <trkpt lat="43.8956" lon="6.54058">
        <ele>908</ele>
        <time>2018-05-26T12:55:56Z</time>
      </trkpt>
      <trkpt lat="43.89565" lon="6.54058">
        <ele>908</ele>
        <time>2018-05-26T12:55:57Z</time>
      </trkpt>
      <trkpt lat="43.8957" lon="6.54057">
        <ele>908</ele>
        <time>2018-05-26T12:55:58Z</time>
      </trkpt>
      <trkpt lat="43.89574" lon="6.54056">
        <ele>908</ele>
        <time>2018-05-26T12:55:59Z</time>
      </trkpt>
      <trkpt lat="43.89578" lon="6.54053">
        <ele>907</ele>
        <time>2018-05-26T12:56:00Z</time>
      </trkpt>
      <trkpt lat="43.89582" lon="6.54049">
        <ele>907</ele>
        <time>2018-05-26T12:56:01Z</time>
      </trkpt>
      <trkpt lat="43.89585" lon="6.54045">
        <ele>907</ele>
        <time>2018-05-26T12:56:02Z</time>
      </trkpt>
      <trkpt lat="43.89588" lon="6.54041">
        <ele>908</ele>
        <time>2018-05-26T12:56:03Z</time>
      </trkpt>
      <trkpt lat="43.89592" lon="6.5399">
        <ele>908</ele>
        <time>2018-05-26T12:56:13Z</time>
      </trkpt>
      <trkpt lat="43.89579" lon="6.53922">
        <ele>901</ele>
        <time>2018-05-26T12:56:27Z</time>
      </trkpt>
      <trkpt lat="43.89567" lon="6.53854">
        <ele>896</ele>
        <time>2018-05-26T12:56:42Z</time>
      </trkpt>
      <trkpt lat="43.8957" lon="6.538">
        <ele>893</ele>
        <time>2018-05-26T12:56:59Z</time>
      </trkpt>
      <trkpt lat="43.89587" lon="6.53785">
        <ele>890</ele>
        <time>2018-05-26T12:57:08Z</time>
      </trkpt>
      <trkpt lat="43.8959" lon="6.53785">
        <ele>890</ele>
        <time>2018-05-26T12:57:09Z</time>
      </trkpt>
      <trkpt lat="43.89592" lon="6.53786">
        <ele>890</ele>
        <time>2018-05-26T12:57:10Z</time>
      </trkpt>
      <trkpt lat="43.89594" lon="6.53787">
        <ele>891</ele>
        <time>2018-05-26T12:57:11Z</time>
      </trkpt>
      <trkpt lat="43.89596" lon="6.53787">
        <ele>891</ele>
        <time>2018-05-26T12:57:12Z</time>
      </trkpt>
      <trkpt lat="43.89598" lon="6.53787">
        <ele>891</ele>
        <time>2018-05-26T12:57:13Z</time>
      </trkpt>
      <trkpt lat="43.896" lon="6.53788">
        <ele>891</ele>
        <time>2018-05-26T12:57:14Z</time>
      </trkpt>
      <trkpt lat="43.89601" lon="6.53789">
        <ele>891</ele>
        <time>2018-05-26T12:57:15Z</time>
      </trkpt>
      <trkpt lat="43.8963" lon="6.53833">
        <ele>905</ele>
        <time>2018-05-26T12:57:34Z</time>
      </trkpt>
      <trkpt lat="43.89659" lon="6.53843">
        <ele>906</ele>
        <time>2018-05-26T12:57:48Z</time>
      </trkpt>
      <trkpt lat="43.8966" lon="6.53844">
        <ele>906</ele>
        <time>2018-05-26T12:57:51Z</time>
      </trkpt>
      <trkpt lat="43.89661" lon="6.53848">
        <ele>908</ele>
        <time>2018-05-26T12:57:53Z</time>
      </trkpt>
      <trkpt lat="43.89658" lon="6.53852">
        <ele>908</ele>
        <time>2018-05-26T12:57:57Z</time>
      </trkpt>
      <trkpt lat="43.89652" lon="6.5385">
        <ele>907</ele>
        <time>2018-05-26T12:58:02Z</time>
      </trkpt>
      <trkpt lat="43.89652" lon="6.53842">
        <ele>905</ele>
        <time>2018-05-26T12:58:06Z</time>
      </trkpt>
      <trkpt lat="43.89653" lon="6.5384">
        <ele>904</ele>
        <time>2018-05-26T12:58:07Z</time>
      </trkpt>
      <trkpt lat="43.89655" lon="6.53839">
        <ele>904</ele>
        <time>2018-05-26T12:58:08Z</time>
      </trkpt>
      <trkpt lat="43.89657" lon="6.5384">
        <ele>905</ele>
        <time>2018-05-26T12:58:09Z</time>
      </trkpt>
      <trkpt lat="43.89659" lon="6.5384">
        <ele>905</ele>
        <time>2018-05-26T12:58:10Z</time>
      </trkpt>
      <trkpt lat="43.89661" lon="6.5384">
        <ele>905</ele>
        <time>2018-05-26T12:58:11Z</time>
      </trkpt>
      <trkpt lat="43.89663" lon="6.5384">
        <ele>905</ele>
        <time>2018-05-26T12:58:12Z</time>
      </trkpt>
      <trkpt lat="43.89665" lon="6.53839">
        <ele>906</ele>
        <time>2018-05-26T12:58:13Z</time>
      </trkpt>
      <trkpt lat="43.8967" lon="6.53838">
        <ele>906</ele>
        <time>2018-05-26T12:58:15Z</time>
      </trkpt>
      <trkpt lat="43.89705" lon="6.53823">
        <ele>902</ele>
        <time>2018-05-26T12:58:30Z</time>
      </trkpt>
      <trkpt lat="43.89735" lon="6.53849">
        <ele>907</ele>
        <time>2018-05-26T12:58:45Z</time>
      </trkpt>
      <trkpt lat="43.89789" lon="6.53878">
        <ele>912</ele>
        <time>2018-05-26T12:59:05Z</time>
      </trkpt>
      <trkpt lat="43.89813" lon="6.5389">
        <ele>915</ele>
        <time>2018-05-26T12:59:18Z</time>
      </trkpt>
      <trkpt lat="43.89815" lon="6.53892">
        <ele>915</ele>
        <time>2018-05-26T12:59:20Z</time>
      </trkpt>
      <trkpt lat="43.89818" lon="6.53899">
        <ele>917</ele>
        <time>2018-05-26T12:59:35Z</time>
      </trkpt>
      <trkpt lat="43.89821" lon="6.53895">
        <ele>915</ele>
        <time>2018-05-26T13:00:02Z</time>
      </trkpt>
      <trkpt lat="43.89822" lon="6.53898">
        <ele>916</ele>
        <time>2018-05-26T13:00:23Z</time>
      </trkpt>
      <trkpt lat="43.89823" lon="6.53898">
        <ele>916</ele>
        <time>2018-05-26T13:00:24Z</time>
      </trkpt>
      <trkpt lat="43.89825" lon="6.53897">
        <ele>916</ele>
        <time>2018-05-26T13:00:25Z</time>
      </trkpt>
      <trkpt lat="43.89861" lon="6.53905">
        <ele>909</ele>
        <time>2018-05-26T13:00:39Z</time>
      </trkpt>
      <trkpt lat="43.89902" lon="6.53932">
        <ele>911</ele>
        <time>2018-05-26T13:00:54Z</time>
      </trkpt>
      <trkpt lat="43.89941" lon="6.53957">
        <ele>908</ele>
        <time>2018-05-26T13:01:09Z</time>
      </trkpt>
      <trkpt lat="43.89947" lon="6.53965">
        <ele>907</ele>
        <time>2018-05-26T13:01:19Z</time>
      </trkpt>
      <trkpt lat="43.89949" lon="6.53965">
        <ele>907</ele>
        <time>2018-05-26T13:01:41Z</time>
      </trkpt>
      <trkpt lat="43.8995" lon="6.53967">
        <ele>907</ele>
        <time>2018-05-26T13:01:42Z</time>
      </trkpt>
      <trkpt lat="43.8995" lon="6.53968">
        <ele>907</ele>
        <time>2018-05-26T13:01:43Z</time>
      </trkpt>
      <trkpt lat="43.89952" lon="6.5397">
        <ele>906</ele>
        <time>2018-05-26T13:01:44Z</time>
      </trkpt>
      <trkpt lat="43.89953" lon="6.53972">
        <ele>906</ele>
        <time>2018-05-26T13:01:45Z</time>
      </trkpt>
      <trkpt lat="43.89954" lon="6.53975">
        <ele>906</ele>
        <time>2018-05-26T13:01:46Z</time>
      </trkpt>
      <trkpt lat="43.89955" lon="6.53978">
        <ele>907</ele>
        <time>2018-05-26T13:01:47Z</time>
      </trkpt>
      <trkpt lat="43.89983" lon="6.54035">
        <ele>916</ele>
        <time>2018-05-26T13:02:03Z</time>
      </trkpt>
      <trkpt lat="43.90022" lon="6.54075">
        <ele>924</ele>
        <time>2018-05-26T13:02:17Z</time>
      </trkpt>
      <trkpt lat="43.90073" lon="6.54064">
        <ele>918</ele>
        <time>2018-05-26T13:02:31Z</time>
      </trkpt>
      <trkpt lat="43.90114" lon="6.54069">
        <ele>912</ele>
        <time>2018-05-26T13:02:42Z</time>
      </trkpt>
      <trkpt lat="43.90135" lon="6.5414">
        <ele>913</ele>
        <time>2018-05-26T13:02:56Z</time>
      </trkpt>
      <trkpt lat="43.90162" lon="6.54229">
        <ele>920</ele>
        <time>2018-05-26T13:03:14Z</time>
      </trkpt>
      <trkpt lat="43.90164" lon="6.54233">
        <ele>920</ele>
        <time>2018-05-26T13:03:15Z</time>
      </trkpt>
      <trkpt lat="43.90167" lon="6.54237">
        <ele>920</ele>
        <time>2018-05-26T13:03:16Z</time>
      </trkpt>
      <trkpt lat="43.90206" lon="6.54275">
        <ele>919</ele>
        <time>2018-05-26T13:03:29Z</time>
      </trkpt>
      <trkpt lat="43.90236" lon="6.54274">
        <ele>922</ele>
        <time>2018-05-26T13:03:42Z</time>
      </trkpt>
      <trkpt lat="43.90255" lon="6.5424">
        <ele>923</ele>
        <time>2018-05-26T13:03:53Z</time>
      </trkpt>
      <trkpt lat="43.90269" lon="6.54185">
        <ele>919</ele>
        <time>2018-05-26T13:04:08Z</time>
      </trkpt>
      <trkpt lat="43.9031" lon="6.54147">
        <ele>918</ele>
        <time>2018-05-26T13:04:22Z</time>
      </trkpt>
      <trkpt lat="43.90361" lon="6.54143">
        <ele>921</ele>
        <time>2018-05-26T13:04:36Z</time>
      </trkpt>
      <trkpt lat="43.90368" lon="6.54148">
        <ele>920</ele>
        <time>2018-05-26T13:04:38Z</time>
      </trkpt>
      <trkpt lat="43.90402" lon="6.54187">
        <ele>918</ele>
        <time>2018-05-26T13:04:49Z</time>
      </trkpt>
      <trkpt lat="43.90441" lon="6.54203">
        <ele>915</ele>
        <time>2018-05-26T13:04:58Z</time>
      </trkpt>
      <trkpt lat="43.90453" lon="6.54211">
        <ele>915</ele>
        <time>2018-05-26T13:05:01Z</time>
      </trkpt>
      <trkpt lat="43.90456" lon="6.54215">
        <ele>915</ele>
        <time>2018-05-26T13:05:02Z</time>
      </trkpt>
      <trkpt lat="43.90477" lon="6.54249">
        <ele>921</ele>
        <time>2018-05-26T13:05:10Z</time>
      </trkpt>
      <trkpt lat="43.90493" lon="6.54269">
        <ele>926</ele>
        <time>2018-05-26T13:05:15Z</time>
      </trkpt>
      <trkpt lat="43.90497" lon="6.54271">
        <ele>927</ele>
        <time>2018-05-26T13:05:16Z</time>
      </trkpt>
      <trkpt lat="43.90502" lon="6.54273">
        <ele>929</ele>
        <time>2018-05-26T13:05:17Z</time>
      </trkpt>
      <trkpt lat="43.90506" lon="6.54274">
        <ele>930</ele>
        <time>2018-05-26T13:05:18Z</time>
      </trkpt>
      <trkpt lat="43.9051" lon="6.54275">
        <ele>931</ele>
        <time>2018-05-26T13:05:19Z</time>
      </trkpt>
      <trkpt lat="43.90515" lon="6.54275">
        <ele>931</ele>
        <time>2018-05-26T13:05:20Z</time>
      </trkpt>
      <trkpt lat="43.9052" lon="6.54274">
        <ele>932</ele>
        <time>2018-05-26T13:05:21Z</time>
      </trkpt>
      <trkpt lat="43.90524" lon="6.54274">
        <ele>932</ele>
        <time>2018-05-26T13:05:22Z</time>
      </trkpt>
      <trkpt lat="43.90528" lon="6.54273">
        <ele>932</ele>
        <time>2018-05-26T13:05:23Z</time>
      </trkpt>
      <trkpt lat="43.90533" lon="6.54271">
        <ele>932</ele>
        <time>2018-05-26T13:05:24Z</time>
      </trkpt>
      <trkpt lat="43.90537" lon="6.54269">
        <ele>932</ele>
        <time>2018-05-26T13:05:25Z</time>
      </trkpt>
      <trkpt lat="43.90548" lon="6.54263">
        <ele>929</ele>
        <time>2018-05-26T13:05:28Z</time>
      </trkpt>
      <trkpt lat="43.90566" lon="6.54258">
        <ele>929</ele>
        <time>2018-05-26T13:05:32Z</time>
      </trkpt>
      <trkpt lat="43.9057" lon="6.54258">
        <ele>929</ele>
        <time>2018-05-26T13:05:33Z</time>
      </trkpt>
      <trkpt lat="43.90575" lon="6.54259">
        <ele>930</ele>
        <time>2018-05-26T13:05:34Z</time>
      </trkpt>
      <trkpt lat="43.90583" lon="6.54263">
        <ele>932</ele>
        <time>2018-05-26T13:05:36Z</time>
      </trkpt>
      <trkpt lat="43.90587" lon="6.54265">
        <ele>932</ele>
        <time>2018-05-26T13:05:37Z</time>
      </trkpt>
      <trkpt lat="43.9059" lon="6.54269">
        <ele>932</ele>
        <time>2018-05-26T13:05:38Z</time>
      </trkpt>
      <trkpt lat="43.90593" lon="6.54273">
        <ele>932</ele>
        <time>2018-05-26T13:05:39Z</time>
      </trkpt>
      <trkpt lat="43.90596" lon="6.54277">
        <ele>932</ele>
        <time>2018-05-26T13:05:40Z</time>
      </trkpt>
      <trkpt lat="43.90643" lon="6.54338">
        <ele>934</ele>
        <time>2018-05-26T13:05:55Z</time>
      </trkpt>
      <trkpt lat="43.90709" lon="6.54397">
        <ele>930</ele>
        <time>2018-05-26T13:06:14Z</time>
      </trkpt>
      <trkpt lat="43.9076" lon="6.54451">
        <ele>931</ele>
        <time>2018-05-26T13:06:30Z</time>
      </trkpt>
      <trkpt lat="43.90799" lon="6.54471">
        <ele>935</ele>
        <time>2018-05-26T13:06:42Z</time>
      </trkpt>
      <trkpt lat="43.9083" lon="6.54496">
        <ele>939</ele>
        <time>2018-05-26T13:06:57Z</time>
      </trkpt>
      <trkpt lat="43.90834" lon="6.545">
        <ele>939</ele>
        <time>2018-05-26T13:07:10Z</time>
      </trkpt>
      <trkpt lat="43.90835" lon="6.54497">
        <ele>939</ele>
        <time>2018-05-26T13:07:43Z</time>
      </trkpt>
      <trkpt lat="43.90836" lon="6.54498">
        <ele>939</ele>
        <time>2018-05-26T13:08:14Z</time>
      </trkpt>
      <trkpt lat="43.90837" lon="6.545">
        <ele>939</ele>
        <time>2018-05-26T13:08:43Z</time>
      </trkpt>
      <trkpt lat="43.90837" lon="6.54502">
        <ele>939</ele>
        <time>2018-05-26T13:09:14Z</time>
      </trkpt>
      <trkpt lat="43.90836" lon="6.545">
        <ele>939</ele>
        <time>2018-05-26T13:09:40Z</time>
      </trkpt>
      <trkpt lat="43.90837" lon="6.54502">
        <ele>939</ele>
        <time>2018-05-26T13:09:53Z</time>
      </trkpt>
      <trkpt lat="43.90838" lon="6.54504">
        <ele>939</ele>
        <time>2018-05-26T13:10:12Z</time>
      </trkpt>
      <trkpt lat="43.90842" lon="6.54504">
        <ele>939</ele>
        <time>2018-05-26T13:10:25Z</time>
      </trkpt>
      <trkpt lat="43.90843" lon="6.54501">
        <ele>938</ele>
        <time>2018-05-26T13:10:51Z</time>
      </trkpt>
      <trkpt lat="43.90846" lon="6.54502">
        <ele>938</ele>
        <time>2018-05-26T13:11:19Z</time>
      </trkpt>
      <trkpt lat="43.90843" lon="6.54507">
        <ele>939</ele>
        <time>2018-05-26T13:11:55Z</time>
      </trkpt>
      <trkpt lat="43.90843" lon="6.54507">
        <ele>939</ele>
        <time>2018-05-26T13:12:27Z</time>
      </trkpt>
      <trkpt lat="43.90846" lon="6.54505">
        <ele>938</ele>
        <time>2018-05-26T13:13:08Z</time>
      </trkpt>
      <trkpt lat="43.9084" lon="6.54504">
        <ele>939</ele>
        <time>2018-05-26T13:13:41Z</time>
      </trkpt>
      <trkpt lat="43.9084" lon="6.54501">
        <ele>938</ele>
        <time>2018-05-26T13:14:18Z</time>
      </trkpt>
      <trkpt lat="43.90841" lon="6.54502">
        <ele>938</ele>
        <time>2018-05-26T13:15:02Z</time>
      </trkpt>
      <trkpt lat="43.90842" lon="6.54499">
        <ele>938</ele>
        <time>2018-05-26T13:15:35Z</time>
      </trkpt>
      <trkpt lat="43.90839" lon="6.54504">
        <ele>939</ele>
        <time>2018-05-26T13:16:17Z</time>
      </trkpt>
      <trkpt lat="43.9084" lon="6.54505">
        <ele>939</ele>
        <time>2018-05-26T13:17:05Z</time>
      </trkpt>
      <trkpt lat="43.90839" lon="6.54505">
        <ele>939</ele>
        <time>2018-05-26T13:17:41Z</time>
      </trkpt>
      <trkpt lat="43.90841" lon="6.54507">
        <ele>939</ele>
        <time>2018-05-26T13:18:12Z</time>
      </trkpt>
      <trkpt lat="43.90841" lon="6.545">
        <ele>938</ele>
        <time>2018-05-26T13:18:53Z</time>
      </trkpt>
      <trkpt lat="43.9084" lon="6.54502">
        <ele>939</ele>
        <time>2018-05-26T13:19:29Z</time>
      </trkpt>
      <trkpt lat="43.90838" lon="6.54503">
        <ele>939</ele>
        <time>2018-05-26T13:19:58Z</time>
      </trkpt>
      <trkpt lat="43.90841" lon="6.54503">
        <ele>939</ele>
        <time>2018-05-26T13:20:40Z</time>
      </trkpt>
      <trkpt lat="43.90837" lon="6.54501">
        <ele>939</ele>
        <time>2018-05-26T13:21:27Z</time>
      </trkpt>
      <trkpt lat="43.9084" lon="6.54503">
        <ele>939</ele>
        <time>2018-05-26T13:22:05Z</time>
      </trkpt>
      <trkpt lat="43.90836" lon="6.54503">
        <ele>939</ele>
        <time>2018-05-26T13:22:45Z</time>
      </trkpt>
      <trkpt lat="43.9084" lon="6.54499">
        <ele>938</ele>
        <time>2018-05-26T13:22:57Z</time>
      </trkpt>
      <trkpt lat="43.90838" lon="6.54497">
        <ele>938</ele>
        <time>2018-05-26T13:23:43Z</time>
      </trkpt>
      <trkpt lat="43.90836" lon="6.54498">
        <ele>939</ele>
        <time>2018-05-26T13:23:57Z</time>
      </trkpt>
      <trkpt lat="43.90837" lon="6.54495">
        <ele>938</ele>
        <time>2018-05-26T13:24:23Z</time>
      </trkpt>
      <trkpt lat="43.90834" lon="6.54495">
        <ele>938</ele>
        <time>2018-05-26T13:25:01Z</time>
      </trkpt>
      <trkpt lat="43.90837" lon="6.54497">
        <ele>938</ele>
        <time>2018-05-26T13:25:33Z</time>
      </trkpt>
      <trkpt lat="43.90832" lon="6.545">
        <ele>939</ele>
        <time>2018-05-26T13:26:01Z</time>
      </trkpt>
      <trkpt lat="43.90833" lon="6.54497">
        <ele>939</ele>
        <time>2018-05-26T13:26:27Z</time>
      </trkpt>
      <trkpt lat="43.90834" lon="6.545">
        <ele>939</ele>
        <time>2018-05-26T13:26:52Z</time>
      </trkpt>
      <trkpt lat="43.90834" lon="6.54493">
        <ele>938</ele>
        <time>2018-05-26T13:27:18Z</time>
      </trkpt>
      <trkpt lat="43.90834" lon="6.54498">
        <ele>939</ele>
        <time>2018-05-26T13:27:52Z</time>
      </trkpt>
      <trkpt lat="43.90837" lon="6.54497">
        <ele>938</ele>
        <time>2018-05-26T13:28:27Z</time>
      </trkpt>
      <trkpt lat="43.90836" lon="6.54498">
        <ele>939</ele>
        <time>2018-05-26T13:28:57Z</time>
      </trkpt>
      <trkpt lat="43.90836" lon="6.54504">
        <ele>939</ele>
        <time>2018-05-26T13:29:18Z</time>
      </trkpt>
      <trkpt lat="43.90839" lon="6.54504">
        <ele>939</ele>
        <time>2018-05-26T13:29:32Z</time>
      </trkpt>
      <trkpt lat="43.90849" lon="6.54514">
        <ele>937</ele>
        <time>2018-05-26T13:29:47Z</time>
      </trkpt>
      <trkpt lat="43.90857" lon="6.54524">
        <ele>933</ele>
        <time>2018-05-26T13:30:03Z</time>
      </trkpt>
      <trkpt lat="43.90863" lon="6.5453">
        <ele>931</ele>
        <time>2018-05-26T13:30:17Z</time>
      </trkpt>
      <trkpt lat="43.90865" lon="6.54523">
        <ele>930</ele>
        <time>2018-05-26T13:30:43Z</time>
      </trkpt>
      <trkpt lat="43.90866" lon="6.54531">
        <ele>930</ele>
        <time>2018-05-26T13:31:24Z</time>
      </trkpt>
      <trkpt lat="43.90866" lon="6.5453">
        <ele>931</ele>
        <time>2018-05-26T13:32:08Z</time>
      </trkpt>
      <trkpt lat="43.90861" lon="6.54535">
        <ele>933</ele>
        <time>2018-05-26T13:32:25Z</time>
      </trkpt>
      <trkpt lat="43.90865" lon="6.54552">
        <ele>933</ele>
        <time>2018-05-26T13:32:40Z</time>
      </trkpt>
      <trkpt lat="43.90857" lon="6.5455">
        <ele>936</ele>
        <time>2018-05-26T13:32:53Z</time>
      </trkpt>
      <trkpt lat="43.90855" lon="6.54548">
        <ele>936</ele>
        <time>2018-05-26T13:33:22Z</time>
      </trkpt>
      <trkpt lat="43.90856" lon="6.54549">
        <ele>936</ele>
        <time>2018-05-26T13:33:53Z</time>
      </trkpt>
      <trkpt lat="43.90862" lon="6.54542">
        <ele>933</ele>
        <time>2018-05-26T13:34:20Z</time>
      </trkpt>
      <trkpt lat="43.9086" lon="6.54543">
        <ele>934</ele>
        <time>2018-05-26T13:34:54Z</time>
      </trkpt>
      <trkpt lat="43.9086" lon="6.54545">
        <ele>934</ele>
        <time>2018-05-26T13:35:23Z</time>
      </trkpt>
      <trkpt lat="43.90862" lon="6.54548">
        <ele>934</ele>
        <time>2018-05-26T13:36:00Z</time>
      </trkpt>
      <trkpt lat="43.90862" lon="6.54547">
        <ele>934</ele>
        <time>2018-05-26T13:36:35Z</time>
      </trkpt>
      <trkpt lat="43.90864" lon="6.54547">
        <ele>933</ele>
        <time>2018-05-26T13:37:11Z</time>
      </trkpt>
      <trkpt lat="43.90865" lon="6.54551">
        <ele>933</ele>
        <time>2018-05-26T13:37:47Z</time>
      </trkpt>
      <trkpt lat="43.90859" lon="6.54553">
        <ele>935</ele>
        <time>2018-05-26T13:38:30Z</time>
      </trkpt>
      <trkpt lat="43.90863" lon="6.54546">
        <ele>933</ele>
        <time>2018-05-26T13:39:05Z</time>
      </trkpt>
      <trkpt lat="43.90861" lon="6.54556">
        <ele>935</ele>
        <time>2018-05-26T13:39:48Z</time>
      </trkpt>
      <trkpt lat="43.90859" lon="6.54547">
        <ele>935</ele>
        <time>2018-05-26T13:40:36Z</time>
      </trkpt>
      <trkpt lat="43.9086" lon="6.54543">
        <ele>934</ele>
        <time>2018-05-26T13:41:11Z</time>
      </trkpt>
      <trkpt lat="43.9086" lon="6.54547">
        <ele>935</ele>
        <time>2018-05-26T13:41:39Z</time>
      </trkpt>
      <trkpt lat="43.90861" lon="6.54548">
        <ele>934</ele>
        <time>2018-05-26T13:42:20Z</time>
      </trkpt>
      <trkpt lat="43.90862" lon="6.5455">
        <ele>934</ele>
        <time>2018-05-26T13:42:58Z</time>
      </trkpt>
      <trkpt lat="43.90859" lon="6.54548">
        <ele>935</ele>
        <time>2018-05-26T13:43:31Z</time>
      </trkpt>
      <trkpt lat="43.90856" lon="6.54548">
        <ele>936</ele>
        <time>2018-05-26T13:44:05Z</time>
      </trkpt>
      <trkpt lat="43.90858" lon="6.54549">
        <ele>935</ele>
        <time>2018-05-26T13:44:43Z</time>
      </trkpt>
      <trkpt lat="43.90856" lon="6.54549">
        <ele>936</ele>
        <time>2018-05-26T13:45:14Z</time>
      </trkpt>
      <trkpt lat="43.90858" lon="6.54552">
        <ele>936</ele>
        <time>2018-05-26T13:45:47Z</time>
      </trkpt>
      <trkpt lat="43.90856" lon="6.54548">
        <ele>936</ele>
        <time>2018-05-26T13:46:21Z</time>
      </trkpt>
      <trkpt lat="43.90858" lon="6.5455">
        <ele>936</ele>
        <time>2018-05-26T13:47:01Z</time>
      </trkpt>
      <trkpt lat="43.9086" lon="6.5455">
        <ele>935</ele>
        <time>2018-05-26T13:47:30Z</time>
      </trkpt>
      <trkpt lat="43.90857" lon="6.54548">
        <ele>936</ele>
        <time>2018-05-26T13:48:13Z</time>
      </trkpt>
      <trkpt lat="43.90858" lon="6.54543">
        <ele>935</ele>
        <time>2018-05-26T13:48:55Z</time>
      </trkpt>
      <trkpt lat="43.90857" lon="6.54549">
        <ele>936</ele>
        <time>2018-05-26T13:49:35Z</time>
      </trkpt>
      <trkpt lat="43.90859" lon="6.54549">
        <ele>935</ele>
        <time>2018-05-26T13:50:11Z</time>
      </trkpt>
      <trkpt lat="43.90859" lon="6.54554">
        <ele>935</ele>
        <time>2018-05-26T13:50:43Z</time>
      </trkpt>
      <trkpt lat="43.90857" lon="6.54549">
        <ele>936</ele>
        <time>2018-05-26T13:51:29Z</time>
      </trkpt>
      <trkpt lat="43.9086" lon="6.54549">
        <ele>935</ele>
        <time>2018-05-26T13:52:14Z</time>
      </trkpt>
      <trkpt lat="43.90859" lon="6.54545">
        <ele>935</ele>
        <time>2018-05-26T13:52:48Z</time>
      </trkpt>
      <trkpt lat="43.90861" lon="6.54546">
        <ele>934</ele>
        <time>2018-05-26T13:53:25Z</time>
      </trkpt>
      <trkpt lat="43.90856" lon="6.54542">
        <ele>936</ele>
        <time>2018-05-26T13:54:00Z</time>
      </trkpt>
      <trkpt lat="43.90858" lon="6.54545">
        <ele>935</ele>
        <time>2018-05-26T13:54:29Z</time>
      </trkpt>
      <trkpt lat="43.90859" lon="6.54547">
        <ele>935</ele>
        <time>2018-05-26T13:54:57Z</time>
      </trkpt>
      <trkpt lat="43.9086" lon="6.54546">
        <ele>934</ele>
        <time>2018-05-26T13:55:14Z</time>
      </trkpt>
      <trkpt lat="43.90858" lon="6.5455">
        <ele>935</ele>
        <time>2018-05-26T13:55:36Z</time>
      </trkpt>
      <trkpt lat="43.90862" lon="6.54552">
        <ele>934</ele>
        <time>2018-05-26T13:55:57Z</time>
      </trkpt>
      <trkpt lat="43.90865" lon="6.5455">
        <ele>933</ele>
        <time>2018-05-26T13:56:16Z</time>
      </trkpt>
      <trkpt lat="43.90864" lon="6.5455">
        <ele>933</ele>
        <time>2018-05-26T13:56:39Z</time>
      </trkpt>
      <trkpt lat="43.90862" lon="6.54551">
        <ele>934</ele>
        <time>2018-05-26T13:56:53Z</time>
      </trkpt>
      <trkpt lat="43.90864" lon="6.5455">
        <ele>933</ele>
        <time>2018-05-26T13:57:19Z</time>
      </trkpt>
      <trkpt lat="43.90863" lon="6.54546">
        <ele>933</ele>
        <time>2018-05-26T13:57:42Z</time>
      </trkpt>
      <trkpt lat="43.90864" lon="6.54546">
        <ele>932</ele>
        <time>2018-05-26T13:58:01Z</time>
      </trkpt>
      <trkpt lat="43.90866" lon="6.54536">
        <ele>931</ele>
        <time>2018-05-26T13:58:08Z</time>
      </trkpt>
      <trkpt lat="43.90859" lon="6.54527">
        <ele>933</ele>
        <time>2018-05-26T13:58:15Z</time>
      </trkpt>
      <trkpt lat="43.90856" lon="6.54524">
        <ele>934</ele>
        <time>2018-05-26T13:58:18Z</time>
      </trkpt>
      <trkpt lat="43.90859" lon="6.54515">
        <ele>933</ele>
        <time>2018-05-26T13:58:22Z</time>
      </trkpt>
      <trkpt lat="43.90857" lon="6.54508">
        <ele>933</ele>
        <time>2018-05-26T13:58:25Z</time>
      </trkpt>
      <trkpt lat="43.90854" lon="6.54506">
        <ele>934</ele>
        <time>2018-05-26T13:58:26Z</time>
      </trkpt>
      <trkpt lat="43.90852" lon="6.54505">
        <ele>935</ele>
        <time>2018-05-26T13:58:27Z</time>
      </trkpt>
      <trkpt lat="43.9085" lon="6.54502">
        <ele>936</ele>
        <time>2018-05-26T13:58:28Z</time>
      </trkpt>
      <trkpt lat="43.90849" lon="6.54499">
        <ele>936</ele>
        <time>2018-05-26T13:58:29Z</time>
      </trkpt>
      <trkpt lat="43.90847" lon="6.54489">
        <ele>937</ele>
        <time>2018-05-26T13:58:33Z</time>
      </trkpt>
      <trkpt lat="43.90846" lon="6.54483">
        <ele>937</ele>
        <time>2018-05-26T13:58:36Z</time>
      </trkpt>
      <trkpt lat="43.90846" lon="6.54475">
        <ele>937</ele>
        <time>2018-05-26T13:58:39Z</time>
      </trkpt>
      <trkpt lat="43.90852" lon="6.5448">
        <ele>935</ele>
        <time>2018-05-26T13:58:43Z</time>
      </trkpt>
      <trkpt lat="43.9087" lon="6.54508">
        <ele>928</ele>
        <time>2018-05-26T13:58:51Z</time>
      </trkpt>
      <trkpt lat="43.90872" lon="6.54513">
        <ele>927</ele>
        <time>2018-05-26T13:58:52Z</time>
      </trkpt>
      <trkpt lat="43.90887" lon="6.54546">
        <ele>923</ele>
        <time>2018-05-26T13:58:58Z</time>
      </trkpt>
      <trkpt lat="43.9089" lon="6.54551">
        <ele>922</ele>
        <time>2018-05-26T13:58:59Z</time>
      </trkpt>
      <trkpt lat="43.90909" lon="6.54599">
        <ele>919</ele>
        <time>2018-05-26T13:59:06Z</time>
      </trkpt>
      <trkpt lat="43.90911" lon="6.54606">
        <ele>920</ele>
        <time>2018-05-26T13:59:07Z</time>
      </trkpt>
      <trkpt lat="43.90918" lon="6.5462">
        <ele>920</ele>
        <time>2018-05-26T13:59:09Z</time>
      </trkpt>
      <trkpt lat="43.90922" lon="6.54627">
        <ele>919</ele>
        <time>2018-05-26T13:59:10Z</time>
      </trkpt>
      <trkpt lat="43.90926" lon="6.54634">
        <ele>918</ele>
        <time>2018-05-26T13:59:11Z</time>
      </trkpt>
      <trkpt lat="43.9093" lon="6.54642">
        <ele>919</ele>
        <time>2018-05-26T13:59:12Z</time>
      </trkpt>
      <trkpt lat="43.90933" lon="6.5465">
        <ele>919</ele>
        <time>2018-05-26T13:59:13Z</time>
      </trkpt>
      <trkpt lat="43.90966" lon="6.54712">
        <ele>918</ele>
        <time>2018-05-26T13:59:21Z</time>
      </trkpt>
      <trkpt lat="43.90993" lon="6.54747">
        <ele>912</ele>
        <time>2018-05-26T13:59:26Z</time>
      </trkpt>
      <trkpt lat="43.90997" lon="6.54755">
        <ele>911</ele>
        <time>2018-05-26T13:59:27Z</time>
      </trkpt>
      <trkpt lat="43.91001" lon="6.54764">
        <ele>911</ele>
        <time>2018-05-26T13:59:28Z</time>
      </trkpt>
      <trkpt lat="43.91007" lon="6.54783">
        <ele>913</ele>
        <time>2018-05-26T13:59:30Z</time>
      </trkpt>
      <trkpt lat="43.91008" lon="6.54794">
        <ele>912</ele>
        <time>2018-05-26T13:59:31Z</time>
      </trkpt>
      <trkpt lat="43.91018" lon="6.54847">
        <ele>907</ele>
        <time>2018-05-26T13:59:36Z</time>
      </trkpt>
      <trkpt lat="43.91022" lon="6.54857">
        <ele>908</ele>
        <time>2018-05-26T13:59:37Z</time>
      </trkpt>
      <trkpt lat="43.91026" lon="6.54866">
        <ele>909</ele>
        <time>2018-05-26T13:59:38Z</time>
      </trkpt>
      <trkpt lat="43.91032" lon="6.54874">
        <ele>908</ele>
        <time>2018-05-26T13:59:39Z</time>
      </trkpt>
      <trkpt lat="43.91037" lon="6.54882">
        <ele>908</ele>
        <time>2018-05-26T13:59:40Z</time>
      </trkpt>
      <trkpt lat="43.91057" lon="6.54917">
        <ele>906</ele>
        <time>2018-05-26T13:59:44Z</time>
      </trkpt>
      <trkpt lat="43.9106" lon="6.54927">
        <ele>904</ele>
        <time>2018-05-26T13:59:45Z</time>
      </trkpt>
      <trkpt lat="43.91062" lon="6.54939">
        <ele>903</ele>
        <time>2018-05-26T13:59:46Z</time>
      </trkpt>
      <trkpt lat="43.91062" lon="6.5495">
        <ele>903</ele>
        <time>2018-05-26T13:59:47Z</time>
      </trkpt>
      <trkpt lat="43.91061" lon="6.54962">
        <ele>903</ele>
        <time>2018-05-26T13:59:48Z</time>
      </trkpt>
      <trkpt lat="43.91059" lon="6.54974">
        <ele>905</ele>
        <time>2018-05-26T13:59:49Z</time>
      </trkpt>
      <trkpt lat="43.91056" lon="6.54985">
        <ele>907</ele>
        <time>2018-05-26T13:59:50Z</time>
      </trkpt>
      <trkpt lat="43.91053" lon="6.55009">
        <ele>910</ele>
        <time>2018-05-26T13:59:52Z</time>
      </trkpt>
      <trkpt lat="43.91054" lon="6.55022">
        <ele>910</ele>
        <time>2018-05-26T13:59:53Z</time>
      </trkpt>
      <trkpt lat="43.91057" lon="6.55033">
        <ele>910</ele>
        <time>2018-05-26T13:59:54Z</time>
      </trkpt>
      <trkpt lat="43.91061" lon="6.55044">
        <ele>910</ele>
        <time>2018-05-26T13:59:55Z</time>
      </trkpt>
      <trkpt lat="43.91068" lon="6.55053">
        <ele>910</ele>
        <time>2018-05-26T13:59:56Z</time>
      </trkpt>
      <trkpt lat="43.91076" lon="6.55061">
        <ele>910</ele>
        <time>2018-05-26T13:59:57Z</time>
      </trkpt>
      <trkpt lat="43.91084" lon="6.55066">
        <ele>908</ele>
        <time>2018-05-26T13:59:58Z</time>
      </trkpt>
      <trkpt lat="43.91092" lon="6.55071">
        <ele>907</ele>
        <time>2018-05-26T13:59:59Z</time>
      </trkpt>
      <trkpt lat="43.911" lon="6.55077">
        <ele>907</ele>
        <time>2018-05-26T14:00:00Z</time>
      </trkpt>
      <trkpt lat="43.912" lon="6.5515">
        <ele>903</ele>
        <time>2018-05-26T14:00:12Z</time>
      </trkpt>
      <trkpt lat="43.91206" lon="6.55158">
        <ele>901</ele>
        <time>2018-05-26T14:00:13Z</time>
      </trkpt>
      <trkpt lat="43.91212" lon="6.55166">
        <ele>900</ele>
        <time>2018-05-26T14:00:14Z</time>
      </trkpt>
      <trkpt lat="43.91264" lon="6.5524">
        <ele>898</ele>
        <time>2018-05-26T14:00:23Z</time>
      </trkpt>
      <trkpt lat="43.91271" lon="6.55245">
        <ele>900</ele>
        <time>2018-05-26T14:00:24Z</time>
      </trkpt>
      <trkpt lat="43.9128" lon="6.55247">
        <ele>903</ele>
        <time>2018-05-26T14:00:25Z</time>
      </trkpt>
      <trkpt lat="43.91287" lon="6.55244">
        <ele>904</ele>
        <time>2018-05-26T14:00:26Z</time>
      </trkpt>
      <trkpt lat="43.91293" lon="6.55238">
        <ele>905</ele>
        <time>2018-05-26T14:00:27Z</time>
      </trkpt>
      <trkpt lat="43.91297" lon="6.55229">
        <ele>905</ele>
        <time>2018-05-26T14:00:28Z</time>
      </trkpt>
      <trkpt lat="43.913" lon="6.5522">
        <ele>904</ele>
        <time>2018-05-26T14:00:29Z</time>
      </trkpt>
      <trkpt lat="43.91301" lon="6.5521">
        <ele>903</ele>
        <time>2018-05-26T14:00:30Z</time>
      </trkpt>
      <trkpt lat="43.91308" lon="6.55166">
        <ele>902</ele>
        <time>2018-05-26T14:00:35Z</time>
      </trkpt>
      <trkpt lat="43.91309" lon="6.55159">
        <ele>903</ele>
        <time>2018-05-26T14:00:36Z</time>
      </trkpt>
      <trkpt lat="43.9131" lon="6.55139">
        <ele>904</ele>
        <time>2018-05-26T14:00:39Z</time>
      </trkpt>
      <trkpt lat="43.91313" lon="6.55122">
        <ele>906</ele>
        <time>2018-05-26T14:00:42Z</time>
      </trkpt>
      <trkpt lat="43.91314" lon="6.55098">
        <ele>909</ele>
        <time>2018-05-26T14:00:46Z</time>
      </trkpt>
      <trkpt lat="43.91313" lon="6.55093">
        <ele>910</ele>
        <time>2018-05-26T14:00:47Z</time>
      </trkpt>
      <trkpt lat="43.91312" lon="6.55087">
        <ele>910</ele>
        <time>2018-05-26T14:00:48Z</time>
      </trkpt>
      <trkpt lat="43.91286" lon="6.55039">
        <ele>907</ele>
        <time>2018-05-26T14:01:02Z</time>
      </trkpt>
      <trkpt lat="43.91249" lon="6.55009">
        <ele>901</ele>
        <time>2018-05-26T14:01:17Z</time>
      </trkpt>
      <trkpt lat="43.91247" lon="6.54961">
        <ele>907</ele>
        <time>2018-05-26T14:01:29Z</time>
      </trkpt>
      <trkpt lat="43.91254" lon="6.54919">
        <ele>911</ele>
        <time>2018-05-26T14:01:41Z</time>
      </trkpt>
      <trkpt lat="43.91271" lon="6.54862">
        <ele>913</ele>
        <time>2018-05-26T14:01:57Z</time>
      </trkpt>
      <trkpt lat="43.913" lon="6.54827">
        <ele>919</ele>
        <time>2018-05-26T14:02:10Z</time>
      </trkpt>
      <trkpt lat="43.91313" lon="6.5478">
        <ele>920</ele>
        <time>2018-05-26T14:02:22Z</time>
      </trkpt>
      <trkpt lat="43.91312" lon="6.54726">
        <ele>915</ele>
        <time>2018-05-26T14:02:36Z</time>
      </trkpt>
      <trkpt lat="43.91332" lon="6.54676">
        <ele>920</ele>
        <time>2018-05-26T14:02:52Z</time>
      </trkpt>
      <trkpt lat="43.91347" lon="6.54627">
        <ele>920</ele>
        <time>2018-05-26T14:03:07Z</time>
      </trkpt>
      <trkpt lat="43.91358" lon="6.54557">
        <ele>924</ele>
        <time>2018-05-26T14:03:25Z</time>
      </trkpt>
      <trkpt lat="43.91374" lon="6.54505">
        <ele>925</ele>
        <time>2018-05-26T14:03:41Z</time>
      </trkpt>
      <trkpt lat="43.91391" lon="6.54502">
        <ele>928</ele>
        <time>2018-05-26T14:03:51Z</time>
      </trkpt>
      <trkpt lat="43.91392" lon="6.545">
        <ele>928</ele>
        <time>2018-05-26T14:03:52Z</time>
      </trkpt>
      <trkpt lat="43.91394" lon="6.54498">
        <ele>928</ele>
        <time>2018-05-26T14:03:53Z</time>
      </trkpt>
      <trkpt lat="43.91395" lon="6.54495">
        <ele>928</ele>
        <time>2018-05-26T14:03:54Z</time>
      </trkpt>
      <trkpt lat="43.91397" lon="6.54492">
        <ele>928</ele>
        <time>2018-05-26T14:03:55Z</time>
      </trkpt>
      <trkpt lat="43.914" lon="6.54489">
        <ele>928</ele>
        <time>2018-05-26T14:03:56Z</time>
      </trkpt>
      <trkpt lat="43.91402" lon="6.54486">
        <ele>928</ele>
        <time>2018-05-26T14:03:57Z</time>
      </trkpt>
      <trkpt lat="43.91403" lon="6.54482">
        <ele>927</ele>
        <time>2018-05-26T14:03:58Z</time>
      </trkpt>
      <trkpt lat="43.91406" lon="6.54478">
        <ele>927</ele>
        <time>2018-05-26T14:03:59Z</time>
      </trkpt>
      <trkpt lat="43.91409" lon="6.54474">
        <ele>927</ele>
        <time>2018-05-26T14:04:00Z</time>
      </trkpt>
      <trkpt lat="43.91455" lon="6.54398">
        <ele>924</ele>
        <time>2018-05-26T14:04:13Z</time>
      </trkpt>
      <trkpt lat="43.91464" lon="6.54384">
        <ele>923</ele>
        <time>2018-05-26T14:04:15Z</time>
      </trkpt>
      <trkpt lat="43.9147" lon="6.54376">
        <ele>922</ele>
        <time>2018-05-26T14:04:16Z</time>
      </trkpt>
      <trkpt lat="43.91483" lon="6.54349">
        <ele>921</ele>
        <time>2018-05-26T14:04:19Z</time>
      </trkpt>
      <trkpt lat="43.91487" lon="6.5434">
        <ele>920</ele>
        <time>2018-05-26T14:04:20Z</time>
      </trkpt>
      <trkpt lat="43.91491" lon="6.5433">
        <ele>919</ele>
        <time>2018-05-26T14:04:21Z</time>
      </trkpt>
      <trkpt lat="43.91494" lon="6.54319">
        <ele>918</ele>
        <time>2018-05-26T14:04:22Z</time>
      </trkpt>
      <trkpt lat="43.91496" lon="6.54308">
        <ele>917</ele>
        <time>2018-05-26T14:04:23Z</time>
      </trkpt>
      <trkpt lat="43.91498" lon="6.54298">
        <ele>917</ele>
        <time>2018-05-26T14:04:24Z</time>
      </trkpt>
      <trkpt lat="43.91499" lon="6.54287">
        <ele>916</ele>
        <time>2018-05-26T14:04:25Z</time>
      </trkpt>
      <trkpt lat="43.91499" lon="6.54277">
        <ele>915</ele>
        <time>2018-05-26T14:04:26Z</time>
      </trkpt>
      <trkpt lat="43.915" lon="6.54266">
        <ele>914</ele>
        <time>2018-05-26T14:04:27Z</time>
      </trkpt>
      <trkpt lat="43.91502" lon="6.54255">
        <ele>914</ele>
        <time>2018-05-26T14:04:28Z</time>
      </trkpt>
      <trkpt lat="43.91504" lon="6.54247">
        <ele>914</ele>
        <time>2018-05-26T14:04:29Z</time>
      </trkpt>
      <trkpt lat="43.91513" lon="6.54185">
        <ele>913</ele>
        <time>2018-05-26T14:04:36Z</time>
      </trkpt>
      <trkpt lat="43.91513" lon="6.54177">
        <ele>913</ele>
        <time>2018-05-26T14:04:37Z</time>
      </trkpt>
      <trkpt lat="43.91509" lon="6.54169">
        <ele>913</ele>
        <time>2018-05-26T14:04:38Z</time>
      </trkpt>
      <trkpt lat="43.91504" lon="6.54166">
        <ele>913</ele>
        <time>2018-05-26T14:04:39Z</time>
      </trkpt>
      <trkpt lat="43.91499" lon="6.54166">
        <ele>913</ele>
        <time>2018-05-26T14:04:40Z</time>
      </trkpt>
      <trkpt lat="43.91494" lon="6.54168">
        <ele>913</ele>
        <time>2018-05-26T14:04:41Z</time>
      </trkpt>
      <trkpt lat="43.91489" lon="6.54171">
        <ele>913</ele>
        <time>2018-05-26T14:04:42Z</time>
      </trkpt>
      <trkpt lat="43.91476" lon="6.54178">
        <ele>913</ele>
        <time>2018-05-26T14:04:45Z</time>
      </trkpt>
      <trkpt lat="43.91472" lon="6.54179">
        <ele>913</ele>
        <time>2018-05-26T14:04:46Z</time>
      </trkpt>
      <trkpt lat="43.91468" lon="6.5418">
        <ele>913</ele>
        <time>2018-05-26T14:04:47Z</time>
      </trkpt>
      <trkpt lat="43.91464" lon="6.54182">
        <ele>913</ele>
        <time>2018-05-26T14:04:48Z</time>
      </trkpt>
      <trkpt lat="43.91461" lon="6.54184">
        <ele>913</ele>
        <time>2018-05-26T14:04:49Z</time>
      </trkpt>
      <trkpt lat="43.91458" lon="6.54186">
        <ele>913</ele>
        <time>2018-05-26T14:04:50Z</time>
      </trkpt>
      <trkpt lat="43.91451" lon="6.5419">
        <ele>913</ele>
        <time>2018-05-26T14:04:52Z</time>
      </trkpt>
      <trkpt lat="43.91447" lon="6.54191">
        <ele>913</ele>
        <time>2018-05-26T14:04:53Z</time>
      </trkpt>
      <trkpt lat="43.91419" lon="6.54189">
        <ele>912</ele>
        <time>2018-05-26T14:05:04Z</time>
      </trkpt>
      <trkpt lat="43.91412" lon="6.54172">
        <ele>914</ele>
        <time>2018-05-26T14:05:14Z</time>
      </trkpt>
      <trkpt lat="43.91412" lon="6.54172">
        <ele>914</ele>
        <time>2018-05-26T14:05:40Z</time>
      </trkpt>
      <trkpt lat="43.91411" lon="6.54172">
        <ele>914</ele>
        <time>2018-05-26T14:05:58Z</time>
      </trkpt>
      <trkpt lat="43.91411" lon="6.54174">
        <ele>914</ele>
        <time>2018-05-26T14:05:59Z</time>
      </trkpt>
      <trkpt lat="43.91412" lon="6.54176">
        <ele>914</ele>
        <time>2018-05-26T14:06:00Z</time>
      </trkpt>
      <trkpt lat="43.91413" lon="6.54178">
        <ele>914</ele>
        <time>2018-05-26T14:06:01Z</time>
      </trkpt>
      <trkpt lat="43.91414" lon="6.54181">
        <ele>913</ele>
        <time>2018-05-26T14:06:02Z</time>
      </trkpt>
      <trkpt lat="43.91416" lon="6.54183">
        <ele>913</ele>
        <time>2018-05-26T14:06:03Z</time>
      </trkpt>
      <trkpt lat="43.91419" lon="6.54185">
        <ele>913</ele>
        <time>2018-05-26T14:06:04Z</time>
      </trkpt>
      <trkpt lat="43.9142" lon="6.54187">
        <ele>913</ele>
        <time>2018-05-26T14:06:05Z</time>
      </trkpt>
      <trkpt lat="43.91422" lon="6.54188">
        <ele>913</ele>
        <time>2018-05-26T14:06:06Z</time>
      </trkpt>
      <trkpt lat="43.91424" lon="6.54189">
        <ele>913</ele>
        <time>2018-05-26T14:06:07Z</time>
      </trkpt>
      <trkpt lat="43.91427" lon="6.5419">
        <ele>913</ele>
        <time>2018-05-26T14:06:08Z</time>
      </trkpt>
      <trkpt lat="43.91429" lon="6.54191">
        <ele>913</ele>
        <time>2018-05-26T14:06:09Z</time>
      </trkpt>
      <trkpt lat="43.91442" lon="6.54195">
        <ele>913</ele>
        <time>2018-05-26T14:06:17Z</time>
      </trkpt>
      <trkpt lat="43.91444" lon="6.54194">
        <ele>913</ele>
        <time>2018-05-26T14:06:18Z</time>
      </trkpt>
      <trkpt lat="43.91474" lon="6.5418">
        <ele>913</ele>
        <time>2018-05-26T14:06:31Z</time>
      </trkpt>
      <trkpt lat="43.91491" lon="6.54174">
        <ele>913</ele>
        <time>2018-05-26T14:06:45Z</time>
      </trkpt>
      <trkpt lat="43.91492" lon="6.54172">
        <ele>913</ele>
        <time>2018-05-26T14:07:04Z</time>
      </trkpt>
      <trkpt lat="43.91492" lon="6.54175">
        <ele>913</ele>
        <time>2018-05-26T14:07:33Z</time>
      </trkpt>
      <trkpt lat="43.91488" lon="6.5417">
        <ele>913</ele>
        <time>2018-05-26T14:07:53Z</time>
      </trkpt>
      <trkpt lat="43.91492" lon="6.54172">
        <ele>913</ele>
        <time>2018-05-26T14:08:18Z</time>
      </trkpt>
      <trkpt lat="43.91491" lon="6.54171">
        <ele>913</ele>
        <time>2018-05-26T14:08:52Z</time>
      </trkpt>
      <trkpt lat="43.9149" lon="6.54171">
        <ele>913</ele>
        <time>2018-05-26T14:09:01Z</time>
      </trkpt>
      <trkpt lat="43.9149" lon="6.54173">
        <ele>913</ele>
        <time>2018-05-26T14:09:02Z</time>
      </trkpt>
      <trkpt lat="43.91489" lon="6.54174">
        <ele>913</ele>
        <time>2018-05-26T14:09:03Z</time>
      </trkpt>
      <trkpt lat="43.91485" lon="6.54175">
        <ele>913</ele>
        <time>2018-05-26T14:09:05Z</time>
      </trkpt>
      <trkpt lat="43.91483" lon="6.54176">
        <ele>913</ele>
        <time>2018-05-26T14:09:06Z</time>
      </trkpt>
      <trkpt lat="43.91481" lon="6.54177">
        <ele>913</ele>
        <time>2018-05-26T14:09:07Z</time>
      </trkpt>
      <trkpt lat="43.91479" lon="6.54178">
        <ele>913</ele>
        <time>2018-05-26T14:09:08Z</time>
      </trkpt>
      <trkpt lat="43.91435" lon="6.54192">
        <ele>913</ele>
        <time>2018-05-26T14:09:23Z</time>
      </trkpt>
      <trkpt lat="43.91416" lon="6.54181">
        <ele>913</ele>
        <time>2018-05-26T14:09:33Z</time>
      </trkpt>
      <trkpt lat="43.9141" lon="6.54171">
        <ele>915</ele>
        <time>2018-05-26T14:09:38Z</time>
      </trkpt>
      <trkpt lat="43.91392" lon="6.54141">
        <ele>919</ele>
        <time>2018-05-26T14:09:51Z</time>
      </trkpt>
      <trkpt lat="43.91367" lon="6.54112">
        <ele>921</ele>
        <time>2018-05-26T14:10:05Z</time>
      </trkpt>
      <trkpt lat="43.91344" lon="6.54094">
        <ele>922</ele>
        <time>2018-05-26T14:10:20Z</time>
      </trkpt>
      <trkpt lat="43.91336" lon="6.54084">
        <ele>923</ele>
        <time>2018-05-26T14:10:26Z</time>
      </trkpt>
      <trkpt lat="43.91335" lon="6.54075">
        <ele>924</ele>
        <time>2018-05-26T14:10:30Z</time>
      </trkpt>
      <trkpt lat="43.91341" lon="6.5408">
        <ele>924</ele>
        <time>2018-05-26T14:10:36Z</time>
      </trkpt>
      <trkpt lat="43.91362" lon="6.54094">
        <ele>923</ele>
        <time>2018-05-26T14:10:49Z</time>
      </trkpt>
      <trkpt lat="43.91356" lon="6.5408">
        <ele>925</ele>
        <time>2018-05-26T14:10:59Z</time>
      </trkpt>
      <trkpt lat="43.91352" lon="6.54072">
        <ele>926</ele>
        <time>2018-05-26T14:11:04Z</time>
      </trkpt>
      <trkpt lat="43.91348" lon="6.54047">
        <ele>929</ele>
        <time>2018-05-26T14:11:16Z</time>
      </trkpt>
      <trkpt lat="43.91351" lon="6.54034">
        <ele>930</ele>
        <time>2018-05-26T14:11:23Z</time>
      </trkpt>
      <trkpt lat="43.9135" lon="6.5402">
        <ele>932</ele>
        <time>2018-05-26T14:11:29Z</time>
      </trkpt>
      <trkpt lat="43.9135" lon="6.54007">
        <ele>933</ele>
        <time>2018-05-26T14:11:34Z</time>
      </trkpt>
      <trkpt lat="43.9135" lon="6.54006">
        <ele>933</ele>
        <time>2018-05-26T14:11:35Z</time>
      </trkpt>
      <trkpt lat="43.91352" lon="6.54005">
        <ele>933</ele>
        <time>2018-05-26T14:11:36Z</time>
      </trkpt>
      <trkpt lat="43.91353" lon="6.54004">
        <ele>934</ele>
        <time>2018-05-26T14:11:37Z</time>
      </trkpt>
      <trkpt lat="43.91354" lon="6.54004">
        <ele>934</ele>
        <time>2018-05-26T14:11:38Z</time>
      </trkpt>
      <trkpt lat="43.91355" lon="6.54004">
        <ele>934</ele>
        <time>2018-05-26T14:11:39Z</time>
      </trkpt>
      <trkpt lat="43.91356" lon="6.54004">
        <ele>934</ele>
        <time>2018-05-26T14:11:40Z</time>
      </trkpt>
      <trkpt lat="43.91358" lon="6.54005">
        <ele>934</ele>
        <time>2018-05-26T14:11:41Z</time>
      </trkpt>
      <trkpt lat="43.91359" lon="6.54005">
        <ele>934</ele>
        <time>2018-05-26T14:11:42Z</time>
      </trkpt>
      <trkpt lat="43.91389" lon="6.53997">
        <ele>935</ele>
        <time>2018-05-26T14:11:57Z</time>
      </trkpt>
      <trkpt lat="43.91398" lon="6.53992">
        <ele>936</ele>
        <time>2018-05-26T14:12:02Z</time>
      </trkpt>
      <trkpt lat="43.91397" lon="6.53991">
        <ele>936</ele>
        <time>2018-05-26T14:12:03Z</time>
      </trkpt>
      <trkpt lat="43.91396" lon="6.53991">
        <ele>936</ele>
        <time>2018-05-26T14:12:04Z</time>
      </trkpt>
      <trkpt lat="43.91395" lon="6.53992">
        <ele>936</ele>
        <time>2018-05-26T14:12:05Z</time>
      </trkpt>
      <trkpt lat="43.91394" lon="6.53993">
        <ele>936</ele>
        <time>2018-05-26T14:12:06Z</time>
      </trkpt>
      <trkpt lat="43.91392" lon="6.53994">
        <ele>935</ele>
        <time>2018-05-26T14:12:07Z</time>
      </trkpt>
      <trkpt lat="43.91362" lon="6.54">
        <ele>935</ele>
        <time>2018-05-26T14:12:22Z</time>
      </trkpt>
      <trkpt lat="43.91347" lon="6.54002">
        <ele>933</ele>
        <time>2018-05-26T14:12:29Z</time>
      </trkpt>
      <trkpt lat="43.91346" lon="6.54001">
        <ele>933</ele>
        <time>2018-05-26T14:12:30Z</time>
      </trkpt>
      <trkpt lat="43.91343" lon="6.53999">
        <ele>933</ele>
        <time>2018-05-26T14:12:31Z</time>
      </trkpt>
      <trkpt lat="43.91342" lon="6.53997">
        <ele>933</ele>
        <time>2018-05-26T14:12:32Z</time>
      </trkpt>
      <trkpt lat="43.91342" lon="6.53993">
        <ele>932</ele>
        <time>2018-05-26T14:12:33Z</time>
      </trkpt>
      <trkpt lat="43.91342" lon="6.5399">
        <ele>933</ele>
        <time>2018-05-26T14:12:34Z</time>
      </trkpt>
      <trkpt lat="43.91343" lon="6.53986">
        <ele>933</ele>
        <time>2018-05-26T14:12:35Z</time>
      </trkpt>
      <trkpt lat="43.91344" lon="6.53984">
        <ele>933</ele>
        <time>2018-05-26T14:12:36Z</time>
      </trkpt>
      <trkpt lat="43.91345" lon="6.53982">
        <ele>933</ele>
        <time>2018-05-26T14:12:37Z</time>
      </trkpt>
      <trkpt lat="43.91346" lon="6.53981">
        <ele>933</ele>
        <time>2018-05-26T14:12:38Z</time>
      </trkpt>
      <trkpt lat="43.91348" lon="6.53981">
        <ele>934</ele>
        <time>2018-05-26T14:12:39Z</time>
      </trkpt>
      <trkpt lat="43.91354" lon="6.53979">
        <ele>935</ele>
        <time>2018-05-26T14:12:45Z</time>
      </trkpt>
      <trkpt lat="43.91361" lon="6.53963">
        <ele>936</ele>
        <time>2018-05-26T14:12:57Z</time>
      </trkpt>
      <trkpt lat="43.91377" lon="6.53961">
        <ele>937</ele>
        <time>2018-05-26T14:13:12Z</time>
      </trkpt>
      <trkpt lat="43.91376" lon="6.53961">
        <ele>937</ele>
        <time>2018-05-26T14:13:24Z</time>
      </trkpt>
      <trkpt lat="43.91374" lon="6.53962">
        <ele>937</ele>
        <time>2018-05-26T14:13:26Z</time>
      </trkpt>
      <trkpt lat="43.91373" lon="6.53962">
        <ele>937</ele>
        <time>2018-05-26T14:13:27Z</time>
      </trkpt>
      <trkpt lat="43.91359" lon="6.53963">
        <ele>936</ele>
        <time>2018-05-26T14:13:37Z</time>
      </trkpt>
      <trkpt lat="43.91358" lon="6.53966">
        <ele>936</ele>
        <time>2018-05-26T14:13:38Z</time>
      </trkpt>
      <trkpt lat="43.91358" lon="6.53968">
        <ele>936</ele>
        <time>2018-05-26T14:13:39Z</time>
      </trkpt>
      <trkpt lat="43.91356" lon="6.53973">
        <ele>935</ele>
        <time>2018-05-26T14:13:42Z</time>
      </trkpt>
      <trkpt lat="43.91355" lon="6.53975">
        <ele>935</ele>
        <time>2018-05-26T14:13:43Z</time>
      </trkpt>
      <trkpt lat="43.91354" lon="6.53977">
        <ele>935</ele>
        <time>2018-05-26T14:13:44Z</time>
      </trkpt>
      <trkpt lat="43.91354" lon="6.53978">
        <ele>935</ele>
        <time>2018-05-26T14:13:45Z</time>
      </trkpt>
      <trkpt lat="43.91353" lon="6.5398">
        <ele>935</ele>
        <time>2018-05-26T14:13:46Z</time>
      </trkpt>
      <trkpt lat="43.91351" lon="6.53982">
        <ele>934</ele>
        <time>2018-05-26T14:13:48Z</time>
      </trkpt>
      <trkpt lat="43.91349" lon="6.53983">
        <ele>934</ele>
        <time>2018-05-26T14:13:49Z</time>
      </trkpt>
      <trkpt lat="43.91348" lon="6.53983">
        <ele>934</ele>
        <time>2018-05-26T14:13:50Z</time>
      </trkpt>
      <trkpt lat="43.91346" lon="6.53984">
        <ele>933</ele>
        <time>2018-05-26T14:13:51Z</time>
      </trkpt>
      <trkpt lat="43.91345" lon="6.53986">
        <ele>933</ele>
        <time>2018-05-26T14:13:52Z</time>
      </trkpt>
      <trkpt lat="43.91344" lon="6.53988">
        <ele>933</ele>
        <time>2018-05-26T14:13:53Z</time>
      </trkpt>
      <trkpt lat="43.91343" lon="6.53992">
        <ele>933</ele>
        <time>2018-05-26T14:13:54Z</time>
      </trkpt>
      <trkpt lat="43.91342" lon="6.53995">
        <ele>932</ele>
        <time>2018-05-26T14:13:55Z</time>
      </trkpt>
      <trkpt lat="43.9134" lon="6.54003">
        <ele>932</ele>
        <time>2018-05-26T14:13:58Z</time>
      </trkpt>
      <trkpt lat="43.91338" lon="6.54005">
        <ele>931</ele>
        <time>2018-05-26T14:13:59Z</time>
      </trkpt>
      <trkpt lat="43.91336" lon="6.54008">
        <ele>931</ele>
        <time>2018-05-26T14:14:00Z</time>
      </trkpt>
      <trkpt lat="43.91334" lon="6.5401">
        <ele>930</ele>
        <time>2018-05-26T14:14:01Z</time>
      </trkpt>
      <trkpt lat="43.91331" lon="6.54012">
        <ele>930</ele>
        <time>2018-05-26T14:14:02Z</time>
      </trkpt>
      <trkpt lat="43.9133" lon="6.54014">
        <ele>929</ele>
        <time>2018-05-26T14:14:03Z</time>
      </trkpt>
      <trkpt lat="43.91329" lon="6.54016">
        <ele>929</ele>
        <time>2018-05-26T14:14:04Z</time>
      </trkpt>
      <trkpt lat="43.91329" lon="6.54018">
        <ele>929</ele>
        <time>2018-05-26T14:14:05Z</time>
      </trkpt>
      <trkpt lat="43.91328" lon="6.54019">
        <ele>929</ele>
        <time>2018-05-26T14:14:06Z</time>
      </trkpt>
      <trkpt lat="43.91328" lon="6.54021">
        <ele>929</ele>
        <time>2018-05-26T14:14:07Z</time>
      </trkpt>
      <trkpt lat="43.91327" lon="6.54022">
        <ele>928</ele>
        <time>2018-05-26T14:14:08Z</time>
      </trkpt>
      <trkpt lat="43.91326" lon="6.54022">
        <ele>928</ele>
        <time>2018-05-26T14:14:09Z</time>
      </trkpt>
      <trkpt lat="43.91324" lon="6.54021">
        <ele>928</ele>
        <time>2018-05-26T14:14:10Z</time>
      </trkpt>
      <trkpt lat="43.91323" lon="6.5402">
        <ele>928</ele>
        <time>2018-05-26T14:14:11Z</time>
      </trkpt>
      <trkpt lat="43.91313" lon="6.54021">
        <ele>926</ele>
        <time>2018-05-26T14:14:16Z</time>
      </trkpt>
      <trkpt lat="43.91312" lon="6.54024">
        <ele>926</ele>
        <time>2018-05-26T14:14:17Z</time>
      </trkpt>
      <trkpt lat="43.91311" lon="6.54027">
        <ele>926</ele>
        <time>2018-05-26T14:14:18Z</time>
      </trkpt>
      <trkpt lat="43.9131" lon="6.54032">
        <ele>925</ele>
        <time>2018-05-26T14:14:19Z</time>
      </trkpt>
      <trkpt lat="43.91309" lon="6.54037">
        <ele>925</ele>
        <time>2018-05-26T14:14:20Z</time>
      </trkpt>
      <trkpt lat="43.91309" lon="6.5404">
        <ele>925</ele>
        <time>2018-05-26T14:14:21Z</time>
      </trkpt>
      <trkpt lat="43.9131" lon="6.54043">
        <ele>925</ele>
        <time>2018-05-26T14:14:22Z</time>
      </trkpt>
      <trkpt lat="43.91313" lon="6.54056">
        <ele>924</ele>
        <time>2018-05-26T14:14:33Z</time>
      </trkpt>
      <trkpt lat="43.91315" lon="6.54057">
        <ele>924</ele>
        <time>2018-05-26T14:14:55Z</time>
      </trkpt>
      <trkpt lat="43.91313" lon="6.54055">
        <ele>924</ele>
        <time>2018-05-26T14:15:26Z</time>
      </trkpt>
      <trkpt lat="43.91313" lon="6.54056">
        <ele>924</ele>
        <time>2018-05-26T14:16:01Z</time>
      </trkpt>
      <trkpt lat="43.91315" lon="6.54058">
        <ele>924</ele>
        <time>2018-05-26T14:16:16Z</time>
      </trkpt>
      <trkpt lat="43.91316" lon="6.54059">
        <ele>924</ele>
        <time>2018-05-26T14:16:17Z</time>
      </trkpt>
      <trkpt lat="43.91318" lon="6.5406">
        <ele>924</ele>
        <time>2018-05-26T14:16:18Z</time>
      </trkpt>
      <trkpt lat="43.9132" lon="6.54062">
        <ele>924</ele>
        <time>2018-05-26T14:16:19Z</time>
      </trkpt>
      <trkpt lat="43.91321" lon="6.54064">
        <ele>924</ele>
        <time>2018-05-26T14:16:20Z</time>
      </trkpt>
      <trkpt lat="43.91323" lon="6.54065">
        <ele>924</ele>
        <time>2018-05-26T14:16:21Z</time>
      </trkpt>
      <trkpt lat="43.91352" lon="6.54102">
        <ele>921</ele>
        <time>2018-05-26T14:16:37Z</time>
      </trkpt>
      <trkpt lat="43.91356" lon="6.54105">
        <ele>921</ele>
        <time>2018-05-26T14:16:38Z</time>
      </trkpt>
      <trkpt lat="43.91359" lon="6.54107">
        <ele>921</ele>
        <time>2018-05-26T14:16:39Z</time>
      </trkpt>
      <trkpt lat="43.91375" lon="6.5412">
        <ele>921</ele>
        <time>2018-05-26T14:16:42Z</time>
      </trkpt>
      <trkpt lat="43.91398" lon="6.54148">
        <ele>918</ele>
        <time>2018-05-26T14:16:46Z</time>
      </trkpt>
      <trkpt lat="43.91413" lon="6.54166">
        <ele>915</ele>
        <time>2018-05-26T14:16:52Z</time>
      </trkpt>
      <trkpt lat="43.91412" lon="6.54165">
        <ele>916</ele>
        <time>2018-05-26T14:17:27Z</time>
      </trkpt>
      <trkpt lat="43.91412" lon="6.54166">
        <ele>915</ele>
        <time>2018-05-26T14:18:04Z</time>
      </trkpt>
      <trkpt lat="43.91412" lon="6.54173">
        <ele>914</ele>
        <time>2018-05-26T14:18:47Z</time>
      </trkpt>
      <trkpt lat="43.91412" lon="6.54173">
        <ele>914</ele>
        <time>2018-05-26T14:19:12Z</time>
      </trkpt>
      <trkpt lat="43.91412" lon="6.54175">
        <ele>914</ele>
        <time>2018-05-26T14:19:13Z</time>
      </trkpt>
      <trkpt lat="43.91421" lon="6.54188">
        <ele>913</ele>
        <time>2018-05-26T14:19:20Z</time>
      </trkpt>
      <trkpt lat="43.91423" lon="6.54189">
        <ele>913</ele>
        <time>2018-05-26T14:19:21Z</time>
      </trkpt>
      <trkpt lat="43.91425" lon="6.54189">
        <ele>913</ele>
        <time>2018-05-26T14:19:22Z</time>
      </trkpt>
      <trkpt lat="43.91427" lon="6.54191">
        <ele>913</ele>
        <time>2018-05-26T14:19:23Z</time>
      </trkpt>
      <trkpt lat="43.9143" lon="6.54192">
        <ele>913</ele>
        <time>2018-05-26T14:19:24Z</time>
      </trkpt>
      <trkpt lat="43.91432" lon="6.54193">
        <ele>913</ele>
        <time>2018-05-26T14:19:25Z</time>
      </trkpt>
      <trkpt lat="43.91435" lon="6.54195">
        <ele>913</ele>
        <time>2018-05-26T14:19:26Z</time>
      </trkpt>
      <trkpt lat="43.91438" lon="6.54195">
        <ele>913</ele>
        <time>2018-05-26T14:19:27Z</time>
      </trkpt>
      <trkpt lat="43.91442" lon="6.54194">
        <ele>913</ele>
        <time>2018-05-26T14:19:28Z</time>
      </trkpt>
      <trkpt lat="43.91446" lon="6.54193">
        <ele>913</ele>
        <time>2018-05-26T14:19:29Z</time>
      </trkpt>
      <trkpt lat="43.91449" lon="6.54191">
        <ele>913</ele>
        <time>2018-05-26T14:19:30Z</time>
      </trkpt>
      <trkpt lat="43.91453" lon="6.54189">
        <ele>913</ele>
        <time>2018-05-26T14:19:31Z</time>
      </trkpt>
      <trkpt lat="43.91457" lon="6.54189">
        <ele>913</ele>
        <time>2018-05-26T14:19:32Z</time>
      </trkpt>
      <trkpt lat="43.9146" lon="6.54189">
        <ele>913</ele>
        <time>2018-05-26T14:19:33Z</time>
      </trkpt>
      <trkpt lat="43.91463" lon="6.54191">
        <ele>913</ele>
        <time>2018-05-26T14:19:34Z</time>
      </trkpt>
      <trkpt lat="43.91469" lon="6.54203">
        <ele>912</ele>
        <time>2018-05-26T14:19:37Z</time>
      </trkpt>
      <trkpt lat="43.91494" lon="6.5424">
        <ele>913</ele>
        <time>2018-05-26T14:19:48Z</time>
      </trkpt>
      <trkpt lat="43.915" lon="6.54246">
        <ele>914</ele>
        <time>2018-05-26T14:19:53Z</time>
      </trkpt>
      <trkpt lat="43.91496" lon="6.54282">
        <ele>915</ele>
        <time>2018-05-26T14:20:08Z</time>
      </trkpt>
      <trkpt lat="43.91487" lon="6.5433">
        <ele>918</ele>
        <time>2018-05-26T14:20:23Z</time>
      </trkpt>
      <trkpt lat="43.91469" lon="6.54369">
        <ele>921</ele>
        <time>2018-05-26T14:20:39Z</time>
      </trkpt>
      <trkpt lat="43.91448" lon="6.54403">
        <ele>923</ele>
        <time>2018-05-26T14:20:55Z</time>
      </trkpt>
      <trkpt lat="43.91423" lon="6.54442">
        <ele>924</ele>
        <time>2018-05-26T14:21:13Z</time>
      </trkpt>
      <trkpt lat="43.91399" lon="6.54479">
        <ele>926</ele>
        <time>2018-05-26T14:21:30Z</time>
      </trkpt>
      <trkpt lat="43.91372" lon="6.545">
        <ele>925</ele>
        <time>2018-05-26T14:21:46Z</time>
      </trkpt>
      <trkpt lat="43.91362" lon="6.54521">
        <ele>923</ele>
        <time>2018-05-26T14:21:52Z</time>
      </trkpt>
      <trkpt lat="43.91358" lon="6.54539">
        <ele>923</ele>
        <time>2018-05-26T14:21:55Z</time>
      </trkpt>
      <trkpt lat="43.9134" lon="6.54646">
        <ele>920</ele>
        <time>2018-05-26T14:22:07Z</time>
      </trkpt>
      <trkpt lat="43.91336" lon="6.54656">
        <ele>920</ele>
        <time>2018-05-26T14:22:08Z</time>
      </trkpt>
      <trkpt lat="43.91311" lon="6.54713">
        <ele>912</ele>
        <time>2018-05-26T14:22:14Z</time>
      </trkpt>
      <trkpt lat="43.91308" lon="6.54724">
        <ele>912</ele>
        <time>2018-05-26T14:22:15Z</time>
      </trkpt>
      <trkpt lat="43.91307" lon="6.54735">
        <ele>912</ele>
        <time>2018-05-26T14:22:16Z</time>
      </trkpt>
      <trkpt lat="43.91306" lon="6.54747">
        <ele>913</ele>
        <time>2018-05-26T14:22:17Z</time>
      </trkpt>
      <trkpt lat="43.91307" lon="6.54759">
        <ele>914</ele>
        <time>2018-05-26T14:22:18Z</time>
      </trkpt>
      <trkpt lat="43.91309" lon="6.54771">
        <ele>916</ele>
        <time>2018-05-26T14:22:19Z</time>
      </trkpt>
      <trkpt lat="43.9131" lon="6.54784">
        <ele>918</ele>
        <time>2018-05-26T14:22:20Z</time>
      </trkpt>
      <trkpt lat="43.91309" lon="6.54796">
        <ele>919</ele>
        <time>2018-05-26T14:22:21Z</time>
      </trkpt>
      <trkpt lat="43.91306" lon="6.54809">
        <ele>918</ele>
        <time>2018-05-26T14:22:22Z</time>
      </trkpt>
      <trkpt lat="43.91301" lon="6.54819">
        <ele>918</ele>
        <time>2018-05-26T14:22:23Z</time>
      </trkpt>
      <trkpt lat="43.91294" lon="6.54828">
        <ele>917</ele>
        <time>2018-05-26T14:22:24Z</time>
      </trkpt>
      <trkpt lat="43.91287" lon="6.54836">
        <ele>915</ele>
        <time>2018-05-26T14:22:25Z</time>
      </trkpt>
      <trkpt lat="43.91268" lon="6.54863">
        <ele>912</ele>
        <time>2018-05-26T14:22:28Z</time>
      </trkpt>
      <trkpt lat="43.91263" lon="6.54874">
        <ele>910</ele>
        <time>2018-05-26T14:22:29Z</time>
      </trkpt>
      <trkpt lat="43.91259" lon="6.54886">
        <ele>909</ele>
        <time>2018-05-26T14:22:30Z</time>
      </trkpt>
      <trkpt lat="43.91256" lon="6.54898">
        <ele>909</ele>
        <time>2018-05-26T14:22:31Z</time>
      </trkpt>
      <trkpt lat="43.91253" lon="6.5491">
        <ele>909</ele>
        <time>2018-05-26T14:22:32Z</time>
      </trkpt>
      <trkpt lat="43.91242" lon="6.54974">
        <ele>903</ele>
        <time>2018-05-26T14:22:37Z</time>
      </trkpt>
      <trkpt lat="43.91242" lon="6.54986">
        <ele>903</ele>
        <time>2018-05-26T14:22:38Z</time>
      </trkpt>
      <trkpt lat="43.91244" lon="6.54999">
        <ele>901</ele>
        <time>2018-05-26T14:22:39Z</time>
      </trkpt>
      <trkpt lat="43.91248" lon="6.55012">
        <ele>899</ele>
        <time>2018-05-26T14:22:40Z</time>
      </trkpt>
      <trkpt lat="43.91254" lon="6.55022">
        <ele>899</ele>
        <time>2018-05-26T14:22:41Z</time>
      </trkpt>
      <trkpt lat="43.91261" lon="6.55029">
        <ele>900</ele>
        <time>2018-05-26T14:22:42Z</time>
      </trkpt>
      <trkpt lat="43.9127" lon="6.55035">
        <ele>901</ele>
        <time>2018-05-26T14:22:43Z</time>
      </trkpt>
      <trkpt lat="43.91279" lon="6.5504">
        <ele>903</ele>
        <time>2018-05-26T14:22:44Z</time>
      </trkpt>
      <trkpt lat="43.91288" lon="6.55046">
        <ele>905</ele>
        <time>2018-05-26T14:22:45Z</time>
      </trkpt>
      <trkpt lat="43.91296" lon="6.55054">
        <ele>906</ele>
        <time>2018-05-26T14:22:46Z</time>
      </trkpt>
      <trkpt lat="43.91303" lon="6.55064">
        <ele>909</ele>
        <time>2018-05-26T14:22:47Z</time>
      </trkpt>
      <trkpt lat="43.91309" lon="6.55076">
        <ele>910</ele>
        <time>2018-05-26T14:22:48Z</time>
      </trkpt>
      <trkpt lat="43.91312" lon="6.55089">
        <ele>910</ele>
        <time>2018-05-26T14:22:49Z</time>
      </trkpt>
      <trkpt lat="43.91313" lon="6.55102">
        <ele>908</ele>
        <time>2018-05-26T14:22:50Z</time>
      </trkpt>
      <trkpt lat="43.91313" lon="6.55115">
        <ele>906</ele>
        <time>2018-05-26T14:22:51Z</time>
      </trkpt>
      <trkpt lat="43.91311" lon="6.55128">
        <ele>905</ele>
        <time>2018-05-26T14:22:52Z</time>
      </trkpt>
      <trkpt lat="43.91309" lon="6.55141">
        <ele>904</ele>
        <time>2018-05-26T14:22:53Z</time>
      </trkpt>
      <trkpt lat="43.91295" lon="6.55229">
        <ele>904</ele>
        <time>2018-05-26T14:23:00Z</time>
      </trkpt>
      <trkpt lat="43.91289" lon="6.55238">
        <ele>904</ele>
        <time>2018-05-26T14:23:01Z</time>
      </trkpt>
      <trkpt lat="43.9128" lon="6.55243">
        <ele>902</ele>
        <time>2018-05-26T14:23:02Z</time>
      </trkpt>
      <trkpt lat="43.91271" lon="6.55243">
        <ele>900</ele>
        <time>2018-05-26T14:23:03Z</time>
      </trkpt>
      <trkpt lat="43.91264" lon="6.55238">
        <ele>898</ele>
        <time>2018-05-26T14:23:04Z</time>
      </trkpt>
      <trkpt lat="43.91258" lon="6.55231">
        <ele>899</ele>
        <time>2018-05-26T14:23:05Z</time>
      </trkpt>
      <trkpt lat="43.9122" lon="6.55173">
        <ele>897</ele>
        <time>2018-05-26T14:23:15Z</time>
      </trkpt>
      <trkpt lat="43.91171" lon="6.55126">
        <ele>905</ele>
        <time>2018-05-26T14:23:31Z</time>
      </trkpt>
      <trkpt lat="43.91118" lon="6.55088">
        <ele>905</ele>
        <time>2018-05-26T14:23:49Z</time>
      </trkpt>
      <trkpt lat="43.91074" lon="6.55053">
        <ele>908</ele>
        <time>2018-05-26T14:24:08Z</time>
      </trkpt>
      <trkpt lat="43.91055" lon="6.55009">
        <ele>909</ele>
        <time>2018-05-26T14:24:22Z</time>
      </trkpt>
      <trkpt lat="43.91063" lon="6.54951">
        <ele>902</ele>
        <time>2018-05-26T14:24:37Z</time>
      </trkpt>
      <trkpt lat="43.91053" lon="6.54902">
        <ele>905</ele>
        <time>2018-05-26T14:24:51Z</time>
      </trkpt>
      <trkpt lat="43.91022" lon="6.54846">
        <ele>906</ele>
        <time>2018-05-26T14:25:08Z</time>
      </trkpt>
      <trkpt lat="43.91011" lon="6.54788">
        <ele>910</ele>
        <time>2018-05-26T14:25:24Z</time>
      </trkpt>
      <trkpt lat="43.90992" lon="6.54738">
        <ele>910</ele>
        <time>2018-05-26T14:25:39Z</time>
      </trkpt>
      <trkpt lat="43.90956" lon="6.54688">
        <ele>917</ele>
        <time>2018-05-26T14:25:56Z</time>
      </trkpt>
      <trkpt lat="43.90927" lon="6.54631">
        <ele>917</ele>
        <time>2018-05-26T14:26:14Z</time>
      </trkpt>
      <trkpt lat="43.9091" lon="6.54592">
        <ele>917</ele>
        <time>2018-05-26T14:26:26Z</time>
      </trkpt>
      <trkpt lat="43.90889" lon="6.5454">
        <ele>921</ele>
        <time>2018-05-26T14:26:42Z</time>
      </trkpt>
      <trkpt lat="43.9087" lon="6.54499">
        <ele>928</ele>
        <time>2018-05-26T14:26:55Z</time>
      </trkpt>
      <trkpt lat="43.90829" lon="6.54456">
        <ele>935</ele>
        <time>2018-05-26T14:27:13Z</time>
      </trkpt>
      <trkpt lat="43.90766" lon="6.54443">
        <ele>929</ele>
        <time>2018-05-26T14:27:30Z</time>
      </trkpt>
      <trkpt lat="43.90754" lon="6.54436">
        <ele>929</ele>
        <time>2018-05-26T14:27:33Z</time>
      </trkpt>
      <trkpt lat="43.90751" lon="6.54433">
        <ele>929</ele>
        <time>2018-05-26T14:27:34Z</time>
      </trkpt>
      <trkpt lat="43.90747" lon="6.5443">
        <ele>929</ele>
        <time>2018-05-26T14:27:35Z</time>
      </trkpt>
      <trkpt lat="43.9068" lon="6.54361">
        <ele>929</ele>
        <time>2018-05-26T14:27:55Z</time>
      </trkpt>
      <trkpt lat="43.90602" lon="6.54277">
        <ele>930</ele>
        <time>2018-05-26T14:28:17Z</time>
      </trkpt>
      <trkpt lat="43.90584" lon="6.54255">
        <ele>929</ele>
        <time>2018-05-26T14:28:22Z</time>
      </trkpt>
      <trkpt lat="43.9058" lon="6.54252">
        <ele>928</ele>
        <time>2018-05-26T14:28:23Z</time>
      </trkpt>
      <trkpt lat="43.90576" lon="6.5425">
        <ele>926</ele>
        <time>2018-05-26T14:28:24Z</time>
      </trkpt>
      <trkpt lat="43.90571" lon="6.54248">
        <ele>925</ele>
        <time>2018-05-26T14:28:25Z</time>
      </trkpt>
      <trkpt lat="43.90566" lon="6.54247">
        <ele>924</ele>
        <time>2018-05-26T14:28:26Z</time>
      </trkpt>
      <trkpt lat="43.90561" lon="6.54247">
        <ele>924</ele>
        <time>2018-05-26T14:28:27Z</time>
      </trkpt>
      <trkpt lat="43.90556" lon="6.54248">
        <ele>923</ele>
        <time>2018-05-26T14:28:28Z</time>
      </trkpt>
      <trkpt lat="43.90551" lon="6.5425">
        <ele>924</ele>
        <time>2018-05-26T14:28:29Z</time>
      </trkpt>
      <trkpt lat="43.90546" lon="6.54252">
        <ele>924</ele>
        <time>2018-05-26T14:28:30Z</time>
      </trkpt>
      <trkpt lat="43.90516" lon="6.54267">
        <ele>928</ele>
        <time>2018-05-26T14:28:36Z</time>
      </trkpt>
      <trkpt lat="43.90511" lon="6.54267">
        <ele>927</ele>
        <time>2018-05-26T14:28:37Z</time>
      </trkpt>
      <trkpt lat="43.90506" lon="6.54265">
        <ele>926</ele>
        <time>2018-05-26T14:28:38Z</time>
      </trkpt>
      <trkpt lat="43.90501" lon="6.54263">
        <ele>924</ele>
        <time>2018-05-26T14:28:39Z</time>
      </trkpt>
      <trkpt lat="43.90496" lon="6.54259">
        <ele>922</ele>
        <time>2018-05-26T14:28:40Z</time>
      </trkpt>
      <trkpt lat="43.90491" lon="6.54255">
        <ele>920</ele>
        <time>2018-05-26T14:28:41Z</time>
      </trkpt>
      <trkpt lat="43.90487" lon="6.5425">
        <ele>919</ele>
        <time>2018-05-26T14:28:42Z</time>
      </trkpt>
      <trkpt lat="43.90483" lon="6.54245">
        <ele>918</ele>
        <time>2018-05-26T14:28:43Z</time>
      </trkpt>
      <trkpt lat="43.9048" lon="6.54239">
        <ele>917</ele>
        <time>2018-05-26T14:28:44Z</time>
      </trkpt>
      <trkpt lat="43.90446" lon="6.54196">
        <ele>912</ele>
        <time>2018-05-26T14:28:53Z</time>
      </trkpt>
      <trkpt lat="43.90441" lon="6.54193">
        <ele>912</ele>
        <time>2018-05-26T14:28:54Z</time>
      </trkpt>
      <trkpt lat="43.90435" lon="6.54191">
        <ele>912</ele>
        <time>2018-05-26T14:28:55Z</time>
      </trkpt>
      <trkpt lat="43.90398" lon="6.54175">
        <ele>916</ele>
        <time>2018-05-26T14:29:02Z</time>
      </trkpt>
      <trkpt lat="43.90394" lon="6.54171">
        <ele>916</ele>
        <time>2018-05-26T14:29:03Z</time>
      </trkpt>
      <trkpt lat="43.9039" lon="6.54167">
        <ele>917</ele>
        <time>2018-05-26T14:29:04Z</time>
      </trkpt>
      <trkpt lat="43.90373" lon="6.54145">
        <ele>918</ele>
        <time>2018-05-26T14:29:09Z</time>
      </trkpt>
      <trkpt lat="43.90369" lon="6.54142">
        <ele>919</ele>
        <time>2018-05-26T14:29:10Z</time>
      </trkpt>
      <trkpt lat="43.90337" lon="6.5413">
        <ele>916</ele>
        <time>2018-05-26T14:29:17Z</time>
      </trkpt>
      <trkpt lat="43.90332" lon="6.5413">
        <ele>915</ele>
        <time>2018-05-26T14:29:18Z</time>
      </trkpt>
      <trkpt lat="43.90309" lon="6.54134">
        <ele>913</ele>
        <time>2018-05-26T14:29:23Z</time>
      </trkpt>
      <trkpt lat="43.90304" lon="6.54136">
        <ele>913</ele>
        <time>2018-05-26T14:29:24Z</time>
      </trkpt>
      <trkpt lat="43.90267" lon="6.54165">
        <ele>913</ele>
        <time>2018-05-26T14:29:33Z</time>
      </trkpt>
      <trkpt lat="43.90261" lon="6.54177">
        <ele>912</ele>
        <time>2018-05-26T14:29:35Z</time>
      </trkpt>
      <trkpt lat="43.90258" lon="6.54183">
        <ele>911</ele>
        <time>2018-05-26T14:29:36Z</time>
      </trkpt>
      <trkpt lat="43.90256" lon="6.5419">
        <ele>912</ele>
        <time>2018-05-26T14:29:37Z</time>
      </trkpt>
      <trkpt lat="43.90254" lon="6.54197">
        <ele>912</ele>
        <time>2018-05-26T14:29:38Z</time>
      </trkpt>
      <trkpt lat="43.90253" lon="6.54204">
        <ele>913</ele>
        <time>2018-05-26T14:29:39Z</time>
      </trkpt>
      <trkpt lat="43.90243" lon="6.54253">
        <ele>920</ele>
        <time>2018-05-26T14:29:46Z</time>
      </trkpt>
      <trkpt lat="43.9024" lon="6.54259">
        <ele>920</ele>
        <time>2018-05-26T14:29:47Z</time>
      </trkpt>
      <trkpt lat="43.90237" lon="6.54264">
        <ele>919</ele>
        <time>2018-05-26T14:29:48Z</time>
      </trkpt>
      <trkpt lat="43.90232" lon="6.54268">
        <ele>918</ele>
        <time>2018-05-26T14:29:49Z</time>
      </trkpt>
      <trkpt lat="43.90227" lon="6.54271">
        <ele>916</ele>
        <time>2018-05-26T14:29:50Z</time>
      </trkpt>
      <trkpt lat="43.90222" lon="6.54273">
        <ele>914</ele>
        <time>2018-05-26T14:29:51Z</time>
      </trkpt>
      <trkpt lat="43.90217" lon="6.54273">
        <ele>915</ele>
        <time>2018-05-26T14:29:52Z</time>
      </trkpt>
      <trkpt lat="43.90211" lon="6.54273">
        <ele>917</ele>
        <time>2018-05-26T14:29:53Z</time>
      </trkpt>
      <trkpt lat="43.90206" lon="6.5427">
        <ele>917</ele>
        <time>2018-05-26T14:29:54Z</time>
      </trkpt>
      <trkpt lat="43.90201" lon="6.54267">
        <ele>918</ele>
        <time>2018-05-26T14:29:55Z</time>
      </trkpt>
      <trkpt lat="43.90196" lon="6.54262">
        <ele>917</ele>
        <time>2018-05-26T14:29:56Z</time>
      </trkpt>
      <trkpt lat="43.90191" lon="6.54257">
        <ele>917</ele>
        <time>2018-05-26T14:29:57Z</time>
      </trkpt>
      <trkpt lat="43.90187" lon="6.54252">
        <ele>917</ele>
        <time>2018-05-26T14:29:58Z</time>
      </trkpt>
      <trkpt lat="43.90165" lon="6.54224">
        <ele>918</ele>
        <time>2018-05-26T14:30:03Z</time>
      </trkpt>
      <trkpt lat="43.90161" lon="6.54218">
        <ele>918</ele>
        <time>2018-05-26T14:30:04Z</time>
      </trkpt>
      <trkpt lat="43.90158" lon="6.5421">
        <ele>917</ele>
        <time>2018-05-26T14:30:05Z</time>
      </trkpt>
      <trkpt lat="43.90156" lon="6.54203">
        <ele>917</ele>
        <time>2018-05-26T14:30:06Z</time>
      </trkpt>
      <trkpt lat="43.90154" lon="6.54196">
        <ele>916</ele>
        <time>2018-05-26T14:30:07Z</time>
      </trkpt>
      <trkpt lat="43.90123" lon="6.5408">
        <ele>911</ele>
        <time>2018-05-26T14:30:22Z</time>
      </trkpt>
      <trkpt lat="43.90118" lon="6.54067">
        <ele>911</ele>
        <time>2018-05-26T14:30:24Z</time>
      </trkpt>
      <trkpt lat="43.90114" lon="6.54062">
        <ele>911</ele>
        <time>2018-05-26T14:30:25Z</time>
      </trkpt>
      <trkpt lat="43.9011" lon="6.54058">
        <ele>911</ele>
        <time>2018-05-26T14:30:26Z</time>
      </trkpt>
      <trkpt lat="43.90106" lon="6.54054">
        <ele>912</ele>
        <time>2018-05-26T14:30:27Z</time>
      </trkpt>
      <trkpt lat="43.90101" lon="6.54052">
        <ele>913</ele>
        <time>2018-05-26T14:30:28Z</time>
      </trkpt>
      <trkpt lat="43.90096" lon="6.5405">
        <ele>914</ele>
        <time>2018-05-26T14:30:29Z</time>
      </trkpt>
      <trkpt lat="43.90091" lon="6.5405">
        <ele>913</ele>
        <time>2018-05-26T14:30:30Z</time>
      </trkpt>
      <trkpt lat="43.90086" lon="6.5405">
        <ele>913</ele>
        <time>2018-05-26T14:30:31Z</time>
      </trkpt>
      <trkpt lat="43.9008" lon="6.54052">
        <ele>913</ele>
        <time>2018-05-26T14:30:32Z</time>
      </trkpt>
      <trkpt lat="43.90075" lon="6.54053">
        <ele>913</ele>
        <time>2018-05-26T14:30:33Z</time>
      </trkpt>
      <trkpt lat="43.90042" lon="6.54067">
        <ele>921</ele>
        <time>2018-05-26T14:30:39Z</time>
      </trkpt>
      <trkpt lat="43.90036" lon="6.54069">
        <ele>921</ele>
        <time>2018-05-26T14:30:40Z</time>
      </trkpt>
      <trkpt lat="43.90025" lon="6.54071">
        <ele>922</ele>
        <time>2018-05-26T14:30:42Z</time>
      </trkpt>
      <trkpt lat="43.90019" lon="6.54071">
        <ele>922</ele>
        <time>2018-05-26T14:30:43Z</time>
      </trkpt>
      <trkpt lat="43.90013" lon="6.54069">
        <ele>920</ele>
        <time>2018-05-26T14:30:44Z</time>
      </trkpt>
      <trkpt lat="43.90008" lon="6.54065">
        <ele>919</ele>
        <time>2018-05-26T14:30:45Z</time>
      </trkpt>
      <trkpt lat="43.90004" lon="6.5406">
        <ele>917</ele>
        <time>2018-05-26T14:30:46Z</time>
      </trkpt>
      <trkpt lat="43.9" lon="6.54055">
        <ele>917</ele>
        <time>2018-05-26T14:30:47Z</time>
      </trkpt>
      <trkpt lat="43.89996" lon="6.54049">
        <ele>916</ele>
        <time>2018-05-26T14:30:48Z</time>
      </trkpt>
      <trkpt lat="43.89992" lon="6.54042">
        <ele>915</ele>
        <time>2018-05-26T14:30:49Z</time>
      </trkpt>
      <trkpt lat="43.89947" lon="6.53956">
        <ele>904</ele>
        <time>2018-05-26T14:31:03Z</time>
      </trkpt>
      <trkpt lat="43.89944" lon="6.53951">
        <ele>904</ele>
        <time>2018-05-26T14:31:04Z</time>
      </trkpt>
      <trkpt lat="43.8994" lon="6.53947">
        <ele>905</ele>
        <time>2018-05-26T14:31:05Z</time>
      </trkpt>
      <trkpt lat="43.89936" lon="6.53943">
        <ele>905</ele>
        <time>2018-05-26T14:31:06Z</time>
      </trkpt>
      <trkpt lat="43.89932" lon="6.5394">
        <ele>906</ele>
        <time>2018-05-26T14:31:07Z</time>
      </trkpt>
      <trkpt lat="43.89923" lon="6.53934">
        <ele>908</ele>
        <time>2018-05-26T14:31:09Z</time>
      </trkpt>
      <trkpt lat="43.89862" lon="6.53897">
        <ele>905</ele>
        <time>2018-05-26T14:31:22Z</time>
      </trkpt>
      <trkpt lat="43.89858" lon="6.53894">
        <ele>905</ele>
        <time>2018-05-26T14:31:23Z</time>
      </trkpt>
      <trkpt lat="43.89853" lon="6.53891">
        <ele>906</ele>
        <time>2018-05-26T14:31:24Z</time>
      </trkpt>
      <trkpt lat="43.89848" lon="6.53889">
        <ele>907</ele>
        <time>2018-05-26T14:31:25Z</time>
      </trkpt>
      <trkpt lat="43.89843" lon="6.53888">
        <ele>908</ele>
        <time>2018-05-26T14:31:26Z</time>
      </trkpt>
      <trkpt lat="43.89838" lon="6.53887">
        <ele>909</ele>
        <time>2018-05-26T14:31:27Z</time>
      </trkpt>
      <trkpt lat="43.89833" lon="6.53887">
        <ele>911</ele>
        <time>2018-05-26T14:31:28Z</time>
      </trkpt>
      <trkpt lat="43.89828" lon="6.53887">
        <ele>911</ele>
        <time>2018-05-26T14:31:29Z</time>
      </trkpt>
      <trkpt lat="43.89755" lon="6.53853">
        <ele>906</ele>
        <time>2018-05-26T14:31:43Z</time>
      </trkpt>
      <trkpt lat="43.89715" lon="6.53822">
        <ele>899</ele>
        <time>2018-05-26T14:31:51Z</time>
      </trkpt>
      <trkpt lat="43.89709" lon="6.53819">
        <ele>900</ele>
        <time>2018-05-26T14:31:52Z</time>
      </trkpt>
      <trkpt lat="43.89704" lon="6.53817">
        <ele>901</ele>
        <time>2018-05-26T14:31:53Z</time>
      </trkpt>
      <trkpt lat="43.89698" lon="6.53816">
        <ele>901</ele>
        <time>2018-05-26T14:31:54Z</time>
      </trkpt>
      <trkpt lat="43.89692" lon="6.53816">
        <ele>901</ele>
        <time>2018-05-26T14:31:55Z</time>
      </trkpt>
      <trkpt lat="43.89686" lon="6.53818">
        <ele>901</ele>
        <time>2018-05-26T14:31:56Z</time>
      </trkpt>
      <trkpt lat="43.8968" lon="6.53821">
        <ele>902</ele>
        <time>2018-05-26T14:31:57Z</time>
      </trkpt>
      <trkpt lat="43.89675" lon="6.53824">
        <ele>902</ele>
        <time>2018-05-26T14:31:58Z</time>
      </trkpt>
      <trkpt lat="43.89658" lon="6.53835">
        <ele>904</ele>
        <time>2018-05-26T14:32:01Z</time>
      </trkpt>
      <trkpt lat="43.89652" lon="6.53837">
        <ele>904</ele>
        <time>2018-05-26T14:32:02Z</time>
      </trkpt>
      <trkpt lat="43.89645" lon="6.53838">
        <ele>905</ele>
        <time>2018-05-26T14:32:03Z</time>
      </trkpt>
      <trkpt lat="43.89638" lon="6.53836">
        <ele>905</ele>
        <time>2018-05-26T14:32:04Z</time>
      </trkpt>
      <trkpt lat="43.89632" lon="6.53831">
        <ele>904</ele>
        <time>2018-05-26T14:32:05Z</time>
      </trkpt>
      <trkpt lat="43.89627" lon="6.53825">
        <ele>902</ele>
        <time>2018-05-26T14:32:06Z</time>
      </trkpt>
      <trkpt lat="43.89622" lon="6.53818">
        <ele>900</ele>
        <time>2018-05-26T14:32:07Z</time>
      </trkpt>
      <trkpt lat="43.89618" lon="6.5381">
        <ele>898</ele>
        <time>2018-05-26T14:32:08Z</time>
      </trkpt>
      <trkpt lat="43.89614" lon="6.53802">
        <ele>895</ele>
        <time>2018-05-26T14:32:09Z</time>
      </trkpt>
      <trkpt lat="43.89605" lon="6.53788">
        <ele>891</ele>
        <time>2018-05-26T14:32:11Z</time>
      </trkpt>
      <trkpt lat="43.896" lon="6.53782">
        <ele>889</ele>
        <time>2018-05-26T14:32:12Z</time>
      </trkpt>
      <trkpt lat="43.89594" lon="6.53778">
        <ele>888</ele>
        <time>2018-05-26T14:32:13Z</time>
      </trkpt>
      <trkpt lat="43.89587" lon="6.53776">
        <ele>888</ele>
        <time>2018-05-26T14:32:14Z</time>
      </trkpt>
      <trkpt lat="43.8958" lon="6.53777">
        <ele>888</ele>
        <time>2018-05-26T14:32:15Z</time>
      </trkpt>
      <trkpt lat="43.89573" lon="6.5378">
        <ele>889</ele>
        <time>2018-05-26T14:32:16Z</time>
      </trkpt>
      <trkpt lat="43.89567" lon="6.53785">
        <ele>890</ele>
        <time>2018-05-26T14:32:17Z</time>
      </trkpt>
      <trkpt lat="43.89563" lon="6.53792">
        <ele>890</ele>
        <time>2018-05-26T14:32:18Z</time>
      </trkpt>
      <trkpt lat="43.89559" lon="6.53801">
        <ele>891</ele>
        <time>2018-05-26T14:32:19Z</time>
      </trkpt>
      <trkpt lat="43.89557" lon="6.5381">
        <ele>891</ele>
        <time>2018-05-26T14:32:20Z</time>
      </trkpt>
      <trkpt lat="43.89557" lon="6.5382">
        <ele>891</ele>
        <time>2018-05-26T14:32:21Z</time>
      </trkpt>
      <trkpt lat="43.89557" lon="6.5383">
        <ele>891</ele>
        <time>2018-05-26T14:32:22Z</time>
      </trkpt>
      <trkpt lat="43.89559" lon="6.53839">
        <ele>892</ele>
        <time>2018-05-26T14:32:23Z</time>
      </trkpt>
      <trkpt lat="43.89561" lon="6.53849">
        <ele>893</ele>
        <time>2018-05-26T14:32:24Z</time>
      </trkpt>
      <trkpt lat="43.89562" lon="6.53858">
        <ele>894</ele>
        <time>2018-05-26T14:32:25Z</time>
      </trkpt>
      <trkpt lat="43.89587" lon="6.54002">
        <ele>906</ele>
        <time>2018-05-26T14:32:39Z</time>
      </trkpt>
      <trkpt lat="43.89588" lon="6.54013">
        <ele>907</ele>
        <time>2018-05-26T14:32:40Z</time>
      </trkpt>
      <trkpt lat="43.89587" lon="6.54024">
        <ele>907</ele>
        <time>2018-05-26T14:32:41Z</time>
      </trkpt>
      <trkpt lat="43.89583" lon="6.54034">
        <ele>906</ele>
        <time>2018-05-26T14:32:42Z</time>
      </trkpt>
      <trkpt lat="43.89578" lon="6.54042">
        <ele>906</ele>
        <time>2018-05-26T14:32:43Z</time>
      </trkpt>
      <trkpt lat="43.89571" lon="6.54049">
        <ele>906</ele>
        <time>2018-05-26T14:32:44Z</time>
      </trkpt>
      <trkpt lat="43.89563" lon="6.54052">
        <ele>906</ele>
        <time>2018-05-26T14:32:45Z</time>
      </trkpt>
      <trkpt lat="43.89555" lon="6.54051">
        <ele>905</ele>
        <time>2018-05-26T14:32:46Z</time>
      </trkpt>
      <trkpt lat="43.89548" lon="6.54048">
        <ele>906</ele>
        <time>2018-05-26T14:32:47Z</time>
      </trkpt>
      <trkpt lat="43.89542" lon="6.54043">
        <ele>907</ele>
        <time>2018-05-26T14:32:48Z</time>
      </trkpt>
      <trkpt lat="43.89536" lon="6.54037">
        <ele>906</ele>
        <time>2018-05-26T14:32:49Z</time>
      </trkpt>
      <trkpt lat="43.89531" lon="6.5403">
        <ele>905</ele>
        <time>2018-05-26T14:32:50Z</time>
      </trkpt>
      <trkpt lat="43.89526" lon="6.54023">
        <ele>904</ele>
        <time>2018-05-26T14:32:51Z</time>
      </trkpt>
      <trkpt lat="43.89485" lon="6.53933">
        <ele>893</ele>
        <time>2018-05-26T14:33:04Z</time>
      </trkpt>
      <trkpt lat="43.8948" lon="6.53921">
        <ele>892</ele>
        <time>2018-05-26T14:33:06Z</time>
      </trkpt>
      <trkpt lat="43.89449" lon="6.53879">
        <ele>894</ele>
        <time>2018-05-26T14:33:15Z</time>
      </trkpt>
      <trkpt lat="43.89445" lon="6.53875">
        <ele>895</ele>
        <time>2018-05-26T14:33:16Z</time>
      </trkpt>
      <trkpt lat="43.89441" lon="6.53871">
        <ele>895</ele>
        <time>2018-05-26T14:33:17Z</time>
      </trkpt>
      <trkpt lat="43.89395" lon="6.5381">
        <ele>900</ele>
        <time>2018-05-26T14:33:30Z</time>
      </trkpt>
      <trkpt lat="43.89392" lon="6.53805">
        <ele>899</ele>
        <time>2018-05-26T14:33:31Z</time>
      </trkpt>
      <trkpt lat="43.8939" lon="6.538">
        <ele>898</ele>
        <time>2018-05-26T14:33:32Z</time>
      </trkpt>
      <trkpt lat="43.89388" lon="6.53795">
        <ele>897</ele>
        <time>2018-05-26T14:33:33Z</time>
      </trkpt>
      <trkpt lat="43.89386" lon="6.53791">
        <ele>895</ele>
        <time>2018-05-26T14:33:34Z</time>
      </trkpt>
      <trkpt lat="43.89384" lon="6.53786">
        <ele>895</ele>
        <time>2018-05-26T14:33:35Z</time>
      </trkpt>
      <trkpt lat="43.89382" lon="6.53782">
        <ele>895</ele>
        <time>2018-05-26T14:33:36Z</time>
      </trkpt>
      <trkpt lat="43.89374" lon="6.53769">
        <ele>897</ele>
        <time>2018-05-26T14:33:40Z</time>
      </trkpt>
      <trkpt lat="43.89372" lon="6.53768">
        <ele>898</ele>
        <time>2018-05-26T14:33:41Z</time>
      </trkpt>
      <trkpt lat="43.89371" lon="6.53774">
        <ele>902</ele>
        <time>2018-05-26T14:33:48Z</time>
      </trkpt>
      <trkpt lat="43.89371" lon="6.53775">
        <ele>903</ele>
        <time>2018-05-26T14:34:09Z</time>
      </trkpt>
      <trkpt lat="43.8937" lon="6.53774">
        <ele>903</ele>
        <time>2018-05-26T14:34:32Z</time>
      </trkpt>
      <trkpt lat="43.89373" lon="6.53774">
        <ele>900</ele>
        <time>2018-05-26T14:34:58Z</time>
      </trkpt>
      <trkpt lat="43.89372" lon="6.53774">
        <ele>901</ele>
        <time>2018-05-26T14:35:25Z</time>
      </trkpt>
      <trkpt lat="43.89372" lon="6.53774">
        <ele>901</ele>
        <time>2018-05-26T14:36:02Z</time>
      </trkpt>
      <trkpt lat="43.8937" lon="6.53775">
        <ele>903</ele>
        <time>2018-05-26T14:36:29Z</time>
      </trkpt>
      <trkpt lat="43.89369" lon="6.53777">
        <ele>905</ele>
        <time>2018-05-26T14:36:57Z</time>
      </trkpt>
      <trkpt lat="43.8937" lon="6.53778">
        <ele>904</ele>
        <time>2018-05-26T14:37:21Z</time>
      </trkpt>
      <trkpt lat="43.89371" lon="6.53773">
        <ele>901</ele>
        <time>2018-05-26T14:37:36Z</time>
      </trkpt>
      <trkpt lat="43.89372" lon="6.53769">
        <ele>899</ele>
        <time>2018-05-26T14:37:43Z</time>
      </trkpt>
      <trkpt lat="43.89366" lon="6.53749">
        <ele>897</ele>
        <time>2018-05-26T14:37:54Z</time>
      </trkpt>
      <trkpt lat="43.89365" lon="6.53746">
        <ele>897</ele>
        <time>2018-05-26T14:37:55Z</time>
      </trkpt>
      <trkpt lat="43.89364" lon="6.53744">
        <ele>896</ele>
        <time>2018-05-26T14:37:56Z</time>
      </trkpt>
      <trkpt lat="43.89346" lon="6.53682">
        <ele>892</ele>
        <time>2018-05-26T14:38:11Z</time>
      </trkpt>
      <trkpt lat="43.89316" lon="6.53625">
        <ele>891</ele>
        <time>2018-05-26T14:38:25Z</time>
      </trkpt>
      <trkpt lat="43.8927" lon="6.5358">
        <ele>895</ele>
        <time>2018-05-26T14:38:39Z</time>
      </trkpt>
      <trkpt lat="43.89255" lon="6.53569">
        <ele>897</ele>
        <time>2018-05-26T14:38:43Z</time>
      </trkpt>
      <trkpt lat="43.89242" lon="6.53563">
        <ele>903</ele>
        <time>2018-05-26T14:38:46Z</time>
      </trkpt>
      <trkpt lat="43.89237" lon="6.53561">
        <ele>905</ele>
        <time>2018-05-26T14:38:47Z</time>
      </trkpt>
      <trkpt lat="43.89223" lon="6.53559">
        <ele>914</ele>
        <time>2018-05-26T14:38:50Z</time>
      </trkpt>
      <trkpt lat="43.89219" lon="6.5356">
        <ele>918</ele>
        <time>2018-05-26T14:38:51Z</time>
      </trkpt>
      <trkpt lat="43.8912" lon="6.53583">
        <ele>902</ele>
        <time>2018-05-26T14:39:14Z</time>
      </trkpt>
      <trkpt lat="43.89104" lon="6.53589">
        <ele>895</ele>
        <time>2018-05-26T14:39:15Z</time>
      </trkpt>
      <trkpt lat="43.89108" lon="6.5359">
        <ele>897</ele>
        <time>2018-05-26T14:39:16Z</time>
      </trkpt>
      <trkpt lat="43.89108" lon="6.53594">
        <ele>899</ele>
        <time>2018-05-26T14:39:17Z</time>
      </trkpt>
      <trkpt lat="43.89106" lon="6.536">
        <ele>899</ele>
        <time>2018-05-26T14:39:18Z</time>
      </trkpt>
      <trkpt lat="43.89083" lon="6.53646">
        <ele>896</ele>
        <time>2018-05-26T14:39:31Z</time>
      </trkpt>
      <trkpt lat="43.89065" lon="6.5368">
        <ele>894</ele>
        <time>2018-05-26T14:39:42Z</time>
      </trkpt>
      <trkpt lat="43.89051" lon="6.53741">
        <ele>898</ele>
        <time>2018-05-26T14:39:55Z</time>
      </trkpt>
      <trkpt lat="43.89025" lon="6.53791">
        <ele>898</ele>
        <time>2018-05-26T14:40:07Z</time>
      </trkpt>
      <trkpt lat="43.89022" lon="6.53794">
        <ele>898</ele>
        <time>2018-05-26T14:40:08Z</time>
      </trkpt>
      <trkpt lat="43.89018" lon="6.53796">
        <ele>899</ele>
        <time>2018-05-26T14:40:09Z</time>
      </trkpt>
      <trkpt lat="43.89014" lon="6.53798">
        <ele>899</ele>
        <time>2018-05-26T14:40:10Z</time>
      </trkpt>
      <trkpt lat="43.8901" lon="6.53799">
        <ele>899</ele>
        <time>2018-05-26T14:40:11Z</time>
      </trkpt>
      <trkpt lat="43.89006" lon="6.53799">
        <ele>898</ele>
        <time>2018-05-26T14:40:12Z</time>
      </trkpt>
      <trkpt lat="43.89001" lon="6.53799">
        <ele>898</ele>
        <time>2018-05-26T14:40:13Z</time>
      </trkpt>
      <trkpt lat="43.88993" lon="6.53798">
        <ele>897</ele>
        <time>2018-05-26T14:40:15Z</time>
      </trkpt>
      <trkpt lat="43.88966" lon="6.53794">
        <ele>893</ele>
        <time>2018-05-26T14:40:22Z</time>
      </trkpt>
      <trkpt lat="43.88895" lon="6.53802">
        <ele>892</ele>
        <time>2018-05-26T14:40:40Z</time>
      </trkpt>
      <trkpt lat="43.88888" lon="6.53803">
        <ele>892</ele>
        <time>2018-05-26T14:40:42Z</time>
      </trkpt>
      <trkpt lat="43.88855" lon="6.53807">
        <ele>889</ele>
        <time>2018-05-26T14:40:50Z</time>
      </trkpt>
      <trkpt lat="43.88851" lon="6.53809">
        <ele>889</ele>
        <time>2018-05-26T14:40:51Z</time>
      </trkpt>
      <trkpt lat="43.88847" lon="6.53812">
        <ele>889</ele>
        <time>2018-05-26T14:40:52Z</time>
      </trkpt>
      <trkpt lat="43.88843" lon="6.53816">
        <ele>890</ele>
        <time>2018-05-26T14:40:53Z</time>
      </trkpt>
      <trkpt lat="43.8884" lon="6.5382">
        <ele>891</ele>
        <time>2018-05-26T14:40:54Z</time>
      </trkpt>
      <trkpt lat="43.88825" lon="6.53837">
        <ele>896</ele>
        <time>2018-05-26T14:40:58Z</time>
      </trkpt>
      <trkpt lat="43.8882" lon="6.5384">
        <ele>896</ele>
        <time>2018-05-26T14:40:59Z</time>
      </trkpt>
      <trkpt lat="43.88814" lon="6.53842">
        <ele>897</ele>
        <time>2018-05-26T14:41:00Z</time>
      </trkpt>
      <trkpt lat="43.88809" lon="6.53843">
        <ele>897</ele>
        <time>2018-05-26T14:41:01Z</time>
      </trkpt>
      <trkpt lat="43.88803" lon="6.53843">
        <ele>896</ele>
        <time>2018-05-26T14:41:02Z</time>
      </trkpt>
      <trkpt lat="43.88798" lon="6.53841">
        <ele>895</ele>
        <time>2018-05-26T14:41:03Z</time>
      </trkpt>
      <trkpt lat="43.88794" lon="6.53837">
        <ele>897</ele>
        <time>2018-05-26T14:41:04Z</time>
      </trkpt>
      <trkpt lat="43.88791" lon="6.53831">
        <ele>898</ele>
        <time>2018-05-26T14:41:05Z</time>
      </trkpt>
      <trkpt lat="43.88787" lon="6.53824">
        <ele>898</ele>
        <time>2018-05-26T14:41:06Z</time>
      </trkpt>
      <trkpt lat="43.88785" lon="6.53818">
        <ele>897</ele>
        <time>2018-05-26T14:41:07Z</time>
      </trkpt>
      <trkpt lat="43.88784" lon="6.53811">
        <ele>897</ele>
        <time>2018-05-26T14:41:08Z</time>
      </trkpt>
      <trkpt lat="43.88782" lon="6.53805">
        <ele>897</ele>
        <time>2018-05-26T14:41:09Z</time>
      </trkpt>
      <trkpt lat="43.88779" lon="6.53793">
        <ele>896</ele>
        <time>2018-05-26T14:41:11Z</time>
      </trkpt>
      <trkpt lat="43.88778" lon="6.53787">
        <ele>896</ele>
        <time>2018-05-26T14:41:12Z</time>
      </trkpt>
      <trkpt lat="43.88777" lon="6.53782">
        <ele>896</ele>
        <time>2018-05-26T14:41:13Z</time>
      </trkpt>
      <trkpt lat="43.88758" lon="6.53715">
        <ele>888</ele>
        <time>2018-05-26T14:41:26Z</time>
      </trkpt>
      <trkpt lat="43.88755" lon="6.5371">
        <ele>888</ele>
        <time>2018-05-26T14:41:27Z</time>
      </trkpt>
      <trkpt lat="43.88753" lon="6.53706">
        <ele>887</ele>
        <time>2018-05-26T14:41:28Z</time>
      </trkpt>
      <trkpt lat="43.8875" lon="6.53702">
        <ele>887</ele>
        <time>2018-05-26T14:41:29Z</time>
      </trkpt>
      <trkpt lat="43.88746" lon="6.53699">
        <ele>887</ele>
        <time>2018-05-26T14:41:30Z</time>
      </trkpt>
      <trkpt lat="43.88743" lon="6.53697">
        <ele>886</ele>
        <time>2018-05-26T14:41:31Z</time>
      </trkpt>
      <trkpt lat="43.88739" lon="6.53695">
        <ele>887</ele>
        <time>2018-05-26T14:41:32Z</time>
      </trkpt>
      <trkpt lat="43.88735" lon="6.53694">
        <ele>887</ele>
        <time>2018-05-26T14:41:33Z</time>
      </trkpt>
      <trkpt lat="43.88731" lon="6.53693">
        <ele>887</ele>
        <time>2018-05-26T14:41:34Z</time>
      </trkpt>
      <trkpt lat="43.88728" lon="6.53692">
        <ele>888</ele>
        <time>2018-05-26T14:41:35Z</time>
      </trkpt>
      <trkpt lat="43.88699" lon="6.53698">
        <ele>892</ele>
        <time>2018-05-26T14:41:42Z</time>
      </trkpt>
      <trkpt lat="43.88695" lon="6.537">
        <ele>893</ele>
        <time>2018-05-26T14:41:43Z</time>
      </trkpt>
      <trkpt lat="43.88679" lon="6.53707">
        <ele>895</ele>
        <time>2018-05-26T14:41:47Z</time>
      </trkpt>
      <trkpt lat="43.88609" lon="6.53723">
        <ele>891</ele>
        <time>2018-05-26T14:42:03Z</time>
      </trkpt>
      <trkpt lat="43.88591" lon="6.53728">
        <ele>888</ele>
        <time>2018-05-26T14:42:07Z</time>
      </trkpt>
      <trkpt lat="43.88587" lon="6.53731">
        <ele>888</ele>
        <time>2018-05-26T14:42:08Z</time>
      </trkpt>
      <trkpt lat="43.88572" lon="6.53743">
        <ele>890</ele>
        <time>2018-05-26T14:42:12Z</time>
      </trkpt>
      <trkpt lat="43.88532" lon="6.53786">
        <ele>894</ele>
        <time>2018-05-26T14:42:23Z</time>
      </trkpt>
      <trkpt lat="43.88529" lon="6.5379">
        <ele>893</ele>
        <time>2018-05-26T14:42:24Z</time>
      </trkpt>
      <trkpt lat="43.88526" lon="6.53794">
        <ele>894</ele>
        <time>2018-05-26T14:42:25Z</time>
      </trkpt>
      <trkpt lat="43.88489" lon="6.53849">
        <ele>897</ele>
        <time>2018-05-26T14:42:40Z</time>
      </trkpt>
      <trkpt lat="43.88464" lon="6.53895">
        <ele>899</ele>
        <time>2018-05-26T14:42:50Z</time>
      </trkpt>
      <trkpt lat="43.88442" lon="6.53956">
        <ele>901</ele>
        <time>2018-05-26T14:43:01Z</time>
      </trkpt>
      <trkpt lat="43.88429" lon="6.53974">
        <ele>900</ele>
        <time>2018-05-26T14:43:05Z</time>
      </trkpt>
      <trkpt lat="43.88425" lon="6.53978">
        <ele>900</ele>
        <time>2018-05-26T14:43:06Z</time>
      </trkpt>
      <trkpt lat="43.88421" lon="6.53981">
        <ele>900</ele>
        <time>2018-05-26T14:43:07Z</time>
      </trkpt>
      <trkpt lat="43.88417" lon="6.53983">
        <ele>899</ele>
        <time>2018-05-26T14:43:08Z</time>
      </trkpt>
      <trkpt lat="43.88412" lon="6.53984">
        <ele>898</ele>
        <time>2018-05-26T14:43:09Z</time>
      </trkpt>
      <trkpt lat="43.88407" lon="6.53985">
        <ele>896</ele>
        <time>2018-05-26T14:43:10Z</time>
      </trkpt>
      <trkpt lat="43.88385" lon="6.5399">
        <ele>890</ele>
        <time>2018-05-26T14:43:15Z</time>
      </trkpt>
      <trkpt lat="43.88381" lon="6.53993">
        <ele>890</ele>
        <time>2018-05-26T14:43:16Z</time>
      </trkpt>
      <trkpt lat="43.88377" lon="6.53996">
        <ele>890</ele>
        <time>2018-05-26T14:43:17Z</time>
      </trkpt>
      <trkpt lat="43.88374" lon="6.54">
        <ele>890</ele>
        <time>2018-05-26T14:43:18Z</time>
      </trkpt>
      <trkpt lat="43.88371" lon="6.54005">
        <ele>890</ele>
        <time>2018-05-26T14:43:19Z</time>
      </trkpt>
      <trkpt lat="43.88368" lon="6.54009">
        <ele>890</ele>
        <time>2018-05-26T14:43:20Z</time>
      </trkpt>
      <trkpt lat="43.88366" lon="6.54015">
        <ele>890</ele>
        <time>2018-05-26T14:43:21Z</time>
      </trkpt>
      <trkpt lat="43.88355" lon="6.54042">
        <ele>893</ele>
        <time>2018-05-26T14:43:26Z</time>
      </trkpt>
      <trkpt lat="43.88352" lon="6.54047">
        <ele>893</ele>
        <time>2018-05-26T14:43:27Z</time>
      </trkpt>
      <trkpt lat="43.88348" lon="6.54051">
        <ele>892</ele>
        <time>2018-05-26T14:43:28Z</time>
      </trkpt>
      <trkpt lat="43.88344" lon="6.54053">
        <ele>891</ele>
        <time>2018-05-26T14:43:29Z</time>
      </trkpt>
      <trkpt lat="43.8834" lon="6.54055">
        <ele>890</ele>
        <time>2018-05-26T14:43:30Z</time>
      </trkpt>
      <trkpt lat="43.88335" lon="6.54056">
        <ele>890</ele>
        <time>2018-05-26T14:43:31Z</time>
      </trkpt>
      <trkpt lat="43.88331" lon="6.54056">
        <ele>891</ele>
        <time>2018-05-26T14:43:32Z</time>
      </trkpt>
      <trkpt lat="43.88327" lon="6.54056">
        <ele>891</ele>
        <time>2018-05-26T14:43:33Z</time>
      </trkpt>
      <trkpt lat="43.88323" lon="6.54054">
        <ele>892</ele>
        <time>2018-05-26T14:43:34Z</time>
      </trkpt>
      <trkpt lat="43.88319" lon="6.54053">
        <ele>892</ele>
        <time>2018-05-26T14:43:35Z</time>
      </trkpt>
      <trkpt lat="43.88253" lon="6.54028">
        <ele>891</ele>
        <time>2018-05-26T14:43:52Z</time>
      </trkpt>
      <trkpt lat="43.88238" lon="6.54037">
        <ele>890</ele>
        <time>2018-05-26T14:43:56Z</time>
      </trkpt>
      <trkpt lat="43.88235" lon="6.5404">
        <ele>891</ele>
        <time>2018-05-26T14:43:57Z</time>
      </trkpt>
      <trkpt lat="43.88174" lon="6.54096">
        <ele>889</ele>
        <time>2018-05-26T14:44:12Z</time>
      </trkpt>
      <trkpt lat="43.8817" lon="6.541">
        <ele>888</ele>
        <time>2018-05-26T14:44:13Z</time>
      </trkpt>
      <trkpt lat="43.88166" lon="6.54105">
        <ele>888</ele>
        <time>2018-05-26T14:44:14Z</time>
      </trkpt>
      <trkpt lat="43.88162" lon="6.54109">
        <ele>888</ele>
        <time>2018-05-26T14:44:15Z</time>
      </trkpt>
      <trkpt lat="43.88158" lon="6.54115">
        <ele>888</ele>
        <time>2018-05-26T14:44:16Z</time>
      </trkpt>
      <trkpt lat="43.88155" lon="6.5412">
        <ele>888</ele>
        <time>2018-05-26T14:44:17Z</time>
      </trkpt>
      <trkpt lat="43.88096" lon="6.54218">
        <ele>891</ele>
        <time>2018-05-26T14:44:35Z</time>
      </trkpt>
      <trkpt lat="43.88092" lon="6.54222">
        <ele>891</ele>
        <time>2018-05-26T14:44:36Z</time>
      </trkpt>
      <trkpt lat="43.88087" lon="6.54224">
        <ele>892</ele>
        <time>2018-05-26T14:44:37Z</time>
      </trkpt>
      <trkpt lat="43.88081" lon="6.54225">
        <ele>892</ele>
        <time>2018-05-26T14:44:38Z</time>
      </trkpt>
      <trkpt lat="43.88076" lon="6.54224">
        <ele>891</ele>
        <time>2018-05-26T14:44:39Z</time>
      </trkpt>
      <trkpt lat="43.88071" lon="6.54221">
        <ele>890</ele>
        <time>2018-05-26T14:44:40Z</time>
      </trkpt>
      <trkpt lat="43.88067" lon="6.54217">
        <ele>889</ele>
        <time>2018-05-26T14:44:41Z</time>
      </trkpt>
      <trkpt lat="43.88063" lon="6.54211">
        <ele>888</ele>
        <time>2018-05-26T14:44:42Z</time>
      </trkpt>
      <trkpt lat="43.88061" lon="6.54204">
        <ele>887</ele>
        <time>2018-05-26T14:44:43Z</time>
      </trkpt>
      <trkpt lat="43.8806" lon="6.54198">
        <ele>886</ele>
        <time>2018-05-26T14:44:44Z</time>
      </trkpt>
      <trkpt lat="43.88058" lon="6.54192">
        <ele>885</ele>
        <time>2018-05-26T14:44:45Z</time>
      </trkpt>
      <trkpt lat="43.88056" lon="6.54179">
        <ele>885</ele>
        <time>2018-05-26T14:44:47Z</time>
      </trkpt>
      <trkpt lat="43.88056" lon="6.54173">
        <ele>884</ele>
        <time>2018-05-26T14:44:48Z</time>
      </trkpt>
      <trkpt lat="43.88045" lon="6.54106">
        <ele>882</ele>
        <time>2018-05-26T14:45:01Z</time>
      </trkpt>
      <trkpt lat="43.88005" lon="6.5407">
        <ele>883</ele>
        <time>2018-05-26T14:45:14Z</time>
      </trkpt>
      <trkpt lat="43.88001" lon="6.54069">
        <ele>883</ele>
        <time>2018-05-26T14:45:15Z</time>
      </trkpt>
      <trkpt lat="43.87997" lon="6.54069">
        <ele>884</ele>
        <time>2018-05-26T14:45:16Z</time>
      </trkpt>
      <trkpt lat="43.87984" lon="6.54069">
        <ele>884</ele>
        <time>2018-05-26T14:45:19Z</time>
      </trkpt>
      <trkpt lat="43.8798" lon="6.5407">
        <ele>884</ele>
        <time>2018-05-26T14:45:20Z</time>
      </trkpt>
      <trkpt lat="43.87975" lon="6.54072">
        <ele>884</ele>
        <time>2018-05-26T14:45:21Z</time>
      </trkpt>
      <trkpt lat="43.87971" lon="6.54074">
        <ele>884</ele>
        <time>2018-05-26T14:45:22Z</time>
      </trkpt>
      <trkpt lat="43.87968" lon="6.54077">
        <ele>884</ele>
        <time>2018-05-26T14:45:23Z</time>
      </trkpt>
      <trkpt lat="43.87949" lon="6.54096">
        <ele>884</ele>
        <time>2018-05-26T14:45:28Z</time>
      </trkpt>
      <trkpt lat="43.87894" lon="6.54159">
        <ele>885</ele>
        <time>2018-05-26T14:45:43Z</time>
      </trkpt>
      <trkpt lat="43.87856" lon="6.54208">
        <ele>887</ele>
        <time>2018-05-26T14:45:54Z</time>
      </trkpt>
      <trkpt lat="43.87852" lon="6.54212">
        <ele>887</ele>
        <time>2018-05-26T14:45:55Z</time>
      </trkpt>
      <trkpt lat="43.87847" lon="6.54214">
        <ele>886</ele>
        <time>2018-05-26T14:45:56Z</time>
      </trkpt>
      <trkpt lat="43.87841" lon="6.54214">
        <ele>885</ele>
        <time>2018-05-26T14:45:57Z</time>
      </trkpt>
      <trkpt lat="43.87836" lon="6.54212">
        <ele>887</ele>
        <time>2018-05-26T14:45:58Z</time>
      </trkpt>
      <trkpt lat="43.87831" lon="6.54207">
        <ele>889</ele>
        <time>2018-05-26T14:45:59Z</time>
      </trkpt>
      <trkpt lat="43.87828" lon="6.54201">
        <ele>890</ele>
        <time>2018-05-26T14:46:00Z</time>
      </trkpt>
      <trkpt lat="43.87826" lon="6.54193">
        <ele>891</ele>
        <time>2018-05-26T14:46:01Z</time>
      </trkpt>
      <trkpt lat="43.87826" lon="6.54186">
        <ele>890</ele>
        <time>2018-05-26T14:46:02Z</time>
      </trkpt>
      <trkpt lat="43.87828" lon="6.54178">
        <ele>889</ele>
        <time>2018-05-26T14:46:03Z</time>
      </trkpt>
      <trkpt lat="43.87829" lon="6.54171">
        <ele>888</ele>
        <time>2018-05-26T14:46:04Z</time>
      </trkpt>
      <trkpt lat="43.87851" lon="6.54085">
        <ele>885</ele>
        <time>2018-05-26T14:46:16Z</time>
      </trkpt>
      <trkpt lat="43.87855" lon="6.53976">
        <ele>885</ele>
        <time>2018-05-26T14:46:30Z</time>
      </trkpt>
      <trkpt lat="43.87854" lon="6.53969">
        <ele>885</ele>
        <time>2018-05-26T14:46:31Z</time>
      </trkpt>
      <trkpt lat="43.87851" lon="6.53963">
        <ele>885</ele>
        <time>2018-05-26T14:46:32Z</time>
      </trkpt>
      <trkpt lat="43.87816" lon="6.53901">
        <ele>889</ele>
        <time>2018-05-26T14:46:44Z</time>
      </trkpt>
      <trkpt lat="43.87815" lon="6.53896">
        <ele>889</ele>
        <time>2018-05-26T14:46:45Z</time>
      </trkpt>
      <trkpt lat="43.87815" lon="6.53893">
        <ele>888</ele>
        <time>2018-05-26T14:46:46Z</time>
      </trkpt>
      <trkpt lat="43.87816" lon="6.53892">
        <ele>888</ele>
        <time>2018-05-26T14:46:47Z</time>
      </trkpt>
      <trkpt lat="43.87823" lon="6.5389">
        <ele>886</ele>
        <time>2018-05-26T14:46:56Z</time>
      </trkpt>
      <trkpt lat="43.87823" lon="6.5389">
        <ele>886</ele>
        <time>2018-05-26T14:47:03Z</time>
      </trkpt>
      <trkpt lat="43.87813" lon="6.53886">
        <ele>888</ele>
        <time>2018-05-26T14:47:09Z</time>
      </trkpt>
      <trkpt lat="43.87811" lon="6.53883">
        <ele>888</ele>
        <time>2018-05-26T14:47:10Z</time>
      </trkpt>
      <trkpt lat="43.87811" lon="6.53881">
        <ele>888</ele>
        <time>2018-05-26T14:47:11Z</time>
      </trkpt>
      <trkpt lat="43.8781" lon="6.53878">
        <ele>887</ele>
        <time>2018-05-26T14:47:12Z</time>
      </trkpt>
      <trkpt lat="43.8781" lon="6.53875">
        <ele>887</ele>
        <time>2018-05-26T14:47:13Z</time>
      </trkpt>
      <trkpt lat="43.8781" lon="6.53871">
        <ele>887</ele>
        <time>2018-05-26T14:47:14Z</time>
      </trkpt>
      <trkpt lat="43.87809" lon="6.53867">
        <ele>886</ele>
        <time>2018-05-26T14:47:15Z</time>
      </trkpt>
      <trkpt lat="43.87809" lon="6.53863">
        <ele>886</ele>
        <time>2018-05-26T14:47:16Z</time>
      </trkpt>
      <trkpt lat="43.8781" lon="6.53859">
        <ele>884</ele>
        <time>2018-05-26T14:47:17Z</time>
      </trkpt>
      <trkpt lat="43.87812" lon="6.53855">
        <ele>881</ele>
        <time>2018-05-26T14:47:18Z</time>
      </trkpt>
      <trkpt lat="43.87813" lon="6.53851">
        <ele>879</ele>
        <time>2018-05-26T14:47:19Z</time>
      </trkpt>
      <trkpt lat="43.87815" lon="6.53847">
        <ele>877</ele>
        <time>2018-05-26T14:47:20Z</time>
      </trkpt>
      <trkpt lat="43.87817" lon="6.53844">
        <ele>875</ele>
        <time>2018-05-26T14:47:21Z</time>
      </trkpt>
      <trkpt lat="43.87819" lon="6.5384">
        <ele>873</ele>
        <time>2018-05-26T14:47:22Z</time>
      </trkpt>
      <trkpt lat="43.87822" lon="6.53837">
        <ele>871</ele>
        <time>2018-05-26T14:47:23Z</time>
      </trkpt>
      <trkpt lat="43.87851" lon="6.53787">
        <ele>864</ele>
        <time>2018-05-26T14:47:38Z</time>
      </trkpt>
      <trkpt lat="43.87853" lon="6.53726">
        <ele>859</ele>
        <time>2018-05-26T14:47:53Z</time>
      </trkpt>
      <trkpt lat="43.87834" lon="6.53687">
        <ele>867</ele>
        <time>2018-05-26T14:48:06Z</time>
      </trkpt>
      <trkpt lat="43.87816" lon="6.53679">
        <ele>868</ele>
        <time>2018-05-26T14:48:15Z</time>
      </trkpt>
      <trkpt lat="43.87809" lon="6.53675">
        <ele>872</ele>
        <time>2018-05-26T14:48:31Z</time>
      </trkpt>
      <trkpt lat="43.878" lon="6.53672">
        <ele>875</ele>
        <time>2018-05-26T14:48:36Z</time>
      </trkpt>
      <trkpt lat="43.87773" lon="6.53676">
        <ele>880</ele>
        <time>2018-05-26T14:48:48Z</time>
      </trkpt>
      <trkpt lat="43.87777" lon="6.53678">
        <ele>878</ele>
        <time>2018-05-26T14:48:58Z</time>
      </trkpt>
      <trkpt lat="43.87778" lon="6.53682">
        <ele>874</ele>
        <time>2018-05-26T14:49:36Z</time>
      </trkpt>
      <trkpt lat="43.87776" lon="6.53682">
        <ele>874</ele>
        <time>2018-05-26T14:50:16Z</time>
      </trkpt>
      <trkpt lat="43.87777" lon="6.53682">
        <ele>873</ele>
        <time>2018-05-26T14:50:51Z</time>
      </trkpt>
      <trkpt lat="43.87778" lon="6.53681">
        <ele>875</ele>
        <time>2018-05-26T14:51:34Z</time>
      </trkpt>
      <trkpt lat="43.87778" lon="6.53678">
        <ele>877</ele>
        <time>2018-05-26T14:52:04Z</time>
      </trkpt>
      <trkpt lat="43.87776" lon="6.5368">
        <ele>876</ele>
        <time>2018-05-26T14:52:35Z</time>
      </trkpt>
      <trkpt lat="43.87777" lon="6.53679">
        <ele>877</ele>
        <time>2018-05-26T14:53:10Z</time>
      </trkpt>
      <trkpt lat="43.87776" lon="6.53678">
        <ele>878</ele>
        <time>2018-05-26T14:53:43Z</time>
      </trkpt>
      <trkpt lat="43.87775" lon="6.53678">
        <ele>878</ele>
        <time>2018-05-26T14:53:58Z</time>
      </trkpt>
      <trkpt lat="43.87777" lon="6.53678">
        <ele>877</ele>
        <time>2018-05-26T14:54:17Z</time>
      </trkpt>
      <trkpt lat="43.87777" lon="6.5368">
        <ele>875</ele>
        <time>2018-05-26T14:54:49Z</time>
      </trkpt>
      <trkpt lat="43.87776" lon="6.53681">
        <ele>875</ele>
        <time>2018-05-26T14:55:25Z</time>
      </trkpt>
      <trkpt lat="43.87779" lon="6.53679">
        <ele>876</ele>
        <time>2018-05-26T14:56:02Z</time>
      </trkpt>
      <trkpt lat="43.87778" lon="6.53679">
        <ele>876</ele>
        <time>2018-05-26T14:56:40Z</time>
      </trkpt>
      <trkpt lat="43.87777" lon="6.53676">
        <ele>879</ele>
        <time>2018-05-26T14:57:04Z</time>
      </trkpt>
      <trkpt lat="43.87776" lon="6.5367">
        <ele>883</ele>
        <time>2018-05-26T14:57:07Z</time>
      </trkpt>
      <trkpt lat="43.87775" lon="6.53668">
        <ele>883</ele>
        <time>2018-05-26T14:57:08Z</time>
      </trkpt>
      <trkpt lat="43.87774" lon="6.53666">
        <ele>883</ele>
        <time>2018-05-26T14:57:09Z</time>
      </trkpt>
      <trkpt lat="43.87773" lon="6.53663">
        <ele>883</ele>
        <time>2018-05-26T14:57:10Z</time>
      </trkpt>
      <trkpt lat="43.87771" lon="6.5366">
        <ele>883</ele>
        <time>2018-05-26T14:57:11Z</time>
      </trkpt>
      <trkpt lat="43.8777" lon="6.53657">
        <ele>883</ele>
        <time>2018-05-26T14:57:12Z</time>
      </trkpt>
      <trkpt lat="43.8777" lon="6.53653">
        <ele>883</ele>
        <time>2018-05-26T14:57:13Z</time>
      </trkpt>
      <trkpt lat="43.87769" lon="6.53649">
        <ele>882</ele>
        <time>2018-05-26T14:57:14Z</time>
      </trkpt>
      <trkpt lat="43.87768" lon="6.53646">
        <ele>882</ele>
        <time>2018-05-26T14:57:15Z</time>
      </trkpt>
      <trkpt lat="43.87767" lon="6.53643">
        <ele>882</ele>
        <time>2018-05-26T14:57:16Z</time>
      </trkpt>
      <trkpt lat="43.87765" lon="6.5364">
        <ele>882</ele>
        <time>2018-05-26T14:57:17Z</time>
      </trkpt>
      <trkpt lat="43.87731" lon="6.53594">
        <ele>888</ele>
        <time>2018-05-26T14:57:31Z</time>
      </trkpt>
      <trkpt lat="43.87697" lon="6.53525">
        <ele>888</ele>
        <time>2018-05-26T14:57:48Z</time>
      </trkpt>
      <trkpt lat="43.87687" lon="6.53435">
        <ele>882</ele>
        <time>2018-05-26T14:58:03Z</time>
      </trkpt>
      <trkpt lat="43.87664" lon="6.5335">
        <ele>884</ele>
        <time>2018-05-26T14:58:18Z</time>
      </trkpt>
      <trkpt lat="43.8766" lon="6.53334">
        <ele>884</ele>
        <time>2018-05-26T14:58:21Z</time>
      </trkpt>
      <trkpt lat="43.87643" lon="6.53294">
        <ele>883</ele>
        <time>2018-05-26T14:58:29Z</time>
      </trkpt>
      <trkpt lat="43.87639" lon="6.53289">
        <ele>884</ele>
        <time>2018-05-26T14:58:30Z</time>
      </trkpt>
      <trkpt lat="43.87636" lon="6.53285">
        <ele>884</ele>
        <time>2018-05-26T14:58:31Z</time>
      </trkpt>
      <trkpt lat="43.87632" lon="6.53282">
        <ele>885</ele>
        <time>2018-05-26T14:58:32Z</time>
      </trkpt>
      <trkpt lat="43.87627" lon="6.53279">
        <ele>885</ele>
        <time>2018-05-26T14:58:33Z</time>
      </trkpt>
      <trkpt lat="43.87622" lon="6.53276">
        <ele>886</ele>
        <time>2018-05-26T14:58:34Z</time>
      </trkpt>
      <trkpt lat="43.87588" lon="6.53256">
        <ele>891</ele>
        <time>2018-05-26T14:58:41Z</time>
      </trkpt>
      <trkpt lat="43.87584" lon="6.53252">
        <ele>892</ele>
        <time>2018-05-26T14:58:42Z</time>
      </trkpt>
      <trkpt lat="43.87581" lon="6.53246">
        <ele>892</ele>
        <time>2018-05-26T14:58:43Z</time>
      </trkpt>
      <trkpt lat="43.87579" lon="6.5324">
        <ele>891</ele>
        <time>2018-05-26T14:58:44Z</time>
      </trkpt>
      <trkpt lat="43.87578" lon="6.53233">
        <ele>889</ele>
        <time>2018-05-26T14:58:45Z</time>
      </trkpt>
      <trkpt lat="43.87579" lon="6.53226">
        <ele>887</ele>
        <time>2018-05-26T14:58:46Z</time>
      </trkpt>
      <trkpt lat="43.8758" lon="6.53219">
        <ele>886</ele>
        <time>2018-05-26T14:58:47Z</time>
      </trkpt>
      <trkpt lat="43.87582" lon="6.53213">
        <ele>886</ele>
        <time>2018-05-26T14:58:48Z</time>
      </trkpt>
      <trkpt lat="43.8759" lon="6.53181">
        <ele>886</ele>
        <time>2018-05-26T14:58:53Z</time>
      </trkpt>
      <trkpt lat="43.87591" lon="6.53175">
        <ele>886</ele>
        <time>2018-05-26T14:58:54Z</time>
      </trkpt>
      <trkpt lat="43.87592" lon="6.53162">
        <ele>887</ele>
        <time>2018-05-26T14:58:56Z</time>
      </trkpt>
      <trkpt lat="43.87591" lon="6.53156">
        <ele>887</ele>
        <time>2018-05-26T14:58:57Z</time>
      </trkpt>
      <trkpt lat="43.87587" lon="6.53137">
        <ele>886</ele>
        <time>2018-05-26T14:59:00Z</time>
      </trkpt>
      <trkpt lat="43.87586" lon="6.53131">
        <ele>885</ele>
        <time>2018-05-26T14:59:01Z</time>
      </trkpt>
      <trkpt lat="43.87583" lon="6.53125">
        <ele>885</ele>
        <time>2018-05-26T14:59:02Z</time>
      </trkpt>
      <trkpt lat="43.87537" lon="6.53029">
        <ele>885</ele>
        <time>2018-05-26T14:59:20Z</time>
      </trkpt>
      <trkpt lat="43.87534" lon="6.53024">
        <ele>886</ele>
        <time>2018-05-26T14:59:21Z</time>
      </trkpt>
      <trkpt lat="43.87532" lon="6.53017">
        <ele>886</ele>
        <time>2018-05-26T14:59:22Z</time>
      </trkpt>
      <trkpt lat="43.87531" lon="6.53011">
        <ele>887</ele>
        <time>2018-05-26T14:59:23Z</time>
      </trkpt>
      <trkpt lat="43.8753" lon="6.53004">
        <ele>887</ele>
        <time>2018-05-26T14:59:24Z</time>
      </trkpt>
      <trkpt lat="43.8753" lon="6.52997">
        <ele>887</ele>
        <time>2018-05-26T14:59:25Z</time>
      </trkpt>
      <trkpt lat="43.8753" lon="6.52991">
        <ele>887</ele>
        <time>2018-05-26T14:59:26Z</time>
      </trkpt>
      <trkpt lat="43.87531" lon="6.52984">
        <ele>886</ele>
        <time>2018-05-26T14:59:27Z</time>
      </trkpt>
      <trkpt lat="43.87532" lon="6.52978">
        <ele>886</ele>
        <time>2018-05-26T14:59:28Z</time>
      </trkpt>
      <trkpt lat="43.87536" lon="6.52948">
        <ele>884</ele>
        <time>2018-05-26T14:59:33Z</time>
      </trkpt>
      <trkpt lat="43.87536" lon="6.52942">
        <ele>883</ele>
        <time>2018-05-26T14:59:34Z</time>
      </trkpt>
      <trkpt lat="43.87536" lon="6.52935">
        <ele>883</ele>
        <time>2018-05-26T14:59:35Z</time>
      </trkpt>
      <trkpt lat="43.87536" lon="6.52929">
        <ele>883</ele>
        <time>2018-05-26T14:59:36Z</time>
      </trkpt>
      <trkpt lat="43.87535" lon="6.52923">
        <ele>883</ele>
        <time>2018-05-26T14:59:37Z</time>
      </trkpt>
      <trkpt lat="43.87511" lon="6.52843">
        <ele>889</ele>
        <time>2018-05-26T14:59:51Z</time>
      </trkpt>
      <trkpt lat="43.87486" lon="6.52737">
        <ele>888</ele>
        <time>2018-05-26T15:00:08Z</time>
      </trkpt>
      <trkpt lat="43.87486" lon="6.5273">
        <ele>888</ele>
        <time>2018-05-26T15:00:09Z</time>
      </trkpt>
      <trkpt lat="43.87475" lon="6.52629">
        <ele>887</ele>
        <time>2018-05-26T15:00:25Z</time>
      </trkpt>
      <trkpt lat="43.87448" lon="6.52539">
        <ele>884</ele>
        <time>2018-05-26T15:00:40Z</time>
      </trkpt>
      <trkpt lat="43.87417" lon="6.52444">
        <ele>886</ele>
        <time>2018-05-26T15:00:55Z</time>
      </trkpt>
      <trkpt lat="43.87397" lon="6.52338">
        <ele>889</ele>
        <time>2018-05-26T15:01:11Z</time>
      </trkpt>
      <trkpt lat="43.87392" lon="6.52292">
        <ele>889</ele>
        <time>2018-05-26T15:01:18Z</time>
      </trkpt>
      <trkpt lat="43.87383" lon="6.52235">
        <ele>888</ele>
        <time>2018-05-26T15:01:27Z</time>
      </trkpt>
      <trkpt lat="43.8738" lon="6.52121">
        <ele>885</ele>
        <time>2018-05-26T15:01:43Z</time>
      </trkpt>
      <trkpt lat="43.87386" lon="6.52064">
        <ele>883</ele>
        <time>2018-05-26T15:01:52Z</time>
      </trkpt>
      <trkpt lat="43.87388" lon="6.52044">
        <ele>883</ele>
        <time>2018-05-26T15:01:55Z</time>
      </trkpt>
      <trkpt lat="43.87389" lon="6.51922">
        <ele>882</ele>
        <time>2018-05-26T15:02:13Z</time>
      </trkpt>
      <trkpt lat="43.87384" lon="6.51814">
        <ele>884</ele>
        <time>2018-05-26T15:02:29Z</time>
      </trkpt>
      <trkpt lat="43.87379" lon="6.51735">
        <ele>887</ele>
        <time>2018-05-26T15:02:44Z</time>
      </trkpt>
      <trkpt lat="43.87378" lon="6.51718">
        <ele>888</ele>
        <time>2018-05-26T15:02:47Z</time>
      </trkpt>
      <trkpt lat="43.87378" lon="6.51713">
        <ele>888</ele>
        <time>2018-05-26T15:02:48Z</time>
      </trkpt>
      <trkpt lat="43.87373" lon="6.51637">
        <ele>894</ele>
        <time>2018-05-26T15:03:03Z</time>
      </trkpt>
      <trkpt lat="43.87369" lon="6.51552">
        <ele>893</ele>
        <time>2018-05-26T15:03:20Z</time>
      </trkpt>
      <trkpt lat="43.87361" lon="6.5146">
        <ele>892</ele>
        <time>2018-05-26T15:03:39Z</time>
      </trkpt>
      <trkpt lat="43.87325" lon="6.51397">
        <ele>897</ele>
        <time>2018-05-26T15:03:55Z</time>
      </trkpt>
      <trkpt lat="43.87277" lon="6.5135">
        <ele>899</ele>
        <time>2018-05-26T15:04:10Z</time>
      </trkpt>
      <trkpt lat="43.87223" lon="6.51297">
        <ele>898</ele>
        <time>2018-05-26T15:04:27Z</time>
      </trkpt>
      <trkpt lat="43.87167" lon="6.51257">
        <ele>898</ele>
        <time>2018-05-26T15:04:43Z</time>
      </trkpt>
      <trkpt lat="43.87106" lon="6.51224">
        <ele>902</ele>
        <time>2018-05-26T15:05:00Z</time>
      </trkpt>
      <trkpt lat="43.87038" lon="6.51158">
        <ele>897</ele>
        <time>2018-05-26T15:05:21Z</time>
      </trkpt>
      <trkpt lat="43.87015" lon="6.51134">
        <ele>896</ele>
        <time>2018-05-26T15:05:27Z</time>
      </trkpt>
      <trkpt lat="43.86969" lon="6.51091">
        <ele>892</ele>
        <time>2018-05-26T15:05:37Z</time>
      </trkpt>
      <trkpt lat="43.86957" lon="6.51077">
        <ele>890</ele>
        <time>2018-05-26T15:05:41Z</time>
      </trkpt>
      <trkpt lat="43.86953" lon="6.51076">
        <ele>889</ele>
        <time>2018-05-26T15:05:42Z</time>
      </trkpt>
      <trkpt lat="43.86951" lon="6.51076">
        <ele>889</ele>
        <time>2018-05-26T15:05:43Z</time>
      </trkpt>
      <trkpt lat="43.86949" lon="6.51076">
        <ele>888</ele>
        <time>2018-05-26T15:05:44Z</time>
      </trkpt>
      <trkpt lat="43.86948" lon="6.51075">
        <ele>888</ele>
        <time>2018-05-26T15:05:45Z</time>
      </trkpt>
      <trkpt lat="43.86947" lon="6.51075">
        <ele>888</ele>
        <time>2018-05-26T15:05:46Z</time>
      </trkpt>
      <trkpt lat="43.86945" lon="6.51074">
        <ele>887</ele>
        <time>2018-05-26T15:05:48Z</time>
      </trkpt>
      <trkpt lat="43.86944" lon="6.51075">
        <ele>887</ele>
        <time>2018-05-26T15:05:49Z</time>
      </trkpt>
      <trkpt lat="43.86943" lon="6.51076">
        <ele>887</ele>
        <time>2018-05-26T15:05:50Z</time>
      </trkpt>
      <trkpt lat="43.86942" lon="6.51077">
        <ele>887</ele>
        <time>2018-05-26T15:06:01Z</time>
      </trkpt>
      <trkpt lat="43.86941" lon="6.51078">
        <ele>887</ele>
        <time>2018-05-26T15:06:25Z</time>
      </trkpt>
      <trkpt lat="43.86942" lon="6.51077">
        <ele>887</ele>
        <time>2018-05-26T15:06:55Z</time>
      </trkpt>
      <trkpt lat="43.86944" lon="6.51078">
        <ele>887</ele>
        <time>2018-05-26T15:07:24Z</time>
      </trkpt>
      <trkpt lat="43.86944" lon="6.51078">
        <ele>888</ele>
        <time>2018-05-26T15:07:58Z</time>
      </trkpt>
      <trkpt lat="43.86945" lon="6.51078">
        <ele>888</ele>
        <time>2018-05-26T15:08:28Z</time>
      </trkpt>
      <trkpt lat="43.86946" lon="6.51079">
        <ele>888</ele>
        <time>2018-05-26T15:08:40Z</time>
      </trkpt>
      <trkpt lat="43.86943" lon="6.51079">
        <ele>887</ele>
        <time>2018-05-26T15:09:01Z</time>
      </trkpt>
      <trkpt lat="43.86941" lon="6.5108">
        <ele>887</ele>
        <time>2018-05-26T15:09:02Z</time>
      </trkpt>
      <trkpt lat="43.86933" lon="6.51085">
        <ele>886</ele>
        <time>2018-05-26T15:09:06Z</time>
      </trkpt>
      <trkpt lat="43.86933" lon="6.51088">
        <ele>886</ele>
        <time>2018-05-26T15:09:07Z</time>
      </trkpt>
      <trkpt lat="43.86932" lon="6.51091">
        <ele>886</ele>
        <time>2018-05-26T15:09:08Z</time>
      </trkpt>
      <trkpt lat="43.8693" lon="6.51095">
        <ele>886</ele>
        <time>2018-05-26T15:09:09Z</time>
      </trkpt>
      <trkpt lat="43.86928" lon="6.51097">
        <ele>885</ele>
        <time>2018-05-26T15:09:10Z</time>
      </trkpt>
      <trkpt lat="43.86926" lon="6.511">
        <ele>885</ele>
        <time>2018-05-26T15:09:11Z</time>
      </trkpt>
      <trkpt lat="43.86924" lon="6.51102">
        <ele>885</ele>
        <time>2018-05-26T15:09:12Z</time>
      </trkpt>
      <trkpt lat="43.86923" lon="6.51105">
        <ele>885</ele>
        <time>2018-05-26T15:09:13Z</time>
      </trkpt>
      <trkpt lat="43.86921" lon="6.51109">
        <ele>885</ele>
        <time>2018-05-26T15:09:14Z</time>
      </trkpt>
      <trkpt lat="43.86919" lon="6.51112">
        <ele>885</ele>
        <time>2018-05-26T15:09:15Z</time>
      </trkpt>
      <trkpt lat="43.86918" lon="6.51116">
        <ele>885</ele>
        <time>2018-05-26T15:09:16Z</time>
      </trkpt>
      <trkpt lat="43.86917" lon="6.5112">
        <ele>885</ele>
        <time>2018-05-26T15:09:17Z</time>
      </trkpt>
      <trkpt lat="43.86915" lon="6.51124">
        <ele>885</ele>
        <time>2018-05-26T15:09:18Z</time>
      </trkpt>
      <trkpt lat="43.86894" lon="6.51145">
        <ele>889</ele>
        <time>2018-05-26T15:09:29Z</time>
      </trkpt>
      <trkpt lat="43.86884" lon="6.5115">
        <ele>889</ele>
        <time>2018-05-26T15:09:34Z</time>
      </trkpt>
      <trkpt lat="43.86883" lon="6.5115">
        <ele>889</ele>
        <time>2018-05-26T15:09:35Z</time>
      </trkpt>
      <trkpt lat="43.86881" lon="6.5115">
        <ele>889</ele>
        <time>2018-05-26T15:09:36Z</time>
      </trkpt>
      <trkpt lat="43.8688" lon="6.5115">
        <ele>889</ele>
        <time>2018-05-26T15:09:37Z</time>
      </trkpt>
      <trkpt lat="43.86877" lon="6.5115">
        <ele>888</ele>
        <time>2018-05-26T15:09:43Z</time>
      </trkpt>
      <trkpt lat="43.86875" lon="6.51149">
        <ele>888</ele>
        <time>2018-05-26T15:09:44Z</time>
      </trkpt>
      <trkpt lat="43.86874" lon="6.51149">
        <ele>888</ele>
        <time>2018-05-26T15:09:45Z</time>
      </trkpt>
      <trkpt lat="43.86872" lon="6.51149">
        <ele>888</ele>
        <time>2018-05-26T15:09:46Z</time>
      </trkpt>
      <trkpt lat="43.8687" lon="6.5115">
        <ele>889</ele>
        <time>2018-05-26T15:09:47Z</time>
      </trkpt>
      <trkpt lat="43.86868" lon="6.51151">
        <ele>889</ele>
        <time>2018-05-26T15:09:48Z</time>
      </trkpt>
      <trkpt lat="43.86866" lon="6.51152">
        <ele>889</ele>
        <time>2018-05-26T15:09:49Z</time>
      </trkpt>
      <trkpt lat="43.86863" lon="6.51153">
        <ele>890</ele>
        <time>2018-05-26T15:10:03Z</time>
      </trkpt>
      <trkpt lat="43.86864" lon="6.51152">
        <ele>890</ele>
        <time>2018-05-26T15:10:05Z</time>
      </trkpt>
      <trkpt lat="43.86866" lon="6.51152">
        <ele>889</ele>
        <time>2018-05-26T15:10:06Z</time>
      </trkpt>
      <trkpt lat="43.86867" lon="6.51151">
        <ele>889</ele>
        <time>2018-05-26T15:10:07Z</time>
      </trkpt>
      <trkpt lat="43.86868" lon="6.51148">
        <ele>888</ele>
        <time>2018-05-26T15:10:08Z</time>
      </trkpt>
      <trkpt lat="43.86868" lon="6.51147">
        <ele>888</ele>
        <time>2018-05-26T15:10:09Z</time>
      </trkpt>
      <trkpt lat="43.86866" lon="6.51147">
        <ele>888</ele>
        <time>2018-05-26T15:10:10Z</time>
      </trkpt>
      <trkpt lat="43.86864" lon="6.51146">
        <ele>887</ele>
        <time>2018-05-26T15:10:11Z</time>
      </trkpt>
      <trkpt lat="43.86861" lon="6.51144">
        <ele>887</ele>
        <time>2018-05-26T15:10:12Z</time>
      </trkpt>
      <trkpt lat="43.86858" lon="6.51142">
        <ele>886</ele>
        <time>2018-05-26T15:10:13Z</time>
      </trkpt>
      <trkpt lat="43.86854" lon="6.51139">
        <ele>885</ele>
        <time>2018-05-26T15:10:14Z</time>
      </trkpt>
      <trkpt lat="43.8685" lon="6.51136">
        <ele>885</ele>
        <time>2018-05-26T15:10:15Z</time>
      </trkpt>
      <trkpt lat="43.86846" lon="6.51131">
        <ele>883</ele>
        <time>2018-05-26T15:10:16Z</time>
      </trkpt>
      <trkpt lat="43.86842" lon="6.51127">
        <ele>882</ele>
        <time>2018-05-26T15:10:17Z</time>
      </trkpt>
      <trkpt lat="43.86817" lon="6.51094">
        <ele>876</ele>
        <time>2018-05-26T15:10:25Z</time>
      </trkpt>
      <trkpt lat="43.868" lon="6.51083">
        <ele>876</ele>
        <time>2018-05-26T15:10:29Z</time>
      </trkpt>
      <trkpt lat="43.86795" lon="6.51083">
        <ele>876</ele>
        <time>2018-05-26T15:10:30Z</time>
      </trkpt>
      <trkpt lat="43.8679" lon="6.51083">
        <ele>876</ele>
        <time>2018-05-26T15:10:31Z</time>
      </trkpt>
      <trkpt lat="43.86786" lon="6.51084">
        <ele>877</ele>
        <time>2018-05-26T15:10:32Z</time>
      </trkpt>
      <trkpt lat="43.86781" lon="6.51084">
        <ele>876</ele>
        <time>2018-05-26T15:10:33Z</time>
      </trkpt>
      <trkpt lat="43.86777" lon="6.51085">
        <ele>876</ele>
        <time>2018-05-26T15:10:34Z</time>
      </trkpt>
      <trkpt lat="43.86773" lon="6.51086">
        <ele>877</ele>
        <time>2018-05-26T15:10:35Z</time>
      </trkpt>
      <trkpt lat="43.8677" lon="6.51088">
        <ele>877</ele>
        <time>2018-05-26T15:10:36Z</time>
      </trkpt>
      <trkpt lat="43.86768" lon="6.51089">
        <ele>877</ele>
        <time>2018-05-26T15:10:37Z</time>
      </trkpt>
      <trkpt lat="43.86749" lon="6.51094">
        <ele>877</ele>
        <time>2018-05-26T15:10:49Z</time>
      </trkpt>
      <trkpt lat="43.86744" lon="6.51094">
        <ele>877</ele>
        <time>2018-05-26T15:10:53Z</time>
      </trkpt>
      <trkpt lat="43.86743" lon="6.51094">
        <ele>877</ele>
        <time>2018-05-26T15:10:54Z</time>
      </trkpt>
      <trkpt lat="43.86741" lon="6.51094">
        <ele>877</ele>
        <time>2018-05-26T15:10:55Z</time>
      </trkpt>
      <trkpt lat="43.86716" lon="6.51102">
        <ele>878</ele>
        <time>2018-05-26T15:11:10Z</time>
      </trkpt>
      <trkpt lat="43.86714" lon="6.51104">
        <ele>878</ele>
        <time>2018-05-26T15:11:11Z</time>
      </trkpt>
      <trkpt lat="43.86704" lon="6.51111">
        <ele>878</ele>
        <time>2018-05-26T15:11:15Z</time>
      </trkpt>
      <trkpt lat="43.86701" lon="6.5111">
        <ele>878</ele>
        <time>2018-05-26T15:11:16Z</time>
      </trkpt>
      <trkpt lat="43.86699" lon="6.51108">
        <ele>878</ele>
        <time>2018-05-26T15:11:17Z</time>
      </trkpt>
      <trkpt lat="43.86696" lon="6.51107">
        <ele>877</ele>
        <time>2018-05-26T15:11:18Z</time>
      </trkpt>
      <trkpt lat="43.86694" lon="6.51107">
        <ele>877</ele>
        <time>2018-05-26T15:11:19Z</time>
      </trkpt>
      <trkpt lat="43.86692" lon="6.51107">
        <ele>877</ele>
        <time>2018-05-26T15:11:20Z</time>
      </trkpt>
      <trkpt lat="43.86646" lon="6.51106">
        <ele>877</ele>
        <time>2018-05-26T15:11:36Z</time>
      </trkpt>
      <trkpt lat="43.86631" lon="6.51106">
        <ele>876</ele>
        <time>2018-05-26T15:11:39Z</time>
      </trkpt>
      <trkpt lat="43.86625" lon="6.51107">
        <ele>876</ele>
        <time>2018-05-26T15:11:40Z</time>
      </trkpt>
      <trkpt lat="43.86539" lon="6.51117">
        <ele>869</ele>
        <time>2018-05-26T15:11:51Z</time>
      </trkpt>
      <trkpt lat="43.86521" lon="6.5112">
        <ele>870</ele>
        <time>2018-05-26T15:11:53Z</time>
      </trkpt>
      <trkpt lat="43.86514" lon="6.51124">
        <ele>870</ele>
        <time>2018-05-26T15:11:54Z</time>
      </trkpt>
      <trkpt lat="43.86507" lon="6.51128">
        <ele>871</ele>
        <time>2018-05-26T15:11:55Z</time>
      </trkpt>
      <trkpt lat="43.86501" lon="6.51132">
        <ele>872</ele>
        <time>2018-05-26T15:11:56Z</time>
      </trkpt>
      <trkpt lat="43.86494" lon="6.51135">
        <ele>872</ele>
        <time>2018-05-26T15:11:57Z</time>
      </trkpt>
      <trkpt lat="43.86483" lon="6.51142">
        <ele>873</ele>
        <time>2018-05-26T15:11:59Z</time>
      </trkpt>
      <trkpt lat="43.86429" lon="6.51177">
        <ele>869</ele>
        <time>2018-05-26T15:12:08Z</time>
      </trkpt>
      <trkpt lat="43.86423" lon="6.51183">
        <ele>868</ele>
        <time>2018-05-26T15:12:09Z</time>
      </trkpt>
      <trkpt lat="43.86418" lon="6.51189">
        <ele>869</ele>
        <time>2018-05-26T15:12:10Z</time>
      </trkpt>
      <trkpt lat="43.86406" lon="6.5121">
        <ele>871</ele>
        <time>2018-05-26T15:12:13Z</time>
      </trkpt>
      <trkpt lat="43.86399" lon="6.51224">
        <ele>873</ele>
        <time>2018-05-26T15:12:15Z</time>
      </trkpt>
      <trkpt lat="43.86395" lon="6.5123">
        <ele>873</ele>
        <time>2018-05-26T15:12:16Z</time>
      </trkpt>
      <trkpt lat="43.86382" lon="6.51245">
        <ele>874</ele>
        <time>2018-05-26T15:12:19Z</time>
      </trkpt>
      <trkpt lat="43.8633" lon="6.5129">
        <ele>866</ele>
        <time>2018-05-26T15:12:29Z</time>
      </trkpt>
      <trkpt lat="43.86325" lon="6.51297">
        <ele>866</ele>
        <time>2018-05-26T15:12:30Z</time>
      </trkpt>
      <trkpt lat="43.8627" lon="6.51368">
        <ele>866</ele>
        <time>2018-05-26T15:12:40Z</time>
      </trkpt>
      <trkpt lat="43.86264" lon="6.51369">
        <ele>866</ele>
        <time>2018-05-26T15:12:41Z</time>
      </trkpt>
      <trkpt lat="43.86246" lon="6.5137">
        <ele>864</ele>
        <time>2018-05-26T15:12:44Z</time>
      </trkpt>
      <trkpt lat="43.86242" lon="6.51372">
        <ele>864</ele>
        <time>2018-05-26T15:12:45Z</time>
      </trkpt>
      <trkpt lat="43.86223" lon="6.51383">
        <ele>864</ele>
        <time>2018-05-26T15:12:49Z</time>
      </trkpt>
      <trkpt lat="43.86219" lon="6.51388">
        <ele>865</ele>
        <time>2018-05-26T15:12:50Z</time>
      </trkpt>
      <trkpt lat="43.86213" lon="6.51398">
        <ele>866</ele>
        <time>2018-05-26T15:12:52Z</time>
      </trkpt>
      <trkpt lat="43.8621" lon="6.51401">
        <ele>866</ele>
        <time>2018-05-26T15:12:53Z</time>
      </trkpt>
      <trkpt lat="43.86176" lon="6.51422">
        <ele>864</ele>
        <time>2018-05-26T15:13:06Z</time>
      </trkpt>
      <trkpt lat="43.86174" lon="6.51423">
        <ele>864</ele>
        <time>2018-05-26T15:13:07Z</time>
      </trkpt>
      <trkpt lat="43.86172" lon="6.51423">
        <ele>863</ele>
        <time>2018-05-26T15:13:08Z</time>
      </trkpt>
      <trkpt lat="43.86171" lon="6.51424">
        <ele>863</ele>
        <time>2018-05-26T15:13:09Z</time>
      </trkpt>
      <trkpt lat="43.86169" lon="6.51425">
        <ele>863</ele>
        <time>2018-05-26T15:13:10Z</time>
      </trkpt>
      <trkpt lat="43.86167" lon="6.51426">
        <ele>863</ele>
        <time>2018-05-26T15:13:11Z</time>
      </trkpt>
      <trkpt lat="43.86164" lon="6.51427">
        <ele>862</ele>
        <time>2018-05-26T15:13:12Z</time>
      </trkpt>
      <trkpt lat="43.86161" lon="6.51428">
        <ele>862</ele>
        <time>2018-05-26T15:13:13Z</time>
      </trkpt>
      <trkpt lat="43.86158" lon="6.5143">
        <ele>861</ele>
        <time>2018-05-26T15:13:14Z</time>
      </trkpt>
      <trkpt lat="43.86154" lon="6.51432">
        <ele>861</ele>
        <time>2018-05-26T15:13:15Z</time>
      </trkpt>
      <trkpt lat="43.86151" lon="6.51434">
        <ele>861</ele>
        <time>2018-05-26T15:13:16Z</time>
      </trkpt>
      <trkpt lat="43.86147" lon="6.51437">
        <ele>860</ele>
        <time>2018-05-26T15:13:17Z</time>
      </trkpt>
      <trkpt lat="43.86144" lon="6.51441">
        <ele>860</ele>
        <time>2018-05-26T15:13:18Z</time>
      </trkpt>
      <trkpt lat="43.8614" lon="6.51445">
        <ele>860</ele>
        <time>2018-05-26T15:13:19Z</time>
      </trkpt>
      <trkpt lat="43.86136" lon="6.5145">
        <ele>860</ele>
        <time>2018-05-26T15:13:20Z</time>
      </trkpt>
      <trkpt lat="43.86132" lon="6.51455">
        <ele>859</ele>
        <time>2018-05-26T15:13:21Z</time>
      </trkpt>
      <trkpt lat="43.86128" lon="6.51459">
        <ele>859</ele>
        <time>2018-05-26T15:13:22Z</time>
      </trkpt>
      <trkpt lat="43.86124" lon="6.51465">
        <ele>858</ele>
        <time>2018-05-26T15:13:23Z</time>
      </trkpt>
      <trkpt lat="43.86114" lon="6.51476">
        <ele>857</ele>
        <time>2018-05-26T15:13:25Z</time>
      </trkpt>
      <trkpt lat="43.86109" lon="6.51482">
        <ele>857</ele>
        <time>2018-05-26T15:13:26Z</time>
      </trkpt>
      <trkpt lat="43.86105" lon="6.51489">
        <ele>856</ele>
        <time>2018-05-26T15:13:27Z</time>
      </trkpt>
      <trkpt lat="43.861" lon="6.51495">
        <ele>856</ele>
        <time>2018-05-26T15:13:28Z</time>
      </trkpt>
      <trkpt lat="43.86096" lon="6.51502">
        <ele>855</ele>
        <time>2018-05-26T15:13:29Z</time>
      </trkpt>
      <trkpt lat="43.86093" lon="6.51508">
        <ele>855</ele>
        <time>2018-05-26T15:13:30Z</time>
      </trkpt>
      <trkpt lat="43.86089" lon="6.51515">
        <ele>855</ele>
        <time>2018-05-26T15:13:31Z</time>
      </trkpt>
      <trkpt lat="43.86076" lon="6.51536">
        <ele>855</ele>
        <time>2018-05-26T15:13:34Z</time>
      </trkpt>
      <trkpt lat="43.86065" lon="6.5155">
        <ele>854</ele>
        <time>2018-05-26T15:13:36Z</time>
      </trkpt>
      <trkpt lat="43.86059" lon="6.51555">
        <ele>853</ele>
        <time>2018-05-26T15:13:37Z</time>
      </trkpt>
      <trkpt lat="43.86053" lon="6.5156">
        <ele>853</ele>
        <time>2018-05-26T15:13:38Z</time>
      </trkpt>
      <trkpt lat="43.86046" lon="6.51563">
        <ele>855</ele>
        <time>2018-05-26T15:13:39Z</time>
      </trkpt>
      <trkpt lat="43.8604" lon="6.51566">
        <ele>856</ele>
        <time>2018-05-26T15:13:40Z</time>
      </trkpt>
      <trkpt lat="43.86034" lon="6.51566">
        <ele>857</ele>
        <time>2018-05-26T15:13:41Z</time>
      </trkpt>
      <trkpt lat="43.86028" lon="6.51564">
        <ele>858</ele>
        <time>2018-05-26T15:13:42Z</time>
      </trkpt>
      <trkpt lat="43.86025" lon="6.51559">
        <ele>857</ele>
        <time>2018-05-26T15:13:43Z</time>
      </trkpt>
      <trkpt lat="43.86022" lon="6.51553">
        <ele>856</ele>
        <time>2018-05-26T15:13:44Z</time>
      </trkpt>
      <trkpt lat="43.86019" lon="6.51546">
        <ele>855</ele>
        <time>2018-05-26T15:13:45Z</time>
      </trkpt>
      <trkpt lat="43.86017" lon="6.51539">
        <ele>854</ele>
        <time>2018-05-26T15:13:46Z</time>
      </trkpt>
      <trkpt lat="43.86014" lon="6.51531">
        <ele>852</ele>
        <time>2018-05-26T15:13:47Z</time>
      </trkpt>
      <trkpt lat="43.86009" lon="6.51526">
        <ele>851</ele>
        <time>2018-05-26T15:13:48Z</time>
      </trkpt>
      <trkpt lat="43.86003" lon="6.51521">
        <ele>851</ele>
        <time>2018-05-26T15:13:49Z</time>
      </trkpt>
      <trkpt lat="43.85984" lon="6.51511">
        <ele>850</ele>
        <time>2018-05-26T15:13:53Z</time>
      </trkpt>
      <trkpt lat="43.85981" lon="6.51507">
        <ele>850</ele>
        <time>2018-05-26T15:13:54Z</time>
      </trkpt>
      <trkpt lat="43.85978" lon="6.51502">
        <ele>849</ele>
        <time>2018-05-26T15:13:55Z</time>
      </trkpt>
      <trkpt lat="43.85975" lon="6.51497">
        <ele>848</ele>
        <time>2018-05-26T15:13:56Z</time>
      </trkpt>
      <trkpt lat="43.85972" lon="6.51491">
        <ele>847</ele>
        <time>2018-05-26T15:13:57Z</time>
      </trkpt>
      <trkpt lat="43.85962" lon="6.51472">
        <ele>845</ele>
        <time>2018-05-26T15:14:00Z</time>
      </trkpt>
      <trkpt lat="43.85958" lon="6.51467">
        <ele>844</ele>
        <time>2018-05-26T15:14:01Z</time>
      </trkpt>
      <trkpt lat="43.85954" lon="6.51464">
        <ele>844</ele>
        <time>2018-05-26T15:14:02Z</time>
      </trkpt>
      <trkpt lat="43.8595" lon="6.5146">
        <ele>844</ele>
        <time>2018-05-26T15:14:03Z</time>
      </trkpt>
      <trkpt lat="43.85946" lon="6.51457">
        <ele>843</ele>
        <time>2018-05-26T15:14:04Z</time>
      </trkpt>
      <trkpt lat="43.85942" lon="6.51454">
        <ele>843</ele>
        <time>2018-05-26T15:14:05Z</time>
      </trkpt>
      <trkpt lat="43.85938" lon="6.51452">
        <ele>843</ele>
        <time>2018-05-26T15:14:06Z</time>
      </trkpt>
      <trkpt lat="43.85933" lon="6.51451">
        <ele>843</ele>
        <time>2018-05-26T15:14:07Z</time>
      </trkpt>
      <trkpt lat="43.85906" lon="6.5144">
        <ele>842</ele>
        <time>2018-05-26T15:14:12Z</time>
      </trkpt>
      <trkpt lat="43.859" lon="6.51439">
        <ele>841</ele>
        <time>2018-05-26T15:14:13Z</time>
      </trkpt>
      <trkpt lat="43.85894" lon="6.51439">
        <ele>841</ele>
        <time>2018-05-26T15:14:14Z</time>
      </trkpt>
      <trkpt lat="43.85888" lon="6.51438">
        <ele>841</ele>
        <time>2018-05-26T15:14:15Z</time>
      </trkpt>
      <trkpt lat="43.85882" lon="6.51436">
        <ele>840</ele>
        <time>2018-05-26T15:14:16Z</time>
      </trkpt>
      <trkpt lat="43.85877" lon="6.51434">
        <ele>840</ele>
        <time>2018-05-26T15:14:17Z</time>
      </trkpt>
      <trkpt lat="43.85872" lon="6.51431">
        <ele>839</ele>
        <time>2018-05-26T15:14:18Z</time>
      </trkpt>
      <trkpt lat="43.85867" lon="6.51428">
        <ele>839</ele>
        <time>2018-05-26T15:14:19Z</time>
      </trkpt>
      <trkpt lat="43.85863" lon="6.51424">
        <ele>838</ele>
        <time>2018-05-26T15:14:20Z</time>
      </trkpt>
      <trkpt lat="43.85858" lon="6.5142">
        <ele>838</ele>
        <time>2018-05-26T15:14:21Z</time>
      </trkpt>
      <trkpt lat="43.85822" lon="6.51382">
        <ele>835</ele>
        <time>2018-05-26T15:14:30Z</time>
      </trkpt>
      <trkpt lat="43.85818" lon="6.51369">
        <ele>834</ele>
        <time>2018-05-26T15:14:36Z</time>
      </trkpt>
      <trkpt lat="43.85817" lon="6.51367">
        <ele>833</ele>
        <time>2018-05-26T15:14:37Z</time>
      </trkpt>
      <trkpt lat="43.85816" lon="6.51368">
        <ele>834</ele>
        <time>2018-05-26T15:14:45Z</time>
      </trkpt>
      <trkpt lat="43.85817" lon="6.51371">
        <ele>834</ele>
        <time>2018-05-26T15:14:58Z</time>
      </trkpt>
      <trkpt lat="43.85819" lon="6.51368">
        <ele>833</ele>
        <time>2018-05-26T15:15:17Z</time>
      </trkpt>
      <trkpt lat="43.85819" lon="6.51365">
        <ele>833</ele>
        <time>2018-05-26T15:15:18Z</time>
      </trkpt>
      <trkpt lat="43.85816" lon="6.51341">
        <ele>831</ele>
        <time>2018-05-26T15:15:28Z</time>
      </trkpt>
      <trkpt lat="43.85813" lon="6.51341">
        <ele>831</ele>
        <time>2018-05-26T15:15:44Z</time>
      </trkpt>
      <trkpt lat="43.85812" lon="6.5134">
        <ele>831</ele>
        <time>2018-05-26T15:15:45Z</time>
      </trkpt>
      <trkpt lat="43.85811" lon="6.51338">
        <ele>831</ele>
        <time>2018-05-26T15:15:46Z</time>
      </trkpt>
      <trkpt lat="43.85792" lon="6.51313">
        <ele>827</ele>
        <time>2018-05-26T15:15:57Z</time>
      </trkpt>
      <trkpt lat="43.85785" lon="6.5128">
        <ele>823</ele>
        <time>2018-05-26T15:16:10Z</time>
      </trkpt>
      <trkpt lat="43.8577" lon="6.51237">
        <ele>821</ele>
        <time>2018-05-26T15:16:22Z</time>
      </trkpt>
      <trkpt lat="43.8575" lon="6.51201">
        <ele>821</ele>
        <time>2018-05-26T15:16:35Z</time>
      </trkpt>
      <trkpt lat="43.85742" lon="6.51186">
        <ele>820</ele>
        <time>2018-05-26T15:16:41Z</time>
      </trkpt>
      <trkpt lat="43.85741" lon="6.51184">
        <ele>820</ele>
        <time>2018-05-26T15:16:42Z</time>
      </trkpt>
      <trkpt lat="43.85739" lon="6.51182">
        <ele>820</ele>
        <time>2018-05-26T15:16:43Z</time>
      </trkpt>
      <trkpt lat="43.85738" lon="6.5118">
        <ele>819</ele>
        <time>2018-05-26T15:16:44Z</time>
      </trkpt>
      <trkpt lat="43.85736" lon="6.51179">
        <ele>819</ele>
        <time>2018-05-26T15:16:45Z</time>
      </trkpt>
      <trkpt lat="43.85735" lon="6.51178">
        <ele>819</ele>
        <time>2018-05-26T15:16:46Z</time>
      </trkpt>
      <trkpt lat="43.85733" lon="6.51179">
        <ele>819</ele>
        <time>2018-05-26T15:16:47Z</time>
      </trkpt>
      <trkpt lat="43.85732" lon="6.51179">
        <ele>819</ele>
        <time>2018-05-26T15:16:48Z</time>
      </trkpt>
      <trkpt lat="43.85702" lon="6.51187">
        <ele>818</ele>
        <time>2018-05-26T15:17:01Z</time>
      </trkpt>
      <trkpt lat="43.85687" lon="6.51187">
        <ele>816</ele>
        <time>2018-05-26T15:17:07Z</time>
      </trkpt>
      <trkpt lat="43.85683" lon="6.51183">
        <ele>815</ele>
        <time>2018-05-26T15:17:08Z</time>
      </trkpt>
      <trkpt lat="43.85678" lon="6.51178">
        <ele>814</ele>
        <time>2018-05-26T15:17:09Z</time>
      </trkpt>
      <trkpt lat="43.85673" lon="6.51172">
        <ele>813</ele>
        <time>2018-05-26T15:17:10Z</time>
      </trkpt>
      <trkpt lat="43.85668" lon="6.51166">
        <ele>811</ele>
        <time>2018-05-26T15:17:11Z</time>
      </trkpt>
      <trkpt lat="43.8565" lon="6.51142">
        <ele>805</ele>
        <time>2018-05-26T15:17:14Z</time>
      </trkpt>
      <trkpt lat="43.85643" lon="6.51134">
        <ele>803</ele>
        <time>2018-05-26T15:17:15Z</time>
      </trkpt>
      <trkpt lat="43.85634" lon="6.51128">
        <ele>801</ele>
        <time>2018-05-26T15:17:16Z</time>
      </trkpt>
      <trkpt lat="43.85625" lon="6.51123">
        <ele>800</ele>
        <time>2018-05-26T15:17:17Z</time>
      </trkpt>
      <trkpt lat="43.85615" lon="6.51122">
        <ele>798</ele>
        <time>2018-05-26T15:17:18Z</time>
      </trkpt>
      <trkpt lat="43.85605" lon="6.51123">
        <ele>797</ele>
        <time>2018-05-26T15:17:19Z</time>
      </trkpt>
      <trkpt lat="43.85595" lon="6.51124">
        <ele>796</ele>
        <time>2018-05-26T15:17:20Z</time>
      </trkpt>
      <trkpt lat="43.85585" lon="6.51126">
        <ele>795</ele>
        <time>2018-05-26T15:17:21Z</time>
      </trkpt>
      <trkpt lat="43.85573" lon="6.51126">
        <ele>794</ele>
        <time>2018-05-26T15:17:22Z</time>
      </trkpt>
      <trkpt lat="43.8556" lon="6.51125">
        <ele>792</ele>
        <time>2018-05-26T15:17:23Z</time>
      </trkpt>
      <trkpt lat="43.85438" lon="6.51106">
        <ele>775</ele>
        <time>2018-05-26T15:17:32Z</time>
      </trkpt>
      <trkpt lat="43.85425" lon="6.51102">
        <ele>774</ele>
        <time>2018-05-26T15:17:33Z</time>
      </trkpt>
      <trkpt lat="43.85412" lon="6.51095">
        <ele>773</ele>
        <time>2018-05-26T15:17:34Z</time>
      </trkpt>
      <trkpt lat="43.85363" lon="6.51064">
        <ele>767</ele>
        <time>2018-05-26T15:17:38Z</time>
      </trkpt>
      <trkpt lat="43.85352" lon="6.51055">
        <ele>765</ele>
        <time>2018-05-26T15:17:39Z</time>
      </trkpt>
      <trkpt lat="43.85271" lon="6.50982">
        <ele>756</ele>
        <time>2018-05-26T15:17:48Z</time>
      </trkpt>
      <trkpt lat="43.85265" lon="6.50976">
        <ele>756</ele>
        <time>2018-05-26T15:17:49Z</time>
      </trkpt>
      <trkpt lat="43.85244" lon="6.50953">
        <ele>754</ele>
        <time>2018-05-26T15:17:55Z</time>
      </trkpt>
      <trkpt lat="43.85201" lon="6.50901">
        <ele>752</ele>
        <time>2018-05-26T15:18:05Z</time>
      </trkpt>
      <trkpt lat="43.85191" lon="6.50893">
        <ele>752</ele>
        <time>2018-05-26T15:18:07Z</time>
      </trkpt>
      <trkpt lat="43.85174" lon="6.50872">
        <ele>752</ele>
        <time>2018-05-26T15:18:11Z</time>
      </trkpt>
      <trkpt lat="43.85165" lon="6.50859">
        <ele>751</ele>
        <time>2018-05-26T15:18:13Z</time>
      </trkpt>
      <trkpt lat="43.8516" lon="6.50854">
        <ele>751</ele>
        <time>2018-05-26T15:18:14Z</time>
      </trkpt>
      <trkpt lat="43.85143" lon="6.5083">
        <ele>749</ele>
        <time>2018-05-26T15:18:21Z</time>
      </trkpt>
      <trkpt lat="43.85143" lon="6.50828">
        <ele>749</ele>
        <time>2018-05-26T15:18:22Z</time>
      </trkpt>
      <trkpt lat="43.85143" lon="6.50826">
        <ele>748</ele>
        <time>2018-05-26T15:18:23Z</time>
      </trkpt>
      <trkpt lat="43.85142" lon="6.50825">
        <ele>748</ele>
        <time>2018-05-26T15:18:24Z</time>
      </trkpt>
      <trkpt lat="43.85141" lon="6.50824">
        <ele>748</ele>
        <time>2018-05-26T15:18:25Z</time>
      </trkpt>
      <trkpt lat="43.8514" lon="6.50822">
        <ele>748</ele>
        <time>2018-05-26T15:18:26Z</time>
      </trkpt>
      <trkpt lat="43.8514" lon="6.5082">
        <ele>748</ele>
        <time>2018-05-26T15:18:27Z</time>
      </trkpt>
      <trkpt lat="43.85138" lon="6.50819">
        <ele>747</ele>
        <time>2018-05-26T15:18:28Z</time>
      </trkpt>
      <trkpt lat="43.85136" lon="6.50817">
        <ele>747</ele>
        <time>2018-05-26T15:18:29Z</time>
      </trkpt>
      <trkpt lat="43.85133" lon="6.50816">
        <ele>747</ele>
        <time>2018-05-26T15:18:30Z</time>
      </trkpt>
      <trkpt lat="43.8512" lon="6.50811">
        <ele>745</ele>
        <time>2018-05-26T15:18:41Z</time>
      </trkpt>
      <trkpt lat="43.85119" lon="6.50808">
        <ele>744</ele>
        <time>2018-05-26T15:19:05Z</time>
      </trkpt>
      <trkpt lat="43.85114" lon="6.50796">
        <ele>742</ele>
        <time>2018-05-26T15:19:10Z</time>
      </trkpt>
      <trkpt lat="43.85112" lon="6.50796">
        <ele>742</ele>
        <time>2018-05-26T15:19:11Z</time>
      </trkpt>
      <trkpt lat="43.8511" lon="6.50798">
        <ele>742</ele>
        <time>2018-05-26T15:19:17Z</time>
      </trkpt>
      <trkpt lat="43.85108" lon="6.50798">
        <ele>741</ele>
        <time>2018-05-26T15:19:18Z</time>
      </trkpt>
      <trkpt lat="43.85106" lon="6.50798">
        <ele>741</ele>
        <time>2018-05-26T15:19:19Z</time>
      </trkpt>
      <trkpt lat="43.85103" lon="6.50796">
        <ele>741</ele>
        <time>2018-05-26T15:19:20Z</time>
      </trkpt>
      <trkpt lat="43.851" lon="6.50793">
        <ele>740</ele>
        <time>2018-05-26T15:19:21Z</time>
      </trkpt>
      <trkpt lat="43.85094" lon="6.50787">
        <ele>740</ele>
        <time>2018-05-26T15:19:23Z</time>
      </trkpt>
      <trkpt lat="43.85088" lon="6.50781">
        <ele>739</ele>
        <time>2018-05-26T15:19:26Z</time>
      </trkpt>
      <trkpt lat="43.85084" lon="6.50774">
        <ele>739</ele>
        <time>2018-05-26T15:19:38Z</time>
      </trkpt>
      <trkpt lat="43.85086" lon="6.50776">
        <ele>739</ele>
        <time>2018-05-26T15:19:40Z</time>
      </trkpt>
      <trkpt lat="43.85089" lon="6.5078">
        <ele>739</ele>
        <time>2018-05-26T15:19:47Z</time>
      </trkpt>
      <trkpt lat="43.85106" lon="6.50796">
        <ele>741</ele>
        <time>2018-05-26T15:20:03Z</time>
      </trkpt>
      <trkpt lat="43.85103" lon="6.50805">
        <ele>742</ele>
        <time>2018-05-26T15:20:08Z</time>
      </trkpt>
      <trkpt lat="43.85101" lon="6.50806">
        <ele>742</ele>
        <time>2018-05-26T15:20:09Z</time>
      </trkpt>
      <trkpt lat="43.85099" lon="6.50807">
        <ele>742</ele>
        <time>2018-05-26T15:20:10Z</time>
      </trkpt>
      <trkpt lat="43.85097" lon="6.50809">
        <ele>742</ele>
        <time>2018-05-26T15:20:11Z</time>
      </trkpt>
      <trkpt lat="43.85045" lon="6.50836">
        <ele>743</ele>
        <time>2018-05-26T15:20:25Z</time>
      </trkpt>
      <trkpt lat="43.84968" lon="6.50876">
        <ele>740</ele>
        <time>2018-05-26T15:20:39Z</time>
      </trkpt>
      <trkpt lat="43.84906" lon="6.50909">
        <ele>738</ele>
        <time>2018-05-26T15:20:47Z</time>
      </trkpt>
      <trkpt lat="43.84899" lon="6.50915">
        <ele>738</ele>
        <time>2018-05-26T15:20:48Z</time>
      </trkpt>
      <trkpt lat="43.84892" lon="6.50922">
        <ele>739</ele>
        <time>2018-05-26T15:20:49Z</time>
      </trkpt>
      <trkpt lat="43.84886" lon="6.50929">
        <ele>739</ele>
        <time>2018-05-26T15:20:50Z</time>
      </trkpt>
      <trkpt lat="43.8488" lon="6.50937">
        <ele>739</ele>
        <time>2018-05-26T15:20:51Z</time>
      </trkpt>
      <trkpt lat="43.84874" lon="6.50946">
        <ele>739</ele>
        <time>2018-05-26T15:20:52Z</time>
      </trkpt>
      <trkpt lat="43.84869" lon="6.50955">
        <ele>739</ele>
        <time>2018-05-26T15:20:53Z</time>
      </trkpt>
      <trkpt lat="43.84805" lon="6.51088">
        <ele>734</ele>
        <time>2018-05-26T15:21:08Z</time>
      </trkpt>
      <trkpt lat="43.84798" lon="6.51105">
        <ele>734</ele>
        <time>2018-05-26T15:21:10Z</time>
      </trkpt>
      <trkpt lat="43.84772" lon="6.51192">
        <ele>735</ele>
        <time>2018-05-26T15:21:22Z</time>
      </trkpt>
      <trkpt lat="43.84768" lon="6.51197">
        <ele>735</ele>
        <time>2018-05-26T15:21:23Z</time>
      </trkpt>
      <trkpt lat="43.84764" lon="6.51198">
        <ele>734</ele>
        <time>2018-05-26T15:21:24Z</time>
      </trkpt>
      <trkpt lat="43.84759" lon="6.512">
        <ele>734</ele>
        <time>2018-05-26T15:21:25Z</time>
      </trkpt>
      <trkpt lat="43.84754" lon="6.51202">
        <ele>734</ele>
        <time>2018-05-26T15:21:26Z</time>
      </trkpt>
      <trkpt lat="43.84749" lon="6.51203">
        <ele>733</ele>
        <time>2018-05-26T15:21:27Z</time>
      </trkpt>
      <trkpt lat="43.84743" lon="6.51204">
        <ele>733</ele>
        <time>2018-05-26T15:21:28Z</time>
      </trkpt>
      <trkpt lat="43.84725" lon="6.51208">
        <ele>732</ele>
        <time>2018-05-26T15:21:31Z</time>
      </trkpt>
      <trkpt lat="43.8472" lon="6.51211">
        <ele>731</ele>
        <time>2018-05-26T15:21:32Z</time>
      </trkpt>
      <trkpt lat="43.84714" lon="6.51214">
        <ele>731</ele>
        <time>2018-05-26T15:21:33Z</time>
      </trkpt>
      <trkpt lat="43.84691" lon="6.51232">
        <ele>730</ele>
        <time>2018-05-26T15:21:38Z</time>
      </trkpt>
      <trkpt lat="43.84686" lon="6.51236">
        <ele>730</ele>
        <time>2018-05-26T15:21:39Z</time>
      </trkpt>
      <trkpt lat="43.84647" lon="6.51251">
        <ele>729</ele>
        <time>2018-05-26T15:21:50Z</time>
      </trkpt>
      <trkpt lat="43.84613" lon="6.51235">
        <ele>728</ele>
        <time>2018-05-26T15:22:03Z</time>
      </trkpt>
      <trkpt lat="43.84612" lon="6.51232">
        <ele>728</ele>
        <time>2018-05-26T15:22:04Z</time>
      </trkpt>
      <trkpt lat="43.84612" lon="6.51226">
        <ele>728</ele>
        <time>2018-05-26T15:22:06Z</time>
      </trkpt>
      <trkpt lat="43.84609" lon="6.51224">
        <ele>727</ele>
        <time>2018-05-26T15:22:07Z</time>
      </trkpt>
      <trkpt lat="43.84606" lon="6.51223">
        <ele>727</ele>
        <time>2018-05-26T15:22:08Z</time>
      </trkpt>
      <trkpt lat="43.84559" lon="6.51209">
        <ele>723</ele>
        <time>2018-05-26T15:22:22Z</time>
      </trkpt>
      <trkpt lat="43.84516" lon="6.51187">
        <ele>721</ele>
        <time>2018-05-26T15:22:37Z</time>
      </trkpt>
      <trkpt lat="43.84508" lon="6.51131">
        <ele>722</ele>
        <time>2018-05-26T15:22:50Z</time>
      </trkpt>
      <trkpt lat="43.8449" lon="6.51058">
        <ele>723</ele>
        <time>2018-05-26T15:23:06Z</time>
      </trkpt>
      <trkpt lat="43.84475" lon="6.51">
        <ele>723</ele>
        <time>2018-05-26T15:23:18Z</time>
      </trkpt>
      <trkpt lat="43.84465" lon="6.50959">
        <ele>722</ele>
        <time>2018-05-26T15:23:26Z</time>
      </trkpt>
      <trkpt lat="43.84464" lon="6.50954">
        <ele>722</ele>
        <time>2018-05-26T15:23:27Z</time>
      </trkpt>
      <trkpt lat="43.84454" lon="6.50914">
        <ele>722</ele>
        <time>2018-05-26T15:23:34Z</time>
      </trkpt>
      <trkpt lat="43.84452" lon="6.50908">
        <ele>722</ele>
        <time>2018-05-26T15:23:35Z</time>
      </trkpt>
      <trkpt lat="43.84448" lon="6.50891">
        <ele>722</ele>
        <time>2018-05-26T15:23:38Z</time>
      </trkpt>
      <trkpt lat="43.84444" lon="6.50874">
        <ele>722</ele>
        <time>2018-05-26T15:23:41Z</time>
      </trkpt>
      <trkpt lat="43.84443" lon="6.50869">
        <ele>722</ele>
        <time>2018-05-26T15:23:42Z</time>
      </trkpt>
      <trkpt lat="43.8444" lon="6.50857">
        <ele>722</ele>
        <time>2018-05-26T15:23:44Z</time>
      </trkpt>
      <trkpt lat="43.84438" lon="6.50852">
        <ele>722</ele>
        <time>2018-05-26T15:23:45Z</time>
      </trkpt>
      <trkpt lat="43.84437" lon="6.50847">
        <ele>722</ele>
        <time>2018-05-26T15:23:46Z</time>
      </trkpt>
      <trkpt lat="43.84434" lon="6.50835">
        <ele>722</ele>
        <time>2018-05-26T15:23:48Z</time>
      </trkpt>
      <trkpt lat="43.8443" lon="6.50822">
        <ele>722</ele>
        <time>2018-05-26T15:23:50Z</time>
      </trkpt>
      <trkpt lat="43.84423" lon="6.50791">
        <ele>722</ele>
        <time>2018-05-26T15:23:55Z</time>
      </trkpt>
      <trkpt lat="43.84411" lon="6.50749">
        <ele>721</ele>
        <time>2018-05-26T15:24:02Z</time>
      </trkpt>
      <trkpt lat="43.84389" lon="6.50657">
        <ele>719</ele>
        <time>2018-05-26T15:24:18Z</time>
      </trkpt>
      <trkpt lat="43.84378" lon="6.50615">
        <ele>719</ele>
        <time>2018-05-26T15:24:25Z</time>
      </trkpt>
      <trkpt lat="43.84374" lon="6.50602">
        <ele>719</ele>
        <time>2018-05-26T15:24:27Z</time>
      </trkpt>
      <trkpt lat="43.84373" lon="6.50595">
        <ele>719</ele>
        <time>2018-05-26T15:24:28Z</time>
      </trkpt>
      <trkpt lat="43.84371" lon="6.50588">
        <ele>719</ele>
        <time>2018-05-26T15:24:29Z</time>
      </trkpt>
      <trkpt lat="43.84364" lon="6.50561">
        <ele>719</ele>
        <time>2018-05-26T15:24:33Z</time>
      </trkpt>
      <trkpt lat="43.8434" lon="6.50463">
        <ele>719</ele>
        <time>2018-05-26T15:24:48Z</time>
      </trkpt>
      <trkpt lat="43.84331" lon="6.5043">
        <ele>719</ele>
        <time>2018-05-26T15:24:54Z</time>
      </trkpt>
      <trkpt lat="43.84309" lon="6.50363">
        <ele>719</ele>
        <time>2018-05-26T15:25:07Z</time>
      </trkpt>
      <trkpt lat="43.84268" lon="6.50266">
        <ele>719</ele>
        <time>2018-05-26T15:25:21Z</time>
      </trkpt>
      <trkpt lat="43.84234" lon="6.50187">
        <ele>719</ele>
        <time>2018-05-26T15:25:33Z</time>
      </trkpt>
      <trkpt lat="43.84185" lon="6.50071">
        <ele>719</ele>
        <time>2018-05-26T15:25:51Z</time>
      </trkpt>
      <trkpt lat="43.84181" lon="6.50061">
        <ele>719</ele>
        <time>2018-05-26T15:25:53Z</time>
      </trkpt>
      <trkpt lat="43.84178" lon="6.50054">
        <ele>719</ele>
        <time>2018-05-26T15:25:54Z</time>
      </trkpt>
      <trkpt lat="43.84174" lon="6.50047">
        <ele>719</ele>
        <time>2018-05-26T15:25:55Z</time>
      </trkpt>
      <trkpt lat="43.84157" lon="6.50007">
        <ele>719</ele>
        <time>2018-05-26T15:26:02Z</time>
      </trkpt>
      <trkpt lat="43.84155" lon="6.5">
        <ele>719</ele>
        <time>2018-05-26T15:26:03Z</time>
      </trkpt>
      <trkpt lat="43.84135" lon="6.49956">
        <ele>719</ele>
        <time>2018-05-26T15:26:11Z</time>
      </trkpt>
      <trkpt lat="43.84108" lon="6.49891">
        <ele>719</ele>
        <time>2018-05-26T15:26:22Z</time>
      </trkpt>
      <trkpt lat="43.84067" lon="6.49797">
        <ele>719</ele>
        <time>2018-05-26T15:26:37Z</time>
      </trkpt>
      <trkpt lat="43.84031" lon="6.49713">
        <ele>719</ele>
        <time>2018-05-26T15:26:53Z</time>
      </trkpt>
      <trkpt lat="43.8401" lon="6.49663">
        <ele>719</ele>
        <time>2018-05-26T15:27:05Z</time>
      </trkpt>
      <trkpt lat="43.83985" lon="6.49605">
        <ele>719</ele>
        <time>2018-05-26T15:27:18Z</time>
      </trkpt>
      <trkpt lat="43.8397" lon="6.49567">
        <ele>718</ele>
        <time>2018-05-26T15:27:29Z</time>
      </trkpt>
      <trkpt lat="43.83976" lon="6.49549">
        <ele>718</ele>
        <time>2018-05-26T15:27:38Z</time>
      </trkpt>
      <trkpt lat="43.83971" lon="6.49545">
        <ele>718</ele>
        <time>2018-05-26T15:27:41Z</time>
      </trkpt>
      <trkpt lat="43.8396" lon="6.49502">
        <ele>717</ele>
        <time>2018-05-26T15:27:54Z</time>
      </trkpt>
      <trkpt lat="43.83952" lon="6.49463">
        <ele>717</ele>
        <time>2018-05-26T15:28:07Z</time>
      </trkpt>
      <trkpt lat="43.83915" lon="6.49452">
        <ele>717</ele>
        <time>2018-05-26T15:28:19Z</time>
      </trkpt>
      <trkpt lat="43.83866" lon="6.49451">
        <ele>717</ele>
        <time>2018-05-26T15:28:32Z</time>
      </trkpt>
      <trkpt lat="43.83817" lon="6.49455">
        <ele>716</ele>
        <time>2018-05-26T15:28:47Z</time>
      </trkpt>
      <trkpt lat="43.83783" lon="6.49466">
        <ele>715</ele>
        <time>2018-05-26T15:28:58Z</time>
      </trkpt>
      <trkpt lat="43.83775" lon="6.49486">
        <ele>716</ele>
        <time>2018-05-26T15:29:04Z</time>
      </trkpt>
      <trkpt lat="43.83778" lon="6.49533">
        <ele>717</ele>
        <time>2018-05-26T15:29:18Z</time>
      </trkpt>
      <trkpt lat="43.83782" lon="6.49571">
        <ele>718</ele>
        <time>2018-05-26T15:29:30Z</time>
      </trkpt>
      <trkpt lat="43.83778" lon="6.49579">
        <ele>719</ele>
        <time>2018-05-26T15:29:34Z</time>
      </trkpt>
      <trkpt lat="43.83773" lon="6.49581">
        <ele>719</ele>
        <time>2018-05-26T15:29:37Z</time>
      </trkpt>
      <trkpt lat="43.83768" lon="6.49572">
        <ele>719</ele>
        <time>2018-05-26T15:29:48Z</time>
      </trkpt>
      <trkpt lat="43.83767" lon="6.49572">
        <ele>719</ele>
        <time>2018-05-26T15:30:05Z</time>
      </trkpt>
    </trkseg>
  </trk>
</gpx>